<?xml version='1.0' encoding='UTF-8'?><gpx version="1.1" creator="JPX - https://github.com/jenetics/jpx" xmlns="http://www.topografix.com/GPX/1/1"><trk><trkseg><trkpt lat="43.93718230875793" lon="7.608309082787159"><ele>1196.0</ele><time>2026-04-12T09:53:28.999Z</time></trkpt><trkpt lat="43.93714382502482" lon="7.608235127422676"><ele>1196.0</ele><time>2026-04-12T09:53:29.999Z</time></trkpt><trkpt lat="43.9370939523951" lon="7.608180564462384"><ele>1196.0</ele><time>2026-04-12T09:53:30.999Z</time></trkpt><trkpt lat="43.9370312253681" lon="7.608108937342526"><ele>1196.0</ele><time>2026-04-12T09:53:31.999Z</time></trkpt><trkpt lat="43.93695429166764" lon="7.608038298920281"><ele>1196.0</ele><time>2026-04-12T09:53:32.999Z</time></trkpt><trkpt lat="43.93689112763994" lon="7.607953935593468"><ele>1196.0</ele><time>2026-04-12T09:53:33.999Z</time></trkpt><trkpt lat="43.93682440159278" lon="7.6078788360002765"><ele>1197.5</ele><time>2026-04-12T09:53:34.999Z</time></trkpt><trkpt lat="43.93675280399439" lon="7.6078184858540086"><ele>1199.0</ele><time>2026-04-12T09:53:35.999Z</time></trkpt><trkpt lat="43.93668830417862" lon="7.607734548033784"><ele>1200.5</ele><time>2026-04-12T09:53:36.999Z</time></trkpt><trkpt lat="43.93661376756467" lon="7.6076785786571826"><ele>1202.0</ele><time>2026-04-12T09:53:37.999Z</time></trkpt><trkpt lat="43.93653839885328" lon="7.6076527920369035"><ele>1203.5</ele><time>2026-04-12T09:53:38.999Z</time></trkpt><trkpt lat="43.93646396469796" lon="7.60760693316947"><ele>1205.0</ele><time>2026-04-12T09:53:39.999Z</time></trkpt><trkpt lat="43.93639251179006" lon="7.607573420524077"><ele>1205.0</ele><time>2026-04-12T09:53:40.999Z</time></trkpt><trkpt lat="43.93630777080068" lon="7.607562828282464"><ele>1205.0</ele><time>2026-04-12T09:53:41.998Z</time></trkpt><trkpt lat="43.93622513942211" lon="7.607540522596847"><ele>1205.0</ele><time>2026-04-12T09:53:42.998Z</time></trkpt><trkpt lat="43.93615018868192" lon="7.607522420547608"><ele>1205.0</ele><time>2026-04-12T09:53:43.998Z</time></trkpt><trkpt lat="43.93607821723571" lon="7.607495647741091"><ele>1205.0</ele><time>2026-04-12T09:53:44.998Z</time></trkpt><trkpt lat="43.93600896714564" lon="7.60747686875199"><ele>1205.0</ele><time>2026-04-12T09:53:45.998Z</time></trkpt><trkpt lat="43.935936745090295" lon="7.60746526413417"><ele>1202.4285714285716</ele><time>2026-04-12T09:53:46.998Z</time></trkpt><trkpt lat="43.93585560277039" lon="7.607449450408182"><ele>1199.857142857143</ele><time>2026-04-12T09:53:47.998Z</time></trkpt><trkpt lat="43.93578969824618" lon="7.607425654665017"><ele>1197.2857142857142</ele><time>2026-04-12T09:53:48.998Z</time></trkpt><trkpt lat="43.93571458821086" lon="7.607413912216933"><ele>1194.7142857142858</ele><time>2026-04-12T09:53:49.998Z</time></trkpt><trkpt lat="43.93564194022357" lon="7.607404727179538"><ele>1192.142857142857</ele><time>2026-04-12T09:53:50.998Z</time></trkpt><trkpt lat="43.93556593942525" lon="7.6073951182375685"><ele>1189.5714285714287</ele><time>2026-04-12T09:53:51.998Z</time></trkpt><trkpt lat="43.93549719687923" lon="7.607386426966744"><ele>1187.0</ele><time>2026-04-12T09:53:52.998Z</time></trkpt><trkpt lat="43.93542651347918" lon="7.60737605374729"><ele>1187.0</ele><time>2026-04-12T09:53:53.998Z</time></trkpt><trkpt lat="43.9353622518537" lon="7.607361339440434"><ele>1187.0</ele><time>2026-04-12T09:53:54.998Z</time></trkpt><trkpt lat="43.93526039083013" lon="7.6073247454259985"><ele>1187.0</ele><time>2026-04-12T09:53:56.998Z</time></trkpt><trkpt lat="43.93519210737836" lon="7.607291347670224"><ele>1187.0</ele><time>2026-04-12T09:53:57.998Z</time></trkpt><trkpt lat="43.93511896227607" lon="7.607253169138653"><ele>1187.0</ele><time>2026-04-12T09:53:58.998Z</time></trkpt><trkpt lat="43.935055111208" lon="7.60721984162589"><ele>1187.0</ele><time>2026-04-12T09:53:59.998Z</time></trkpt><trkpt lat="43.93498015192751" lon="7.607183685197384"><ele>1184.0</ele><time>2026-04-12T09:54:00.998Z</time></trkpt><trkpt lat="43.934899820318556" lon="7.607150554487985"><ele>1181.0</ele><time>2026-04-12T09:54:01.998Z</time></trkpt><trkpt lat="43.93481899767939" lon="7.6071279118605855"><ele>1178.0</ele><time>2026-04-12T09:54:02.998Z</time></trkpt><trkpt lat="43.93473507072668" lon="7.60710901502598"><ele>1175.0</ele><time>2026-04-12T09:54:03.998Z</time></trkpt><trkpt lat="43.93465464355284" lon="7.6070932767155295"><ele>1172.0</ele><time>2026-04-12T09:54:04.998Z</time></trkpt><trkpt lat="43.934572542283114" lon="7.607102257637066"><ele>1169.0</ele><time>2026-04-12T09:54:05.998Z</time></trkpt><trkpt lat="43.93449334995768" lon="7.607083115485388"><ele>1169.0</ele><time>2026-04-12T09:54:06.998Z</time></trkpt><trkpt lat="43.934413297973826" lon="7.607079097914665"><ele>1169.0</ele><time>2026-04-12T09:54:07.998Z</time></trkpt><trkpt lat="43.934328991112665" lon="7.607059120570015"><ele>1169.0</ele><time>2026-04-12T09:54:08.998Z</time></trkpt><trkpt lat="43.93425135065782" lon="7.607061545188584"><ele>1169.0</ele><time>2026-04-12T09:54:09.998Z</time></trkpt><trkpt lat="43.93418151436581" lon="7.607068122450754"><ele>1169.0</ele><time>2026-04-12T09:54:10.998Z</time></trkpt><trkpt lat="43.93410441976841" lon="7.607081854700026"><ele>1169.0</ele><time>2026-04-12T09:54:11.998Z</time></trkpt><trkpt lat="43.93403147960045" lon="7.607097755271278"><ele>1167.5</ele><time>2026-04-12T09:54:12.998Z</time></trkpt><trkpt lat="43.933924949620966" lon="7.607138616512507"><ele>1166.0</ele><time>2026-04-12T09:54:14.998Z</time></trkpt><trkpt lat="43.93385317934008" lon="7.607219741947351"><ele>1164.5</ele><time>2026-04-12T09:54:16.998Z</time></trkpt><trkpt lat="43.93386294962301" lon="7.6073066411151835"><ele>1163.0</ele><time>2026-04-12T09:54:17.998Z</time></trkpt><trkpt lat="43.93391941620706" lon="7.607365750211328"><ele>1161.5</ele><time>2026-04-12T09:54:18.998Z</time></trkpt><trkpt lat="43.934022923261765" lon="7.6073478277200115"><ele>1160.0</ele><time>2026-04-12T09:54:20.998Z</time></trkpt><trkpt lat="43.934138223543854" lon="7.607293851718743"><ele>1161.5</ele><time>2026-04-12T09:54:22.998Z</time></trkpt><trkpt lat="43.93424731955207" lon="7.607258297439193"><ele>1163.0</ele><time>2026-04-12T09:54:24.998Z</time></trkpt><trkpt lat="43.934347773215855" lon="7.607258299066869"><ele>1164.5</ele><time>2026-04-12T09:54:26.997Z</time></trkpt><trkpt lat="43.93441119735044" lon="7.607273968839166"><ele>1166.0</ele><time>2026-04-12T09:54:27.997Z</time></trkpt><trkpt lat="43.934474964202764" lon="7.607299669057004"><ele>1167.5</ele><time>2026-04-12T09:54:28.997Z</time></trkpt><trkpt lat="43.93453653445749" lon="7.607351379337545"><ele>1169.0</ele><time>2026-04-12T09:54:29.997Z</time></trkpt><trkpt lat="43.93459577269365" lon="7.607398431084298"><ele>1169.0</ele><time>2026-04-12T09:54:30.997Z</time></trkpt><trkpt lat="43.93464778711912" lon="7.607462477298981"><ele>1169.0</ele><time>2026-04-12T09:54:31.997Z</time></trkpt><trkpt lat="43.934703862099646" lon="7.60751460136525"><ele>1169.0</ele><time>2026-04-12T09:54:32.997Z</time></trkpt><trkpt lat="43.93476114012366" lon="7.607561490002947"><ele>1169.0</ele><time>2026-04-12T09:54:33.997Z</time></trkpt><trkpt lat="43.93482581180953" lon="7.607596083476083"><ele>1169.0</ele><time>2026-04-12T09:54:34.997Z</time></trkpt><trkpt lat="43.93488977052903" lon="7.607651992789052"><ele>1169.0</ele><time>2026-04-12T09:54:35.997Z</time></trkpt><trkpt lat="43.9349486714099" lon="7.607727698458749"><ele>1169.0</ele><time>2026-04-12T09:54:36.997Z</time></trkpt><trkpt lat="43.93500963675447" lon="7.607793103289148"><ele>1167.5</ele><time>2026-04-12T09:54:37.997Z</time></trkpt><trkpt lat="43.93506607680278" lon="7.607855935912092"><ele>1166.0</ele><time>2026-04-12T09:54:38.997Z</time></trkpt><trkpt lat="43.93512334867214" lon="7.607919656068862"><ele>1164.5</ele><time>2026-04-12T09:54:39.997Z</time></trkpt><trkpt lat="43.935197392979205" lon="7.607974804205029"><ele>1163.0</ele><time>2026-04-12T09:54:40.997Z</time></trkpt><trkpt lat="43.93525805200246" lon="7.608058954188071"><ele>1161.5</ele><time>2026-04-12T09:54:41.997Z</time></trkpt><trkpt lat="43.93532731944201" lon="7.608133657587479"><ele>1160.0</ele><time>2026-04-12T09:54:42.997Z</time></trkpt><trkpt lat="43.93539790654012" lon="7.6082108741909495"><ele>1160.0</ele><time>2026-04-12T09:54:43.997Z</time></trkpt><trkpt lat="43.93547124214179" lon="7.608280826347487"><ele>1160.0</ele><time>2026-04-12T09:54:44.997Z</time></trkpt><trkpt lat="43.935543854041214" lon="7.608347982503039"><ele>1160.0</ele><time>2026-04-12T09:54:45.997Z</time></trkpt><trkpt lat="43.935620116483854" lon="7.608393152996432"><ele>1160.0</ele><time>2026-04-12T09:54:46.997Z</time></trkpt><trkpt lat="43.93567703369402" lon="7.608460629580697"><ele>1160.0</ele><time>2026-04-12T09:54:47.997Z</time></trkpt><trkpt lat="43.93572796048546" lon="7.608534553998954"><ele>1160.0</ele><time>2026-04-12T09:54:48.997Z</time></trkpt><trkpt lat="43.93578893881278" lon="7.608590015552818"><ele>1160.0</ele><time>2026-04-12T09:54:50Z</time></trkpt><trkpt lat="43.93584887139892" lon="7.6086409436080995"><ele>1160.0</ele><time>2026-04-12T09:54:51Z</time></trkpt><trkpt lat="43.93591729474848" lon="7.608676835954147"><ele>1160.0</ele><time>2026-04-12T09:54:52Z</time></trkpt><trkpt lat="43.93597822167515" lon="7.608735788583422"><ele>1160.0</ele><time>2026-04-12T09:54:53Z</time></trkpt><trkpt lat="43.93604067729311" lon="7.608787497367413"><ele>1160.0</ele><time>2026-04-12T09:54:54Z</time></trkpt><trkpt lat="43.93610235476364" lon="7.608838561959053"><ele>1160.0</ele><time>2026-04-12T09:54:55Z</time></trkpt><trkpt lat="43.936164719846424" lon="7.608890195787578"><ele>1160.0</ele><time>2026-04-12T09:54:56Z</time></trkpt><trkpt lat="43.936229630816" lon="7.60894724192206"><ele>1158.3333333333335</ele><time>2026-04-12T09:54:57Z</time></trkpt><trkpt lat="43.9362838983334" lon="7.608997935944659"><ele>1156.6666666666667</ele><time>2026-04-12T09:54:58Z</time></trkpt><trkpt lat="43.936339592501234" lon="7.609056111820482"><ele>1155.0</ele><time>2026-04-12T09:54:59Z</time></trkpt><trkpt lat="43.93644209387117" lon="7.609183226060665"><ele>1153.3333333333333</ele><time>2026-04-12T09:55:01Z</time></trkpt><trkpt lat="43.93649391299744" lon="7.609262500716498"><ele>1151.6666666666665</ele><time>2026-04-12T09:55:02Z</time></trkpt><trkpt lat="43.93655222209605" lon="7.609348825377164"><ele>1150.0</ele><time>2026-04-12T09:55:03Z</time></trkpt><trkpt lat="43.936617099277804" lon="7.609436333177971"><ele>1149.0</ele><time>2026-04-12T09:55:04Z</time></trkpt><trkpt lat="43.93668712805203" lon="7.60952171985809"><ele>1148.0</ele><time>2026-04-12T09:55:05Z</time></trkpt><trkpt lat="43.93675823046177" lon="7.609600757117392"><ele>1147.0</ele><time>2026-04-12T09:55:06Z</time></trkpt><trkpt lat="43.93683270053494" lon="7.609681032574423"><ele>1146.0</ele><time>2026-04-12T09:55:07Z</time></trkpt><trkpt lat="43.936908718896724" lon="7.6097627068330285"><ele>1145.0</ele><time>2026-04-12T09:55:08Z</time></trkpt><trkpt lat="43.93698170446477" lon="7.609841921073895"><ele>1145.0</ele><time>2026-04-12T09:55:09Z</time></trkpt><trkpt lat="43.93705629920035" lon="7.609924373791345"><ele>1145.0</ele><time>2026-04-12T09:55:10Z</time></trkpt><trkpt lat="43.93713238473989" lon="7.610008474372576"><ele>1145.0</ele><time>2026-04-12T09:55:11Z</time></trkpt><trkpt lat="43.93721137193802" lon="7.610071521852353"><ele>1145.0</ele><time>2026-04-12T09:55:12Z</time></trkpt><trkpt lat="43.93727588373229" lon="7.610167320283083"><ele>1145.0</ele><time>2026-04-12T09:55:12.999Z</time></trkpt><trkpt lat="43.93734610523812" lon="7.61025055186314"><ele>1146.0</ele><time>2026-04-12T09:55:13.999Z</time></trkpt><trkpt lat="43.93743112543842" lon="7.610326036310154"><ele>1147.0</ele><time>2026-04-12T09:55:14.999Z</time></trkpt><trkpt lat="43.93750236110894" lon="7.610427062198559"><ele>1148.0</ele><time>2026-04-12T09:55:15.999Z</time></trkpt><trkpt lat="43.93758848078104" lon="7.610510495131448"><ele>1149.0</ele><time>2026-04-12T09:55:16.999Z</time></trkpt><trkpt lat="43.937657543915165" lon="7.610618476355903"><ele>1150.0</ele><time>2026-04-12T09:55:17.999Z</time></trkpt><trkpt lat="43.93772125366837" lon="7.610725403083886"><ele>1150.0</ele><time>2026-04-12T09:55:18.999Z</time></trkpt><trkpt lat="43.937782264172455" lon="7.610829327241162"><ele>1150.0</ele><time>2026-04-12T09:55:19.999Z</time></trkpt><trkpt lat="43.937846580473014" lon="7.610921748997372"><ele>1150.0</ele><time>2026-04-12T09:55:20.999Z</time></trkpt><trkpt lat="43.937908130580865" lon="7.611016748333571"><ele>1150.0</ele><time>2026-04-12T09:55:21.999Z</time></trkpt><trkpt lat="43.93796793857325" lon="7.611112438204864"><ele>1150.0</ele><time>2026-04-12T09:55:22.999Z</time></trkpt><trkpt lat="43.938031183859884" lon="7.611198460202698"><ele>1147.1666666666665</ele><time>2026-04-12T09:55:23.999Z</time></trkpt><trkpt lat="43.9381022214768" lon="7.6112751705450785"><ele>1144.3333333333333</ele><time>2026-04-12T09:55:24.999Z</time></trkpt><trkpt lat="43.93816166458467" lon="7.611367727263048"><ele>1141.5</ele><time>2026-04-12T09:55:25.999Z</time></trkpt><trkpt lat="43.938234740120436" lon="7.611442382348351"><ele>1138.6666666666667</ele><time>2026-04-12T09:55:26.999Z</time></trkpt><trkpt lat="43.93829104620281" lon="7.611502575136874"><ele>1135.8333333333335</ele><time>2026-04-12T09:55:27.999Z</time></trkpt><trkpt lat="43.93835567252504" lon="7.611594500863539"><ele>1133.0</ele><time>2026-04-12T09:55:30.999Z</time></trkpt><trkpt lat="43.93840391528662" lon="7.611714888774225"><ele>1136.3333333333335</ele><time>2026-04-12T09:55:32.999Z</time></trkpt><trkpt lat="43.938425072972755" lon="7.611812330099484"><ele>1139.6666666666667</ele><time>2026-04-12T09:55:33.999Z</time></trkpt><trkpt lat="43.93843950527394" lon="7.611914609537401"><ele>1143.0</ele><time>2026-04-12T09:55:34.999Z</time></trkpt><trkpt lat="43.93845342679727" lon="7.612022714059779"><ele>1146.3333333333333</ele><time>2026-04-12T09:55:35.999Z</time></trkpt><trkpt lat="43.93847241099929" lon="7.612135824683611"><ele>1149.6666666666665</ele><time>2026-04-12T09:55:36.999Z</time></trkpt><trkpt lat="43.93850213101929" lon="7.6122486073318205"><ele>1153.0</ele><time>2026-04-12T09:55:37.999Z</time></trkpt><trkpt lat="43.938545055663575" lon="7.612354393814852"><ele>1153.0</ele><time>2026-04-12T09:55:38.999Z</time></trkpt><trkpt lat="43.938585440587474" lon="7.612450820239174"><ele>1153.0</ele><time>2026-04-12T09:55:39.999Z</time></trkpt><trkpt lat="43.93861425509037" lon="7.612548704587764"><ele>1153.0</ele><time>2026-04-12T09:55:40.999Z</time></trkpt><trkpt lat="43.938630790460095" lon="7.612649220394011"><ele>1153.0</ele><time>2026-04-12T09:55:41.999Z</time></trkpt><trkpt lat="43.938638188856956" lon="7.612751300172204"><ele>1153.0</ele><time>2026-04-12T09:55:42.999Z</time></trkpt><trkpt lat="43.93864463353886" lon="7.61285495025012"><ele>1153.0</ele><time>2026-04-12T09:55:43.999Z</time></trkpt><trkpt lat="43.93865362862834" lon="7.612964991379837"><ele>1149.8</ele><time>2026-04-12T09:55:44.999Z</time></trkpt><trkpt lat="43.93866988054081" lon="7.613071088266532"><ele>1146.6</ele><time>2026-04-12T09:55:45.999Z</time></trkpt><trkpt lat="43.93870706334307" lon="7.613170981268653"><ele>1143.4</ele><time>2026-04-12T09:55:46.999Z</time></trkpt><trkpt lat="43.9387841807031" lon="7.613241743816473"><ele>1140.2</ele><time>2026-04-12T09:55:47.999Z</time></trkpt><trkpt lat="43.93888769310522" lon="7.613337214476465"><ele>1137.0</ele><time>2026-04-12T09:55:49.999Z</time></trkpt><trkpt lat="43.938891276097905" lon="7.613442767365605"><ele>1137.0</ele><time>2026-04-12T09:55:50.999Z</time></trkpt><trkpt lat="43.9388880069961" lon="7.613540347085606"><ele>1137.0</ele><time>2026-04-12T09:55:51.999Z</time></trkpt><trkpt lat="43.93889955617014" lon="7.613648444904395"><ele>1137.0</ele><time>2026-04-12T09:55:52.999Z</time></trkpt><trkpt lat="43.93891609957108" lon="7.613762219243878"><ele>1137.0</ele><time>2026-04-12T09:55:53.999Z</time></trkpt><trkpt lat="43.93895998177249" lon="7.613867559315038"><ele>1137.0</ele><time>2026-04-12T09:55:54.999Z</time></trkpt><trkpt lat="43.93899661016518" lon="7.6139489000086895"><ele>1137.0</ele><time>2026-04-12T09:55:55.999Z</time></trkpt><trkpt lat="43.939039309963164" lon="7.614101255596485"><ele>1134.8333333333333</ele><time>2026-04-12T09:55:57.999Z</time></trkpt><trkpt lat="43.939041524313296" lon="7.614202589089606"><ele>1132.6666666666667</ele><time>2026-04-12T09:55:58.999Z</time></trkpt><trkpt lat="43.93904070425757" lon="7.614316411498047"><ele>1130.5</ele><time>2026-04-12T09:55:59.998Z</time></trkpt><trkpt lat="43.93902461111472" lon="7.614429954360408"><ele>1128.3333333333335</ele><time>2026-04-12T09:56:00.998Z</time></trkpt><trkpt lat="43.93901001910463" lon="7.614553102849888"><ele>1126.1666666666667</ele><time>2026-04-12T09:56:01.998Z</time></trkpt><trkpt lat="43.938999088608774" lon="7.614672168544637"><ele>1124.0</ele><time>2026-04-12T09:56:02.998Z</time></trkpt><trkpt lat="43.93897765859233" lon="7.614786928328742"><ele>1122.3333333333335</ele><time>2026-04-12T09:56:03.998Z</time></trkpt><trkpt lat="43.9389748367323" lon="7.614904384526832"><ele>1120.6666666666667</ele><time>2026-04-12T09:56:04.998Z</time></trkpt><trkpt lat="43.93897647700261" lon="7.615018940605207"><ele>1119.0</ele><time>2026-04-12T09:56:05.998Z</time></trkpt><trkpt lat="43.938985816774014" lon="7.615138073203648"><ele>1117.3333333333333</ele><time>2026-04-12T09:56:06.998Z</time></trkpt><trkpt lat="43.93899956554053" lon="7.615257620278258"><ele>1115.6666666666665</ele><time>2026-04-12T09:56:07.998Z</time></trkpt><trkpt lat="43.939017778935145" lon="7.615374997238152"><ele>1114.0</ele><time>2026-04-12T09:56:08.998Z</time></trkpt><trkpt lat="43.939052503357885" lon="7.615482059496915"><ele>1112.3333333333333</ele><time>2026-04-12T09:56:09.998Z</time></trkpt><trkpt lat="43.93906437958955" lon="7.615586928484621"><ele>1110.6666666666665</ele><time>2026-04-12T09:56:10.998Z</time></trkpt><trkpt lat="43.93908323502475" lon="7.61569677035924"><ele>1109.0</ele><time>2026-04-12T09:56:11.998Z</time></trkpt><trkpt lat="43.93910590367232" lon="7.615809466276935"><ele>1107.3333333333333</ele><time>2026-04-12T09:56:12.998Z</time></trkpt><trkpt lat="43.93913326507255" lon="7.615918919933086"><ele>1105.6666666666667</ele><time>2026-04-12T09:56:13.998Z</time></trkpt><trkpt lat="43.93915104305166" lon="7.616025181483032"><ele>1104.0</ele><time>2026-04-12T09:56:14.998Z</time></trkpt><trkpt lat="43.93917852620134" lon="7.616116589399761"><ele>1100.1666666666667</ele><time>2026-04-12T09:56:15.998Z</time></trkpt><trkpt lat="43.93921386413206" lon="7.61620369469184"><ele>1096.3333333333333</ele><time>2026-04-12T09:56:16.998Z</time></trkpt><trkpt lat="43.939245937739926" lon="7.6163115254297225"><ele>1092.5</ele><time>2026-04-12T09:56:17.998Z</time></trkpt><trkpt lat="43.93929542437445" lon="7.616394221046277"><ele>1088.6666666666665</ele><time>2026-04-12T09:56:18.998Z</time></trkpt><trkpt lat="43.93936212817662" lon="7.616431472101795"><ele>1084.8333333333333</ele><time>2026-04-12T09:56:19.998Z</time></trkpt><trkpt lat="43.93942673303876" lon="7.616509524587089"><ele>1081.0</ele><time>2026-04-12T09:56:21.998Z</time></trkpt><trkpt lat="43.93937119649727" lon="7.616613912966046"><ele>1081.0</ele><time>2026-04-12T09:56:23.998Z</time></trkpt><trkpt lat="43.93926828643819" lon="7.616555649128308"><ele>1081.0</ele><time>2026-04-12T09:56:25.998Z</time></trkpt><trkpt lat="43.9392335930458" lon="7.61646469265709"><ele>1081.0</ele><time>2026-04-12T09:56:26.998Z</time></trkpt><trkpt lat="43.93917925667731" lon="7.616386978388751"><ele>1081.0</ele><time>2026-04-12T09:56:27.998Z</time></trkpt><trkpt lat="43.939150199259146" lon="7.61627067164684"><ele>1081.0</ele><time>2026-04-12T09:56:28.998Z</time></trkpt><trkpt lat="43.939103432307775" lon="7.616155626670286"><ele>1081.0</ele><time>2026-04-12T09:56:29.998Z</time></trkpt><trkpt lat="43.93905930208202" lon="7.616033010059429"><ele>1085.6</ele><time>2026-04-12T09:56:30.998Z</time></trkpt><trkpt lat="43.93901930387346" lon="7.6158991390846404"><ele>1090.1999999999998</ele><time>2026-04-12T09:56:31.998Z</time></trkpt><trkpt lat="43.938982941330586" lon="7.615774344859543"><ele>1094.8000000000002</ele><time>2026-04-12T09:56:32.998Z</time></trkpt><trkpt lat="43.93894533862992" lon="7.615662494485671"><ele>1099.4</ele><time>2026-04-12T09:56:33.998Z</time></trkpt><trkpt lat="43.93893131127255" lon="7.615543465236413"><ele>1104.0</ele><time>2026-04-12T09:56:34.998Z</time></trkpt><trkpt lat="43.938904625858626" lon="7.615437115847913"><ele>1104.0</ele><time>2026-04-12T09:56:35.998Z</time></trkpt><trkpt lat="43.93887742763068" lon="7.615326513035607"><ele>1104.0</ele><time>2026-04-12T09:56:36.998Z</time></trkpt><trkpt lat="43.93885204779494" lon="7.615218267068005"><ele>1104.0</ele><time>2026-04-12T09:56:37.998Z</time></trkpt><trkpt lat="43.93882646589722" lon="7.6151004663057265"><ele>1104.0</ele><time>2026-04-12T09:56:38.998Z</time></trkpt><trkpt lat="43.938804423110874" lon="7.614986058117087"><ele>1104.0</ele><time>2026-04-12T09:56:39.998Z</time></trkpt><trkpt lat="43.938788897563825" lon="7.614872384774928"><ele>1104.0</ele><time>2026-04-12T09:56:40.998Z</time></trkpt><trkpt lat="43.93877859266994" lon="7.614763323337469"><ele>1105.6666666666667</ele><time>2026-04-12T09:56:41.998Z</time></trkpt><trkpt lat="43.93877389358654" lon="7.614657673573876"><ele>1107.3333333333333</ele><time>2026-04-12T09:56:42.998Z</time></trkpt><trkpt lat="43.93876907034311" lon="7.614553054677602"><ele>1109.0</ele><time>2026-04-12T09:56:43.998Z</time></trkpt><trkpt lat="43.938764594092014" lon="7.614457818944451"><ele>1110.6666666666665</ele><time>2026-04-12T09:56:44.998Z</time></trkpt><trkpt lat="43.93873750594731" lon="7.614353178167079"><ele>1112.3333333333333</ele><time>2026-04-12T09:56:45.997Z</time></trkpt><trkpt lat="43.93872515645022" lon="7.614246671940862"><ele>1114.0</ele><time>2026-04-12T09:56:46.997Z</time></trkpt><trkpt lat="43.93867681456307" lon="7.6141432329202745"><ele>1115.6666666666665</ele><time>2026-04-12T09:56:47.997Z</time></trkpt><trkpt lat="43.93862868372397" lon="7.614057037525486"><ele>1117.3333333333333</ele><time>2026-04-12T09:56:48.997Z</time></trkpt><trkpt lat="43.938584364118206" lon="7.613966024953875"><ele>1119.0</ele><time>2026-04-12T09:56:49.997Z</time></trkpt><trkpt lat="43.93853361571106" lon="7.613883873265755"><ele>1120.6666666666667</ele><time>2026-04-12T09:56:50.997Z</time></trkpt><trkpt lat="43.938505254613005" lon="7.613778668773523"><ele>1122.3333333333335</ele><time>2026-04-12T09:56:51.997Z</time></trkpt><trkpt lat="43.93845542498311" lon="7.6137039743793435"><ele>1124.0</ele><time>2026-04-12T09:56:52.997Z</time></trkpt><trkpt lat="43.93840972689715" lon="7.613631368971556"><ele>1117.8</ele><time>2026-04-12T09:56:53.997Z</time></trkpt><trkpt lat="43.938358975334275" lon="7.61353690830137"><ele>1111.6000000000001</ele><time>2026-04-12T09:56:55Z</time></trkpt><trkpt lat="43.938306432661115" lon="7.613432466366784"><ele>1105.4</ele><time>2026-04-12T09:56:56Z</time></trkpt><trkpt lat="43.938251384791094" lon="7.613325783099287"><ele>1099.2</ele><time>2026-04-12T09:56:57Z</time></trkpt><trkpt lat="43.938188592264645" lon="7.613227495546894"><ele>1093.0</ele><time>2026-04-12T09:56:58Z</time></trkpt><trkpt lat="43.93810700211177" lon="7.613138340481794"><ele>1093.0</ele><time>2026-04-12T09:56:59Z</time></trkpt><trkpt lat="43.93802100398669" lon="7.613054327398678"><ele>1093.0</ele><time>2026-04-12T09:57:00Z</time></trkpt><trkpt lat="43.937951682311564" lon="7.612945885021108"><ele>1093.0</ele><time>2026-04-12T09:57:01Z</time></trkpt><trkpt lat="43.93787445203427" lon="7.612852414643146"><ele>1093.0</ele><time>2026-04-12T09:57:02Z</time></trkpt><trkpt lat="43.93778966289988" lon="7.612775749136445"><ele>1093.0</ele><time>2026-04-12T09:57:03Z</time></trkpt><trkpt lat="43.93771979301279" lon="7.612686094127734"><ele>1090.6666666666665</ele><time>2026-04-12T09:57:04Z</time></trkpt><trkpt lat="43.937650824211765" lon="7.6126046843379775"><ele>1088.3333333333333</ele><time>2026-04-12T09:57:05Z</time></trkpt><trkpt lat="43.93757132426773" lon="7.612550440327992"><ele>1086.0</ele><time>2026-04-12T09:57:06Z</time></trkpt><trkpt lat="43.93749964240088" lon="7.6124860942629535"><ele>1083.6666666666667</ele><time>2026-04-12T09:57:07Z</time></trkpt><trkpt lat="43.937420225056144" lon="7.612437826363574"><ele>1081.3333333333335</ele><time>2026-04-12T09:57:08Z</time></trkpt><trkpt lat="43.937339825143255" lon="7.612386385724295"><ele>1079.0</ele><time>2026-04-12T09:57:09Z</time></trkpt><trkpt lat="43.93726816294165" lon="7.612323084436059"><ele>1079.0</ele><time>2026-04-12T09:57:10Z</time></trkpt><trkpt lat="43.93720469160532" lon="7.612248749154112"><ele>1079.0</ele><time>2026-04-12T09:57:11Z</time></trkpt><trkpt lat="43.937147467011265" lon="7.612169073742015"><ele>1079.0</ele><time>2026-04-12T09:57:12Z</time></trkpt><trkpt lat="43.93708973832026" lon="7.612084876134617"><ele>1079.0</ele><time>2026-04-12T09:57:13Z</time></trkpt><trkpt lat="43.93703072575507" lon="7.61201041612938"><ele>1079.0</ele><time>2026-04-12T09:57:14Z</time></trkpt><trkpt lat="43.93697300892478" lon="7.611937591544967"><ele>1079.0</ele><time>2026-04-12T09:57:15Z</time></trkpt><trkpt lat="43.9369043896654" lon="7.611897143733693"><ele>1079.2857142857142</ele><time>2026-04-12T09:57:16Z</time></trkpt><trkpt lat="43.93683997131536" lon="7.611862440403154"><ele>1079.5714285714284</ele><time>2026-04-12T09:57:17Z</time></trkpt><trkpt lat="43.93677573242178" lon="7.611866970755154"><ele>1079.8571428571427</ele><time>2026-04-12T09:57:18Z</time></trkpt><trkpt lat="43.936705303734804" lon="7.611848206192853"><ele>1080.142857142857</ele><time>2026-04-12T09:57:19Z</time></trkpt><trkpt lat="43.936625093581554" lon="7.611842359814051"><ele>1080.4285714285713</ele><time>2026-04-12T09:57:20Z</time></trkpt><trkpt lat="43.93655346757331" lon="7.611833670891418"><ele>1080.7142857142856</ele><time>2026-04-12T09:57:21Z</time></trkpt><trkpt lat="43.93648608047378" lon="7.6118163315698855"><ele>1081.0</ele><time>2026-04-12T09:57:21.999Z</time></trkpt><trkpt lat="43.936409065960646" lon="7.611775710713314"><ele>1081.0</ele><time>2026-04-12T09:57:22.999Z</time></trkpt><trkpt lat="43.9363210520669" lon="7.611719992104683"><ele>1081.0</ele><time>2026-04-12T09:57:23.999Z</time></trkpt><trkpt lat="43.93624200265236" lon="7.611620179297487"><ele>1081.0</ele><time>2026-04-12T09:57:24.999Z</time></trkpt><trkpt lat="43.93617066905771" lon="7.611514621837869"><ele>1081.0</ele><time>2026-04-12T09:57:25.999Z</time></trkpt><trkpt lat="43.936079345797324" lon="7.6114230911363725"><ele>1081.0</ele><time>2026-04-12T09:57:26.999Z</time></trkpt><trkpt lat="43.93598799934947" lon="7.611332960997595"><ele>1081.0</ele><time>2026-04-12T09:57:27.999Z</time></trkpt><trkpt lat="43.93589002215117" lon="7.611262005947779"><ele>1081.0</ele><time>2026-04-12T09:57:28.999Z</time></trkpt><trkpt lat="43.9358034817831" lon="7.611177803879188"><ele>1081.0</ele><time>2026-04-12T09:57:29.999Z</time></trkpt><trkpt lat="43.935718083517315" lon="7.611091893310999"><ele>1081.0</ele><time>2026-04-12T09:57:30.999Z</time></trkpt><trkpt lat="43.935626609885915" lon="7.6110187548005035"><ele>1081.0</ele><time>2026-04-12T09:57:31.999Z</time></trkpt><trkpt lat="43.93553407894073" lon="7.61095106890446"><ele>1080.3999999999999</ele><time>2026-04-12T09:57:32.999Z</time></trkpt><trkpt lat="43.9354461774897" lon="7.610864177377311"><ele>1079.8</ele><time>2026-04-12T09:57:33.999Z</time></trkpt><trkpt lat="43.93534875667232" lon="7.610798779890495"><ele>1079.1999999999998</ele><time>2026-04-12T09:57:34.999Z</time></trkpt><trkpt lat="43.9352511413494" lon="7.610736654759898"><ele>1078.6</ele><time>2026-04-12T09:57:35.999Z</time></trkpt><trkpt lat="43.9351549014608" lon="7.610675626262067"><ele>1078.0</ele><time>2026-04-12T09:57:36.999Z</time></trkpt><trkpt lat="43.93505911259216" lon="7.610615032563153"><ele>1079.4</ele><time>2026-04-12T09:57:37.999Z</time></trkpt><trkpt lat="43.9349631796188" lon="7.610554051615838"><ele>1080.8</ele><time>2026-04-12T09:57:38.999Z</time></trkpt><trkpt lat="43.934863769163556" lon="7.610488641997552"><ele>1082.2</ele><time>2026-04-12T09:57:39.999Z</time></trkpt><trkpt lat="43.93476556175648" lon="7.610419713041854"><ele>1083.6</ele><time>2026-04-12T09:57:40.999Z</time></trkpt><trkpt lat="43.93466740358064" lon="7.610343924429706"><ele>1085.0</ele><time>2026-04-12T09:57:41.999Z</time></trkpt><trkpt lat="43.93458296869099" lon="7.6102573426912965"><ele>1085.0</ele><time>2026-04-12T09:57:42.999Z</time></trkpt><trkpt lat="43.9345066760971" lon="7.610160875363868"><ele>1085.0</ele><time>2026-04-12T09:57:43.999Z</time></trkpt><trkpt lat="43.93442954922133" lon="7.610042697167045"><ele>1085.0</ele><time>2026-04-12T09:57:44.999Z</time></trkpt><trkpt lat="43.934340744680235" lon="7.609958051031042"><ele>1085.0</ele><time>2026-04-12T09:57:45.999Z</time></trkpt><trkpt lat="43.93424412180501" lon="7.609911343757248"><ele>1085.0</ele><time>2026-04-12T09:57:46.999Z</time></trkpt><trkpt lat="43.93417056730079" lon="7.609890344335672"><ele>1080.5</ele><time>2026-04-12T09:57:47.999Z</time></trkpt><trkpt lat="43.93408986051215" lon="7.609901452794959"><ele>1076.0</ele><time>2026-04-12T09:57:48.999Z</time></trkpt><trkpt lat="43.93401916203725" lon="7.609941966873577"><ele>1071.5</ele><time>2026-04-12T09:57:49.999Z</time></trkpt><trkpt lat="43.93395076013415" lon="7.60997988247965"><ele>1067.0</ele><time>2026-04-12T09:57:50.999Z</time></trkpt><trkpt lat="43.93387921694502" lon="7.610017787533713"><ele>1062.5</ele><time>2026-04-12T09:57:51.999Z</time></trkpt><trkpt lat="43.933813884370245" lon="7.61007853212013"><ele>1058.0</ele><time>2026-04-12T09:57:52.999Z</time></trkpt><trkpt lat="43.93375110011196" lon="7.610142343565721"><ele>1058.0</ele><time>2026-04-12T09:57:53.999Z</time></trkpt><trkpt lat="43.93368924853338" lon="7.610205269052909"><ele>1058.0</ele><time>2026-04-12T09:57:54.999Z</time></trkpt><trkpt lat="43.9336301841272" lon="7.610262899479351"><ele>1058.0</ele><time>2026-04-12T09:57:55.999Z</time></trkpt><trkpt lat="43.9335712280567" lon="7.610309935271976"><ele>1058.0</ele><time>2026-04-12T09:57:56.999Z</time></trkpt><trkpt lat="43.93346741212596" lon="7.610359633752498"><ele>1058.0</ele><time>2026-04-12T09:57:58.999Z</time></trkpt><trkpt lat="43.933343633346716" lon="7.610339372797487"><ele>1057.6</ele><time>2026-04-12T09:58:00.999Z</time></trkpt><trkpt lat="43.933262682201175" lon="7.610331183851365"><ele>1057.1999999999998</ele><time>2026-04-12T09:58:01.999Z</time></trkpt><trkpt lat="43.9331855227018" lon="7.610289183260861"><ele>1056.8</ele><time>2026-04-12T09:58:02.999Z</time></trkpt><trkpt lat="43.93309884718165" lon="7.610329364957404"><ele>1056.3999999999999</ele><time>2026-04-12T09:58:03.998Z</time></trkpt><trkpt lat="43.933000571812094" lon="7.610340332026016"><ele>1056.0</ele><time>2026-04-12T09:58:04.998Z</time></trkpt><trkpt lat="43.932899118216085" lon="7.610397189638988"><ele>1051.3333333333333</ele><time>2026-04-12T09:58:05.998Z</time></trkpt><trkpt lat="43.932804123363184" lon="7.610438953698573"><ele>1046.6666666666667</ele><time>2026-04-12T09:58:06.998Z</time></trkpt><trkpt lat="43.932711376353375" lon="7.610441576702679"><ele>1042.0</ele><time>2026-04-12T09:58:07.998Z</time></trkpt><trkpt lat="43.93262774655392" lon="7.610450648759498"><ele>1037.3333333333335</ele><time>2026-04-12T09:58:08.998Z</time></trkpt><trkpt lat="43.93254577518314" lon="7.610454696710219"><ele>1032.6666666666667</ele><time>2026-04-12T09:58:09.998Z</time></trkpt><trkpt lat="43.93246783806257" lon="7.610455462931067"><ele>1028.0</ele><time>2026-04-12T09:58:10.998Z</time></trkpt><trkpt lat="43.932396268838026" lon="7.61044995311905"><ele>1026.5</ele><time>2026-04-12T09:58:11.998Z</time></trkpt><trkpt lat="43.93231916655482" lon="7.6104525114973"><ele>1025.0</ele><time>2026-04-12T09:58:12.998Z</time></trkpt><trkpt lat="43.932248491477495" lon="7.610405380945637"><ele>1023.5</ele><time>2026-04-12T09:58:13.998Z</time></trkpt><trkpt lat="43.93218461917382" lon="7.610320312097225"><ele>1022.0</ele><time>2026-04-12T09:58:14.998Z</time></trkpt><trkpt lat="43.93211568363489" lon="7.610260814643512"><ele>1020.5000000000001</ele><time>2026-04-12T09:58:15.998Z</time></trkpt><trkpt lat="43.932040501108894" lon="7.610220830832326"><ele>1019.0</ele><time>2026-04-12T09:58:16.998Z</time></trkpt><trkpt lat="43.93195165202802" lon="7.610233204073322"><ele>1019.0</ele><time>2026-04-12T09:58:17.998Z</time></trkpt><trkpt lat="43.93186289425005" lon="7.610272964480219"><ele>1019.0000000000001</ele><time>2026-04-12T09:58:18.998Z</time></trkpt><trkpt lat="43.93176917975735" lon="7.610326168181203"><ele>1019.0000000000001</ele><time>2026-04-12T09:58:19.998Z</time></trkpt><trkpt lat="43.93166568994452" lon="7.6103731371271035"><ele>1019.0</ele><time>2026-04-12T09:58:20.998Z</time></trkpt><trkpt lat="43.931554851271805" lon="7.610405909690915"><ele>1019.0</ele><time>2026-04-12T09:58:21.998Z</time></trkpt><trkpt lat="43.93144245446991" lon="7.610435333866552"><ele>1018.0000000000001</ele><time>2026-04-12T09:58:22.998Z</time></trkpt><trkpt lat="43.9313313721155" lon="7.610460556603642"><ele>1017.0</ele><time>2026-04-12T09:58:23.998Z</time></trkpt><trkpt lat="43.931226342449186" lon="7.6104826013759155"><ele>1016.0</ele><time>2026-04-12T09:58:24.998Z</time></trkpt><trkpt lat="43.93113618203962" lon="7.610498792161381"><ele>1015.0</ele><time>2026-04-12T09:58:25.998Z</time></trkpt><trkpt lat="43.93106876195595" lon="7.610508816550566"><ele>1014.0000000000001</ele><time>2026-04-12T09:58:26.998Z</time></trkpt><trkpt lat="43.930998072806105" lon="7.610517728333577"><ele>1013.0</ele><time>2026-04-12T09:58:27.998Z</time></trkpt><trkpt lat="43.93091969489596" lon="7.61052206307526"><ele>1010.8</ele><time>2026-04-12T09:58:28.998Z</time></trkpt><trkpt lat="43.930834568281966" lon="7.610516462942723"><ele>1008.5999999999999</ele><time>2026-04-12T09:58:29.998Z</time></trkpt><trkpt lat="43.9307361042087" lon="7.610498971770857"><ele>1006.4000000000001</ele><time>2026-04-12T09:58:30.998Z</time></trkpt><trkpt lat="43.9306355892161" lon="7.610499256184534"><ele>1004.2</ele><time>2026-04-12T09:58:31.998Z</time></trkpt><trkpt lat="43.9305410382904" lon="7.610473784811167"><ele>1002.0</ele><time>2026-04-12T09:58:32.998Z</time></trkpt><trkpt lat="43.93046031539934" lon="7.610451847893061"><ele>1002.0</ele><time>2026-04-12T09:58:33.998Z</time></trkpt><trkpt lat="43.93038470209287" lon="7.610440088618377"><ele>1002.0</ele><time>2026-04-12T09:58:34.998Z</time></trkpt><trkpt lat="43.9303133386248" lon="7.610456032468568"><ele>1002.0</ele><time>2026-04-12T09:58:35.998Z</time></trkpt><trkpt lat="43.93023114823658" lon="7.61050209666787"><ele>1002.0</ele><time>2026-04-12T09:58:36.998Z</time></trkpt><trkpt lat="43.93014223028421" lon="7.610538515363897"><ele>1002.0</ele><time>2026-04-12T09:58:37.998Z</time></trkpt><trkpt lat="43.93005251797161" lon="7.610581120528101"><ele>1002.0</ele><time>2026-04-12T09:58:38.998Z</time></trkpt><trkpt lat="43.92995626380866" lon="7.610633366645738"><ele>1003.2</ele><time>2026-04-12T09:58:39.998Z</time></trkpt><trkpt lat="43.929867967827136" lon="7.610708043805401"><ele>1004.4000000000001</ele><time>2026-04-12T09:58:40.998Z</time></trkpt><trkpt lat="43.92976794868072" lon="7.610752908679997"><ele>1005.5999999999999</ele><time>2026-04-12T09:58:41.998Z</time></trkpt><trkpt lat="43.92968935508041" lon="7.61083638222439"><ele>1006.8</ele><time>2026-04-12T09:58:42.998Z</time></trkpt><trkpt lat="43.929602537238125" lon="7.610890811960815"><ele>1008.0</ele><time>2026-04-12T09:58:43.998Z</time></trkpt><trkpt lat="43.92952082802172" lon="7.610945277195709"><ele>1008.0</ele><time>2026-04-12T09:58:44.998Z</time></trkpt><trkpt lat="43.92944926613658" lon="7.611009785360669"><ele>1008.0</ele><time>2026-04-12T09:58:45.998Z</time></trkpt><trkpt lat="43.92939481598981" lon="7.611083867761885"><ele>1008.0</ele><time>2026-04-12T09:58:46.998Z</time></trkpt><trkpt lat="43.92931815274676" lon="7.6111261676149775"><ele>1008.0</ele><time>2026-04-12T09:58:47.997Z</time></trkpt><trkpt lat="43.9292450118547" lon="7.611188700915548"><ele>1008.0</ele><time>2026-04-12T09:58:48.997Z</time></trkpt><trkpt lat="43.92917578202383" lon="7.611273926627385"><ele>1008.0</ele><time>2026-04-12T09:58:49.997Z</time></trkpt><trkpt lat="43.929106671580165" lon="7.611312225067702"><ele>1006.4</ele><time>2026-04-12T09:58:50.997Z</time></trkpt><trkpt lat="43.92902573023432" lon="7.611422668744509"><ele>1004.8</ele><time>2026-04-12T09:58:52.997Z</time></trkpt><trkpt lat="43.92901022697734" lon="7.611514144635096"><ele>1003.2</ele><time>2026-04-12T09:58:53.997Z</time></trkpt><trkpt lat="43.928995993970254" lon="7.611627490525927"><ele>1001.6</ele><time>2026-04-12T09:58:54.997Z</time></trkpt><trkpt lat="43.92896438213299" lon="7.61175720928095"><ele>1000.0</ele><time>2026-04-12T09:58:55.997Z</time></trkpt><trkpt lat="43.92892985003706" lon="7.611882301979979"><ele>996.8333333333333</ele><time>2026-04-12T09:58:56.997Z</time></trkpt><trkpt lat="43.92890095858649" lon="7.612007213923204"><ele>993.6666666666666</ele><time>2026-04-12T09:58:57.997Z</time></trkpt><trkpt lat="43.928876823112454" lon="7.612117455940257"><ele>990.5</ele><time>2026-04-12T09:58:58.997Z</time></trkpt><trkpt lat="43.92884625991097" lon="7.61220151789824"><ele>987.3333333333333</ele><time>2026-04-12T09:58:59.997Z</time></trkpt><trkpt lat="43.92881811927069" lon="7.612287910033032"><ele>984.1666666666666</ele><time>2026-04-12T09:59:01Z</time></trkpt><trkpt lat="43.92875382956005" lon="7.61235055519318"><ele>981.0</ele><time>2026-04-12T09:59:02Z</time></trkpt><trkpt lat="43.92867744645614" lon="7.612422817442844"><ele>981.0</ele><time>2026-04-12T09:59:03Z</time></trkpt><trkpt lat="43.928601425474085" lon="7.612525414348702"><ele>980.9999999999999</ele><time>2026-04-12T09:59:04Z</time></trkpt><trkpt lat="43.92850349726258" lon="7.612609500058278"><ele>980.9999999999999</ele><time>2026-04-12T09:59:05Z</time></trkpt><trkpt lat="43.92842306422542" lon="7.612709673084973"><ele>981.0</ele><time>2026-04-12T09:59:06Z</time></trkpt><trkpt lat="43.92833982699106" lon="7.612802722293971"><ele>981.0</ele><time>2026-04-12T09:59:07Z</time></trkpt><trkpt lat="43.928270013048504" lon="7.612880732168083"><ele>981.3333333333334</ele><time>2026-04-12T09:59:08Z</time></trkpt><trkpt lat="43.928212829404366" lon="7.612944516180741"><ele>981.6666666666667</ele><time>2026-04-12T09:59:09Z</time></trkpt><trkpt lat="43.928157502857026" lon="7.612996663743099"><ele>982.0</ele><time>2026-04-12T09:59:10Z</time></trkpt><trkpt lat="43.92815071428068" lon="7.613121747060102"><ele>982.3333333333334</ele><time>2026-04-12T09:59:12Z</time></trkpt><trkpt lat="43.92819194474437" lon="7.613188156637883"><ele>982.6666666666667</ele><time>2026-04-12T09:59:14Z</time></trkpt><trkpt lat="43.928286883837615" lon="7.613209167030025"><ele>983.0</ele><time>2026-04-12T09:59:16Z</time></trkpt><trkpt lat="43.92835411606774" lon="7.613133329645082"><ele>982.6666666666667</ele><time>2026-04-12T09:59:17Z</time></trkpt><trkpt lat="43.928416352726295" lon="7.613069087241217"><ele>982.3333333333334</ele><time>2026-04-12T09:59:18Z</time></trkpt><trkpt lat="43.92846492527775" lon="7.613012701163274"><ele>982.0</ele><time>2026-04-12T09:59:19Z</time></trkpt><trkpt lat="43.928558091448984" lon="7.61290386747441"><ele>981.6666666666667</ele><time>2026-04-12T09:59:21Z</time></trkpt><trkpt lat="43.92860882067536" lon="7.612838780226304"><ele>981.3333333333334</ele><time>2026-04-12T09:59:22Z</time></trkpt><trkpt lat="43.92869088225179" lon="7.612816552018455"><ele>981.0</ele><time>2026-04-12T09:59:23Z</time></trkpt><trkpt lat="43.9287720564836" lon="7.612779591796513"><ele>981.0</ele><time>2026-04-12T09:59:24Z</time></trkpt><trkpt lat="43.928860268675095" lon="7.6127752401990385"><ele>980.9999999999999</ele><time>2026-04-12T09:59:24.999Z</time></trkpt><trkpt lat="43.928944518094994" lon="7.612729021092437"><ele>980.9999999999999</ele><time>2026-04-12T09:59:25.999Z</time></trkpt><trkpt lat="43.9290255285482" lon="7.612653509068824"><ele>981.0</ele><time>2026-04-12T09:59:26.999Z</time></trkpt><trkpt lat="43.929110005251175" lon="7.612571652577126"><ele>981.0</ele><time>2026-04-12T09:59:27.999Z</time></trkpt><trkpt lat="43.929197722794704" lon="7.612497270029697"><ele>977.5999999999999</ele><time>2026-04-12T09:59:28.999Z</time></trkpt><trkpt lat="43.92928990271405" lon="7.612420978344882"><ele>974.1999999999999</ele><time>2026-04-12T09:59:29.999Z</time></trkpt><trkpt lat="43.929377591428505" lon="7.612347071857583"><ele>970.8000000000001</ele><time>2026-04-12T09:59:30.999Z</time></trkpt><trkpt lat="43.9294562774433" lon="7.612270395426428"><ele>967.4000000000001</ele><time>2026-04-12T09:59:31.999Z</time></trkpt><trkpt lat="43.92952438782222" lon="7.612180668625939"><ele>964.0</ele><time>2026-04-12T09:59:32.999Z</time></trkpt><trkpt lat="43.92960637474413" lon="7.612114050228841"><ele>964.0</ele><time>2026-04-12T09:59:33.999Z</time></trkpt><trkpt lat="43.929685428760656" lon="7.6120351462428255"><ele>964.0000000000001</ele><time>2026-04-12T09:59:34.999Z</time></trkpt><trkpt lat="43.92975774655543" lon="7.61194965205927"><ele>964.0000000000001</ele><time>2026-04-12T09:59:35.999Z</time></trkpt><trkpt lat="43.92983227404731" lon="7.611858414243433"><ele>964.0</ele><time>2026-04-12T09:59:36.999Z</time></trkpt><trkpt lat="43.92992151417842" lon="7.611775511584799"><ele>964.0</ele><time>2026-04-12T09:59:37.999Z</time></trkpt><trkpt lat="43.92999698450586" lon="7.611660232249463"><ele>964.4999999999999</ele><time>2026-04-12T09:59:38.999Z</time></trkpt><trkpt lat="43.9300865776852" lon="7.611580285346506"><ele>965.0</ele><time>2026-04-12T09:59:39.999Z</time></trkpt><trkpt lat="43.93016795446367" lon="7.611507988748549"><ele>965.5</ele><time>2026-04-12T09:59:40.999Z</time></trkpt><trkpt lat="43.93023746488323" lon="7.611445967912668"><ele>966.0</ele><time>2026-04-12T09:59:41.999Z</time></trkpt><trkpt lat="43.93029834604523" lon="7.6113920472545065"><ele>966.4999999999999</ele><time>2026-04-12T09:59:42.999Z</time></trkpt><trkpt lat="43.9303571902711" lon="7.6113378302007275"><ele>967.0</ele><time>2026-04-12T09:59:43.999Z</time></trkpt><trkpt lat="43.930468207326335" lon="7.611300215744824"><ele>967.0</ele><time>2026-04-12T09:59:45.999Z</time></trkpt><trkpt lat="43.93058865277292" lon="7.611295135218901"><ele>967.0</ele><time>2026-04-12T09:59:47.999Z</time></trkpt><trkpt lat="43.930667801955124" lon="7.6112823282765625"><ele>967.0</ele><time>2026-04-12T09:59:48.999Z</time></trkpt><trkpt lat="43.93075085698294" lon="7.611341929715193"><ele>967.0</ele><time>2026-04-12T09:59:49.999Z</time></trkpt><trkpt lat="43.930829430898406" lon="7.61140755763688"><ele>967.0</ele><time>2026-04-12T09:59:50.999Z</time></trkpt><trkpt lat="43.930910992922456" lon="7.611469993042919"><ele>967.8333333333333</ele><time>2026-04-12T09:59:51.999Z</time></trkpt><trkpt lat="43.93099780576038" lon="7.611511518119629"><ele>968.6666666666666</ele><time>2026-04-12T09:59:52.999Z</time></trkpt><trkpt lat="43.931088821363375" lon="7.611536387514475"><ele>969.5</ele><time>2026-04-12T09:59:53.999Z</time></trkpt><trkpt lat="43.93117650328923" lon="7.611569251009153"><ele>970.3333333333333</ele><time>2026-04-12T09:59:54.999Z</time></trkpt><trkpt lat="43.93125521054031" lon="7.611610804547178"><ele>971.1666666666666</ele><time>2026-04-12T09:59:55.999Z</time></trkpt><trkpt lat="43.93133497908557" lon="7.611615460283415"><ele>972.0</ele><time>2026-04-12T09:59:56.999Z</time></trkpt><trkpt lat="43.93139748412652" lon="7.611627667707584"><ele>972.0</ele><time>2026-04-12T09:59:57.999Z</time></trkpt><trkpt lat="43.93149575577013" lon="7.611699905065877"><ele>972.0</ele><time>2026-04-12T09:59:59.999Z</time></trkpt><trkpt lat="43.931468212329875" lon="7.611826032007511"><ele>972.0</ele><time>2026-04-12T10:00:01.999Z</time></trkpt><trkpt lat="43.93138344731704" lon="7.611826936583257"><ele>972.0</ele><time>2026-04-12T10:00:03.999Z</time></trkpt><trkpt lat="43.93132642281245" lon="7.611779777877707"><ele>972.0</ele><time>2026-04-12T10:00:05.998Z</time></trkpt><trkpt lat="43.931266630238746" lon="7.611748224849316"><ele>972.0</ele><time>2026-04-12T10:00:06.998Z</time></trkpt><trkpt lat="43.93120152671743" lon="7.611698115633754"><ele>972.0</ele><time>2026-04-12T10:00:07.998Z</time></trkpt><trkpt lat="43.931123472805105" lon="7.6116386331684405"><ele>972.0</ele><time>2026-04-12T10:00:08.998Z</time></trkpt><trkpt lat="43.93104359068823" lon="7.6115913941478786"><ele>972.0</ele><time>2026-04-12T10:00:09.998Z</time></trkpt><trkpt lat="43.93094730504855" lon="7.611536350136063"><ele>972.0</ele><time>2026-04-12T10:00:10.998Z</time></trkpt><trkpt lat="43.93085751347326" lon="7.611498252333352"><ele>972.0</ele><time>2026-04-12T10:00:11.998Z</time></trkpt><trkpt lat="43.93077199502366" lon="7.611485130658793"><ele>971.1666666666666</ele><time>2026-04-12T10:00:12.998Z</time></trkpt><trkpt lat="43.93069303926946" lon="7.611454628855551"><ele>970.3333333333333</ele><time>2026-04-12T10:00:13.998Z</time></trkpt><trkpt lat="43.930622429087414" lon="7.611450379231605"><ele>969.5</ele><time>2026-04-12T10:00:14.998Z</time></trkpt><trkpt lat="43.93053951165768" lon="7.611462727610424"><ele>968.6666666666666</ele><time>2026-04-12T10:00:16.998Z</time></trkpt><trkpt lat="43.930472342655726" lon="7.6115144856597565"><ele>967.8333333333333</ele><time>2026-04-12T10:00:54.998Z</time></trkpt><trkpt lat="43.93038847657006" lon="7.611555458271253"><ele>967.0</ele><time>2026-04-12T10:00:56.998Z</time></trkpt><trkpt lat="43.93029891178699" lon="7.6116563528606624"><ele>967.0</ele><time>2026-04-12T10:00:58.998Z</time></trkpt><trkpt lat="43.93024661680183" lon="7.611748763598876"><ele>967.0</ele><time>2026-04-12T10:01:00.998Z</time></trkpt><trkpt lat="43.9302138504412" lon="7.611825466469431"><ele>967.0</ele><time>2026-04-12T10:01:01.998Z</time></trkpt><trkpt lat="43.9301995999903" lon="7.611914640044412"><ele>967.0</ele><time>2026-04-12T10:01:02.998Z</time></trkpt><trkpt lat="43.93017226321272" lon="7.611993645746945"><ele>967.0</ele><time>2026-04-12T10:01:03.998Z</time></trkpt><trkpt lat="43.93015326776153" lon="7.612086810181558"><ele>967.0</ele><time>2026-04-12T10:01:04.998Z</time></trkpt><trkpt lat="43.93014133564753" lon="7.6121752235959335"><ele>967.0</ele><time>2026-04-12T10:01:06.001Z</time></trkpt><trkpt lat="43.9300861560093" lon="7.612303892899355"><ele>966.4999999999999</ele><time>2026-04-12T10:01:08.001Z</time></trkpt><trkpt lat="43.93001359563863" lon="7.612452127517501"><ele>966.0</ele><time>2026-04-12T10:01:10.001Z</time></trkpt><trkpt lat="43.92996886098267" lon="7.612531634468039"><ele>965.5</ele><time>2026-04-12T10:01:11.001Z</time></trkpt><trkpt lat="43.92993109091194" lon="7.612623763418601"><ele>965.0</ele><time>2026-04-12T10:01:12.001Z</time></trkpt><trkpt lat="43.92987192812314" lon="7.612685639459294"><ele>964.4999999999999</ele><time>2026-04-12T10:01:13.001Z</time></trkpt><trkpt lat="43.92980149801977" lon="7.612709949066094"><ele>964.0</ele><time>2026-04-12T10:01:14.001Z</time></trkpt><trkpt lat="43.92974068348739" lon="7.6127466852136525"><ele>964.0</ele><time>2026-04-12T10:01:15.001Z</time></trkpt><trkpt lat="43.929675768259685" lon="7.6127825060199354"><ele>964.0000000000001</ele><time>2026-04-12T10:01:16.001Z</time></trkpt><trkpt lat="43.929623095309196" lon="7.612834797622971"><ele>964.0</ele><time>2026-04-12T10:01:17.001Z</time></trkpt><trkpt lat="43.92957699102097" lon="7.612905587297869"><ele>964.0</ele><time>2026-04-12T10:01:18.001Z</time></trkpt><trkpt lat="43.929557717260906" lon="7.613003585159015"><ele>964.0000000000001</ele><time>2026-04-12T10:01:19.001Z</time></trkpt><trkpt lat="43.92957274714617" lon="7.613093468604511"><ele>964.0</ele><time>2026-04-12T10:01:20.001Z</time></trkpt><trkpt lat="43.92956649031752" lon="7.613187321153564"><ele>964.0</ele><time>2026-04-12T10:01:21.001Z</time></trkpt><trkpt lat="43.92956957084255" lon="7.613292255963821"><ele>959.8333333333333</ele><time>2026-04-12T10:01:22.001Z</time></trkpt><trkpt lat="43.9295718740304" lon="7.613394333878815"><ele>955.6666666666666</ele><time>2026-04-12T10:01:23.001Z</time></trkpt><trkpt lat="43.9295781962066" lon="7.613486733805034"><ele>951.5</ele><time>2026-04-12T10:01:24.001Z</time></trkpt><trkpt lat="43.92955595193203" lon="7.613585528863025"><ele>947.3333333333333</ele><time>2026-04-12T10:01:25Z</time></trkpt><trkpt lat="43.92952354029849" lon="7.613665222082883"><ele>943.1666666666666</ele><time>2026-04-12T10:01:26Z</time></trkpt><trkpt lat="43.9294876403137" lon="7.613743571353499"><ele>939.0</ele><time>2026-04-12T10:01:27Z</time></trkpt><trkpt lat="43.929403821344486" lon="7.613848705271007"><ele>940.1666666666666</ele><time>2026-04-12T10:01:29Z</time></trkpt><trkpt lat="43.92928846066759" lon="7.613918011642212"><ele>941.3333333333333</ele><time>2026-04-12T10:01:31Z</time></trkpt><trkpt lat="43.929212120537144" lon="7.613931514659991"><ele>942.5</ele><time>2026-04-12T10:01:32Z</time></trkpt><trkpt lat="43.92913545285251" lon="7.613950229345071"><ele>943.6666666666666</ele><time>2026-04-12T10:01:33Z</time></trkpt><trkpt lat="43.92906551097755" lon="7.61398678310189"><ele>944.8333333333333</ele><time>2026-04-12T10:01:34Z</time></trkpt><trkpt lat="43.929009645644975" lon="7.6140562377041405"><ele>946.0</ele><time>2026-04-12T10:01:35Z</time></trkpt><trkpt lat="43.92898589752874" lon="7.614153219659067"><ele>945.9999999999999</ele><time>2026-04-12T10:01:36Z</time></trkpt><trkpt lat="43.92897419805315" lon="7.614257975759808"><ele>946.0</ele><time>2026-04-12T10:01:37Z</time></trkpt><trkpt lat="43.928961194873324" lon="7.614376829046468"><ele>946.0</ele><time>2026-04-12T10:01:38Z</time></trkpt><trkpt lat="43.928947599581875" lon="7.614493450791118"><ele>946.0</ele><time>2026-04-12T10:01:39Z</time></trkpt><trkpt lat="43.92892978382732" lon="7.614622182932731"><ele>945.9999999999999</ele><time>2026-04-12T10:01:40Z</time></trkpt><trkpt lat="43.928908466006334" lon="7.614751381311428"><ele>946.0</ele><time>2026-04-12T10:01:41Z</time></trkpt><trkpt lat="43.928885655114" lon="7.614882778532461"><ele>943.1666666666666</ele><time>2026-04-12T10:01:42Z</time></trkpt><trkpt lat="43.92886498286749" lon="7.6150169890032045"><ele>940.3333333333333</ele><time>2026-04-12T10:01:43Z</time></trkpt><trkpt lat="43.928845255047776" lon="7.615145908198404"><ele>937.5</ele><time>2026-04-12T10:01:44Z</time></trkpt><trkpt lat="43.92882061634507" lon="7.615237736798407"><ele>934.6666666666667</ele><time>2026-04-12T10:01:45Z</time></trkpt><trkpt lat="43.9287877309007" lon="7.615332942879839"><ele>931.8333333333334</ele><time>2026-04-12T10:01:46Z</time></trkpt><trkpt lat="43.92875410579016" lon="7.61541745156643"><ele>929.0</ele><time>2026-04-12T10:01:47Z</time></trkpt><trkpt lat="43.928711308439524" lon="7.615504362462218"><ele>928.1666666666667</ele><time>2026-04-12T10:01:48Z</time></trkpt><trkpt lat="43.92866214495545" lon="7.6155829980264516"><ele>927.3333333333334</ele><time>2026-04-12T10:01:49Z</time></trkpt><trkpt lat="43.92860314948042" lon="7.615657173313102"><ele>926.5</ele><time>2026-04-12T10:01:50Z</time></trkpt><trkpt lat="43.928542125752564" lon="7.615715590004646"><ele>925.6666666666667</ele><time>2026-04-12T10:01:51Z</time></trkpt><trkpt lat="43.92847988452355" lon="7.615755953151989"><ele>924.8333333333334</ele><time>2026-04-12T10:01:52Z</time></trkpt><trkpt lat="43.928399062770175" lon="7.615787430605857"><ele>924.0</ele><time>2026-04-12T10:01:53Z</time></trkpt><trkpt lat="43.92832320229811" lon="7.615796546464946"><ele>924.0</ele><time>2026-04-12T10:01:54Z</time></trkpt><trkpt lat="43.92823648709598" lon="7.615783241732992"><ele>924.0000000000001</ele><time>2026-04-12T10:01:55Z</time></trkpt><trkpt lat="43.92813791413959" lon="7.6157685021442205"><ele>924.0000000000001</ele><time>2026-04-12T10:01:56Z</time></trkpt><trkpt lat="43.92805012422876" lon="7.6157549594966865"><ele>924.0</ele><time>2026-04-12T10:01:57Z</time></trkpt><trkpt lat="43.92796402989948" lon="7.6157266062517355"><ele>924.0</ele><time>2026-04-12T10:01:58Z</time></trkpt><trkpt lat="43.92786974728168" lon="7.615698083532937"><ele>924.0</ele><time>2026-04-12T10:01:59Z</time></trkpt><trkpt lat="43.92778192295345" lon="7.615677758102421"><ele>924.0</ele><time>2026-04-12T10:02:00Z</time></trkpt><trkpt lat="43.927694809168344" lon="7.615672648587869"><ele>924.0</ele><time>2026-04-12T10:02:01Z</time></trkpt><trkpt lat="43.92760693565317" lon="7.615674048389959"><ele>924.0</ele><time>2026-04-12T10:02:02Z</time></trkpt><trkpt lat="43.92752085575753" lon="7.615692553294816"><ele>924.0</ele><time>2026-04-12T10:02:03Z</time></trkpt><trkpt lat="43.92743088439377" lon="7.615699833931719"><ele>924.0</ele><time>2026-04-12T10:02:04Z</time></trkpt><trkpt lat="43.927331747160984" lon="7.615711373391488"><ele>922.8333333333334</ele><time>2026-04-12T10:02:04.999Z</time></trkpt><trkpt lat="43.92723665169837" lon="7.615727624136707"><ele>921.6666666666667</ele><time>2026-04-12T10:02:05.999Z</time></trkpt><trkpt lat="43.92714813593178" lon="7.615771641974793"><ele>920.5</ele><time>2026-04-12T10:02:06.999Z</time></trkpt><trkpt lat="43.927073519300755" lon="7.615796422456227"><ele>919.3333333333334</ele><time>2026-04-12T10:02:07.999Z</time></trkpt><trkpt lat="43.92701451179464" lon="7.615839984497122"><ele>918.1666666666667</ele><time>2026-04-12T10:02:08.999Z</time></trkpt><trkpt lat="43.926964981113485" lon="7.615906333313856"><ele>917.0</ele><time>2026-04-12T10:02:09.999Z</time></trkpt><trkpt lat="43.926923372766474" lon="7.615992634107789"><ele>917.0000000000001</ele><time>2026-04-12T10:02:10.999Z</time></trkpt><trkpt lat="43.926886411400325" lon="7.616101973542063"><ele>917.0</ele><time>2026-04-12T10:02:11.999Z</time></trkpt><trkpt lat="43.926825999618124" lon="7.616177255638987"><ele>917.0</ele><time>2026-04-12T10:02:12.999Z</time></trkpt><trkpt lat="43.926775527195616" lon="7.616260361705313"><ele>917.0</ele><time>2026-04-12T10:02:13.999Z</time></trkpt><trkpt lat="43.92670472834893" lon="7.616354581096112"><ele>917.0000000000001</ele><time>2026-04-12T10:02:14.999Z</time></trkpt><trkpt lat="43.92665475578695" lon="7.616422952173825"><ele>917.0</ele><time>2026-04-12T10:02:15.999Z</time></trkpt><trkpt lat="43.926583731566254" lon="7.616487005994271"><ele>912.2</ele><time>2026-04-12T10:02:16.999Z</time></trkpt><trkpt lat="43.926520271739705" lon="7.616542690885306"><ele>907.4000000000001</ele><time>2026-04-12T10:02:17.999Z</time></trkpt><trkpt lat="43.92639955250173" lon="7.616610210444194"><ele>902.5999999999999</ele><time>2026-04-12T10:02:19.999Z</time></trkpt><trkpt lat="43.92632377011041" lon="7.616644737577682"><ele>897.8</ele><time>2026-04-12T10:02:20.999Z</time></trkpt><trkpt lat="43.92623878591708" lon="7.616684871647881"><ele>893.0</ele><time>2026-04-12T10:02:21.999Z</time></trkpt><trkpt lat="43.92615366271228" lon="7.616739337825866"><ele>893.0000000000001</ele><time>2026-04-12T10:02:22.999Z</time></trkpt><trkpt lat="43.926063478807386" lon="7.616772343937354"><ele>893.0</ele><time>2026-04-12T10:02:23.999Z</time></trkpt><trkpt lat="43.92597945526734" lon="7.6168184746481336"><ele>893.0</ele><time>2026-04-12T10:02:24.999Z</time></trkpt><trkpt lat="43.92589834820827" lon="7.616875896610439"><ele>893.0</ele><time>2026-04-12T10:02:25.999Z</time></trkpt><trkpt lat="43.925821964980436" lon="7.616919541171618"><ele>893.0000000000001</ele><time>2026-04-12T10:02:26.999Z</time></trkpt><trkpt lat="43.92575503699832" lon="7.616955677688869"><ele>893.0</ele><time>2026-04-12T10:02:27.999Z</time></trkpt><trkpt lat="43.925680594821124" lon="7.616971366356227"><ele>894.3333333333334</ele><time>2026-04-12T10:02:28.999Z</time></trkpt><trkpt lat="43.92560100631541" lon="7.616934138957894"><ele>895.6666666666667</ele><time>2026-04-12T10:02:29.999Z</time></trkpt><trkpt lat="43.92553304309477" lon="7.616894436638617"><ele>897.0</ele><time>2026-04-12T10:02:30.999Z</time></trkpt><trkpt lat="43.92545345757462" lon="7.616853129015028"><ele>898.3333333333333</ele><time>2026-04-12T10:02:31.999Z</time></trkpt><trkpt lat="43.92538158104283" lon="7.616792683779309"><ele>899.6666666666666</ele><time>2026-04-12T10:02:32.999Z</time></trkpt><trkpt lat="43.92530494868638" lon="7.616754362060232"><ele>901.0</ele><time>2026-04-12T10:02:33.999Z</time></trkpt><trkpt lat="43.9252448884131" lon="7.616707250544229"><ele>900.9999999999999</ele><time>2026-04-12T10:02:34.999Z</time></trkpt><trkpt lat="43.92513569276607" lon="7.616732566545323"><ele>901.0</ele><time>2026-04-12T10:02:36.999Z</time></trkpt><trkpt lat="43.925091475368596" lon="7.616800267727853"><ele>901.0</ele><time>2026-04-12T10:02:37.999Z</time></trkpt><trkpt lat="43.92502318256736" lon="7.616849969367591"><ele>901.0</ele><time>2026-04-12T10:02:38.999Z</time></trkpt><trkpt lat="43.92497951684484" lon="7.616970504962778"><ele>900.9999999999999</ele><time>2026-04-12T10:02:39.999Z</time></trkpt><trkpt lat="43.92492582651977" lon="7.61707437030758"><ele>901.0</ele><time>2026-04-12T10:02:40.999Z</time></trkpt><trkpt lat="43.9248691077853" lon="7.617191669760791"><ele>896.8</ele><time>2026-04-12T10:02:41.999Z</time></trkpt><trkpt lat="43.92481840838904" lon="7.617315684230701"><ele>892.5999999999999</ele><time>2026-04-12T10:02:42.999Z</time></trkpt><trkpt lat="43.92477147285224" lon="7.617437539358621"><ele>888.4</ele><time>2026-04-12T10:02:43.999Z</time></trkpt><trkpt lat="43.92472922324229" lon="7.617566521324699"><ele>884.2</ele><time>2026-04-12T10:02:44.999Z</time></trkpt><trkpt lat="43.92468194551767" lon="7.617680817269759"><ele>880.0</ele><time>2026-04-12T10:02:45.999Z</time></trkpt><trkpt lat="43.92464456268495" lon="7.617780156350138"><ele>875.0</ele><time>2026-04-12T10:02:46.999Z</time></trkpt><trkpt lat="43.924615681786115" lon="7.617871201864126"><ele>870.0</ele><time>2026-04-12T10:02:47.998Z</time></trkpt><trkpt lat="43.9245205717447" lon="7.617968013169873"><ele>865.0</ele><time>2026-04-12T10:02:49.998Z</time></trkpt><trkpt lat="43.9244184986008" lon="7.617949240690154"><ele>860.0</ele><time>2026-04-12T10:02:51.998Z</time></trkpt><trkpt lat="43.92434567055985" lon="7.617918095570693"><ele>855.0</ele><time>2026-04-12T10:02:52.998Z</time></trkpt><trkpt lat="43.92426046593035" lon="7.617877706814433"><ele>857.0</ele><time>2026-04-12T10:02:53.998Z</time></trkpt><trkpt lat="43.924198565312" lon="7.617811103506097"><ele>859.0</ele><time>2026-04-12T10:02:54.998Z</time></trkpt><trkpt lat="43.924135003146596" lon="7.617769897773256"><ele>861.0</ele><time>2026-04-12T10:02:55.998Z</time></trkpt><trkpt lat="43.924076256556205" lon="7.6177372784614"><ele>863.0</ele><time>2026-04-12T10:02:56.998Z</time></trkpt><trkpt lat="43.92396599969386" lon="7.617768461333327"><ele>865.0</ele><time>2026-04-12T10:02:58.998Z</time></trkpt><trkpt lat="43.92394334102482" lon="7.617868527659853"><ele>867.0</ele><time>2026-04-12T10:02:59.998Z</time></trkpt><trkpt lat="43.92396621286162" lon="7.617965741710094"><ele>867.0</ele><time>2026-04-12T10:03:00.998Z</time></trkpt><trkpt lat="43.92403248790732" lon="7.618007094011488"><ele>867.0</ele><time>2026-04-12T10:03:01.998Z</time></trkpt><trkpt lat="43.92409375472244" lon="7.618033589394037"><ele>867.0</ele><time>2026-04-12T10:03:02.998Z</time></trkpt><trkpt lat="43.924159458051264" lon="7.61807310067478"><ele>867.0</ele><time>2026-04-12T10:03:03.998Z</time></trkpt><trkpt lat="43.92422744389827" lon="7.61811801222008"><ele>867.0</ele><time>2026-04-12T10:04:03Z</time></trkpt><trkpt lat="43.92430902584396" lon="7.618165674540886"><ele>867.0</ele><time>2026-04-12T10:04:05Z</time></trkpt><trkpt lat="43.924417591079944" lon="7.618236377941509"><ele>864.6</ele><time>2026-04-12T10:04:07Z</time></trkpt><trkpt lat="43.92453689988838" lon="7.618254621020054"><ele>862.2</ele><time>2026-04-12T10:04:08.999Z</time></trkpt><trkpt lat="43.92464895921589" lon="7.618189960377533"><ele>859.8</ele><time>2026-04-12T10:04:10.999Z</time></trkpt><trkpt lat="43.924696139208976" lon="7.618130582880032"><ele>857.4</ele><time>2026-04-12T10:04:11.999Z</time></trkpt><trkpt lat="43.92474993000914" lon="7.618056026464546"><ele>855.0</ele><time>2026-04-12T10:04:12.999Z</time></trkpt><trkpt lat="43.92479666206283" lon="7.617970021354926"><ele>855.0</ele><time>2026-04-12T10:04:13.999Z</time></trkpt><trkpt lat="43.924835137693464" lon="7.617882266474354"><ele>855.0</ele><time>2026-04-12T10:04:14.999Z</time></trkpt><trkpt lat="43.92487634200877" lon="7.617783539737342"><ele>855.0</ele><time>2026-04-12T10:04:15.999Z</time></trkpt><trkpt lat="43.92491659127647" lon="7.617687645689677"><ele>855.0</ele><time>2026-04-12T10:04:16.999Z</time></trkpt><trkpt lat="43.924956825590996" lon="7.617595189090946"><ele>855.0</ele><time>2026-04-12T10:04:17.999Z</time></trkpt><trkpt lat="43.92499378828778" lon="7.6175102505558625"><ele>855.0</ele><time>2026-04-12T10:04:18.999Z</time></trkpt><trkpt lat="43.92503035878465" lon="7.617433726544302"><ele>857.5</ele><time>2026-04-12T10:04:19.999Z</time></trkpt><trkpt lat="43.9251007294859" lon="7.6173406336911755"><ele>860.0</ele><time>2026-04-12T10:04:21.999Z</time></trkpt><trkpt lat="43.92516247908318" lon="7.617322721619926"><ele>862.5</ele><time>2026-04-12T10:04:23.999Z</time></trkpt><trkpt lat="43.92524939793891" lon="7.617385493385461"><ele>865.0</ele><time>2026-04-12T10:04:25.999Z</time></trkpt><trkpt lat="43.92530235011188" lon="7.617445726053396"><ele>867.5</ele><time>2026-04-12T10:04:26.999Z</time></trkpt><trkpt lat="43.92534102162824" lon="7.617517593306661"><ele>870.0</ele><time>2026-04-12T10:04:27.999Z</time></trkpt><trkpt lat="43.9254320797335" lon="7.617621511456883"><ele>870.0</ele><time>2026-04-12T10:04:29.999Z</time></trkpt><trkpt lat="43.92556256533104" lon="7.617638345588634"><ele>870.0</ele><time>2026-04-12T10:04:31.999Z</time></trkpt><trkpt lat="43.92565205413006" lon="7.6176513914522985"><ele>870.0</ele><time>2026-04-12T10:04:32.999Z</time></trkpt><trkpt lat="43.92575216479842" lon="7.617641400987564"><ele>870.0</ele><time>2026-04-12T10:04:33.999Z</time></trkpt><trkpt lat="43.92586369785363" lon="7.617628135816182"><ele>870.0</ele><time>2026-04-12T10:04:34.999Z</time></trkpt><trkpt lat="43.92597651342233" lon="7.617612511426638"><ele>868.6</ele><time>2026-04-12T10:04:35.999Z</time></trkpt><trkpt lat="43.926086993437934" lon="7.617577838589649"><ele>867.2</ele><time>2026-04-12T10:04:36.999Z</time></trkpt><trkpt lat="43.926184968240975" lon="7.617576842204342"><ele>865.8</ele><time>2026-04-12T10:04:37.999Z</time></trkpt><trkpt lat="43.92627580464362" lon="7.6175667881720805"><ele>864.4</ele><time>2026-04-12T10:04:38.999Z</time></trkpt><trkpt lat="43.92636557895707" lon="7.6175566876480945"><ele>863.0</ele><time>2026-04-12T10:04:39.999Z</time></trkpt><trkpt lat="43.926454689000586" lon="7.617545701636399"><ele>863.0</ele><time>2026-04-12T10:04:40.999Z</time></trkpt><trkpt lat="43.92654087723661" lon="7.617524257026304"><ele>863.0</ele><time>2026-04-12T10:04:41.999Z</time></trkpt><trkpt lat="43.9266316982166" lon="7.617497687092151"><ele>863.0</ele><time>2026-04-12T10:04:42.999Z</time></trkpt><trkpt lat="43.92672073187386" lon="7.617457895025921"><ele>863.0</ele><time>2026-04-12T10:04:43.999Z</time></trkpt><trkpt lat="43.92680451241158" lon="7.617396652988754"><ele>863.0</ele><time>2026-04-12T10:04:44.999Z</time></trkpt><trkpt lat="43.92688386127358" lon="7.617332816665947"><ele>862.4</ele><time>2026-04-12T10:04:45.999Z</time></trkpt><trkpt lat="43.92695717065506" lon="7.617306769986088"><ele>861.8</ele><time>2026-04-12T10:04:46.999Z</time></trkpt><trkpt lat="43.92701742794677" lon="7.617281218259106"><ele>861.2</ele><time>2026-04-12T10:04:47.999Z</time></trkpt><trkpt lat="43.927137272388606" lon="7.617271454349347"><ele>860.6</ele><time>2026-04-12T10:04:49.998Z</time></trkpt><trkpt lat="43.92721835540898" lon="7.617319618414594"><ele>860.0</ele><time>2026-04-12T10:04:50.998Z</time></trkpt><trkpt lat="43.927310305449176" lon="7.6173932310581804"><ele>860.0</ele><time>2026-04-12T10:04:51.998Z</time></trkpt><trkpt lat="43.9273927922319" lon="7.6174732520855635"><ele>860.0</ele><time>2026-04-12T10:04:52.998Z</time></trkpt><trkpt lat="43.92748235550331" lon="7.617532227016648"><ele>860.0</ele><time>2026-04-12T10:04:53.998Z</time></trkpt><trkpt lat="43.92756051005834" lon="7.617590364440543"><ele>860.0</ele><time>2026-04-12T10:04:54.998Z</time></trkpt><trkpt lat="43.92764500748643" lon="7.617625365415059"><ele>860.0</ele><time>2026-04-12T10:04:55.998Z</time></trkpt><trkpt lat="43.92771408884786" lon="7.617677931469777"><ele>861.2</ele><time>2026-04-12T10:04:56.998Z</time></trkpt><trkpt lat="43.92780749471344" lon="7.6177019301038715"><ele>862.4</ele><time>2026-04-12T10:04:57.998Z</time></trkpt><trkpt lat="43.927919307509114" lon="7.617706844258591"><ele>863.5999999999999</ele><time>2026-04-12T10:04:58.998Z</time></trkpt><trkpt lat="43.92803151780692" lon="7.617711780882001"><ele>864.8</ele><time>2026-04-12T10:04:59.998Z</time></trkpt><trkpt lat="43.92813068551498" lon="7.617743271415177"><ele>866.0</ele><time>2026-04-12T10:05:00.998Z</time></trkpt><trkpt lat="43.92822852088348" lon="7.617763527299996"><ele>866.0000000000001</ele><time>2026-04-12T10:05:01.998Z</time></trkpt><trkpt lat="43.928322721832956" lon="7.617801992284089"><ele>866.0</ele><time>2026-04-12T10:05:02.998Z</time></trkpt><trkpt lat="43.92839227333382" lon="7.6178335821031204"><ele>866.0</ele><time>2026-04-12T10:05:03.998Z</time></trkpt><trkpt lat="43.928489292339236" lon="7.617847825453959"><ele>866.0</ele><time>2026-04-12T10:05:05.998Z</time></trkpt><trkpt lat="43.92851721319591" lon="7.6179574859640935"><ele>866.0000000000001</ele><time>2026-04-12T10:05:07.998Z</time></trkpt><trkpt lat="43.928483332339916" lon="7.618059339542497"><ele>866.0</ele><time>2026-04-12T10:05:09.998Z</time></trkpt><trkpt lat="43.9283903540176" lon="7.618046568238813"><ele>859.1999999999999</ele><time>2026-04-12T10:05:11.998Z</time></trkpt><trkpt lat="43.92826918235657" lon="7.617996965060373"><ele>852.3999999999999</ele><time>2026-04-12T10:05:13.998Z</time></trkpt><trkpt lat="43.9281880807547" lon="7.617982636770313"><ele>845.6</ele><time>2026-04-12T10:05:14.998Z</time></trkpt><trkpt lat="43.9280983730698" lon="7.617959735985653"><ele>838.8</ele><time>2026-04-12T10:05:15.998Z</time></trkpt><trkpt lat="43.92800923258023" lon="7.617962351256877"><ele>832.0</ele><time>2026-04-12T10:05:17Z</time></trkpt><trkpt lat="43.92790680854327" lon="7.617975947919808"><ele>832.0</ele><time>2026-04-12T10:05:18Z</time></trkpt><trkpt lat="43.92780125788779" lon="7.617964318857695"><ele>832.0</ele><time>2026-04-12T10:05:19Z</time></trkpt><trkpt lat="43.927696629084885" lon="7.617972391530981"><ele>832.0</ele><time>2026-04-12T10:05:20Z</time></trkpt><trkpt lat="43.92759740913431" lon="7.617980137664755"><ele>832.0</ele><time>2026-04-12T10:05:21Z</time></trkpt><trkpt lat="43.927494494860085" lon="7.6179894154018735"><ele>832.0</ele><time>2026-04-12T10:05:22Z</time></trkpt><trkpt lat="43.92739360505045" lon="7.618002885223799"><ele>830.4999999999999</ele><time>2026-04-12T10:05:23Z</time></trkpt><trkpt lat="43.92730343249493" lon="7.618031908297196"><ele>829.0</ele><time>2026-04-12T10:05:24Z</time></trkpt><trkpt lat="43.927210418723774" lon="7.618037434515792"><ele>827.5</ele><time>2026-04-12T10:05:25Z</time></trkpt><trkpt lat="43.92712896576794" lon="7.618055661895308"><ele>826.0</ele><time>2026-04-12T10:05:26Z</time></trkpt><trkpt lat="43.92705849663389" lon="7.618104462811245"><ele>824.4999999999999</ele><time>2026-04-12T10:05:27Z</time></trkpt><trkpt lat="43.92698866095781" lon="7.618168767911493"><ele>823.0</ele><time>2026-04-12T10:05:28Z</time></trkpt><trkpt lat="43.926909726962855" lon="7.618190772661707"><ele>822.9999999999999</ele><time>2026-04-12T10:05:29Z</time></trkpt><trkpt lat="43.92683707019456" lon="7.6182384460259955"><ele>823.0</ele><time>2026-04-12T10:05:30Z</time></trkpt><trkpt lat="43.926764958675975" lon="7.618285604447018"><ele>823.0</ele><time>2026-04-12T10:05:31Z</time></trkpt><trkpt lat="43.92670223399132" lon="7.618345419804164"><ele>823.0</ele><time>2026-04-12T10:05:32Z</time></trkpt><trkpt lat="43.92662705070388" lon="7.6183575208948415"><ele>822.9999999999999</ele><time>2026-04-12T10:05:33Z</time></trkpt><trkpt lat="43.9265568975496" lon="7.618383900169694"><ele>823.0</ele><time>2026-04-12T10:05:34Z</time></trkpt><trkpt lat="43.92648575027709" lon="7.618412488236577"><ele>824.8333333333333</ele><time>2026-04-12T10:05:35Z</time></trkpt><trkpt lat="43.926416927199824" lon="7.618456733661773"><ele>826.6666666666666</ele><time>2026-04-12T10:05:36Z</time></trkpt><trkpt lat="43.9263597991119" lon="7.618525412907566"><ele>828.5</ele><time>2026-04-12T10:05:37Z</time></trkpt><trkpt lat="43.9262998520938" lon="7.618617918557772"><ele>830.3333333333333</ele><time>2026-04-12T10:05:38Z</time></trkpt><trkpt lat="43.926236250323434" lon="7.6187201588476485"><ele>832.1666666666666</ele><time>2026-04-12T10:05:39Z</time></trkpt><trkpt lat="43.926179705281214" lon="7.618834415201757"><ele>834.0</ele><time>2026-04-12T10:05:40Z</time></trkpt><trkpt lat="43.926119361756996" lon="7.618930477879662"><ele>829.6</ele><time>2026-04-12T10:05:41Z</time></trkpt><trkpt lat="43.926060667580884" lon="7.619014315881348"><ele>825.2</ele><time>2026-04-12T10:05:42Z</time></trkpt><trkpt lat="43.92599980419678" lon="7.6190616365156085"><ele>820.8000000000001</ele><time>2026-04-12T10:05:43Z</time></trkpt><trkpt lat="43.92590686944666" lon="7.619173267835147"><ele>816.4000000000001</ele><time>2026-04-12T10:05:45Z</time></trkpt><trkpt lat="43.92579307047897" lon="7.61920670355606"><ele>812.0</ele><time>2026-04-12T10:05:47Z</time></trkpt><trkpt lat="43.925725198518606" lon="7.619198692834146"><ele>812.0000000000001</ele><time>2026-04-12T10:05:48Z</time></trkpt><trkpt lat="43.925646397237365" lon="7.619180408767467"><ele>812.0</ele><time>2026-04-12T10:05:49Z</time></trkpt><trkpt lat="43.92556123239088" lon="7.619155112639277"><ele>812.0</ele><time>2026-04-12T10:05:50Z</time></trkpt><trkpt lat="43.92546572183462" lon="7.619155785926274"><ele>812.0</ele><time>2026-04-12T10:05:51Z</time></trkpt><trkpt lat="43.925382095379604" lon="7.6191147198628135"><ele>812.0000000000001</ele><time>2026-04-12T10:05:52Z</time></trkpt><trkpt lat="43.92530766783164" lon="7.619129573418593"><ele>812.0</ele><time>2026-04-12T10:05:53Z</time></trkpt><trkpt lat="43.92523934132445" lon="7.61912608441094"><ele>812.0000000000001</ele><time>2026-04-12T10:05:54Z</time></trkpt><trkpt lat="43.92516800075383" lon="7.6191809632943395"><ele>812.0</ele><time>2026-04-12T10:05:55Z</time></trkpt><trkpt lat="43.9251167792438" lon="7.619301382900289"><ele>812.0</ele><time>2026-04-12T10:05:56Z</time></trkpt><trkpt lat="43.925103476442544" lon="7.619435402463899"><ele>812.0</ele><time>2026-04-12T10:05:57Z</time></trkpt><trkpt lat="43.92505584563141" lon="7.619541188950007"><ele>812.0000000000001</ele><time>2026-04-12T10:05:58Z</time></trkpt><trkpt lat="43.92501273051211" lon="7.619628201840181"><ele>812.0</ele><time>2026-04-12T10:05:59Z</time></trkpt><trkpt lat="43.92496838683671" lon="7.619699797030117"><ele>809.8</ele><time>2026-04-12T10:06:00Z</time></trkpt><trkpt lat="43.92486495171779" lon="7.619820677468932"><ele>807.6</ele><time>2026-04-12T10:06:02Z</time></trkpt><trkpt lat="43.92479618244458" lon="7.619868635155092"><ele>805.4</ele><time>2026-04-12T10:06:03Z</time></trkpt><trkpt lat="43.92468860426938" lon="7.6198935344573"><ele>803.1999999999999</ele><time>2026-04-12T10:06:05Z</time></trkpt><trkpt lat="43.924593090619155" lon="7.619859248443838"><ele>801.0</ele><time>2026-04-12T10:06:07Z</time></trkpt><trkpt lat="43.92453998849805" lon="7.619810141962782"><ele>801.0</ele><time>2026-04-12T10:06:08Z</time></trkpt><trkpt lat="43.92446453705937" lon="7.619757769856758"><ele>801.0</ele><time>2026-04-12T10:06:09Z</time></trkpt><trkpt lat="43.92436842564732" lon="7.619734032769665"><ele>801.0</ele><time>2026-04-12T10:06:09.999Z</time></trkpt><trkpt lat="43.92429036673873" lon="7.619751739771523"><ele>801.0</ele><time>2026-04-12T10:06:10.999Z</time></trkpt><trkpt lat="43.924224379223006" lon="7.619806602425661"><ele>801.0</ele><time>2026-04-12T10:06:11.999Z</time></trkpt><trkpt lat="43.92421720355569" lon="7.619938599634835"><ele>801.0</ele><time>2026-04-12T10:06:12.999Z</time></trkpt><trkpt lat="43.92419926451563" lon="7.620027789720139"><ele>801.1666666666666</ele><time>2026-04-12T10:06:13.999Z</time></trkpt><trkpt lat="43.92419609905885" lon="7.620146548660122"><ele>801.3333333333333</ele><time>2026-04-12T10:06:14.999Z</time></trkpt><trkpt lat="43.9241831575137" lon="7.620249479237249"><ele>801.5</ele><time>2026-04-12T10:06:15.999Z</time></trkpt><trkpt lat="43.92412268559633" lon="7.620350664784393"><ele>801.6666666666666</ele><time>2026-04-12T10:06:17.999Z</time></trkpt><trkpt lat="43.92403487059965" lon="7.620450923311489"><ele>801.8333333333333</ele><time>2026-04-12T10:06:19.999Z</time></trkpt><trkpt lat="43.92397561752213" lon="7.620518265688785"><ele>802.0</ele><time>2026-04-12T10:06:20.999Z</time></trkpt><trkpt lat="43.92389326715701" lon="7.620540421016629"><ele>802.0</ele><time>2026-04-12T10:06:21.999Z</time></trkpt><trkpt lat="43.9238166042539" lon="7.620611381261364"><ele>802.0</ele><time>2026-04-12T10:06:22.999Z</time></trkpt><trkpt lat="43.92374548840056" lon="7.6206893733105785"><ele>802.0</ele><time>2026-04-12T10:06:23.999Z</time></trkpt><trkpt lat="43.92370179822277" lon="7.620791965299239"><ele>802.0</ele><time>2026-04-12T10:06:24.999Z</time></trkpt><trkpt lat="43.92366270544883" lon="7.620906135045531"><ele>802.0</ele><time>2026-04-12T10:06:25.999Z</time></trkpt><trkpt lat="43.923620384936434" lon="7.621042553427024"><ele>798.2</ele><time>2026-04-12T10:06:26.999Z</time></trkpt><trkpt lat="43.92356839952509" lon="7.621184583456163"><ele>794.4000000000001</ele><time>2026-04-12T10:06:27.999Z</time></trkpt><trkpt lat="43.92352721375427" lon="7.621332882938242"><ele>790.5999999999999</ele><time>2026-04-12T10:06:28.999Z</time></trkpt><trkpt lat="43.92348905831591" lon="7.621473541607702"><ele>786.8</ele><time>2026-04-12T10:06:29.999Z</time></trkpt><trkpt lat="43.92345121486382" lon="7.621609598010425"><ele>783.0</ele><time>2026-04-12T10:06:30.999Z</time></trkpt><trkpt lat="43.923413174530864" lon="7.621746360372873"><ele>784.5999999999999</ele><time>2026-04-12T10:06:31.999Z</time></trkpt><trkpt lat="43.92337564241198" lon="7.6218833367556"><ele>786.1999999999999</ele><time>2026-04-12T10:06:32.999Z</time></trkpt><trkpt lat="43.923339324881816" lon="7.6220331192548"><ele>787.8</ele><time>2026-04-12T10:06:33.999Z</time></trkpt><trkpt lat="43.92332532177594" lon="7.62218291324157"><ele>789.4</ele><time>2026-04-12T10:06:34.999Z</time></trkpt><trkpt lat="43.9232953132543" lon="7.622327711283603"><ele>791.0</ele><time>2026-04-12T10:06:35.999Z</time></trkpt><trkpt lat="43.92326001601298" lon="7.622461913400101"><ele>791.0000000000001</ele><time>2026-04-12T10:06:36.999Z</time></trkpt><trkpt lat="43.92323191723377" lon="7.622584313963689"><ele>791.0</ele><time>2026-04-12T10:06:37.999Z</time></trkpt><trkpt lat="43.92320140379323" lon="7.622693193288107"><ele>791.0</ele><time>2026-04-12T10:06:38.999Z</time></trkpt><trkpt lat="43.923176010082294" lon="7.622800600088753"><ele>791.0</ele><time>2026-04-12T10:06:39.999Z</time></trkpt><trkpt lat="43.92313210140511" lon="7.622879846065506"><ele>791.0000000000001</ele><time>2026-04-12T10:06:40.999Z</time></trkpt><trkpt lat="43.923076928719325" lon="7.62294542791667"><ele>791.0</ele><time>2026-04-12T10:06:41.999Z</time></trkpt><trkpt lat="43.92302249977539" lon="7.623010937101564"><ele>787.1999999999999</ele><time>2026-04-12T10:06:42.999Z</time></trkpt><trkpt lat="43.922922930734295" lon="7.62310107117276"><ele>783.4</ele><time>2026-04-12T10:06:44.999Z</time></trkpt><trkpt lat="43.92287069111628" lon="7.623153132902278"><ele>779.6</ele><time>2026-04-12T10:06:45.999Z</time></trkpt><trkpt lat="43.92280409242135" lon="7.623288427833375"><ele>775.8</ele><time>2026-04-12T10:06:47.999Z</time></trkpt><trkpt lat="43.922829362055346" lon="7.623383992772307"><ele>772.0</ele><time>2026-04-12T10:06:48.999Z</time></trkpt><trkpt lat="43.92291302344477" lon="7.623451893140586"><ele>771.9999999999999</ele><time>2026-04-12T10:06:50.999Z</time></trkpt><trkpt lat="43.92301205888535" lon="7.623364993962366"><ele>772.0</ele><time>2026-04-12T10:06:52.998Z</time></trkpt><trkpt lat="43.923072969244664" lon="7.623295704708891"><ele>772.0</ele><time>2026-04-12T10:06:53.998Z</time></trkpt><trkpt lat="43.92313448905504" lon="7.623212255504485"><ele>772.0</ele><time>2026-04-12T10:06:54.998Z</time></trkpt><trkpt lat="43.92319042931598" lon="7.623129446915994"><ele>771.9999999999999</ele><time>2026-04-12T10:06:55.998Z</time></trkpt><trkpt lat="43.92324729874888" lon="7.623040241699991"><ele>772.0</ele><time>2026-04-12T10:06:56.998Z</time></trkpt><trkpt lat="43.92330144249706" lon="7.622947810372846"><ele>772.0</ele><time>2026-04-12T10:06:57.998Z</time></trkpt><trkpt lat="43.923354536298675" lon="7.622847896587563"><ele>772.0</ele><time>2026-04-12T10:06:58.998Z</time></trkpt><trkpt lat="43.92341121789934" lon="7.622734144484384"><ele>772.0</ele><time>2026-04-12T10:06:59.998Z</time></trkpt><trkpt lat="43.92346726238409" lon="7.622611052851768"><ele>772.0</ele><time>2026-04-12T10:07:00.998Z</time></trkpt><trkpt lat="43.92352050698167" lon="7.6224706255293"><ele>772.0</ele><time>2026-04-12T10:07:01.998Z</time></trkpt><trkpt lat="43.92356639487527" lon="7.6223423347176515"><ele>771.1666666666666</ele><time>2026-04-12T10:07:02.998Z</time></trkpt><trkpt lat="43.923607138967235" lon="7.622230300750426"><ele>770.3333333333333</ele><time>2026-04-12T10:07:03.998Z</time></trkpt><trkpt lat="43.92364779377027" lon="7.622118976475974"><ele>769.5</ele><time>2026-04-12T10:07:04.998Z</time></trkpt><trkpt lat="43.9236878241208" lon="7.6220128372611855"><ele>768.6666666666666</ele><time>2026-04-12T10:07:05.998Z</time></trkpt><trkpt lat="43.923729689990815" lon="7.621914898738541"><ele>767.8333333333333</ele><time>2026-04-12T10:07:06.998Z</time></trkpt><trkpt lat="43.92376650781716" lon="7.621818164681223"><ele>767.0</ele><time>2026-04-12T10:07:07.998Z</time></trkpt><trkpt lat="43.923818750763054" lon="7.621746072790286"><ele>769.6666666666666</ele><time>2026-04-12T10:07:08.998Z</time></trkpt><trkpt lat="43.923894301492936" lon="7.621647979513867"><ele>772.3333333333333</ele><time>2026-04-12T10:07:10.998Z</time></trkpt><trkpt lat="43.92398684156906" lon="7.621654870215985"><ele>775.0</ele><time>2026-04-12T10:07:12.998Z</time></trkpt><trkpt lat="43.92406115698124" lon="7.621710230904324"><ele>777.6666666666666</ele><time>2026-04-12T10:07:14.998Z</time></trkpt><trkpt lat="43.9241180415396" lon="7.621757905620904"><ele>780.3333333333334</ele><time>2026-04-12T10:07:15.998Z</time></trkpt><trkpt lat="43.924163546943625" lon="7.62183552374558"><ele>783.0</ele><time>2026-04-12T10:07:16.998Z</time></trkpt><trkpt lat="43.92422432795948" lon="7.621905613583992"><ele>777.1666666666666</ele><time>2026-04-12T10:07:17.998Z</time></trkpt><trkpt lat="43.92429274599706" lon="7.621981859359326"><ele>771.3333333333334</ele><time>2026-04-12T10:07:18.998Z</time></trkpt><trkpt lat="43.924365097936516" lon="7.622032383967503"><ele>765.5</ele><time>2026-04-12T10:07:19.998Z</time></trkpt><trkpt lat="43.924436615974656" lon="7.622060661651837"><ele>759.6666666666667</ele><time>2026-04-12T10:07:20.998Z</time></trkpt><trkpt lat="43.92451106450601" lon="7.6220613036350775"><ele>753.8333333333334</ele><time>2026-04-12T10:07:21.998Z</time></trkpt><trkpt lat="43.924588046492815" lon="7.622041879392702"><ele>748.0</ele><time>2026-04-12T10:07:23Z</time></trkpt><trkpt lat="43.92465895022641" lon="7.622005332936908"><ele>751.0</ele><time>2026-04-12T10:07:24Z</time></trkpt><trkpt lat="43.92473012344791" lon="7.6219502983931315"><ele>754.0</ele><time>2026-04-12T10:07:25Z</time></trkpt><trkpt lat="43.92479353107104" lon="7.621877978457833"><ele>757.0</ele><time>2026-04-12T10:07:26Z</time></trkpt><trkpt lat="43.92486621953674" lon="7.621825865622698"><ele>760.0</ele><time>2026-04-12T10:07:27Z</time></trkpt><trkpt lat="43.92492068069166" lon="7.621727551676689"><ele>763.0</ele><time>2026-04-12T10:07:28Z</time></trkpt><trkpt lat="43.92497987178935" lon="7.62164667943529"><ele>766.0</ele><time>2026-04-12T10:07:29Z</time></trkpt><trkpt lat="43.92502512484543" lon="7.621553137072808"><ele>764.0</ele><time>2026-04-12T10:07:30Z</time></trkpt><trkpt lat="43.925069680539934" lon="7.621464795814595"><ele>762.0</ele><time>2026-04-12T10:07:31Z</time></trkpt><trkpt lat="43.92510464449141" lon="7.621385554158772"><ele>760.0</ele><time>2026-04-12T10:07:32Z</time></trkpt><trkpt lat="43.925130965996146" lon="7.621222510176879"><ele>758.0</ele><time>2026-04-12T10:07:34Z</time></trkpt><trkpt lat="43.925073734778415" lon="7.621072000116184"><ele>756.0</ele><time>2026-04-12T10:07:36Z</time></trkpt><trkpt lat="43.92506477265795" lon="7.620982690755419"><ele>756.0</ele><time>2026-04-12T10:07:37Z</time></trkpt><trkpt lat="43.92507402864167" lon="7.620853252497398"><ele>756.0</ele><time>2026-04-12T10:07:39Z</time></trkpt><trkpt lat="43.925134758912286" lon="7.620746859741455"><ele>756.0</ele><time>2026-04-12T10:07:41Z</time></trkpt><trkpt lat="43.92525071007313" lon="7.620679982571777"><ele>756.0</ele><time>2026-04-12T10:07:43Z</time></trkpt><trkpt lat="43.92531121486004" lon="7.620638412044396"><ele>756.0</ele><time>2026-04-12T10:07:44Z</time></trkpt><trkpt lat="43.92543094225276" lon="7.6206169812895075"><ele>756.0</ele><time>2026-04-12T10:07:46Z</time></trkpt><trkpt lat="43.92550577352347" lon="7.6205922793619605"><ele>756.0</ele><time>2026-04-12T10:07:47Z</time></trkpt><trkpt lat="43.925601259834664" lon="7.620628896835474"><ele>756.0</ele><time>2026-04-12T10:07:48Z</time></trkpt><trkpt lat="43.92570083765084" lon="7.620631260488835"><ele>756.0</ele><time>2026-04-12T10:07:49Z</time></trkpt><trkpt lat="43.92581212899495" lon="7.62061633214053"><ele>756.0</ele><time>2026-04-12T10:07:50Z</time></trkpt><trkpt lat="43.92593645611898" lon="7.6206120547612715"><ele>753.4</ele><time>2026-04-12T10:07:51Z</time></trkpt><trkpt lat="43.92605366226031" lon="7.620628162810864"><ele>750.8</ele><time>2026-04-12T10:07:52Z</time></trkpt><trkpt lat="43.92617760788828" lon="7.620634574964288"><ele>748.1999999999999</ele><time>2026-04-12T10:07:53Z</time></trkpt><trkpt lat="43.926288154573925" lon="7.620642470395435"><ele>745.5999999999999</ele><time>2026-04-12T10:07:54Z</time></trkpt><trkpt lat="43.92637579048438" lon="7.620643150572903"><ele>743.0</ele><time>2026-04-12T10:07:55Z</time></trkpt><trkpt lat="43.92645425453842" lon="7.620655900768664"><ele>743.0</ele><time>2026-04-12T10:07:56Z</time></trkpt><trkpt lat="43.92652200938775" lon="7.6206306223261775"><ele>743.0</ele><time>2026-04-12T10:07:57Z</time></trkpt><trkpt lat="43.926593938353484" lon="7.620606616645044"><ele>743.0</ele><time>2026-04-12T10:07:58Z</time></trkpt><trkpt lat="43.92667748972255" lon="7.620575240878096"><ele>743.0</ele><time>2026-04-12T10:07:59Z</time></trkpt><trkpt lat="43.92676863051966" lon="7.620545373130477"><ele>743.0</ele><time>2026-04-12T10:08:00Z</time></trkpt><trkpt lat="43.92685085529349" lon="7.620490451494262"><ele>743.0</ele><time>2026-04-12T10:08:01Z</time></trkpt><trkpt lat="43.92691487445345" lon="7.62043868329715"><ele>739.2</ele><time>2026-04-12T10:08:02Z</time></trkpt><trkpt lat="43.927022545618335" lon="7.620437653265811"><ele>735.4</ele><time>2026-04-12T10:08:04Z</time></trkpt><trkpt lat="43.92710937636221" lon="7.6204432693942445"><ele>731.6</ele><time>2026-04-12T10:08:06Z</time></trkpt><trkpt lat="43.9270988015655" lon="7.62058253453606"><ele>727.8000000000001</ele><time>2026-04-12T10:08:08Z</time></trkpt><trkpt lat="43.92696150078727" lon="7.620622785648639"><ele>724.0</ele><time>2026-04-12T10:08:10Z</time></trkpt><trkpt lat="43.92688553077222" lon="7.620692372616934"><ele>724.0</ele><time>2026-04-12T10:08:11Z</time></trkpt><trkpt lat="43.926780457861305" lon="7.6207501448723685"><ele>724.0</ele><time>2026-04-12T10:08:12Z</time></trkpt><trkpt lat="43.92668069013535" lon="7.620836223299724"><ele>724.0</ele><time>2026-04-12T10:08:13Z</time></trkpt><trkpt lat="43.92656251799764" lon="7.620951184107361"><ele>724.0</ele><time>2026-04-12T10:08:13.999Z</time></trkpt><trkpt lat="43.926462875010316" lon="7.62106715633622"><ele>724.5</ele><time>2026-04-12T10:08:14.999Z</time></trkpt><trkpt lat="43.926368967149955" lon="7.621147443306317"><ele>725.0</ele><time>2026-04-12T10:08:15.999Z</time></trkpt><trkpt lat="43.92627463014659" lon="7.621260248927646"><ele>725.5</ele><time>2026-04-12T10:08:16.999Z</time></trkpt><trkpt lat="43.92619056397648" lon="7.621369382697904"><ele>726.0</ele><time>2026-04-12T10:08:17.999Z</time></trkpt><trkpt lat="43.926110308122205" lon="7.621467686923898"><ele>726.0</ele><time>2026-04-12T10:08:18.999Z</time></trkpt><trkpt lat="43.92604162151713" lon="7.621542103260468"><ele>726.0</ele><time>2026-04-12T10:08:19.999Z</time></trkpt><trkpt lat="43.92598070143168" lon="7.621579892576453"><ele>726.0</ele><time>2026-04-12T10:08:20.999Z</time></trkpt><trkpt lat="43.92586924483476" lon="7.62161212317646"><ele>726.0</ele><time>2026-04-12T10:08:22.999Z</time></trkpt><trkpt lat="43.925767303481614" lon="7.621535452400975"><ele>726.0</ele><time>2026-04-12T10:08:24.999Z</time></trkpt><trkpt lat="43.92569538991636" lon="7.621488432119057"><ele>728.0</ele><time>2026-04-12T10:08:25.999Z</time></trkpt><trkpt lat="43.92562538208284" lon="7.6214726019075245"><ele>730.0</ele><time>2026-04-12T10:08:26.999Z</time></trkpt><trkpt lat="43.925518710265315" lon="7.621477073109358"><ele>732.0</ele><time>2026-04-12T10:08:28.999Z</time></trkpt><trkpt lat="43.92543476696606" lon="7.621594124346652"><ele>734.0</ele><time>2026-04-12T10:08:30.999Z</time></trkpt><trkpt lat="43.92540183731" lon="7.621695333701136"><ele>736.0</ele><time>2026-04-12T10:08:31.999Z</time></trkpt><trkpt lat="43.92538896469667" lon="7.6218262348349795"><ele>736.0</ele><time>2026-04-12T10:08:32.999Z</time></trkpt><trkpt lat="43.92539317221785" lon="7.62197534438373"><ele>736.0</ele><time>2026-04-12T10:08:33.999Z</time></trkpt><trkpt lat="43.92539559064199" lon="7.622115343440496"><ele>736.0</ele><time>2026-04-12T10:08:34.999Z</time></trkpt><trkpt lat="43.9254047127864" lon="7.622247599242969"><ele>736.0</ele><time>2026-04-12T10:08:35.999Z</time></trkpt><trkpt lat="43.92542011279671" lon="7.622355976817369"><ele>736.0</ele><time>2026-04-12T10:08:36.999Z</time></trkpt><trkpt lat="43.92542960891577" lon="7.62246148309515"><ele>732.1666666666667</ele><time>2026-04-12T10:08:37.999Z</time></trkpt><trkpt lat="43.92542500841067" lon="7.622565647488643"><ele>728.3333333333334</ele><time>2026-04-12T10:08:38.999Z</time></trkpt><trkpt lat="43.92541030152397" lon="7.622677883654733"><ele>724.5</ele><time>2026-04-12T10:08:39.999Z</time></trkpt><trkpt lat="43.9253957565659" lon="7.622787601668564"><ele>720.6666666666666</ele><time>2026-04-12T10:08:40.999Z</time></trkpt><trkpt lat="43.92538868796937" lon="7.622886177139519"><ele>716.8333333333333</ele><time>2026-04-12T10:08:41.999Z</time></trkpt><trkpt lat="43.92539724562583" lon="7.623037052024189"><ele>713.0</ele><time>2026-04-12T10:08:43.999Z</time></trkpt><trkpt lat="43.92534686090407" lon="7.623177968949543"><ele>709.2</ele><time>2026-04-12T10:08:45.999Z</time></trkpt><trkpt lat="43.92528166390272" lon="7.623273450329486"><ele>705.4</ele><time>2026-04-12T10:08:46.999Z</time></trkpt><trkpt lat="43.92523482764229" lon="7.623398777962196"><ele>701.6</ele><time>2026-04-12T10:08:47.999Z</time></trkpt><trkpt lat="43.925213575360154" lon="7.623526963780079"><ele>697.8000000000001</ele><time>2026-04-12T10:08:48.999Z</time></trkpt><trkpt lat="43.92517527195034" lon="7.623653885799169"><ele>694.0</ele><time>2026-04-12T10:08:49.999Z</time></trkpt><trkpt lat="43.92516209726494" lon="7.623796947350318"><ele>696.5</ele><time>2026-04-12T10:08:50.999Z</time></trkpt><trkpt lat="43.92515709130556" lon="7.623901849152209"><ele>699.0</ele><time>2026-04-12T10:08:51.999Z</time></trkpt><trkpt lat="43.92515831524282" lon="7.623996126273222"><ele>701.5</ele><time>2026-04-12T10:08:52.999Z</time></trkpt><trkpt lat="43.92513347048513" lon="7.624130095410774"><ele>704.0</ele><time>2026-04-12T10:08:54.999Z</time></trkpt><trkpt lat="43.92506288563569" lon="7.624279605421172"><ele>706.5</ele><time>2026-04-12T10:08:56.998Z</time></trkpt><trkpt lat="43.925022060320444" lon="7.624366632351536"><ele>709.0</ele><time>2026-04-12T10:08:57.998Z</time></trkpt><trkpt lat="43.92497326645897" lon="7.6244400101550704"><ele>709.0</ele><time>2026-04-12T10:08:58.998Z</time></trkpt><trkpt lat="43.924879074057976" lon="7.624511640018999"><ele>709.0</ele><time>2026-04-12T10:09:00.998Z</time></trkpt><trkpt lat="43.92475559031495" lon="7.624502942093302"><ele>709.0</ele><time>2026-04-12T10:09:02.998Z</time></trkpt><trkpt lat="43.924690797112646" lon="7.624460269971431"><ele>709.0</ele><time>2026-04-12T10:09:03.998Z</time></trkpt><trkpt lat="43.92462828092691" lon="7.624446253458899"><ele>709.0</ele><time>2026-04-12T10:09:04.998Z</time></trkpt><trkpt lat="43.92452413149962" lon="7.624484647796575"><ele>705.1666666666667</ele><time>2026-04-12T10:09:06.998Z</time></trkpt><trkpt lat="43.92449490196612" lon="7.624563752250677"><ele>701.3333333333334</ele><time>2026-04-12T10:09:07.998Z</time></trkpt><trkpt lat="43.9244601121383" lon="7.6246846273983335"><ele>697.5</ele><time>2026-04-12T10:09:08.998Z</time></trkpt><trkpt lat="43.924460700178464" lon="7.624803575492799"><ele>693.6666666666666</ele><time>2026-04-12T10:09:09.998Z</time></trkpt><trkpt lat="43.92447379191745" lon="7.6249073838799175"><ele>689.8333333333333</ele><time>2026-04-12T10:09:10.998Z</time></trkpt><trkpt lat="43.92449655059898" lon="7.62500711436627"><ele>686.0</ele><time>2026-04-12T10:09:11.998Z</time></trkpt><trkpt lat="43.92448748853787" lon="7.625119750998809"><ele>686.0</ele><time>2026-04-12T10:09:13.998Z</time></trkpt><trkpt lat="43.92443435479488" lon="7.6252500645833114"><ele>686.0</ele><time>2026-04-12T10:09:15.998Z</time></trkpt><trkpt lat="43.92437002651129" lon="7.6253069561431595"><ele>686.0</ele><time>2026-04-12T10:09:16.998Z</time></trkpt><trkpt lat="43.92431423305193" lon="7.625359530915008"><ele>686.0</ele><time>2026-04-12T10:09:17.998Z</time></trkpt><trkpt lat="43.92420133730663" lon="7.625423914247102"><ele>686.0</ele><time>2026-04-12T10:09:19.998Z</time></trkpt><trkpt lat="43.92412239133271" lon="7.625437726645186"><ele>684.1999999999999</ele><time>2026-04-12T10:09:20.998Z</time></trkpt><trkpt lat="43.92404233352878" lon="7.625434333571873"><ele>682.4</ele><time>2026-04-12T10:09:21.998Z</time></trkpt><trkpt lat="43.9239618309477" lon="7.625434342155756"><ele>680.6</ele><time>2026-04-12T10:09:22.998Z</time></trkpt><trkpt lat="43.92385757530694" lon="7.625448474683033"><ele>678.8</ele><time>2026-04-12T10:09:24.998Z</time></trkpt><trkpt lat="43.923823653396866" lon="7.625577513522267"><ele>677.0</ele><time>2026-04-12T10:09:26.998Z</time></trkpt><trkpt lat="43.92389662449662" lon="7.625677232319283"><ele>677.0</ele><time>2026-04-12T10:09:29Z</time></trkpt><trkpt lat="43.92397077473165" lon="7.625675171959067"><ele>677.0</ele><time>2026-04-12T10:09:30Z</time></trkpt><trkpt lat="43.9240600630897" lon="7.625654078542226"><ele>677.0</ele><time>2026-04-12T10:09:31Z</time></trkpt><trkpt lat="43.924141211900206" lon="7.625647847484539"><ele>677.0</ele><time>2026-04-12T10:09:32Z</time></trkpt><trkpt lat="43.924219295212104" lon="7.625643863385151"><ele>677.0</ele><time>2026-04-12T10:09:33Z</time></trkpt><trkpt lat="43.92429770374703" lon="7.625616700322155"><ele>677.0</ele><time>2026-04-12T10:09:34Z</time></trkpt><trkpt lat="43.92438262323705" lon="7.62557036288944"><ele>678.5</ele><time>2026-04-12T10:09:35Z</time></trkpt><trkpt lat="43.92447125495561" lon="7.625539917872357"><ele>680.0</ele><time>2026-04-12T10:09:36Z</time></trkpt><trkpt lat="43.92455462526045" lon="7.625491073463651"><ele>681.5</ele><time>2026-04-12T10:09:37Z</time></trkpt><trkpt lat="43.92463101911643" lon="7.625413299958062"><ele>683.0</ele><time>2026-04-12T10:09:38Z</time></trkpt><trkpt lat="43.92471280542026" lon="7.625362830048502"><ele>684.5</ele><time>2026-04-12T10:09:39Z</time></trkpt><trkpt lat="43.92478313060252" lon="7.62530839142178"><ele>686.0</ele><time>2026-04-12T10:09:40Z</time></trkpt><trkpt lat="43.924835712816844" lon="7.625249090767298"><ele>686.0</ele><time>2026-04-12T10:09:41Z</time></trkpt><trkpt lat="43.92492918639192" lon="7.625157744497173"><ele>686.0</ele><time>2026-04-12T10:09:43Z</time></trkpt><trkpt lat="43.925052026037655" lon="7.625158632778053"><ele>686.0</ele><time>2026-04-12T10:09:45Z</time></trkpt><trkpt lat="43.92512687782544" lon="7.62513995311767"><ele>686.0</ele><time>2026-04-12T10:09:46Z</time></trkpt><trkpt lat="43.92522159764061" lon="7.625130834308777"><ele>686.0</ele><time>2026-04-12T10:09:48Z</time></trkpt><trkpt lat="43.925304526548715" lon="7.625006379937232"><ele>677.5999999999999</ele><time>2026-04-12T10:09:50Z</time></trkpt><trkpt lat="43.92536953602388" lon="7.6249268189251165"><ele>669.2</ele><time>2026-04-12T10:09:51Z</time></trkpt><trkpt lat="43.92542270028595" lon="7.624826008192461"><ele>660.8</ele><time>2026-04-12T10:09:52Z</time></trkpt><trkpt lat="43.92546852513523" lon="7.6247136502188"><ele>652.4000000000001</ele><time>2026-04-12T10:09:53Z</time></trkpt><trkpt lat="43.92551277949542" lon="7.624593493231352"><ele>644.0</ele><time>2026-04-12T10:09:54Z</time></trkpt><trkpt lat="43.92558760092367" lon="7.62448691181239"><ele>644.5</ele><time>2026-04-12T10:09:55Z</time></trkpt><trkpt lat="43.925663554831" lon="7.624366518194211"><ele>645.0</ele><time>2026-04-12T10:09:56Z</time></trkpt><trkpt lat="43.925745166509394" lon="7.6242591521078475"><ele>645.5</ele><time>2026-04-12T10:09:57Z</time></trkpt><trkpt lat="43.92582421011558" lon="7.624146012758282"><ele>646.0</ele><time>2026-04-12T10:09:58Z</time></trkpt><trkpt lat="43.925903129187944" lon="7.6240325460633835"><ele>646.0</ele><time>2026-04-12T10:09:59Z</time></trkpt><trkpt lat="43.925973385618015" lon="7.623928415006015"><ele>646.0</ele><time>2026-04-12T10:10:00Z</time></trkpt><trkpt lat="43.926036081710585" lon="7.6238430230593766"><ele>646.0</ele><time>2026-04-12T10:10:01Z</time></trkpt><trkpt lat="43.92609547645382" lon="7.623769760263239"><ele>646.0</ele><time>2026-04-12T10:10:02Z</time></trkpt><trkpt lat="43.92614834678567" lon="7.623710445848408"><ele>646.0</ele><time>2026-04-12T10:10:03Z</time></trkpt><trkpt lat="43.92624467738203" lon="7.623636534984486"><ele>646.0</ele><time>2026-04-12T10:10:05Z</time></trkpt><trkpt lat="43.92634705855955" lon="7.623639402188308"><ele>646.0</ele><time>2026-04-12T10:10:07Z</time></trkpt><trkpt lat="43.92642781990094" lon="7.623680002935469"><ele>646.0</ele><time>2026-04-12T10:10:08Z</time></trkpt><trkpt lat="43.92652246807461" lon="7.623739159179415"><ele>646.0</ele><time>2026-04-12T10:10:09Z</time></trkpt><trkpt lat="43.92662062439305" lon="7.623801240844925"><ele>646.0</ele><time>2026-04-12T10:10:10Z</time></trkpt><trkpt lat="43.92671731406564" lon="7.623853598416347"><ele>646.0</ele><time>2026-04-12T10:10:11Z</time></trkpt><trkpt lat="43.92681115424184" lon="7.623908988373801"><ele>645.4</ele><time>2026-04-12T10:10:12Z</time></trkpt><trkpt lat="43.92688602558136" lon="7.623985176648701"><ele>644.8</ele><time>2026-04-12T10:10:13Z</time></trkpt><trkpt lat="43.92696778744097" lon="7.6240420971532705"><ele>644.1999999999999</ele><time>2026-04-12T10:10:14Z</time></trkpt><trkpt lat="43.92705942079471" lon="7.624088649455264"><ele>643.5999999999999</ele><time>2026-04-12T10:10:15Z</time></trkpt><trkpt lat="43.9271542375426" lon="7.624096357681159"><ele>643.0</ele><time>2026-04-12T10:10:16Z</time></trkpt><trkpt lat="43.927235003783856" lon="7.624131214878713"><ele>643.0</ele><time>2026-04-12T10:10:16.999Z</time></trkpt><trkpt lat="43.92731628852394" lon="7.624142004626237"><ele>643.0</ele><time>2026-04-12T10:10:17.999Z</time></trkpt><trkpt lat="43.92738987897502" lon="7.624149075444525"><ele>643.0</ele><time>2026-04-12T10:10:18.999Z</time></trkpt><trkpt lat="43.92746596431129" lon="7.624149807416258"><ele>643.0</ele><time>2026-04-12T10:10:19.999Z</time></trkpt><trkpt lat="43.927537093953546" lon="7.624137841966806"><ele>643.0</ele><time>2026-04-12T10:10:20.999Z</time></trkpt><trkpt lat="43.92760969033494" lon="7.624100147825191"><ele>643.0</ele><time>2026-04-12T10:10:21.999Z</time></trkpt><trkpt lat="43.9276691193355" lon="7.6240334090230775"><ele>637.8333333333334</ele><time>2026-04-12T10:10:22.999Z</time></trkpt><trkpt lat="43.92771827290753" lon="7.623964819763971"><ele>632.6666666666667</ele><time>2026-04-12T10:10:23.999Z</time></trkpt><trkpt lat="43.92775478410947" lon="7.623872834482727"><ele>627.5</ele><time>2026-04-12T10:10:24.999Z</time></trkpt><trkpt lat="43.927827505639435" lon="7.623777211771197"><ele>622.3333333333334</ele><time>2026-04-12T10:10:26.999Z</time></trkpt><trkpt lat="43.92787780739107" lon="7.623720744610362"><ele>617.1666666666666</ele><time>2026-04-12T10:10:28.999Z</time></trkpt><trkpt lat="43.92793507223254" lon="7.623830469961738"><ele>612.0</ele><time>2026-04-12T10:10:30.999Z</time></trkpt><trkpt lat="43.927856701088366" lon="7.623970259647"><ele>612.0</ele><time>2026-04-12T10:10:32.999Z</time></trkpt><trkpt lat="43.927795059078775" lon="7.624054175873772"><ele>612.0</ele><time>2026-04-12T10:10:33.999Z</time></trkpt><trkpt lat="43.92774971619094" lon="7.624137478078137"><ele>612.0</ele><time>2026-04-12T10:10:34.999Z</time></trkpt><trkpt lat="43.927697327477134" lon="7.624210385380759"><ele>612.0</ele><time>2026-04-12T10:10:35.999Z</time></trkpt><trkpt lat="43.927641406195676" lon="7.624276567027776"><ele>612.0</ele><time>2026-04-12T10:10:36.999Z</time></trkpt><trkpt lat="43.92757342869702" lon="7.624324496558861"><ele>612.0</ele><time>2026-04-12T10:10:37.999Z</time></trkpt><trkpt lat="43.927502778153304" lon="7.624375484255713"><ele>612.6666666666666</ele><time>2026-04-12T10:10:38.999Z</time></trkpt><trkpt lat="43.92742233859387" lon="7.624412707871517"><ele>613.3333333333334</ele><time>2026-04-12T10:10:39.999Z</time></trkpt><trkpt lat="43.92734556208227" lon="7.624464432392261"><ele>614.0</ele><time>2026-04-12T10:10:40.999Z</time></trkpt><trkpt lat="43.92726888494257" lon="7.624506925331253"><ele>614.6666666666667</ele><time>2026-04-12T10:10:41.999Z</time></trkpt><trkpt lat="43.92719773238734" lon="7.624558709046904"><ele>615.3333333333334</ele><time>2026-04-12T10:10:42.999Z</time></trkpt><trkpt lat="43.92712602760669" lon="7.62459038548155"><ele>616.0</ele><time>2026-04-12T10:10:43.999Z</time></trkpt><trkpt lat="43.92704881552173" lon="7.624580611474088"><ele>616.0</ele><time>2026-04-12T10:10:44.999Z</time></trkpt><trkpt lat="43.92696624038707" lon="7.624584076290298"><ele>616.0</ele><time>2026-04-12T10:10:45.999Z</time></trkpt><trkpt lat="43.926867637308305" lon="7.624586278508573"><ele>616.0</ele><time>2026-04-12T10:10:46.999Z</time></trkpt><trkpt lat="43.92675877443019" lon="7.624585320984298"><ele>616.0</ele><time>2026-04-12T10:10:47.999Z</time></trkpt><trkpt lat="43.92663970447045" lon="7.6245812653771665"><ele>616.0</ele><time>2026-04-12T10:10:48.999Z</time></trkpt><trkpt lat="43.92653262742532" lon="7.624587069074729"><ele>616.5</ele><time>2026-04-12T10:10:49.999Z</time></trkpt><trkpt lat="43.92644574451303" lon="7.624623977515244"><ele>617.0</ele><time>2026-04-12T10:10:50.999Z</time></trkpt><trkpt lat="43.92635653170656" lon="7.624617050594366"><ele>617.5</ele><time>2026-04-12T10:10:51.999Z</time></trkpt><trkpt lat="43.92627542954664" lon="7.624619342300944"><ele>618.0</ele><time>2026-04-12T10:10:52.999Z</time></trkpt><trkpt lat="43.926212759446685" lon="7.624642973917475"><ele>618.5</ele><time>2026-04-12T10:10:53.999Z</time></trkpt><trkpt lat="43.92616446002013" lon="7.624708331359798"><ele>619.0</ele><time>2026-04-12T10:10:54.999Z</time></trkpt><trkpt lat="43.92612835539348" lon="7.624795204494797"><ele>619.0</ele><time>2026-04-12T10:10:55.999Z</time></trkpt><trkpt lat="43.92610671565099" lon="7.624902084569464"><ele>619.0</ele><time>2026-04-12T10:10:56.999Z</time></trkpt><trkpt lat="43.92607984505316" lon="7.625030341475423"><ele>619.0</ele><time>2026-04-12T10:10:57.999Z</time></trkpt><trkpt lat="43.92604314363331" lon="7.625175946506352"><ele>619.0</ele><time>2026-04-12T10:10:58.998Z</time></trkpt><trkpt lat="43.92600822343192" lon="7.625330598457328"><ele>619.0</ele><time>2026-04-12T10:10:59.998Z</time></trkpt><trkpt lat="43.92597513451074" lon="7.625485483449699"><ele>615.2</ele><time>2026-04-12T10:11:00.998Z</time></trkpt><trkpt lat="43.92595849983263" lon="7.625621798693435"><ele>611.4</ele><time>2026-04-12T10:11:01.998Z</time></trkpt><trkpt lat="43.92594873049607" lon="7.625753975460123"><ele>607.6</ele><time>2026-04-12T10:11:02.998Z</time></trkpt><trkpt lat="43.92593534208473" lon="7.625869864483268"><ele>603.8</ele><time>2026-04-12T10:11:03.998Z</time></trkpt><trkpt lat="43.92594197200862" lon="7.625987399871824"><ele>600.0</ele><time>2026-04-12T10:11:04.998Z</time></trkpt><trkpt lat="43.92597711729503" lon="7.62609565603857"><ele>598.4</ele><time>2026-04-12T10:11:05.998Z</time></trkpt><trkpt lat="43.92602359185567" lon="7.626218686187312"><ele>596.8</ele><time>2026-04-12T10:11:06.998Z</time></trkpt><trkpt lat="43.92607593179508" lon="7.626326459666387"><ele>595.2</ele><time>2026-04-12T10:11:07.998Z</time></trkpt><trkpt lat="43.92611421174478" lon="7.626403975710504"><ele>593.6</ele><time>2026-04-12T10:11:08.998Z</time></trkpt><trkpt lat="43.926160667345385" lon="7.626550375112801"><ele>592.0</ele><time>2026-04-12T10:11:10.998Z</time></trkpt><trkpt lat="43.92615398586197" lon="7.626716580227924"><ele>592.0</ele><time>2026-04-12T10:11:12.998Z</time></trkpt><trkpt lat="43.926080341642475" lon="7.626861625117929"><ele>592.0</ele><time>2026-04-12T10:11:14.998Z</time></trkpt><trkpt lat="43.9260144740164" lon="7.626934063615164"><ele>592.0</ele><time>2026-04-12T10:11:15.998Z</time></trkpt><trkpt lat="43.92594907248005" lon="7.627000519691289"><ele>592.0</ele><time>2026-04-12T10:11:16.998Z</time></trkpt><trkpt lat="43.92588857352379" lon="7.6270472978741655"><ele>592.0</ele><time>2026-04-12T10:11:17.998Z</time></trkpt><trkpt lat="43.92582730165459" lon="7.627071331205126"><ele>592.0</ele><time>2026-04-12T10:11:18.998Z</time></trkpt><trkpt lat="43.92576689577903" lon="7.627027665322534"><ele>596.8333333333334</ele><time>2026-04-12T10:11:19.998Z</time></trkpt><trkpt lat="43.9256597875907" lon="7.626964607087317"><ele>601.6666666666667</ele><time>2026-04-12T10:11:21.998Z</time></trkpt><trkpt lat="43.92558187890455" lon="7.626877843807115"><ele>606.5</ele><time>2026-04-12T10:11:22.998Z</time></trkpt><trkpt lat="43.92551466808189" lon="7.626826428236702"><ele>611.3333333333334</ele><time>2026-04-12T10:11:23.998Z</time></trkpt><trkpt lat="43.925442262631314" lon="7.626828621987456"><ele>616.1666666666666</ele><time>2026-04-12T10:11:24.998Z</time></trkpt><trkpt lat="43.92537457725743" lon="7.626846621026065"><ele>621.0</ele><time>2026-04-12T10:11:25.998Z</time></trkpt><trkpt lat="43.92529899339545" lon="7.626912501803126"><ele>619.0</ele><time>2026-04-12T10:11:26.998Z</time></trkpt><trkpt lat="43.92523749150607" lon="7.6270436446812"><ele>617.0</ele><time>2026-04-12T10:11:27.998Z</time></trkpt><trkpt lat="43.92518523326627" lon="7.627155434763412"><ele>615.0</ele><time>2026-04-12T10:11:28.998Z</time></trkpt><trkpt lat="43.92512881193592" lon="7.627267944232708"><ele>613.0</ele><time>2026-04-12T10:11:29.998Z</time></trkpt><trkpt lat="43.92507805930713" lon="7.62736562810485"><ele>611.0</ele><time>2026-04-12T10:11:30.998Z</time></trkpt><trkpt lat="43.925032182621955" lon="7.627452358628817"><ele>611.0</ele><time>2026-04-12T10:11:31.998Z</time></trkpt><trkpt lat="43.924989101323696" lon="7.627519821049256"><ele>611.0</ele><time>2026-04-12T10:11:32.998Z</time></trkpt><trkpt lat="43.92490520403572" lon="7.627584553986013"><ele>611.0</ele><time>2026-04-12T10:11:35Z</time></trkpt><trkpt lat="43.92480115589729" lon="7.627634301831573"><ele>611.0</ele><time>2026-04-12T10:11:37Z</time></trkpt><trkpt lat="43.924682213343985" lon="7.627629044446639"><ele>611.0</ele><time>2026-04-12T10:11:39Z</time></trkpt><trkpt lat="43.92462096345997" lon="7.62766876656487"><ele>611.0</ele><time>2026-04-12T10:11:40Z</time></trkpt><trkpt lat="43.92458816208489" lon="7.627770365299988"><ele>611.0</ele><time>2026-04-12T10:11:41Z</time></trkpt><trkpt lat="43.92454485345312" lon="7.627956608145383"><ele>611.0</ele><time>2026-04-12T10:11:43Z</time></trkpt><trkpt lat="43.924539315641326" lon="7.628076729893374"><ele>611.0</ele><time>2026-04-12T10:11:44Z</time></trkpt><trkpt lat="43.92453592836643" lon="7.628202305265521"><ele>611.0</ele><time>2026-04-12T10:11:45Z</time></trkpt><trkpt lat="43.924549009802874" lon="7.6283216878390165"><ele>606.6666666666666</ele><time>2026-04-12T10:11:46Z</time></trkpt><trkpt lat="43.92454434229352" lon="7.6284386158187365"><ele>602.3333333333333</ele><time>2026-04-12T10:11:47Z</time></trkpt><trkpt lat="43.924543342159026" lon="7.628550543829094"><ele>598.0</ele><time>2026-04-12T10:11:48Z</time></trkpt><trkpt lat="43.92453970233002" lon="7.6286505305432835"><ele>593.6666666666666</ele><time>2026-04-12T10:11:49Z</time></trkpt><trkpt lat="43.92450645401944" lon="7.62879765152863"><ele>589.3333333333334</ele><time>2026-04-12T10:11:51Z</time></trkpt><trkpt lat="43.92444324727198" lon="7.6288356610314745"><ele>585.0</ele><time>2026-04-12T10:11:52Z</time></trkpt><trkpt lat="43.924375131835276" lon="7.62889753122045"><ele>584.8</ele><time>2026-04-12T10:11:53Z</time></trkpt><trkpt lat="43.92429399895438" lon="7.628970267709272"><ele>584.6</ele><time>2026-04-12T10:11:54Z</time></trkpt><trkpt lat="43.92421814890333" lon="7.629049000983176"><ele>584.4</ele><time>2026-04-12T10:11:55Z</time></trkpt><trkpt lat="43.924145867434355" lon="7.629129306639767"><ele>584.2</ele><time>2026-04-12T10:11:56Z</time></trkpt><trkpt lat="43.92406661857513" lon="7.6291697590301615"><ele>584.0</ele><time>2026-04-12T10:11:57Z</time></trkpt><trkpt lat="43.92399298309657" lon="7.629218292345346"><ele>584.0</ele><time>2026-04-12T10:11:58Z</time></trkpt><trkpt lat="43.923914831596115" lon="7.629252888596248"><ele>584.0</ele><time>2026-04-12T10:11:59Z</time></trkpt><trkpt lat="43.92383635437717" lon="7.629290219367602"><ele>584.0</ele><time>2026-04-12T10:12:00Z</time></trkpt><trkpt lat="43.92377540334509" lon="7.629330052868273"><ele>584.0</ele><time>2026-04-12T10:12:01Z</time></trkpt><trkpt lat="43.923732072316" lon="7.629397867216333"><ele>584.0</ele><time>2026-04-12T10:12:02Z</time></trkpt><trkpt lat="43.9237048985626" lon="7.6294795092454"><ele>584.0</ele><time>2026-04-12T10:12:03Z</time></trkpt><trkpt lat="43.92372677982991" lon="7.629577402121806"><ele>584.0</ele><time>2026-04-12T10:12:04Z</time></trkpt><trkpt lat="43.9237557628698" lon="7.629664902083472"><ele>580.5</ele><time>2026-04-12T10:12:05Z</time></trkpt><trkpt lat="43.923801716210605" lon="7.6297528535371795"><ele>577.0</ele><time>2026-04-12T10:12:06Z</time></trkpt><trkpt lat="43.92385164166905" lon="7.629843991467152"><ele>573.5</ele><time>2026-04-12T10:12:07Z</time></trkpt><trkpt lat="43.92387946568418" lon="7.629945548901257"><ele>570.0</ele><time>2026-04-12T10:12:08Z</time></trkpt><trkpt lat="43.92390812052809" lon="7.630055520837181"><ele>566.5</ele><time>2026-04-12T10:12:09Z</time></trkpt><trkpt lat="43.92392944991152" lon="7.6301693111186975"><ele>563.0</ele><time>2026-04-12T10:12:10Z</time></trkpt><trkpt lat="43.923954959010956" lon="7.630261458424714"><ele>560.8</ele><time>2026-04-12T10:12:11Z</time></trkpt><trkpt lat="43.92398937740806" lon="7.630411173690754"><ele>558.5999999999999</ele><time>2026-04-12T10:12:13Z</time></trkpt><trkpt lat="43.9239809065963" lon="7.6305464845712745"><ele>556.4000000000001</ele><time>2026-04-12T10:12:15Z</time></trkpt><trkpt lat="43.92387551581511" lon="7.630632908393163"><ele>554.2</ele><time>2026-04-12T10:12:17Z</time></trkpt><trkpt lat="43.92381004709081" lon="7.630696872511931"><ele>552.0</ele><time>2026-04-12T10:12:18Z</time></trkpt><trkpt lat="43.92377153570236" lon="7.630801361782332"><ele>552.0</ele><time>2026-04-12T10:12:19Z</time></trkpt><trkpt lat="43.923740104401496" lon="7.630910006686135"><ele>552.0</ele><time>2026-04-12T10:12:19.999Z</time></trkpt><trkpt lat="43.92370563668377" lon="7.631033613588411"><ele>552.0</ele><time>2026-04-12T10:12:20.999Z</time></trkpt><trkpt lat="43.92366619839173" lon="7.631170702113721"><ele>552.0</ele><time>2026-04-12T10:12:21.999Z</time></trkpt><trkpt lat="43.92362091366816" lon="7.631316097170676"><ele>552.0</ele><time>2026-04-12T10:12:22.999Z</time></trkpt><trkpt lat="43.92357821450294" lon="7.631463641653433"><ele>553.4</ele><time>2026-04-12T10:12:23.999Z</time></trkpt><trkpt lat="43.92353992605834" lon="7.631609239442186"><ele>554.8000000000001</ele><time>2026-04-12T10:12:24.999Z</time></trkpt><trkpt lat="43.92350008226941" lon="7.631750903945062"><ele>556.2</ele><time>2026-04-12T10:12:25.999Z</time></trkpt><trkpt lat="43.923461464055606" lon="7.63189371473057"><ele>557.6</ele><time>2026-04-12T10:12:26.999Z</time></trkpt><trkpt lat="43.92341743088301" lon="7.632025411922322"><ele>559.0</ele><time>2026-04-12T10:12:27.999Z</time></trkpt><trkpt lat="43.92338207493013" lon="7.632142368090646"><ele>559.0</ele><time>2026-04-12T10:12:28.999Z</time></trkpt><trkpt lat="43.923348315451214" lon="7.63224856213272"><ele>559.0</ele><time>2026-04-12T10:12:29.999Z</time></trkpt><trkpt lat="43.92331207934502" lon="7.63235550512187"><ele>559.0</ele><time>2026-04-12T10:12:30.999Z</time></trkpt><trkpt lat="43.92324470467013" lon="7.632439484695669"><ele>559.0</ele><time>2026-04-12T10:12:31.999Z</time></trkpt><trkpt lat="43.923173757760125" lon="7.632531489949247"><ele>559.0</ele><time>2026-04-12T10:12:32.999Z</time></trkpt><trkpt lat="43.92311792618677" lon="7.632655780668155"><ele>559.0</ele><time>2026-04-12T10:12:33.999Z</time></trkpt><trkpt lat="43.92304443320572" lon="7.632772833133282"><ele>559.0</ele><time>2026-04-12T10:12:34.999Z</time></trkpt><trkpt lat="43.922996080261" lon="7.632931996806169"><ele>559.0</ele><time>2026-04-12T10:12:35.999Z</time></trkpt><trkpt lat="43.9229236561243" lon="7.633077813661109"><ele>559.0</ele><time>2026-04-12T10:12:36.999Z</time></trkpt><trkpt lat="43.922870845245676" lon="7.633223454997698"><ele>556.0</ele><time>2026-04-12T10:12:37.999Z</time></trkpt><trkpt lat="43.922825464875324" lon="7.633351633743469"><ele>553.0</ele><time>2026-04-12T10:12:38.999Z</time></trkpt><trkpt lat="43.92278228105337" lon="7.6334546074069145"><ele>550.0</ele><time>2026-04-12T10:12:39.999Z</time></trkpt><trkpt lat="43.922748162052166" lon="7.633545187792446"><ele>547.0</ele><time>2026-04-12T10:12:40.999Z</time></trkpt><trkpt lat="43.92273000981264" lon="7.633637409690521"><ele>544.0</ele><time>2026-04-12T10:12:41.999Z</time></trkpt><trkpt lat="43.922737173105126" lon="7.633744587336123"><ele>541.0</ele><time>2026-04-12T10:12:42.999Z</time></trkpt><trkpt lat="43.9227614573888" lon="7.633852657597126"><ele>538.1428571428572</ele><time>2026-04-12T10:12:43.999Z</time></trkpt><trkpt lat="43.92276705573903" lon="7.633964282862183"><ele>535.2857142857143</ele><time>2026-04-12T10:12:44.999Z</time></trkpt><trkpt lat="43.92279416214735" lon="7.634062464051455"><ele>532.4285714285714</ele><time>2026-04-12T10:12:45.999Z</time></trkpt><trkpt lat="43.92278980140076" lon="7.634163350484444"><ele>529.5714285714287</ele><time>2026-04-12T10:12:46.999Z</time></trkpt><trkpt lat="43.92275260965701" lon="7.634250079634544"><ele>526.7142857142858</ele><time>2026-04-12T10:12:47.999Z</time></trkpt><trkpt lat="43.92272088643365" lon="7.634330363611515"><ele>523.8571428571429</ele><time>2026-04-12T10:12:48.999Z</time></trkpt><trkpt lat="43.92268415808906" lon="7.6344158037068945"><ele>521.0</ele><time>2026-04-12T10:12:49.999Z</time></trkpt><trkpt lat="43.922635646428574" lon="7.634498809528873"><ele>517.5</ele><time>2026-04-12T10:12:50.999Z</time></trkpt><trkpt lat="43.92259427833964" lon="7.634589819319455"><ele>514.0</ele><time>2026-04-12T10:12:51.999Z</time></trkpt><trkpt lat="43.92256822597373" lon="7.634684133079948"><ele>510.5</ele><time>2026-04-12T10:12:52.999Z</time></trkpt><trkpt lat="43.922576109846474" lon="7.634811552335292"><ele>507.0</ele><time>2026-04-12T10:12:53.999Z</time></trkpt><trkpt lat="43.92261363737824" lon="7.634919143742383"><ele>503.49999999999994</ele><time>2026-04-12T10:12:54.999Z</time></trkpt><trkpt lat="43.922638426676095" lon="7.6350221354176115"><ele>500.0</ele><time>2026-04-12T10:12:55.999Z</time></trkpt><trkpt lat="43.922653049818145" lon="7.63511207715365"><ele>500.0</ele><time>2026-04-12T10:12:56.999Z</time></trkpt><trkpt lat="43.922616982225726" lon="7.635268159492672"><ele>500.0</ele><time>2026-04-12T10:12:58.999Z</time></trkpt><trkpt lat="43.922574986241926" lon="7.635333856836537"><ele>500.0</ele><time>2026-04-12T10:12:59.999Z</time></trkpt><trkpt lat="43.9225076672585" lon="7.635382825404826"><ele>500.0</ele><time>2026-04-12T10:13:00.999Z</time></trkpt><trkpt lat="43.92242152569088" lon="7.635464624666684"><ele>500.0</ele><time>2026-04-12T10:13:01.999Z</time></trkpt><trkpt lat="43.92234194205548" lon="7.635542054275811"><ele>505.4</ele><time>2026-04-12T10:13:02.998Z</time></trkpt><trkpt lat="43.922253505507385" lon="7.635629558761224"><ele>510.8</ele><time>2026-04-12T10:13:03.998Z</time></trkpt><trkpt lat="43.922165501913746" lon="7.635715954864099"><ele>516.2</ele><time>2026-04-12T10:13:04.998Z</time></trkpt><trkpt lat="43.92207797921097" lon="7.63579938023099"><ele>521.6</ele><time>2026-04-12T10:13:05.998Z</time></trkpt><trkpt lat="43.92200069336863" lon="7.635900793900514"><ele>527.0</ele><time>2026-04-12T10:13:06.998Z</time></trkpt><trkpt lat="43.9219171228145" lon="7.635982565812709"><ele>527.0</ele><time>2026-04-12T10:13:07.998Z</time></trkpt><trkpt lat="43.92182198248936" lon="7.63603485290422"><ele>527.0</ele><time>2026-04-12T10:13:08.998Z</time></trkpt><trkpt lat="43.92171849187343" lon="7.636101607002292"><ele>527.0</ele><time>2026-04-12T10:13:09.998Z</time></trkpt><trkpt lat="43.921607295136624" lon="7.6361718634281415"><ele>527.0</ele><time>2026-04-12T10:13:10.998Z</time></trkpt><trkpt lat="43.921502849911086" lon="7.636240404740372"><ele>524.4</ele><time>2026-04-12T10:13:11.998Z</time></trkpt><trkpt lat="43.92140745951337" lon="7.636303498815212"><ele>521.8000000000001</ele><time>2026-04-12T10:13:12.998Z</time></trkpt><trkpt lat="43.921316098986516" lon="7.636359154350557"><ele>519.2</ele><time>2026-04-12T10:13:13.998Z</time></trkpt><trkpt lat="43.92122267107353" lon="7.636406032451258"><ele>516.6</ele><time>2026-04-12T10:13:14.998Z</time></trkpt><trkpt lat="43.92112537163072" lon="7.636447704467238"><ele>514.0</ele><time>2026-04-12T10:13:15.998Z</time></trkpt><trkpt lat="43.921032165476795" lon="7.6364966021457645"><ele>514.0</ele><time>2026-04-12T10:13:16.998Z</time></trkpt><trkpt lat="43.92094169714924" lon="7.636535021936098"><ele>514.0</ele><time>2026-04-12T10:13:17.998Z</time></trkpt><trkpt lat="43.92085253455035" lon="7.636539114179983"><ele>514.0</ele><time>2026-04-12T10:13:18.998Z</time></trkpt><trkpt lat="43.920778209576845" lon="7.636552317838204"><ele>514.0</ele><time>2026-04-12T10:13:19.998Z</time></trkpt><trkpt lat="43.920707268231176" lon="7.6365510559054375"><ele>514.0</ele><time>2026-04-12T10:13:20.998Z</time></trkpt><trkpt lat="43.92063809500979" lon="7.636520942715088"><ele>514.0</ele><time>2026-04-12T10:13:21.998Z</time></trkpt><trkpt lat="43.92057192784645" lon="7.636457108162253"><ele>515.4</ele><time>2026-04-12T10:13:22.998Z</time></trkpt><trkpt lat="43.92050464309559" lon="7.63642926610247"><ele>516.8</ele><time>2026-04-12T10:13:23.998Z</time></trkpt><trkpt lat="43.920388494808655" lon="7.63647620424439"><ele>518.2</ele><time>2026-04-12T10:13:25.998Z</time></trkpt><trkpt lat="43.92031595145261" lon="7.63661362400446"><ele>519.6</ele><time>2026-04-12T10:13:27.998Z</time></trkpt><trkpt lat="43.92033341733238" lon="7.6367235250729655"><ele>521.0</ele><time>2026-04-12T10:13:28.998Z</time></trkpt><trkpt lat="43.920336448181196" lon="7.636821662082624"><ele>521.0</ele><time>2026-04-12T10:13:29.998Z</time></trkpt><trkpt lat="43.92035228387888" lon="7.636922806711732"><ele>521.0</ele><time>2026-04-12T10:13:30.998Z</time></trkpt><trkpt lat="43.92037489090945" lon="7.637026761130761"><ele>521.0</ele><time>2026-04-12T10:13:31.998Z</time></trkpt><trkpt lat="43.92040338363216" lon="7.637125195138882"><ele>521.0</ele><time>2026-04-12T10:13:32.998Z</time></trkpt><trkpt lat="43.92044169844209" lon="7.637215469218452"><ele>521.0</ele><time>2026-04-12T10:13:33.998Z</time></trkpt><trkpt lat="43.92048462402681" lon="7.63730355178541"><ele>521.0</ele><time>2026-04-12T10:13:34.998Z</time></trkpt><trkpt lat="43.92052518892351" lon="7.637386758952652"><ele>517.6666666666666</ele><time>2026-04-12T10:13:35.998Z</time></trkpt><trkpt lat="43.92055621489063" lon="7.637467941098351"><ele>514.3333333333333</ele><time>2026-04-12T10:13:36.998Z</time></trkpt><trkpt lat="43.92054235613006" lon="7.637567098158233"><ele>511.0</ele><time>2026-04-12T10:13:37.998Z</time></trkpt><trkpt lat="43.92054637308396" lon="7.637689740397285"><ele>507.66666666666663</ele><time>2026-04-12T10:13:38.998Z</time></trkpt><trkpt lat="43.92055561302822" lon="7.637834257136739"><ele>504.3333333333333</ele><time>2026-04-12T10:13:39.998Z</time></trkpt><trkpt lat="43.92059188549312" lon="7.637988859236442"><ele>501.0</ele><time>2026-04-12T10:13:41Z</time></trkpt><trkpt lat="43.920624412540306" lon="7.638141160602432"><ele>498.6</ele><time>2026-04-12T10:13:42Z</time></trkpt><trkpt lat="43.92065586352654" lon="7.638280563465171"><ele>496.20000000000005</ele><time>2026-04-12T10:13:43Z</time></trkpt><trkpt lat="43.92068603319446" lon="7.638407876740593"><ele>493.79999999999995</ele><time>2026-04-12T10:13:44Z</time></trkpt><trkpt lat="43.92072515771924" lon="7.63852678432489"><ele>491.4</ele><time>2026-04-12T10:13:45Z</time></trkpt><trkpt lat="43.92075834578197" lon="7.638615654961134"><ele>489.0</ele><time>2026-04-12T10:13:46Z</time></trkpt><trkpt lat="43.92082516448387" lon="7.63874755846273"><ele>489.0</ele><time>2026-04-12T10:13:48Z</time></trkpt><trkpt lat="43.920873787672015" lon="7.638816112481838"><ele>489.00000000000006</ele><time>2026-04-12T10:13:49Z</time></trkpt><trkpt lat="43.92092684089014" lon="7.638880554695784"><ele>489.0</ele><time>2026-04-12T10:13:50Z</time></trkpt><trkpt lat="43.92098104341341" lon="7.638938447958398"><ele>489.0</ele><time>2026-04-12T10:13:51Z</time></trkpt><trkpt lat="43.92101939838591" lon="7.639010927776022"><ele>489.00000000000006</ele><time>2026-04-12T10:13:52Z</time></trkpt><trkpt lat="43.921031060012204" lon="7.639113790015832"><ele>489.0</ele><time>2026-04-12T10:13:53Z</time></trkpt><trkpt lat="43.921070853129706" lon="7.639203403085431"><ele>489.0</ele><time>2026-04-12T10:13:54Z</time></trkpt><trkpt lat="43.92109619567184" lon="7.6392941347152306"><ele>486.79999999999995</ele><time>2026-04-12T10:13:55Z</time></trkpt><trkpt lat="43.92112129891918" lon="7.639449027945456"><ele>484.59999999999997</ele><time>2026-04-12T10:13:57Z</time></trkpt><trkpt lat="43.92107838063595" lon="7.639588943076287"><ele>482.4</ele><time>2026-04-12T10:13:59Z</time></trkpt><trkpt lat="43.920985957892746" lon="7.639665711983878"><ele>480.2</ele><time>2026-04-12T10:14:01Z</time></trkpt><trkpt lat="43.92092103762502" lon="7.639646331847635"><ele>478.0</ele><time>2026-04-12T10:14:02Z</time></trkpt><trkpt lat="43.92085260367831" lon="7.639658800543087"><ele>478.00000000000006</ele><time>2026-04-12T10:14:03Z</time></trkpt><trkpt lat="43.920776251537156" lon="7.639669955670601"><ele>478.0</ele><time>2026-04-12T10:14:04Z</time></trkpt><trkpt lat="43.92069977934254" lon="7.639686993386302"><ele>478.0</ele><time>2026-04-12T10:14:05Z</time></trkpt><trkpt lat="43.92062117058128" lon="7.639663005911683"><ele>478.0</ele><time>2026-04-12T10:14:06Z</time></trkpt><trkpt lat="43.92054477997963" lon="7.639622112235533"><ele>478.00000000000006</ele><time>2026-04-12T10:14:07Z</time></trkpt><trkpt lat="43.92047635498602" lon="7.639553086909786"><ele>478.0</ele><time>2026-04-12T10:14:08Z</time></trkpt><trkpt lat="43.920404617283474" lon="7.639501689096648"><ele>478.0</ele><time>2026-04-12T10:14:09Z</time></trkpt><trkpt lat="43.92032948176901" lon="7.639469326656166"><ele>477.99999999999994</ele><time>2026-04-12T10:14:10Z</time></trkpt><trkpt lat="43.92023200491459" lon="7.639398345193015"><ele>477.99999999999994</ele><time>2026-04-12T10:14:12Z</time></trkpt><trkpt lat="43.92013953699321" lon="7.63949187640947"><ele>478.0</ele><time>2026-04-12T10:14:14Z</time></trkpt><trkpt lat="43.92014129074142" lon="7.639582426800541"><ele>478.0</ele><time>2026-04-12T10:14:15Z</time></trkpt><trkpt lat="43.920184730875505" lon="7.639704948552978"><ele>478.00000000000006</ele><time>2026-04-12T10:14:17Z</time></trkpt><trkpt lat="43.92031431232973" lon="7.639716128026368"><ele>478.0</ele><time>2026-04-12T10:14:19Z</time></trkpt><trkpt lat="43.920384425514534" lon="7.639739681117204"><ele>478.0</ele><time>2026-04-12T10:14:20Z</time></trkpt><trkpt lat="43.92045508504721" lon="7.639737884739761"><ele>478.0</ele><time>2026-04-12T10:14:21Z</time></trkpt><trkpt lat="43.92052515378991" lon="7.639786417184225"><ele>478.00000000000006</ele><time>2026-04-12T10:14:22Z</time></trkpt><trkpt lat="43.92059103378993" lon="7.63984797063203"><ele>478.0</ele><time>2026-04-12T10:14:23Z</time></trkpt><trkpt lat="43.9206489253871" lon="7.639907652180326"><ele>478.00000000000006</ele><time>2026-04-12T10:14:24Z</time></trkpt><trkpt lat="43.92070826284686" lon="7.639954632069149"><ele>478.0</ele><time>2026-04-12T10:14:24.999Z</time></trkpt><trkpt lat="43.92077159447231" lon="7.639993586437115"><ele>478.00000000000006</ele><time>2026-04-12T10:14:25.999Z</time></trkpt><trkpt lat="43.92083979673618" lon="7.6400282387734775"><ele>478.00000000000006</ele><time>2026-04-12T10:14:26.999Z</time></trkpt><trkpt lat="43.920906415617" lon="7.640060551780479"><ele>478.0</ele><time>2026-04-12T10:14:27.999Z</time></trkpt><trkpt lat="43.92097743176774" lon="7.640084885673544"><ele>478.00000000000006</ele><time>2026-04-12T10:14:28.999Z</time></trkpt><trkpt lat="43.9210460803905" lon="7.6401081738721235"><ele>478.00000000000006</ele><time>2026-04-12T10:14:29.999Z</time></trkpt><trkpt lat="43.921113951792044" lon="7.640133022360026"><ele>475.1666666666667</ele><time>2026-04-12T10:14:30.999Z</time></trkpt><trkpt lat="43.92118445689624" lon="7.6401447830313245"><ele>472.33333333333337</ele><time>2026-04-12T10:14:31.999Z</time></trkpt><trkpt lat="43.921254812613114" lon="7.640157992984648"><ele>469.5</ele><time>2026-04-12T10:14:32.999Z</time></trkpt><trkpt lat="43.9213241694563" lon="7.640170121858347"><ele>466.66666666666663</ele><time>2026-04-12T10:14:33.999Z</time></trkpt><trkpt lat="43.92139001552469" lon="7.6401704067383855"><ele>463.8333333333333</ele><time>2026-04-12T10:14:34.999Z</time></trkpt><trkpt lat="43.921498534111706" lon="7.640144091074205"><ele>461.0</ele><time>2026-04-12T10:14:36.999Z</time></trkpt><trkpt lat="43.92157853752101" lon="7.64014077200801"><ele>460.99999999999994</ele><time>2026-04-12T10:14:38.999Z</time></trkpt><trkpt lat="43.92163393622602" lon="7.640218245973998"><ele>461.0</ele><time>2026-04-12T10:14:40.999Z</time></trkpt><trkpt lat="43.92161031349677" lon="7.640322212176897"><ele>461.0</ele><time>2026-04-12T10:14:42.999Z</time></trkpt><trkpt lat="43.92150894683001" lon="7.640347447482084"><ele>461.0</ele><time>2026-04-12T10:14:44.999Z</time></trkpt><trkpt lat="43.92144410134499" lon="7.64033964236287"><ele>460.99999999999994</ele><time>2026-04-12T10:14:45.999Z</time></trkpt><trkpt lat="43.9213248975037" lon="7.640340575411086"><ele>461.0</ele><time>2026-04-12T10:14:47.999Z</time></trkpt><trkpt lat="43.92125965961664" lon="7.640345266326203"><ele>460.6</ele><time>2026-04-12T10:14:48.999Z</time></trkpt><trkpt lat="43.92115514510211" lon="7.6403616846741205"><ele>460.20000000000005</ele><time>2026-04-12T10:14:50.999Z</time></trkpt><trkpt lat="43.92105318141564" lon="7.640389995895864"><ele>459.79999999999995</ele><time>2026-04-12T10:14:52.999Z</time></trkpt><trkpt lat="43.92094816768429" lon="7.640409170785711"><ele>459.4</ele><time>2026-04-12T10:14:54.999Z</time></trkpt><trkpt lat="43.9208366397211" lon="7.640369976408447"><ele>459.0</ele><time>2026-04-12T10:14:56.999Z</time></trkpt><trkpt lat="43.92077305284073" lon="7.6403226892387925"><ele>458.1666666666667</ele><time>2026-04-12T10:14:57.999Z</time></trkpt><trkpt lat="43.92070078379812" lon="7.640286702978534"><ele>457.33333333333337</ele><time>2026-04-12T10:14:58.999Z</time></trkpt><trkpt lat="43.92062641260316" lon="7.640281849767451"><ele>456.5</ele><time>2026-04-12T10:14:59.999Z</time></trkpt><trkpt lat="43.92055183984105" lon="7.64029668366517"><ele>455.6666666666667</ele><time>2026-04-12T10:15:00.999Z</time></trkpt><trkpt lat="43.920479978507814" lon="7.640329058806101"><ele>454.83333333333337</ele><time>2026-04-12T10:15:01.999Z</time></trkpt><trkpt lat="43.92040324592668" lon="7.640370485840095"><ele>454.0</ele><time>2026-04-12T10:15:02.999Z</time></trkpt><trkpt lat="43.920317219211526" lon="7.6404094675933925"><ele>454.00000000000006</ele><time>2026-04-12T10:15:03.999Z</time></trkpt><trkpt lat="43.92023062227781" lon="7.640444647513188"><ele>454.0</ele><time>2026-04-12T10:15:04.999Z</time></trkpt><trkpt lat="43.92014440886134" lon="7.640481007339081"><ele>454.0</ele><time>2026-04-12T10:15:05.999Z</time></trkpt><trkpt lat="43.920057361835454" lon="7.640518805750782"><ele>454.0</ele><time>2026-04-12T10:15:06.999Z</time></trkpt><trkpt lat="43.91997322678976" lon="7.640560186920374"><ele>454.00000000000006</ele><time>2026-04-12T10:15:07.998Z</time></trkpt><trkpt lat="43.9198976249383" lon="7.640592030927868"><ele>454.0</ele><time>2026-04-12T10:15:08.998Z</time></trkpt><trkpt lat="43.91981518631435" lon="7.640684448950759"><ele>454.00000000000006</ele><time>2026-04-12T10:15:10.998Z</time></trkpt><trkpt lat="43.9197961522726" lon="7.640846062060699"><ele>454.0</ele><time>2026-04-12T10:15:12.998Z</time></trkpt><trkpt lat="43.91982058428831" lon="7.640932322409887"><ele>454.0</ele><time>2026-04-12T10:15:13.998Z</time></trkpt><trkpt lat="43.919863972768155" lon="7.641004244514591"><ele>454.0</ele><time>2026-04-12T10:15:14.998Z</time></trkpt><trkpt lat="43.91992969281682" lon="7.641047430375617"><ele>454.00000000000006</ele><time>2026-04-12T10:15:15.998Z</time></trkpt><trkpt lat="43.92000949573401" lon="7.641054700945446"><ele>454.0</ele><time>2026-04-12T10:15:16.998Z</time></trkpt><trkpt lat="43.92009049610924" lon="7.6410594841816915"><ele>454.0</ele><time>2026-04-12T10:15:17.998Z</time></trkpt><trkpt lat="43.920163748265686" lon="7.641053357997418"><ele>454.00000000000006</ele><time>2026-04-12T10:15:18.998Z</time></trkpt><trkpt lat="43.920227593425594" lon="7.640990036132072"><ele>454.0</ele><time>2026-04-12T10:15:19.998Z</time></trkpt><trkpt lat="43.920298938660025" lon="7.640945639834748"><ele>454.0</ele><time>2026-04-12T10:15:20.998Z</time></trkpt><trkpt lat="43.92035398824219" lon="7.640888451458414"><ele>454.00000000000006</ele><time>2026-04-12T10:15:21.998Z</time></trkpt><trkpt lat="43.92040745331411" lon="7.640831550885153"><ele>454.0</ele><time>2026-04-12T10:15:22.998Z</time></trkpt><trkpt lat="43.92047572965852" lon="7.640825306497127"><ele>454.0</ele><time>2026-04-12T10:15:23.998Z</time></trkpt><trkpt lat="43.92055030009896" lon="7.640842938203463"><ele>454.00000000000006</ele><time>2026-04-12T10:15:24.998Z</time></trkpt><trkpt lat="43.92062657206443" lon="7.640893054601104"><ele>454.0</ele><time>2026-04-12T10:15:25.998Z</time></trkpt><trkpt lat="43.92070682160178" lon="7.640948651364031"><ele>454.0</ele><time>2026-04-12T10:15:26.998Z</time></trkpt><trkpt lat="43.92078792670343" lon="7.6410028451843335"><ele>454.0</ele><time>2026-04-12T10:15:27.998Z</time></trkpt><trkpt lat="43.92086849817927" lon="7.641048735935317"><ele>454.00000000000006</ele><time>2026-04-12T10:15:28.998Z</time></trkpt><trkpt lat="43.920951874324956" lon="7.6410820370247325"><ele>454.0</ele><time>2026-04-12T10:15:29.998Z</time></trkpt><trkpt lat="43.921026493466364" lon="7.641137635383796"><ele>451.7142857142857</ele><time>2026-04-12T10:15:30.998Z</time></trkpt><trkpt lat="43.9211040996548" lon="7.641170544573738"><ele>449.42857142857144</ele><time>2026-04-12T10:15:31.998Z</time></trkpt><trkpt lat="43.92118153188256" lon="7.64118005356771"><ele>447.14285714285717</ele><time>2026-04-12T10:15:32.998Z</time></trkpt><trkpt lat="43.92124343453282" lon="7.641219045945997"><ele>444.8571428571429</ele><time>2026-04-12T10:15:33.998Z</time></trkpt><trkpt lat="43.92130474164776" lon="7.6412619842257286"><ele>442.57142857142856</ele><time>2026-04-12T10:15:34.998Z</time></trkpt><trkpt lat="43.9213553516947" lon="7.6413326910562605"><ele>440.28571428571433</ele><time>2026-04-12T10:15:35.998Z</time></trkpt><trkpt lat="43.92139383367441" lon="7.641419749360485"><ele>438.0</ele><time>2026-04-12T10:15:36.998Z</time></trkpt><trkpt lat="43.921427007294305" lon="7.641508007490998"><ele>438.0</ele><time>2026-04-12T10:15:37.998Z</time></trkpt><trkpt lat="43.9214626618452" lon="7.641586537189478"><ele>438.0</ele><time>2026-04-12T10:15:38.998Z</time></trkpt><trkpt lat="43.9215098752447" lon="7.641652034664987"><ele>438.0</ele><time>2026-04-12T10:15:39.998Z</time></trkpt><trkpt lat="43.921573235032845" lon="7.641710045396422"><ele>438.0</ele><time>2026-04-12T10:15:40.998Z</time></trkpt><trkpt lat="43.921646188195865" lon="7.641762618632479"><ele>438.0</ele><time>2026-04-12T10:15:41.998Z</time></trkpt><trkpt lat="43.921726138257945" lon="7.641806477514407"><ele>438.0</ele><time>2026-04-12T10:15:42.998Z</time></trkpt><trkpt lat="43.921810279873156" lon="7.641856508498819"><ele>437.6666666666667</ele><time>2026-04-12T10:15:43.998Z</time></trkpt><trkpt lat="43.92189754662583" lon="7.641907842709549"><ele>437.33333333333337</ele><time>2026-04-12T10:15:44.998Z</time></trkpt><trkpt lat="43.92197584685434" lon="7.641956225984548"><ele>437.0</ele><time>2026-04-12T10:15:45.998Z</time></trkpt><trkpt lat="43.92204322214959" lon="7.641989076836084"><ele>436.6666666666667</ele><time>2026-04-12T10:15:47Z</time></trkpt><trkpt lat="43.92210438164344" lon="7.64202545810661"><ele>436.33333333333337</ele><time>2026-04-12T10:15:48Z</time></trkpt><trkpt lat="43.92219873345327" lon="7.6420406426658705"><ele>436.0</ele><time>2026-04-12T10:15:50Z</time></trkpt><trkpt lat="43.92224274552232" lon="7.642153279928127"><ele>436.00000000000006</ele><time>2026-04-12T10:15:53Z</time></trkpt><trkpt lat="43.92219221474457" lon="7.642212322740802"><ele>436.0</ele><time>2026-04-12T10:15:55Z</time></trkpt><trkpt lat="43.922105496203194" lon="7.642195854934979"><ele>436.0</ele><time>2026-04-12T10:15:57Z</time></trkpt><trkpt lat="43.92199972888067" lon="7.642095299526199"><ele>436.0</ele><time>2026-04-12T10:15:59Z</time></trkpt><trkpt lat="43.92193777124014" lon="7.6420466318099525"><ele>436.00000000000006</ele><time>2026-04-12T10:16:00Z</time></trkpt><trkpt lat="43.92186528594659" lon="7.6419959645476645"><ele>436.0</ele><time>2026-04-12T10:16:01Z</time></trkpt><trkpt lat="43.92178101151955" lon="7.64194788354084"><ele>436.33333333333337</ele><time>2026-04-12T10:16:02Z</time></trkpt><trkpt lat="43.921693061305575" lon="7.641915897249476"><ele>436.6666666666667</ele><time>2026-04-12T10:16:03Z</time></trkpt><trkpt lat="43.921605762393" lon="7.641888253425227"><ele>437.0</ele><time>2026-04-12T10:16:04Z</time></trkpt><trkpt lat="43.921519154589866" lon="7.641858123286999"><ele>437.33333333333337</ele><time>2026-04-12T10:16:05Z</time></trkpt><trkpt lat="43.92143402725504" lon="7.641825828513274"><ele>437.6666666666667</ele><time>2026-04-12T10:16:06Z</time></trkpt><trkpt lat="43.921352495158196" lon="7.641796105104854"><ele>438.0</ele><time>2026-04-12T10:16:07Z</time></trkpt><trkpt lat="43.92127125838467" lon="7.641769825404224"><ele>438.0</ele><time>2026-04-12T10:16:08Z</time></trkpt><trkpt lat="43.92119627316253" lon="7.641749591714807"><ele>438.0</ele><time>2026-04-12T10:16:09Z</time></trkpt><trkpt lat="43.92112949262661" lon="7.641755018809259"><ele>438.0</ele><time>2026-04-12T10:16:10Z</time></trkpt><trkpt lat="43.92106636409818" lon="7.641780766202063"><ele>438.0</ele><time>2026-04-12T10:16:11Z</time></trkpt><trkpt lat="43.92101144606042" lon="7.641826331784982"><ele>438.0</ele><time>2026-04-12T10:16:12Z</time></trkpt><trkpt lat="43.92095820280124" lon="7.641877939735664"><ele>438.0</ele><time>2026-04-12T10:16:13Z</time></trkpt><trkpt lat="43.920947702147274" lon="7.641975372771902"><ele>438.0</ele><time>2026-04-12T10:16:14Z</time></trkpt><trkpt lat="43.92093596613826" lon="7.642139877820237"><ele>433.3333333333333</ele><time>2026-04-12T10:16:16Z</time></trkpt><trkpt lat="43.92090878415611" lon="7.64229134434553"><ele>428.66666666666663</ele><time>2026-04-12T10:16:18Z</time></trkpt><trkpt lat="43.92087243592782" lon="7.642364149955364"><ele>424.0</ele><time>2026-04-12T10:16:19Z</time></trkpt><trkpt lat="43.92082228301568" lon="7.642439800546982"><ele>419.3333333333333</ele><time>2026-04-12T10:16:20Z</time></trkpt><trkpt lat="43.920774856292546" lon="7.642519532369793"><ele>414.66666666666663</ele><time>2026-04-12T10:16:21Z</time></trkpt><trkpt lat="43.920728067200095" lon="7.6425976721572555"><ele>410.0</ele><time>2026-04-12T10:16:22Z</time></trkpt><trkpt lat="43.920675807696746" lon="7.642667359103105"><ele>409.99999999999994</ele><time>2026-04-12T10:16:23Z</time></trkpt><trkpt lat="43.92061792260111" lon="7.642729321171598"><ele>410.0</ele><time>2026-04-12T10:16:24Z</time></trkpt><trkpt lat="43.920548093959106" lon="7.642774463400705"><ele>410.0</ele><time>2026-04-12T10:16:25Z</time></trkpt><trkpt lat="43.92046389309897" lon="7.642786482512283"><ele>410.0</ele><time>2026-04-12T10:16:26Z</time></trkpt><trkpt lat="43.92038330934552" lon="7.642814540276964"><ele>409.99999999999994</ele><time>2026-04-12T10:16:27Z</time></trkpt><trkpt lat="43.92029267500063" lon="7.642844534128978"><ele>410.0</ele><time>2026-04-12T10:16:28Z</time></trkpt><trkpt lat="43.92019873469046" lon="7.642875152292686"><ele>407.2</ele><time>2026-04-12T10:16:29Z</time></trkpt><trkpt lat="43.920103183445235" lon="7.642906862910258"><ele>404.4</ele><time>2026-04-12T10:16:29.999Z</time></trkpt><trkpt lat="43.92000976503019" lon="7.642939450726781"><ele>401.6</ele><time>2026-04-12T10:16:30.999Z</time></trkpt><trkpt lat="43.91991625946471" lon="7.642972068945453"><ele>398.8</ele><time>2026-04-12T10:16:31.999Z</time></trkpt><trkpt lat="43.9198224497439" lon="7.643006382934829"><ele>396.0</ele><time>2026-04-12T10:16:32.999Z</time></trkpt><trkpt lat="43.91973405272471" lon="7.643038853463864"><ele>396.0</ele><time>2026-04-12T10:16:33.999Z</time></trkpt><trkpt lat="43.91964763005391" lon="7.643069132899825"><ele>396.0</ele><time>2026-04-12T10:16:34.999Z</time></trkpt><trkpt lat="43.91957063357423" lon="7.643093222211331"><ele>396.0</ele><time>2026-04-12T10:16:35.999Z</time></trkpt><trkpt lat="43.919496487307875" lon="7.643105926032442"><ele>396.0</ele><time>2026-04-12T10:16:36.999Z</time></trkpt><trkpt lat="43.919424634700064" lon="7.643097993561482"><ele>396.0</ele><time>2026-04-12T10:16:37.999Z</time></trkpt><trkpt lat="43.919357329258176" lon="7.6430811431475245"><ele>396.0</ele><time>2026-04-12T10:16:38.999Z</time></trkpt><trkpt lat="43.9192894458748" lon="7.643065883716445"><ele>394.1666666666667</ele><time>2026-04-12T10:16:39.999Z</time></trkpt><trkpt lat="43.919230437232514" lon="7.643017165797746"><ele>392.33333333333337</ele><time>2026-04-12T10:16:40.999Z</time></trkpt><trkpt lat="43.91918703881691" lon="7.642936004951112"><ele>390.5</ele><time>2026-04-12T10:16:41.999Z</time></trkpt><trkpt lat="43.91912500719425" lon="7.642866228018406"><ele>388.6666666666667</ele><time>2026-04-12T10:16:42.999Z</time></trkpt><trkpt lat="43.919089766517594" lon="7.642762343877575"><ele>386.83333333333337</ele><time>2026-04-12T10:16:43.999Z</time></trkpt><trkpt lat="43.91902081148569" lon="7.642695078037936"><ele>385.0</ele><time>2026-04-12T10:16:44.999Z</time></trkpt><trkpt lat="43.91893567749375" lon="7.6426361204156255"><ele>388.6666666666667</ele><time>2026-04-12T10:16:45.999Z</time></trkpt><trkpt lat="43.91886548718325" lon="7.642578577546152"><ele>392.33333333333337</ele><time>2026-04-12T10:16:46.999Z</time></trkpt><trkpt lat="43.91880785507076" lon="7.6425242078662174"><ele>396.0</ele><time>2026-04-12T10:16:47.999Z</time></trkpt><trkpt lat="43.91874658849633" lon="7.642479390847835"><ele>399.66666666666663</ele><time>2026-04-12T10:16:48.999Z</time></trkpt><trkpt lat="43.9186715728501" lon="7.642473766376345"><ele>403.3333333333333</ele><time>2026-04-12T10:16:49.999Z</time></trkpt><trkpt lat="43.91859307656346" lon="7.642518849531553"><ele>407.0</ele><time>2026-04-12T10:16:50.999Z</time></trkpt><trkpt lat="43.91851359783845" lon="7.642560615512491"><ele>406.99999999999994</ele><time>2026-04-12T10:16:51.999Z</time></trkpt><trkpt lat="43.918437931851656" lon="7.642604514763025"><ele>407.0</ele><time>2026-04-12T10:16:52.999Z</time></trkpt><trkpt lat="43.918376612500495" lon="7.642686548468686"><ele>407.0</ele><time>2026-04-12T10:16:53.999Z</time></trkpt><trkpt lat="43.91831289768501" lon="7.6427604667935"><ele>407.0</ele><time>2026-04-12T10:16:54.999Z</time></trkpt><trkpt lat="43.91826329261203" lon="7.642815742219439"><ele>406.99999999999994</ele><time>2026-04-12T10:16:55.999Z</time></trkpt><trkpt lat="43.91817692638933" lon="7.642868213832518"><ele>407.0</ele><time>2026-04-12T10:16:57.999Z</time></trkpt><trkpt lat="43.91808599956148" lon="7.6428501252102965"><ele>404.66666666666663</ele><time>2026-04-12T10:16:59.999Z</time></trkpt><trkpt lat="43.91803136457489" lon="7.64273929991172"><ele>402.3333333333333</ele><time>2026-04-12T10:17:01.999Z</time></trkpt><trkpt lat="43.91799885906182" lon="7.642652843983235"><ele>400.0</ele><time>2026-04-12T10:17:02.999Z</time></trkpt><trkpt lat="43.91794512861869" lon="7.6425512337591135"><ele>397.66666666666663</ele><time>2026-04-12T10:17:03.999Z</time></trkpt><trkpt lat="43.91790731655418" lon="7.642442871224412"><ele>395.3333333333333</ele><time>2026-04-12T10:17:04.999Z</time></trkpt><trkpt lat="43.91786741174699" lon="7.642331404610316"><ele>393.0</ele><time>2026-04-12T10:17:05.999Z</time></trkpt><trkpt lat="43.917831480964566" lon="7.642230750513711"><ele>393.0</ele><time>2026-04-12T10:17:06.999Z</time></trkpt><trkpt lat="43.91779828946235" lon="7.642155050403362"><ele>393.0</ele><time>2026-04-12T10:17:07.999Z</time></trkpt><trkpt lat="43.917717654035876" lon="7.64207492952415"><ele>393.0</ele><time>2026-04-12T10:17:09.999Z</time></trkpt><trkpt lat="43.917624041580105" lon="7.642085895822835"><ele>393.0</ele><time>2026-04-12T10:17:11.999Z</time></trkpt><trkpt lat="43.91759337071443" lon="7.642226265130532"><ele>393.0</ele><time>2026-04-12T10:17:13.998Z</time></trkpt><trkpt lat="43.91764394207387" lon="7.642294002609454"><ele>393.0</ele><time>2026-04-12T10:17:14.998Z</time></trkpt><trkpt lat="43.91769715998326" lon="7.642363484979167"><ele>393.0</ele><time>2026-04-12T10:17:15.998Z</time></trkpt><trkpt lat="43.917746092313074" lon="7.642430796175412"><ele>393.0</ele><time>2026-04-12T10:17:16.998Z</time></trkpt><trkpt lat="43.91779411092804" lon="7.642522846891549"><ele>393.0</ele><time>2026-04-12T10:17:17.998Z</time></trkpt><trkpt lat="43.91783782674826" lon="7.6426232083909635"><ele>393.0</ele><time>2026-04-12T10:17:18.998Z</time></trkpt><trkpt lat="43.9178801413149" lon="7.642727341021895"><ele>393.0</ele><time>2026-04-12T10:17:19.998Z</time></trkpt><trkpt lat="43.91791863732266" lon="7.642827967738156"><ele>393.0</ele><time>2026-04-12T10:17:20.998Z</time></trkpt><trkpt lat="43.917955498635436" lon="7.642919953179243"><ele>387.59999999999997</ele><time>2026-04-12T10:17:21.998Z</time></trkpt><trkpt lat="43.9179879391638" lon="7.6430077293615195"><ele>382.2</ele><time>2026-04-12T10:17:22.998Z</time></trkpt><trkpt lat="43.91804542523738" lon="7.6431322378743465"><ele>376.8</ele><time>2026-04-12T10:17:24.998Z</time></trkpt><trkpt lat="43.91814214653923" lon="7.643190248069445"><ele>371.4</ele><time>2026-04-12T10:17:26.998Z</time></trkpt><trkpt lat="43.91822315278846" lon="7.643185401466811"><ele>366.0</ele><time>2026-04-12T10:17:28.998Z</time></trkpt><trkpt lat="43.918338688264164" lon="7.643100472678232"><ele>369.1666666666667</ele><time>2026-04-12T10:17:30.998Z</time></trkpt><trkpt lat="43.91841671970344" lon="7.643077348751182"><ele>372.33333333333337</ele><time>2026-04-12T10:17:31.998Z</time></trkpt><trkpt lat="43.918490130188545" lon="7.643018124950404"><ele>375.5</ele><time>2026-04-12T10:17:32.998Z</time></trkpt><trkpt lat="43.91856454149842" lon="7.642983568197894"><ele>378.6666666666667</ele><time>2026-04-12T10:17:33.998Z</time></trkpt><trkpt lat="43.91865513449429" lon="7.642955563720632"><ele>381.83333333333337</ele><time>2026-04-12T10:17:35.998Z</time></trkpt><trkpt lat="43.91873440484956" lon="7.643040453084035"><ele>385.0</ele><time>2026-04-12T10:17:37.998Z</time></trkpt><trkpt lat="43.91876461318312" lon="7.643133367435442"><ele>385.00000000000006</ele><time>2026-04-12T10:17:38.998Z</time></trkpt><trkpt lat="43.91879452151012" lon="7.643233931426324"><ele>385.0</ele><time>2026-04-12T10:17:39.998Z</time></trkpt><trkpt lat="43.9188344832987" lon="7.643344658236716"><ele>385.0</ele><time>2026-04-12T10:17:40.998Z</time></trkpt><trkpt lat="43.9188730486" lon="7.643448313140374"><ele>385.0</ele><time>2026-04-12T10:17:41.998Z</time></trkpt><trkpt lat="43.9189092577931" lon="7.643544801069881"><ele>385.00000000000006</ele><time>2026-04-12T10:17:42.998Z</time></trkpt><trkpt lat="43.91894621314296" lon="7.643639768432381"><ele>385.0</ele><time>2026-04-12T10:17:43.998Z</time></trkpt><trkpt lat="43.91899363496951" lon="7.643718042590104"><ele>380.00000000000006</ele><time>2026-04-12T10:17:44.998Z</time></trkpt><trkpt lat="43.91905281567566" lon="7.643780617498397"><ele>375.0</ele><time>2026-04-12T10:17:45.998Z</time></trkpt><trkpt lat="43.91911628202773" lon="7.643838461759038"><ele>370.0</ele><time>2026-04-12T10:17:46.998Z</time></trkpt><trkpt lat="43.919180784195845" lon="7.6438907440038895"><ele>365.0</ele><time>2026-04-12T10:17:47.998Z</time></trkpt><trkpt lat="43.91924799584566" lon="7.643943953703298"><ele>360.0</ele><time>2026-04-12T10:17:48.998Z</time></trkpt><trkpt lat="43.9193183801795" lon="7.643993646486326"><ele>355.0</ele><time>2026-04-12T10:17:49.998Z</time></trkpt><trkpt lat="43.91938900387231" lon="7.644033791128561"><ele>354.66666666666663</ele><time>2026-04-12T10:17:50.998Z</time></trkpt><trkpt lat="43.919459181655334" lon="7.644066712534105"><ele>354.3333333333333</ele><time>2026-04-12T10:17:52Z</time></trkpt><trkpt lat="43.91953291294456" lon="7.644083403503392"><ele>354.0</ele><time>2026-04-12T10:17:53Z</time></trkpt><trkpt lat="43.91960343672852" lon="7.6440730431237816"><ele>353.6666666666667</ele><time>2026-04-12T10:17:54Z</time></trkpt><trkpt lat="43.91967754919055" lon="7.644046502570332"><ele>353.33333333333337</ele><time>2026-04-12T10:17:55Z</time></trkpt><trkpt lat="43.919755817563754" lon="7.643995586965133"><ele>353.0</ele><time>2026-04-12T10:17:56Z</time></trkpt><trkpt lat="43.919843635584265" lon="7.643934367640316"><ele>353.0</ele><time>2026-04-12T10:17:57Z</time></trkpt><trkpt lat="43.919949116383826" lon="7.643910696573296"><ele>353.0</ele><time>2026-04-12T10:17:58Z</time></trkpt><trkpt lat="43.92005215049677" lon="7.643877551078649"><ele>353.0</ele><time>2026-04-12T10:17:59Z</time></trkpt><trkpt lat="43.920157688359694" lon="7.643854853123385"><ele>353.0</ele><time>2026-04-12T10:18:00Z</time></trkpt><trkpt lat="43.9202569677123" lon="7.64382196432659"><ele>353.0</ele><time>2026-04-12T10:18:01Z</time></trkpt><trkpt lat="43.920358279005136" lon="7.6438170756287285"><ele>349.33333333333337</ele><time>2026-04-12T10:18:02Z</time></trkpt><trkpt lat="43.92045731882575" lon="7.643813216021908"><ele>345.6666666666667</ele><time>2026-04-12T10:18:03Z</time></trkpt><trkpt lat="43.920556775751294" lon="7.643804121863298"><ele>342.0</ele><time>2026-04-12T10:18:04Z</time></trkpt><trkpt lat="43.920648471564455" lon="7.643792648009392"><ele>338.3333333333333</ele><time>2026-04-12T10:18:05Z</time></trkpt><trkpt lat="43.92073045532765" lon="7.643780584198864"><ele>334.66666666666663</ele><time>2026-04-12T10:18:06Z</time></trkpt><trkpt lat="43.920801397509216" lon="7.643767966946346"><ele>331.0</ele><time>2026-04-12T10:18:07Z</time></trkpt><trkpt lat="43.920869357300234" lon="7.643732766072351"><ele>329.8333333333333</ele><time>2026-04-12T10:18:08Z</time></trkpt><trkpt lat="43.92093696401835" lon="7.643660483206595"><ele>328.66666666666663</ele><time>2026-04-12T10:18:09Z</time></trkpt><trkpt lat="43.921007946838785" lon="7.64357896037549"><ele>327.5</ele><time>2026-04-12T10:18:10Z</time></trkpt><trkpt lat="43.92106903329986" lon="7.6435177133299925"><ele>326.3333333333333</ele><time>2026-04-12T10:18:11Z</time></trkpt><trkpt lat="43.921134232414886" lon="7.643471615431698"><ele>325.1666666666667</ele><time>2026-04-12T10:18:12Z</time></trkpt><trkpt lat="43.92125279851327" lon="7.6434689242272515"><ele>324.0</ele><time>2026-04-12T10:18:14Z</time></trkpt><trkpt lat="43.92131956386841" lon="7.643513099167225"><ele>324.0</ele><time>2026-04-12T10:18:15Z</time></trkpt><trkpt lat="43.9213889482599" lon="7.6435791285109005"><ele>324.0</ele><time>2026-04-12T10:18:16Z</time></trkpt><trkpt lat="43.92145471633652" lon="7.643647847643054"><ele>324.0</ele><time>2026-04-12T10:18:17Z</time></trkpt><trkpt lat="43.921523493786346" lon="7.643711330612901"><ele>324.0</ele><time>2026-04-12T10:18:18Z</time></trkpt><trkpt lat="43.92159167971523" lon="7.643768975209025"><ele>324.0</ele><time>2026-04-12T10:18:19Z</time></trkpt><trkpt lat="43.92164693474411" lon="7.643814724410347"><ele>324.0</ele><time>2026-04-12T10:18:20Z</time></trkpt><trkpt lat="43.92175780474195" lon="7.643860044520408"><ele>323.0</ele><time>2026-04-12T10:18:22Z</time></trkpt><trkpt lat="43.92189215114416" lon="7.643820311098059"><ele>322.0</ele><time>2026-04-12T10:18:24Z</time></trkpt><trkpt lat="43.9219820318913" lon="7.643827560916661"><ele>321.0</ele><time>2026-04-12T10:18:25Z</time></trkpt><trkpt lat="43.92208213339522" lon="7.643807007917989"><ele>320.0</ele><time>2026-04-12T10:18:26Z</time></trkpt><trkpt lat="43.92218017161842" lon="7.643804273360403"><ele>319.0</ele><time>2026-04-12T10:18:27Z</time></trkpt><trkpt lat="43.92227253845977" lon="7.643801104775044"><ele>319.0</ele><time>2026-04-12T10:18:28Z</time></trkpt><trkpt lat="43.92235882438408" lon="7.64379440084899"><ele>319.0</ele><time>2026-04-12T10:18:29Z</time></trkpt><trkpt lat="43.92243982666749" lon="7.643782361029448"><ele>319.0</ele><time>2026-04-12T10:18:30Z</time></trkpt><trkpt lat="43.92251185729216" lon="7.643749700570829"><ele>319.0</ele><time>2026-04-12T10:18:31Z</time></trkpt><trkpt lat="43.922580194204215" lon="7.64370592943782"><ele>319.0</ele><time>2026-04-12T10:18:32Z</time></trkpt><trkpt lat="43.922649235852916" lon="7.643669464031579"><ele>319.0</ele><time>2026-04-12T10:18:33Z</time></trkpt><trkpt lat="43.92271980422244" lon="7.643654852423355"><ele>318.5714285714286</ele><time>2026-04-12T10:18:34Z</time></trkpt><trkpt lat="43.922793922302844" lon="7.643644885759289"><ele>318.1428571428571</ele><time>2026-04-12T10:18:34.999Z</time></trkpt><trkpt lat="43.922863666155486" lon="7.643653029206898"><ele>317.7142857142857</ele><time>2026-04-12T10:18:35.999Z</time></trkpt><trkpt lat="43.92292944515582" lon="7.643676061109562"><ele>317.28571428571433</ele><time>2026-04-12T10:18:36.999Z</time></trkpt><trkpt lat="43.922994066471105" lon="7.643707120486529"><ele>316.8571428571429</ele><time>2026-04-12T10:18:37.999Z</time></trkpt><trkpt lat="43.923059623264415" lon="7.643735790581525"><ele>316.42857142857144</ele><time>2026-04-12T10:18:38.999Z</time></trkpt><trkpt lat="43.9231277769703" lon="7.643761831916773"><ele>316.0</ele><time>2026-04-12T10:18:39.999Z</time></trkpt><trkpt lat="43.92319577703466" lon="7.643787125777842"><ele>316.0</ele><time>2026-04-12T10:18:40.999Z</time></trkpt><trkpt lat="43.92325928714537" lon="7.643811102680439"><ele>316.0</ele><time>2026-04-12T10:18:41.999Z</time></trkpt><trkpt lat="43.92337967934573" lon="7.643829225324942"><ele>316.0</ele><time>2026-04-12T10:18:43.999Z</time></trkpt><trkpt lat="43.92348193815613" lon="7.643781291882765"><ele>316.0</ele><time>2026-04-12T10:18:45.999Z</time></trkpt><trkpt lat="43.92356841664982" lon="7.643704304189192"><ele>316.0</ele><time>2026-04-12T10:18:47.999Z</time></trkpt><trkpt lat="43.92360225315913" lon="7.643629335643931"><ele>309.6</ele><time>2026-04-12T10:18:49.999Z</time></trkpt><trkpt lat="43.92363680430069" lon="7.6434845721639695"><ele>303.20000000000005</ele><time>2026-04-12T10:18:56.999Z</time></trkpt><trkpt lat="43.92365000580662" lon="7.643370333561886"><ele>296.79999999999995</ele><time>2026-04-12T10:18:57.999Z</time></trkpt><trkpt lat="43.923653096976444" lon="7.643241390110537"><ele>290.4</ele><time>2026-04-12T10:18:58.999Z</time></trkpt><trkpt lat="43.92366573062779" lon="7.643105017652598"><ele>284.0</ele><time>2026-04-12T10:18:59.999Z</time></trkpt><trkpt lat="43.923692723277355" lon="7.642961304720393"><ele>284.0</ele><time>2026-04-12T10:19:00.999Z</time></trkpt><trkpt lat="43.923727983118155" lon="7.642815763110495"><ele>284.0</ele><time>2026-04-12T10:19:01.999Z</time></trkpt><trkpt lat="43.92374884599775" lon="7.642663996046742"><ele>284.0</ele><time>2026-04-12T10:19:02.999Z</time></trkpt><trkpt lat="43.923802304783216" lon="7.642535368516574"><ele>284.0</ele><time>2026-04-12T10:19:03.999Z</time></trkpt><trkpt lat="43.92383112977379" lon="7.6424034636782165"><ele>284.0</ele><time>2026-04-12T10:19:04.999Z</time></trkpt><trkpt lat="43.9238707336725" lon="7.642290842908638"><ele>285.1666666666667</ele><time>2026-04-12T10:19:05.999Z</time></trkpt><trkpt lat="43.92390399530275" lon="7.642188746230126"><ele>286.33333333333337</ele><time>2026-04-12T10:19:06.999Z</time></trkpt><trkpt lat="43.923925417606455" lon="7.642080669461747"><ele>287.5</ele><time>2026-04-12T10:19:07.999Z</time></trkpt><trkpt lat="43.92394014371255" lon="7.641968244342674"><ele>288.6666666666667</ele><time>2026-04-12T10:19:08.999Z</time></trkpt><trkpt lat="43.92395458105968" lon="7.641849046087997"><ele>289.8333333333333</ele><time>2026-04-12T10:19:09.999Z</time></trkpt><trkpt lat="43.92397026690448" lon="7.641726307938427"><ele>291.0</ele><time>2026-04-12T10:19:10.999Z</time></trkpt><trkpt lat="43.923990609418844" lon="7.641604361309119"><ele>291.8333333333333</ele><time>2026-04-12T10:19:11.999Z</time></trkpt><trkpt lat="43.92401151620519" lon="7.641484824823404"><ele>292.6666666666667</ele><time>2026-04-12T10:19:12.999Z</time></trkpt><trkpt lat="43.92403297649106" lon="7.64137430015252"><ele>293.5</ele><time>2026-04-12T10:19:13.999Z</time></trkpt><trkpt lat="43.92405180044703" lon="7.6412638264641926"><ele>294.33333333333337</ele><time>2026-04-12T10:19:14.999Z</time></trkpt><trkpt lat="43.924067106165786" lon="7.641152038921784"><ele>295.1666666666667</ele><time>2026-04-12T10:19:15.999Z</time></trkpt><trkpt lat="43.92406808233093" lon="7.641033806962365"><ele>296.0</ele><time>2026-04-12T10:19:16.999Z</time></trkpt><trkpt lat="43.92405810527199" lon="7.640914310317415"><ele>296.1666666666667</ele><time>2026-04-12T10:19:17.998Z</time></trkpt><trkpt lat="43.924043225553646" lon="7.640790904779421"><ele>296.33333333333337</ele><time>2026-04-12T10:19:18.998Z</time></trkpt><trkpt lat="43.92401614791124" lon="7.640680392575079"><ele>296.5</ele><time>2026-04-12T10:19:19.998Z</time></trkpt><trkpt lat="43.92398813630408" lon="7.640584370097615"><ele>296.6666666666667</ele><time>2026-04-12T10:19:20.998Z</time></trkpt><trkpt lat="43.92396187702393" lon="7.640499340859886"><ele>296.8333333333333</ele><time>2026-04-12T10:19:21.998Z</time></trkpt><trkpt lat="43.92393223782971" lon="7.640362895275166"><ele>297.0</ele><time>2026-04-12T10:19:23.998Z</time></trkpt><trkpt lat="43.92390487995934" lon="7.6402686797721895"><ele>297.0</ele><time>2026-04-12T10:19:25.998Z</time></trkpt><trkpt lat="43.92398365096616" lon="7.640216695099147"><ele>297.0</ele><time>2026-04-12T10:19:27.998Z</time></trkpt><trkpt lat="43.92406607125959" lon="7.640290017899935"><ele>297.0</ele><time>2026-04-12T10:19:29.998Z</time></trkpt><trkpt lat="43.924097622998055" lon="7.640372040439011"><ele>297.0</ele><time>2026-04-12T10:19:30.998Z</time></trkpt><trkpt lat="43.92412620193844" lon="7.640456715007294"><ele>297.0</ele><time>2026-04-12T10:19:31.998Z</time></trkpt><trkpt lat="43.92415245296183" lon="7.640555373040613"><ele>297.0</ele><time>2026-04-12T10:19:32.998Z</time></trkpt><trkpt lat="43.924159814694725" lon="7.640684120659898"><ele>297.0</ele><time>2026-04-12T10:19:33.998Z</time></trkpt><trkpt lat="43.924168559645594" lon="7.640824714244298"><ele>297.0</ele><time>2026-04-12T10:19:34.998Z</time></trkpt><trkpt lat="43.92417452713387" lon="7.640981190895375"><ele>297.0</ele><time>2026-04-12T10:19:35.998Z</time></trkpt><trkpt lat="43.92418307956778" lon="7.6411477861074"><ele>297.0</ele><time>2026-04-12T10:19:36.998Z</time></trkpt><trkpt lat="43.92419294421639" lon="7.641319986219132"><ele>296.8</ele><time>2026-04-12T10:19:37.998Z</time></trkpt><trkpt lat="43.92419142086758" lon="7.641481335926433"><ele>296.6</ele><time>2026-04-12T10:19:38.998Z</time></trkpt><trkpt lat="43.92419070436261" lon="7.6416349330864435"><ele>296.40000000000003</ele><time>2026-04-12T10:19:39.998Z</time></trkpt><trkpt lat="43.92419937450286" lon="7.641780711470298"><ele>296.2</ele><time>2026-04-12T10:19:40.998Z</time></trkpt><trkpt lat="43.92420490142367" lon="7.641926896851744"><ele>296.0</ele><time>2026-04-12T10:19:41.998Z</time></trkpt><trkpt lat="43.92421100106716" lon="7.6420680463845985"><ele>295.0</ele><time>2026-04-12T10:19:42.998Z</time></trkpt><trkpt lat="43.92420748451565" lon="7.64221090874899"><ele>294.0</ele><time>2026-04-12T10:19:43.998Z</time></trkpt><trkpt lat="43.924196918327354" lon="7.6423545394358605"><ele>293.0</ele><time>2026-04-12T10:19:44.998Z</time></trkpt><trkpt lat="43.92417990409774" lon="7.642495122344097"><ele>292.0</ele><time>2026-04-12T10:19:45.998Z</time></trkpt><trkpt lat="43.92416157954852" lon="7.642637126995793"><ele>291.0</ele><time>2026-04-12T10:19:46.998Z</time></trkpt><trkpt lat="43.92414289617188" lon="7.6427803862778765"><ele>289.6</ele><time>2026-04-12T10:19:47.998Z</time></trkpt><trkpt lat="43.92412924400152" lon="7.642918105834174"><ele>288.20000000000005</ele><time>2026-04-12T10:19:48.998Z</time></trkpt><trkpt lat="43.92411895419615" lon="7.643050177524632"><ele>286.79999999999995</ele><time>2026-04-12T10:19:49.998Z</time></trkpt><trkpt lat="43.924115500786904" lon="7.643179196432554"><ele>285.4</ele><time>2026-04-12T10:19:50.998Z</time></trkpt><trkpt lat="43.924121654806044" lon="7.6432981606124795"><ele>284.0</ele><time>2026-04-12T10:19:51.998Z</time></trkpt><trkpt lat="43.924135700366286" lon="7.643417148276585"><ele>284.0</ele><time>2026-04-12T10:19:52.998Z</time></trkpt><trkpt lat="43.924143020019486" lon="7.6435318592158366"><ele>284.0</ele><time>2026-04-12T10:19:53.998Z</time></trkpt><trkpt lat="43.924134138589174" lon="7.643638412111226"><ele>284.0</ele><time>2026-04-12T10:19:54.998Z</time></trkpt><trkpt lat="43.924127924114266" lon="7.643740881577588"><ele>284.0</ele><time>2026-04-12T10:19:55.998Z</time></trkpt><trkpt lat="43.92413452807171" lon="7.643838922982506"><ele>284.0</ele><time>2026-04-12T10:19:57Z</time></trkpt><trkpt lat="43.92414681842053" lon="7.643937693339555"><ele>284.0</ele><time>2026-04-12T10:19:58Z</time></trkpt><trkpt lat="43.92416105371659" lon="7.644043729596219"><ele>283.4</ele><time>2026-04-12T10:19:59Z</time></trkpt><trkpt lat="43.9241762418077" lon="7.644156816339105"><ele>282.79999999999995</ele><time>2026-04-12T10:20:00Z</time></trkpt><trkpt lat="43.9241935954932" lon="7.64427525058606"><ele>282.20000000000005</ele><time>2026-04-12T10:20:01Z</time></trkpt><trkpt lat="43.92421291118696" lon="7.644405771388767"><ele>281.6</ele><time>2026-04-12T10:20:02Z</time></trkpt><trkpt lat="43.924223690112505" lon="7.644547474155543"><ele>281.0</ele><time>2026-04-12T10:20:03Z</time></trkpt><trkpt lat="43.92423689112283" lon="7.644678139589196"><ele>278.83333333333337</ele><time>2026-04-12T10:20:04Z</time></trkpt><trkpt lat="43.924249764363765" lon="7.644812028623913"><ele>276.6666666666667</ele><time>2026-04-12T10:20:05Z</time></trkpt><trkpt lat="43.92427657191417" lon="7.644936463285083"><ele>274.5</ele><time>2026-04-12T10:20:06Z</time></trkpt><trkpt lat="43.92429947288065" lon="7.645047840029143"><ele>272.3333333333333</ele><time>2026-04-12T10:20:07Z</time></trkpt><trkpt lat="43.92432653793753" lon="7.645148547187508"><ele>270.16666666666663</ele><time>2026-04-12T10:20:08Z</time></trkpt><trkpt lat="43.924345387812544" lon="7.645236308026442"><ele>268.0</ele><time>2026-04-12T10:20:09Z</time></trkpt><trkpt lat="43.92436179572888" lon="7.645321851778763"><ele>264.16666666666663</ele><time>2026-04-12T10:20:10Z</time></trkpt><trkpt lat="43.92435390210048" lon="7.6454874218880615"><ele>260.3333333333333</ele><time>2026-04-12T10:20:12Z</time></trkpt><trkpt lat="43.92430823517261" lon="7.64556319494297"><ele>256.5</ele><time>2026-04-12T10:20:13Z</time></trkpt><trkpt lat="43.924255901030854" lon="7.645616347312336"><ele>252.66666666666669</ele><time>2026-04-12T10:20:14Z</time></trkpt><trkpt lat="43.924194560537906" lon="7.645646015114071"><ele>248.83333333333334</ele><time>2026-04-12T10:20:15Z</time></trkpt><trkpt lat="43.924120945118894" lon="7.645618430234143"><ele>245.0</ele><time>2026-04-12T10:20:16Z</time></trkpt><trkpt lat="43.92404841884229" lon="7.64559057682266"><ele>245.0</ele><time>2026-04-12T10:20:17Z</time></trkpt><trkpt lat="43.92396068620571" lon="7.645571012158979"><ele>245.0</ele><time>2026-04-12T10:20:18Z</time></trkpt><trkpt lat="43.923864580464716" lon="7.645551763244647"><ele>245.0</ele><time>2026-04-12T10:20:19Z</time></trkpt><trkpt lat="43.923763435425656" lon="7.645531172973239"><ele>245.0</ele><time>2026-04-12T10:20:20Z</time></trkpt><trkpt lat="43.923657583858265" lon="7.645508781292923"><ele>245.0</ele><time>2026-04-12T10:20:21Z</time></trkpt><trkpt lat="43.92354634927659" lon="7.645487127434531"><ele>245.0</ele><time>2026-04-12T10:20:22Z</time></trkpt><trkpt lat="43.923438732855395" lon="7.645486366560645"><ele>245.0</ele><time>2026-04-12T10:20:23Z</time></trkpt><trkpt lat="43.923336837199756" lon="7.645450095590343"><ele>245.0</ele><time>2026-04-12T10:20:24Z</time></trkpt><trkpt lat="43.92323593328997" lon="7.645408943505316"><ele>245.0</ele><time>2026-04-12T10:20:25Z</time></trkpt><trkpt lat="43.92314095982978" lon="7.645357124957579"><ele>245.0</ele><time>2026-04-12T10:20:26Z</time></trkpt><trkpt lat="43.92305229971422" lon="7.645311213545784"><ele>243.00000000000003</ele><time>2026-04-12T10:20:27Z</time></trkpt><trkpt lat="43.92297443202571" lon="7.645271740025169"><ele>241.0</ele><time>2026-04-12T10:20:28Z</time></trkpt><trkpt lat="43.92290815113121" lon="7.64525246199433"><ele>239.0</ele><time>2026-04-12T10:20:29Z</time></trkpt><trkpt lat="43.92280913404949" lon="7.645272935735986"><ele>237.0</ele><time>2026-04-12T10:20:31Z</time></trkpt><trkpt lat="43.92278511040656" lon="7.645375725841622"><ele>235.00000000000003</ele><time>2026-04-12T10:20:33Z</time></trkpt><trkpt lat="43.922866551485136" lon="7.645475209964953"><ele>233.0</ele><time>2026-04-12T10:20:35Z</time></trkpt><trkpt lat="43.922945654833455" lon="7.645482620850303"><ele>233.0</ele><time>2026-04-12T10:20:36Z</time></trkpt><trkpt lat="43.92303018675482" lon="7.645483879653312"><ele>233.0</ele><time>2026-04-12T10:20:37Z</time></trkpt><trkpt lat="43.9231175450954" lon="7.645538073000052"><ele>233.0</ele><time>2026-04-12T10:20:38Z</time></trkpt><trkpt lat="43.92321668881683" lon="7.645586173669284"><ele>233.0</ele><time>2026-04-12T10:20:38.999Z</time></trkpt><trkpt lat="43.9233216192926" lon="7.645614407549122"><ele>233.0</ele><time>2026-04-12T10:20:39.999Z</time></trkpt><trkpt lat="43.92342155403271" lon="7.645674534205822"><ele>235.4</ele><time>2026-04-12T10:20:40.999Z</time></trkpt><trkpt lat="43.92352260776351" lon="7.645727114436863"><ele>237.8</ele><time>2026-04-12T10:20:41.999Z</time></trkpt><trkpt lat="43.92362413069879" lon="7.645777732634597"><ele>240.2</ele><time>2026-04-12T10:20:42.999Z</time></trkpt><trkpt lat="43.92372700295187" lon="7.6458352444524476"><ele>242.6</ele><time>2026-04-12T10:20:43.999Z</time></trkpt><trkpt lat="43.92382668650815" lon="7.645899347082909"><ele>245.0</ele><time>2026-04-12T10:20:44.999Z</time></trkpt><trkpt lat="43.92391993539985" lon="7.645968998904081"><ele>245.0</ele><time>2026-04-12T10:20:45.999Z</time></trkpt><trkpt lat="43.92401331604536" lon="7.64604449767688"><ele>245.0</ele><time>2026-04-12T10:20:46.999Z</time></trkpt><trkpt lat="43.92410929105821" lon="7.646116303135413"><ele>245.0</ele><time>2026-04-12T10:20:47.999Z</time></trkpt><trkpt lat="43.92420184382826" lon="7.646196908242209"><ele>245.0</ele><time>2026-04-12T10:20:48.999Z</time></trkpt><trkpt lat="43.92428184352794" lon="7.646285911737946"><ele>245.0</ele><time>2026-04-12T10:20:49.999Z</time></trkpt><trkpt lat="43.92435059081726" lon="7.646385376411496"><ele>243.0</ele><time>2026-04-12T10:20:50.999Z</time></trkpt><trkpt lat="43.924408092087376" lon="7.646491574169752"><ele>241.0</ele><time>2026-04-12T10:20:51.999Z</time></trkpt><trkpt lat="43.924455931347886" lon="7.646610147929547"><ele>239.0</ele><time>2026-04-12T10:20:52.999Z</time></trkpt><trkpt lat="43.924492478913315" lon="7.6467328040330855"><ele>237.0</ele><time>2026-04-12T10:20:53.999Z</time></trkpt><trkpt lat="43.92451659952348" lon="7.646860514996724"><ele>235.0</ele><time>2026-04-12T10:20:54.999Z</time></trkpt><trkpt lat="43.92453519232645" lon="7.646985020836443"><ele>232.4</ele><time>2026-04-12T10:20:55.999Z</time></trkpt><trkpt lat="43.92454008782485" lon="7.64711827275458"><ele>229.8</ele><time>2026-04-12T10:20:56.999Z</time></trkpt><trkpt lat="43.924545923714305" lon="7.647249824052167"><ele>227.2</ele><time>2026-04-12T10:20:57.999Z</time></trkpt><trkpt lat="43.924553320486254" lon="7.6473805589139765"><ele>224.6</ele><time>2026-04-12T10:20:58.999Z</time></trkpt><trkpt lat="43.924560588500704" lon="7.647509197195204"><ele>222.0</ele><time>2026-04-12T10:20:59.999Z</time></trkpt><trkpt lat="43.92457003088013" lon="7.647633874545576"><ele>222.0</ele><time>2026-04-12T10:21:00.999Z</time></trkpt><trkpt lat="43.924582027715644" lon="7.647757256851889"><ele>222.0</ele><time>2026-04-12T10:21:01.999Z</time></trkpt><trkpt lat="43.924591534533576" lon="7.647870905702578"><ele>222.0</ele><time>2026-04-12T10:21:02.999Z</time></trkpt><trkpt lat="43.924598744661175" lon="7.647974311340068"><ele>222.0</ele><time>2026-04-12T10:21:03.999Z</time></trkpt><trkpt lat="43.92460687159696" lon="7.648067613926204"><ele>222.0</ele><time>2026-04-12T10:21:04.999Z</time></trkpt><trkpt lat="43.924614633532435" lon="7.648154742813974"><ele>222.0</ele><time>2026-04-12T10:21:05.999Z</time></trkpt><trkpt lat="43.92459753263261" lon="7.648304452299946"><ele>219.0</ele><time>2026-04-12T10:21:07.999Z</time></trkpt><trkpt lat="43.92452813049885" lon="7.648382711102377"><ele>216.0</ele><time>2026-04-12T10:21:09.999Z</time></trkpt><trkpt lat="43.92444345916816" lon="7.648377478823213"><ele>213.0</ele><time>2026-04-12T10:21:11.999Z</time></trkpt><trkpt lat="43.92438088686519" lon="7.648247309535422"><ele>210.0</ele><time>2026-04-12T10:21:13.999Z</time></trkpt><trkpt lat="43.92432275448346" lon="7.64816603203219"><ele>207.0</ele><time>2026-04-12T10:21:14.999Z</time></trkpt><trkpt lat="43.924277212444295" lon="7.64805608376301"><ele>207.5</ele><time>2026-04-12T10:21:15.999Z</time></trkpt><trkpt lat="43.92422505496044" lon="7.647951691673635"><ele>208.0</ele><time>2026-04-12T10:21:16.999Z</time></trkpt><trkpt lat="43.92417838080976" lon="7.647855822879741"><ele>208.5</ele><time>2026-04-12T10:21:17.999Z</time></trkpt><trkpt lat="43.92414192670131" lon="7.647781856370906"><ele>209.0</ele><time>2026-04-12T10:21:18.999Z</time></trkpt><trkpt lat="43.92408653230791" lon="7.647674853245897"><ele>209.5</ele><time>2026-04-12T10:21:20.999Z</time></trkpt><trkpt lat="43.92401115947428" lon="7.647569758698346"><ele>210.0</ele><time>2026-04-12T10:21:22.998Z</time></trkpt><trkpt lat="43.92390975073706" lon="7.647599497506729"><ele>210.66666666666666</ele><time>2026-04-12T10:21:24.998Z</time></trkpt><trkpt lat="43.92383813531931" lon="7.647626166291037"><ele>211.33333333333331</ele><time>2026-04-12T10:21:27.998Z</time></trkpt><trkpt lat="43.92379968848299" lon="7.647519873587658"><ele>212.0</ele><time>2026-04-12T10:21:29.998Z</time></trkpt><trkpt lat="43.92375136120505" lon="7.647434203004944"><ele>212.66666666666666</ele><time>2026-04-12T10:21:30.998Z</time></trkpt><trkpt lat="43.923716581486765" lon="7.647335555829901"><ele>213.33333333333331</ele><time>2026-04-12T10:21:31.998Z</time></trkpt><trkpt lat="43.92366805377394" lon="7.647213836471541"><ele>214.0</ele><time>2026-04-12T10:21:32.998Z</time></trkpt><trkpt lat="43.923612721286084" lon="7.647080082076948"><ele>212.0</ele><time>2026-04-12T10:21:33.998Z</time></trkpt><trkpt lat="43.92355257403228" lon="7.646929468480171"><ele>210.0</ele><time>2026-04-12T10:21:34.998Z</time></trkpt><trkpt lat="43.92349064564099" lon="7.646774046621061"><ele>208.0</ele><time>2026-04-12T10:21:35.998Z</time></trkpt><trkpt lat="43.923428971574374" lon="7.646628014846341"><ele>206.0</ele><time>2026-04-12T10:21:36.998Z</time></trkpt><trkpt lat="43.92336628097979" lon="7.646493113113878"><ele>206.0</ele><time>2026-04-12T10:21:37.998Z</time></trkpt><trkpt lat="43.92329747903549" lon="7.64637234790488"><ele>206.0</ele><time>2026-04-12T10:21:38.998Z</time></trkpt><trkpt lat="43.92321438799527" lon="7.646257261125337"><ele>206.0</ele><time>2026-04-12T10:21:39.998Z</time></trkpt><trkpt lat="43.92311881437047" lon="7.64616436302785"><ele>206.0</ele><time>2026-04-12T10:21:40.998Z</time></trkpt><trkpt lat="43.92300949910388" lon="7.64609144335243"><ele>212.75</ele><time>2026-04-12T10:21:41.998Z</time></trkpt><trkpt lat="43.92288815093261" lon="7.646036483792913"><ele>219.5</ele><time>2026-04-12T10:21:42.998Z</time></trkpt><trkpt lat="43.922768368113736" lon="7.645989066632047"><ele>226.25</ele><time>2026-04-12T10:21:43.998Z</time></trkpt><trkpt lat="43.922650155133674" lon="7.645954155865358"><ele>233.0</ele><time>2026-04-12T10:21:44.998Z</time></trkpt><trkpt lat="43.92253935764417" lon="7.645924190945027"><ele>233.4</ele><time>2026-04-12T10:21:45.998Z</time></trkpt><trkpt lat="43.922434491358146" lon="7.645897059273713"><ele>233.8</ele><time>2026-04-12T10:21:46.998Z</time></trkpt><trkpt lat="43.922335843791" lon="7.645883946574472"><ele>234.2</ele><time>2026-04-12T10:21:47.998Z</time></trkpt><trkpt lat="43.92223631556631" lon="7.64589758865296"><ele>234.6</ele><time>2026-04-12T10:21:48.998Z</time></trkpt><trkpt lat="43.922132956181066" lon="7.645960291673514"><ele>235.0</ele><time>2026-04-12T10:21:49.998Z</time></trkpt><trkpt lat="43.92203309780464" lon="7.646047930398398"><ele>227.8</ele><time>2026-04-12T10:21:50.998Z</time></trkpt><trkpt lat="43.92193973199803" lon="7.6461421412163695"><ele>220.6</ele><time>2026-04-12T10:21:51.998Z</time></trkpt><trkpt lat="43.92184983511505" lon="7.646212860609794"><ele>213.39999999999998</ele><time>2026-04-12T10:21:52.998Z</time></trkpt><trkpt lat="43.921762608025965" lon="7.646269638051547"><ele>206.2</ele><time>2026-04-12T10:21:53.998Z</time></trkpt><trkpt lat="43.921666513376145" lon="7.646313060228455"><ele>199.0</ele><time>2026-04-12T10:21:54.998Z</time></trkpt><trkpt lat="43.92156239359274" lon="7.646331009486062"><ele>198.5</ele><time>2026-04-12T10:21:55.998Z</time></trkpt><trkpt lat="43.921450090196245" lon="7.64631650858441"><ele>198.0</ele><time>2026-04-12T10:21:56.998Z</time></trkpt><trkpt lat="43.92133720361603" lon="7.646277675640912"><ele>197.5</ele><time>2026-04-12T10:21:57.998Z</time></trkpt><trkpt lat="43.92122178836471" lon="7.646223419014354"><ele>197.0</ele><time>2026-04-12T10:21:58.998Z</time></trkpt><trkpt lat="43.92110789978639" lon="7.646178192286712"><ele>197.0</ele><time>2026-04-12T10:21:59.998Z</time></trkpt><trkpt lat="43.92099175850279" lon="7.646151100727478"><ele>197.0</ele><time>2026-04-12T10:22:00.998Z</time></trkpt><trkpt lat="43.92087548220512" lon="7.646161432366661"><ele>197.0</ele><time>2026-04-12T10:22:01.998Z</time></trkpt><trkpt lat="43.92076105858368" lon="7.646210310181279"><ele>197.0</ele><time>2026-04-12T10:22:03Z</time></trkpt><trkpt lat="43.9206400606996" lon="7.6462853590457796"><ele>196.25</ele><time>2026-04-12T10:22:04Z</time></trkpt><trkpt lat="43.920513583004976" lon="7.646368701350758"><ele>195.5</ele><time>2026-04-12T10:22:05Z</time></trkpt><trkpt lat="43.9203916546015" lon="7.646443812608474"><ele>194.75</ele><time>2026-04-12T10:22:06Z</time></trkpt><trkpt lat="43.92027313729639" lon="7.646513947938776"><ele>194.0</ele><time>2026-04-12T10:22:07Z</time></trkpt><trkpt lat="43.920161408518595" lon="7.6465993861597115"><ele>192.25</ele><time>2026-04-12T10:22:08Z</time></trkpt><trkpt lat="43.920055190661294" lon="7.646704137042305"><ele>190.5</ele><time>2026-04-12T10:22:09Z</time></trkpt><trkpt lat="43.91994993679253" lon="7.646827595187713"><ele>188.75</ele><time>2026-04-12T10:22:10Z</time></trkpt><trkpt lat="43.91984699791575" lon="7.646962046738172"><ele>187.0</ele><time>2026-04-12T10:22:11Z</time></trkpt><trkpt lat="43.919750882023514" lon="7.647103371851252"><ele>187.0</ele><time>2026-04-12T10:22:12Z</time></trkpt><trkpt lat="43.91965379652636" lon="7.647241384534428"><ele>187.0</ele><time>2026-04-12T10:22:13Z</time></trkpt><trkpt lat="43.919557007030605" lon="7.647376549183089"><ele>187.0</ele><time>2026-04-12T10:22:14Z</time></trkpt><trkpt lat="43.91946365485101" lon="7.6475094121678815"><ele>187.0</ele><time>2026-04-12T10:22:15Z</time></trkpt><trkpt lat="43.919375243575466" lon="7.647639816162466"><ele>187.0</ele><time>2026-04-12T10:22:16Z</time></trkpt><trkpt lat="43.919289944786996" lon="7.647764260480047"><ele>187.0</ele><time>2026-04-12T10:22:17Z</time></trkpt><trkpt lat="43.919189235807174" lon="7.647864417447999"><ele>187.0</ele><time>2026-04-12T10:22:18Z</time></trkpt><trkpt lat="43.91908297246686" lon="7.6479503618902065"><ele>187.0</ele><time>2026-04-12T10:22:19Z</time></trkpt><trkpt lat="43.918976819362975" lon="7.648025273878328"><ele>186.39999999999998</ele><time>2026-04-12T10:22:20Z</time></trkpt><trkpt lat="43.91887660198744" lon="7.648101213154104"><ele>185.79999999999998</ele><time>2026-04-12T10:22:21Z</time></trkpt><trkpt lat="43.91878448315577" lon="7.6481788241893"><ele>185.2</ele><time>2026-04-12T10:22:22Z</time></trkpt><trkpt lat="43.918693556271705" lon="7.648255609937341"><ele>184.6</ele><time>2026-04-12T10:22:23Z</time></trkpt><trkpt lat="43.91858952406635" lon="7.648330693626048"><ele>184.0</ele><time>2026-04-12T10:22:24Z</time></trkpt><trkpt lat="43.9184750953847" lon="7.648398184437096"><ele>187.75</ele><time>2026-04-12T10:22:25Z</time></trkpt><trkpt lat="43.918350482073315" lon="7.648442314326215"><ele>191.5</ele><time>2026-04-12T10:22:26Z</time></trkpt><trkpt lat="43.918227993296085" lon="7.648479893365364"><ele>195.25</ele><time>2026-04-12T10:22:27Z</time></trkpt><trkpt lat="43.918104608158515" lon="7.6485000270460555"><ele>199.0</ele><time>2026-04-12T10:22:28Z</time></trkpt><trkpt lat="43.917979446268205" lon="7.648516474898047"><ele>199.0</ele><time>2026-04-12T10:22:29Z</time></trkpt><trkpt lat="43.9178410813225" lon="7.648498671181802"><ele>199.0</ele><time>2026-04-12T10:22:30Z</time></trkpt><trkpt lat="43.91770531213479" lon="7.648487697585826"><ele>199.0</ele><time>2026-04-12T10:22:31Z</time></trkpt><trkpt lat="43.91755646463638" lon="7.648512511209335"><ele>199.0</ele><time>2026-04-12T10:22:32Z</time></trkpt><trkpt lat="43.917435936913826" lon="7.648619188077038"><ele>195.0</ele><time>2026-04-12T10:22:33Z</time></trkpt><trkpt lat="43.91730114015398" lon="7.6486598025000365"><ele>191.0</ele><time>2026-04-12T10:22:34Z</time></trkpt><trkpt lat="43.91717240486823" lon="7.648693672257677"><ele>187.0</ele><time>2026-04-12T10:22:35Z</time></trkpt><trkpt lat="43.91704711976285" lon="7.648727355576732"><ele>183.0</ele><time>2026-04-12T10:22:36Z</time></trkpt><trkpt lat="43.916916688872746" lon="7.648749634878866"><ele>183.0</ele><time>2026-04-12T10:22:37Z</time></trkpt><trkpt lat="43.91678090693029" lon="7.648780401405589"><ele>183.0</ele><time>2026-04-12T10:22:38Z</time></trkpt><trkpt lat="43.91663810593934" lon="7.648805619392306"><ele>183.0</ele><time>2026-04-12T10:22:39Z</time></trkpt><trkpt lat="43.916502029409436" lon="7.648831332923186"><ele>183.0</ele><time>2026-04-12T10:22:40Z</time></trkpt><trkpt lat="43.91637596716983" lon="7.648863979965192"><ele>182.75</ele><time>2026-04-12T10:22:41Z</time></trkpt><trkpt lat="43.91624917461623" lon="7.648900553948443"><ele>182.5</ele><time>2026-04-12T10:22:42Z</time></trkpt><trkpt lat="43.91612876272635" lon="7.648935535464094"><ele>182.25</ele><time>2026-04-12T10:22:43Z</time></trkpt><trkpt lat="43.91601019836165" lon="7.648962591156372"><ele>182.0</ele><time>2026-04-12T10:22:44Z</time></trkpt><trkpt lat="43.915889256631104" lon="7.648978075763742"><ele>183.5</ele><time>2026-04-12T10:22:44.999Z</time></trkpt><trkpt lat="43.915768412829635" lon="7.648975348039504"><ele>185.0</ele><time>2026-04-12T10:22:45.999Z</time></trkpt><trkpt lat="43.91564601327905" lon="7.648967071352804"><ele>186.5</ele><time>2026-04-12T10:22:46.999Z</time></trkpt><trkpt lat="43.91551552558974" lon="7.648950463172797"><ele>188.0</ele><time>2026-04-12T10:22:47.999Z</time></trkpt><trkpt lat="43.91538287663598" lon="7.648911922046087"><ele>188.0</ele><time>2026-04-12T10:22:48.999Z</time></trkpt><trkpt lat="43.91524669098807" lon="7.64885680307179"><ele>188.0</ele><time>2026-04-12T10:22:49.999Z</time></trkpt><trkpt lat="43.91510180033313" lon="7.648790056697759"><ele>188.0</ele><time>2026-04-12T10:22:50.999Z</time></trkpt><trkpt lat="43.914957323817596" lon="7.648724564814368"><ele>188.0</ele><time>2026-04-12T10:22:51.999Z</time></trkpt><trkpt lat="43.91481983529423" lon="7.648663370015216"><ele>190.5</ele><time>2026-04-12T10:22:52.999Z</time></trkpt><trkpt lat="43.91468632795596" lon="7.6486023883034076"><ele>193.0</ele><time>2026-04-12T10:22:53.999Z</time></trkpt><trkpt lat="43.914571100294815" lon="7.648549185242414"><ele>195.5</ele><time>2026-04-12T10:22:54.999Z</time></trkpt><trkpt lat="43.9144577280556" lon="7.64851220646595"><ele>198.0</ele><time>2026-04-12T10:22:55.999Z</time></trkpt><trkpt lat="43.91434465332908" lon="7.648477802675372"><ele>198.25</ele><time>2026-04-12T10:22:56.999Z</time></trkpt><trkpt lat="43.91422406071926" lon="7.648517395815804"><ele>198.5</ele><time>2026-04-12T10:22:57.999Z</time></trkpt><trkpt lat="43.91410180025636" lon="7.64851872857919"><ele>198.75</ele><time>2026-04-12T10:22:58.999Z</time></trkpt><trkpt lat="43.91397527228929" lon="7.648543027441812"><ele>199.0</ele><time>2026-04-12T10:22:59.999Z</time></trkpt><trkpt lat="43.91384750938895" lon="7.648590817954462"><ele>199.0</ele><time>2026-04-12T10:23:00.999Z</time></trkpt><trkpt lat="43.9137199326591" lon="7.648597119121342"><ele>199.0</ele><time>2026-04-12T10:23:01.999Z</time></trkpt><trkpt lat="43.91359349731367" lon="7.648645211898239"><ele>199.0</ele><time>2026-04-12T10:23:02.999Z</time></trkpt><trkpt lat="43.91346444801196" lon="7.648669828295093"><ele>199.0</ele><time>2026-04-12T10:23:03.999Z</time></trkpt><trkpt lat="43.91334096377518" lon="7.648693117268372"><ele>193.25</ele><time>2026-04-12T10:23:04.999Z</time></trkpt><trkpt lat="43.91321815636907" lon="7.648720506992251"><ele>187.5</ele><time>2026-04-12T10:23:05.999Z</time></trkpt><trkpt lat="43.91311171291107" lon="7.648801368215631"><ele>181.75</ele><time>2026-04-12T10:23:06.999Z</time></trkpt><trkpt lat="43.91300556320541" lon="7.648876960233588"><ele>176.0</ele><time>2026-04-12T10:23:07.999Z</time></trkpt><trkpt lat="43.912905960117975" lon="7.648959690829057"><ele>176.0</ele><time>2026-04-12T10:23:08.999Z</time></trkpt><trkpt lat="43.91281175836679" lon="7.649050402082461"><ele>176.0</ele><time>2026-04-12T10:23:09.999Z</time></trkpt><trkpt lat="43.91273778139859" lon="7.649144205134372"><ele>176.0</ele><time>2026-04-12T10:23:10.999Z</time></trkpt><trkpt lat="43.91267810237574" lon="7.649246845829573"><ele>176.0</ele><time>2026-04-12T10:23:11.999Z</time></trkpt><trkpt lat="43.91264238928014" lon="7.649371796395323"><ele>176.0</ele><time>2026-04-12T10:23:12.999Z</time></trkpt><trkpt lat="43.91263139173959" lon="7.649520709079374"><ele>175.20000000000002</ele><time>2026-04-12T10:23:13.999Z</time></trkpt><trkpt lat="43.91263958796087" lon="7.649673065227744"><ele>174.4</ele><time>2026-04-12T10:23:14.999Z</time></trkpt><trkpt lat="43.91264880207457" lon="7.649807517676807"><ele>173.6</ele><time>2026-04-12T10:23:15.999Z</time></trkpt><trkpt lat="43.912644244084056" lon="7.6499336409170615"><ele>172.8</ele><time>2026-04-12T10:23:16.999Z</time></trkpt><trkpt lat="43.912614827819624" lon="7.650056099603274"><ele>172.0</ele><time>2026-04-12T10:23:17.999Z</time></trkpt><trkpt lat="43.91256046740321" lon="7.650167354403728"><ele>171.5</ele><time>2026-04-12T10:23:18.999Z</time></trkpt><trkpt lat="43.91247608776837" lon="7.650263254787872"><ele>171.0</ele><time>2026-04-12T10:23:19.999Z</time></trkpt><trkpt lat="43.91237347484548" lon="7.650349204064837"><ele>170.5</ele><time>2026-04-12T10:23:20.999Z</time></trkpt><trkpt lat="43.912261782074815" lon="7.650430696513995"><ele>170.0</ele><time>2026-04-12T10:23:21.999Z</time></trkpt><trkpt lat="43.912143814653156" lon="7.650498142715334"><ele>171.0</ele><time>2026-04-12T10:23:22.999Z</time></trkpt><trkpt lat="43.912026797884" lon="7.650547344996304"><ele>172.0</ele><time>2026-04-12T10:23:23.999Z</time></trkpt><trkpt lat="43.91190044917383" lon="7.6505755103961866"><ele>173.0</ele><time>2026-04-12T10:23:24.999Z</time></trkpt><trkpt lat="43.911757315074794" lon="7.650575288447391"><ele>174.0</ele><time>2026-04-12T10:23:25.999Z</time></trkpt><trkpt lat="43.91160480219181" lon="7.650557963535162"><ele>171.75</ele><time>2026-04-12T10:23:26.998Z</time></trkpt><trkpt lat="43.91146443969496" lon="7.650544024740955"><ele>169.5</ele><time>2026-04-12T10:23:27.998Z</time></trkpt><trkpt lat="43.91132829733181" lon="7.650530492876777"><ele>167.25</ele><time>2026-04-12T10:23:28.998Z</time></trkpt><trkpt lat="43.91120011668387" lon="7.650511589632666"><ele>165.0</ele><time>2026-04-12T10:23:29.998Z</time></trkpt><trkpt lat="43.91107968531031" lon="7.650475619312016"><ele>165.0</ele><time>2026-04-12T10:23:30.998Z</time></trkpt><trkpt lat="43.91096470380705" lon="7.650427314564457"><ele>165.0</ele><time>2026-04-12T10:23:31.998Z</time></trkpt><trkpt lat="43.910852226724174" lon="7.650370550000403"><ele>165.0</ele><time>2026-04-12T10:23:32.998Z</time></trkpt><trkpt lat="43.91073814712079" lon="7.650292014613349"><ele>165.0</ele><time>2026-04-12T10:23:33.998Z</time></trkpt><trkpt lat="43.91061738424788" lon="7.650193334004548"><ele>166.0</ele><time>2026-04-12T10:23:34.998Z</time></trkpt><trkpt lat="43.910492727773736" lon="7.650096040376174"><ele>167.0</ele><time>2026-04-12T10:23:35.998Z</time></trkpt><trkpt lat="43.910367204497355" lon="7.65000020472754"><ele>168.0</ele><time>2026-04-12T10:23:36.998Z</time></trkpt><trkpt lat="43.910245081800326" lon="7.649904787313392"><ele>169.0</ele><time>2026-04-12T10:23:37.998Z</time></trkpt><trkpt lat="43.910122341458454" lon="7.649812224183219"><ele>166.5</ele><time>2026-04-12T10:23:38.998Z</time></trkpt><trkpt lat="43.91000093313474" lon="7.649717346291358"><ele>164.0</ele><time>2026-04-12T10:23:39.998Z</time></trkpt><trkpt lat="43.90988691497239" lon="7.6496282203842885"><ele>161.5</ele><time>2026-04-12T10:23:40.998Z</time></trkpt><trkpt lat="43.9097744461313" lon="7.649553063760819"><ele>159.0</ele><time>2026-04-12T10:23:41.998Z</time></trkpt><trkpt lat="43.909654557367304" lon="7.649484770595451"><ele>161.0</ele><time>2026-04-12T10:23:42.998Z</time></trkpt><trkpt lat="43.90953014566892" lon="7.649423138154341"><ele>163.0</ele><time>2026-04-12T10:23:43.998Z</time></trkpt><trkpt lat="43.90940279573628" lon="7.649379322351592"><ele>165.0</ele><time>2026-04-12T10:23:44.998Z</time></trkpt><trkpt lat="43.90927137795587" lon="7.649349581032581"><ele>167.0</ele><time>2026-04-12T10:23:45.998Z</time></trkpt><trkpt lat="43.90913667955837" lon="7.649332022669677"><ele>167.0</ele><time>2026-04-12T10:23:46.998Z</time></trkpt><trkpt lat="43.909000057417984" lon="7.649328563759764"><ele>167.0</ele><time>2026-04-12T10:23:47.998Z</time></trkpt><trkpt lat="43.90885625177994" lon="7.649324460368468"><ele>167.0</ele><time>2026-04-12T10:23:48.998Z</time></trkpt><trkpt lat="43.90871033307475" lon="7.649325790943955"><ele>167.0</ele><time>2026-04-12T10:23:49.998Z</time></trkpt><trkpt lat="43.90856565267914" lon="7.6493417036892"><ele>167.0</ele><time>2026-04-12T10:23:50.998Z</time></trkpt><trkpt lat="43.908425925277676" lon="7.649362476508868"><ele>167.0</ele><time>2026-04-12T10:23:51.998Z</time></trkpt><trkpt lat="43.908289938995466" lon="7.649383888917371"><ele>167.0</ele><time>2026-04-12T10:23:52.998Z</time></trkpt><trkpt lat="43.908159174746515" lon="7.649412972276303"><ele>167.0</ele><time>2026-04-12T10:23:53.998Z</time></trkpt><trkpt lat="43.908031009315" lon="7.649453244832029"><ele>165.5</ele><time>2026-04-12T10:23:54.998Z</time></trkpt><trkpt lat="43.90790177666921" lon="7.649503554208444"><ele>164.0</ele><time>2026-04-12T10:23:55.998Z</time></trkpt><trkpt lat="43.90777230238361" lon="7.649563279202337"><ele>162.5</ele><time>2026-04-12T10:23:56.998Z</time></trkpt><trkpt lat="43.907635759609306" lon="7.649629321427812"><ele>161.0</ele><time>2026-04-12T10:23:57.998Z</time></trkpt><trkpt lat="43.90749343064896" lon="7.649707728892155"><ele>157.33333333333331</ele><time>2026-04-12T10:23:58.998Z</time></trkpt><trkpt lat="43.90734816428578" lon="7.649792313654453"><ele>153.66666666666666</ele><time>2026-04-12T10:23:59.998Z</time></trkpt><trkpt lat="43.907201462531965" lon="7.649873920484748"><ele>150.0</ele><time>2026-04-12T10:24:00.998Z</time></trkpt><trkpt lat="43.90706249236552" lon="7.649952602929961"><ele>150.0</ele><time>2026-04-12T10:24:01.998Z</time></trkpt><trkpt lat="43.90693218124122" lon="7.6500276756196115"><ele>150.0</ele><time>2026-04-12T10:24:02.998Z</time></trkpt><trkpt lat="43.90680868099158" lon="7.6501014854868385"><ele>150.0</ele><time>2026-04-12T10:24:03.998Z</time></trkpt><trkpt lat="43.90668803101317" lon="7.650168384095905"><ele>150.0</ele><time>2026-04-12T10:24:04.998Z</time></trkpt><trkpt lat="43.90656926936113" lon="7.650215736736567"><ele>151.0</ele><time>2026-04-12T10:24:05.998Z</time></trkpt><trkpt lat="43.9064393243974" lon="7.6502586049538746"><ele>152.0</ele><time>2026-04-12T10:24:06.998Z</time></trkpt><trkpt lat="43.90630719106048" lon="7.650298463511336"><ele>153.0</ele><time>2026-04-12T10:24:07.998Z</time></trkpt><trkpt lat="43.90617675679983" lon="7.6503330472920315"><ele>154.0</ele><time>2026-04-12T10:24:09Z</time></trkpt><trkpt lat="43.90605408454057" lon="7.650369914599188"><ele>154.0</ele><time>2026-04-12T10:24:10Z</time></trkpt><trkpt lat="43.90593897388001" lon="7.65040435578623"><ele>154.0</ele><time>2026-04-12T10:24:11Z</time></trkpt><trkpt lat="43.90583558560099" lon="7.650427948431008"><ele>154.0</ele><time>2026-04-12T10:24:12Z</time></trkpt><trkpt lat="43.90572998264514" lon="7.650436094293045"><ele>154.0</ele><time>2026-04-12T10:24:13Z</time></trkpt><trkpt lat="43.905617158113216" lon="7.650427104278098"><ele>154.0</ele><time>2026-04-12T10:24:14Z</time></trkpt><trkpt lat="43.905494101439935" lon="7.65040007377067"><ele>154.5</ele><time>2026-04-12T10:24:15Z</time></trkpt><trkpt lat="43.90537906687582" lon="7.650334922690382"><ele>155.0</ele><time>2026-04-12T10:24:16Z</time></trkpt><trkpt lat="43.905265841443516" lon="7.6502962462406945"><ele>155.5</ele><time>2026-04-12T10:24:17Z</time></trkpt><trkpt lat="43.9051559733544" lon="7.6502636692791475"><ele>156.0</ele><time>2026-04-12T10:24:18Z</time></trkpt><trkpt lat="43.90505092687151" lon="7.650225842423482"><ele>154.75</ele><time>2026-04-12T10:24:19Z</time></trkpt><trkpt lat="43.90494420078411" lon="7.650171854433075"><ele>153.5</ele><time>2026-04-12T10:24:20Z</time></trkpt><trkpt lat="43.90483093439939" lon="7.650112270432489"><ele>152.25</ele><time>2026-04-12T10:24:21Z</time></trkpt><trkpt lat="43.9047313985123" lon="7.650010976384838"><ele>151.0</ele><time>2026-04-12T10:24:22Z</time></trkpt><trkpt lat="43.904636723031494" lon="7.64989535229693"><ele>151.0</ele><time>2026-04-12T10:24:23Z</time></trkpt><trkpt lat="43.90454750897438" lon="7.6497616124294145"><ele>151.0</ele><time>2026-04-12T10:24:24Z</time></trkpt><trkpt lat="43.9044674766419" lon="7.649603833808721"><ele>151.0</ele><time>2026-04-12T10:24:25Z</time></trkpt><trkpt lat="43.90439909350122" lon="7.649448460769435"><ele>151.0</ele><time>2026-04-12T10:24:26Z</time></trkpt><trkpt lat="43.90433691912356" lon="7.6492873231445415"><ele>151.25</ele><time>2026-04-12T10:24:27Z</time></trkpt><trkpt lat="43.90426387302817" lon="7.64914048046482"><ele>151.5</ele><time>2026-04-12T10:24:28Z</time></trkpt><trkpt lat="43.904165701432184" lon="7.6490123187483"><ele>151.75</ele><time>2026-04-12T10:24:29Z</time></trkpt><trkpt lat="43.904043704904154" lon="7.6488950728384095"><ele>152.0</ele><time>2026-04-12T10:24:30Z</time></trkpt><trkpt lat="43.90391615774996" lon="7.6487890691141125"><ele>152.0</ele><time>2026-04-12T10:24:31Z</time></trkpt><trkpt lat="43.903794239178794" lon="7.648688947105994"><ele>152.0</ele><time>2026-04-12T10:24:32Z</time></trkpt><trkpt lat="43.903679490406056" lon="7.648602472056485"><ele>152.0</ele><time>2026-04-12T10:24:33Z</time></trkpt><trkpt lat="43.90355919746947" lon="7.648533862106678"><ele>152.0</ele><time>2026-04-12T10:24:34Z</time></trkpt><trkpt lat="43.903429462464686" lon="7.648499960309491"><ele>157.25</ele><time>2026-04-12T10:24:35Z</time></trkpt><trkpt lat="43.90328983891107" lon="7.648488175046915"><ele>162.5</ele><time>2026-04-12T10:24:36Z</time></trkpt><trkpt lat="43.90314382042053" lon="7.648489184959967"><ele>167.75</ele><time>2026-04-12T10:24:37Z</time></trkpt><trkpt lat="43.90299803471147" lon="7.648489577478412"><ele>173.0</ele><time>2026-04-12T10:24:38Z</time></trkpt><trkpt lat="43.902863892010934" lon="7.6484907026835245"><ele>173.0</ele><time>2026-04-12T10:24:39Z</time></trkpt><trkpt lat="43.90274282676318" lon="7.64849749225822"><ele>173.0</ele><time>2026-04-12T10:24:40Z</time></trkpt><trkpt lat="43.90262819033697" lon="7.648505110297035"><ele>173.0</ele><time>2026-04-12T10:24:41Z</time></trkpt><trkpt lat="43.902515716389196" lon="7.648545457237153"><ele>173.0</ele><time>2026-04-12T10:24:42Z</time></trkpt><trkpt lat="43.902397852874245" lon="7.6486100757370865"><ele>167.25</ele><time>2026-04-12T10:24:43Z</time></trkpt><trkpt lat="43.90227674658333" lon="7.648710300267566"><ele>161.5</ele><time>2026-04-12T10:24:44Z</time></trkpt><trkpt lat="43.90215047368358" lon="7.648819394158757"><ele>155.75</ele><time>2026-04-12T10:24:45Z</time></trkpt><trkpt lat="43.90202537567307" lon="7.648925216622926"><ele>150.0</ele><time>2026-04-12T10:24:46Z</time></trkpt><trkpt lat="43.90191250309477" lon="7.649002713055725"><ele>150.0</ele><time>2026-04-12T10:24:47Z</time></trkpt><trkpt lat="43.90180638668069" lon="7.649082933809534"><ele>150.0</ele><time>2026-04-12T10:24:48Z</time></trkpt><trkpt lat="43.90170588639864" lon="7.649160779612925"><ele>150.0</ele><time>2026-04-12T10:24:48.999Z</time></trkpt><trkpt lat="43.9016093667579" lon="7.649242961029743"><ele>150.0</ele><time>2026-04-12T10:24:49.999Z</time></trkpt><trkpt lat="43.901511407800896" lon="7.649307631993592"><ele>151.8</ele><time>2026-04-12T10:24:50.999Z</time></trkpt><trkpt lat="43.90141761993439" lon="7.64937265729165"><ele>153.6</ele><time>2026-04-12T10:24:51.999Z</time></trkpt><trkpt lat="43.90132553106707" lon="7.649420165251622"><ele>155.4</ele><time>2026-04-12T10:24:52.999Z</time></trkpt><trkpt lat="43.90122258468061" lon="7.6494325677468975"><ele>157.2</ele><time>2026-04-12T10:24:53.999Z</time></trkpt><trkpt lat="43.90111166180108" lon="7.649460404191161"><ele>159.0</ele><time>2026-04-12T10:24:54.999Z</time></trkpt><trkpt lat="43.90099344186914" lon="7.6494417204299285"><ele>158.4</ele><time>2026-04-12T10:24:55.999Z</time></trkpt><trkpt lat="43.900877557728634" lon="7.649465426550466"><ele>157.8</ele><time>2026-04-12T10:24:56.999Z</time></trkpt><trkpt lat="43.90077652178095" lon="7.649471882108703"><ele>157.2</ele><time>2026-04-12T10:24:57.999Z</time></trkpt><trkpt lat="43.900673932652055" lon="7.649468749740902"><ele>156.6</ele><time>2026-04-12T10:24:58.999Z</time></trkpt><trkpt lat="43.90057312879763" lon="7.649445494289839"><ele>156.0</ele><time>2026-04-12T10:24:59.999Z</time></trkpt><trkpt lat="43.90047578867045" lon="7.649387801496201"><ele>154.5</ele><time>2026-04-12T10:25:00.999Z</time></trkpt><trkpt lat="43.90036804287665" lon="7.649322334187757"><ele>153.0</ele><time>2026-04-12T10:25:01.999Z</time></trkpt><trkpt lat="43.900261016073735" lon="7.649265260145064"><ele>151.5</ele><time>2026-04-12T10:25:02.999Z</time></trkpt><trkpt lat="43.900150322775936" lon="7.64920851403267"><ele>150.0</ele><time>2026-04-12T10:25:03.999Z</time></trkpt><trkpt lat="43.90004454369244" lon="7.64915254749957"><ele>150.0</ele><time>2026-04-12T10:25:04.999Z</time></trkpt><trkpt lat="43.8999343313509" lon="7.649092137945903"><ele>150.0</ele><time>2026-04-12T10:25:05.999Z</time></trkpt><trkpt lat="43.89981898874519" lon="7.649021667251234"><ele>150.0</ele><time>2026-04-12T10:25:06.999Z</time></trkpt><trkpt lat="43.89971167053218" lon="7.64892011032982"><ele>150.0</ele><time>2026-04-12T10:25:07.999Z</time></trkpt><trkpt lat="43.89959156856757" lon="7.64885263074249"><ele>150.0</ele><time>2026-04-12T10:25:08.999Z</time></trkpt><trkpt lat="43.8994780514457" lon="7.6487421765747925"><ele>150.0</ele><time>2026-04-12T10:25:09.999Z</time></trkpt><trkpt lat="43.89933507907787" lon="7.648674330973512"><ele>150.0</ele><time>2026-04-12T10:25:10.999Z</time></trkpt><trkpt lat="43.899202499197045" lon="7.6486223650835425"><ele>150.0</ele><time>2026-04-12T10:25:11.999Z</time></trkpt><trkpt lat="43.8990727561907" lon="7.648572568041922"><ele>147.75</ele><time>2026-04-12T10:25:12.999Z</time></trkpt><trkpt lat="43.89895828204676" lon="7.648480167939251"><ele>145.5</ele><time>2026-04-12T10:25:13.999Z</time></trkpt><trkpt lat="43.89886773240013" lon="7.648355918918288"><ele>143.25</ele><time>2026-04-12T10:25:14.999Z</time></trkpt><trkpt lat="43.89877559698328" lon="7.648240528475333"><ele>141.0</ele><time>2026-04-12T10:25:15.999Z</time></trkpt><trkpt lat="43.898660163208966" lon="7.64816136113227"><ele>141.0</ele><time>2026-04-12T10:25:16.999Z</time></trkpt><trkpt lat="43.89854127588402" lon="7.648068432266971"><ele>141.0</ele><time>2026-04-12T10:25:17.999Z</time></trkpt><trkpt lat="43.89839651902565" lon="7.648025420253783"><ele>141.0</ele><time>2026-04-12T10:25:18.999Z</time></trkpt><trkpt lat="43.898243731132666" lon="7.648048831330174"><ele>141.0</ele><time>2026-04-12T10:25:19.999Z</time></trkpt><trkpt lat="43.89808637237271" lon="7.648050174548078"><ele>141.0</ele><time>2026-04-12T10:25:20.999Z</time></trkpt><trkpt lat="43.89791553982836" lon="7.6480776116772855"><ele>141.0</ele><time>2026-04-12T10:25:21.999Z</time></trkpt><trkpt lat="43.89773899447672" lon="7.648107671255107"><ele>141.0</ele><time>2026-04-12T10:25:22.999Z</time></trkpt><trkpt lat="43.89757456866441" lon="7.6481568887488"><ele>141.0</ele><time>2026-04-12T10:25:23.999Z</time></trkpt><trkpt lat="43.89742012447371" lon="7.648184808498435"><ele>141.0</ele><time>2026-04-12T10:25:24.999Z</time></trkpt><trkpt lat="43.89727401239664" lon="7.648209949075753"><ele>141.0</ele><time>2026-04-12T10:25:25.999Z</time></trkpt><trkpt lat="43.89715093749955" lon="7.648207069684581"><ele>141.0</ele><time>2026-04-12T10:25:26.999Z</time></trkpt><trkpt lat="43.8970341219986" lon="7.648226333191997"><ele>141.0</ele><time>2026-04-12T10:25:27.999Z</time></trkpt><trkpt lat="43.89692170962731" lon="7.648244221293862"><ele>141.0</ele><time>2026-04-12T10:25:28.999Z</time></trkpt><trkpt lat="43.89681781018033" lon="7.648253669086439"><ele>141.0</ele><time>2026-04-12T10:25:29.999Z</time></trkpt><trkpt lat="43.896720160087476" lon="7.648241505190748"><ele>141.0</ele><time>2026-04-12T10:25:30.998Z</time></trkpt><trkpt lat="43.8966226964671" lon="7.648184875831538"><ele>141.0</ele><time>2026-04-12T10:25:31.998Z</time></trkpt><trkpt lat="43.896517794607426" lon="7.648100225473428"><ele>141.0</ele><time>2026-04-12T10:25:32.998Z</time></trkpt><trkpt lat="43.89640317322628" lon="7.6479939336735825"><ele>141.0</ele><time>2026-04-12T10:25:33.998Z</time></trkpt><trkpt lat="43.896270018766685" lon="7.647872129817114"><ele>141.0</ele><time>2026-04-12T10:25:34.998Z</time></trkpt><trkpt lat="43.89612435690032" lon="7.647738491115481"><ele>140.33333333333334</ele><time>2026-04-12T10:25:35.998Z</time></trkpt><trkpt lat="43.89597978021072" lon="7.64760541918769"><ele>139.66666666666669</ele><time>2026-04-12T10:25:36.998Z</time></trkpt><trkpt lat="43.89584984124801" lon="7.647485820327635"><ele>139.0</ele><time>2026-04-12T10:25:37.998Z</time></trkpt><trkpt lat="43.89572968357043" lon="7.64737441228092"><ele>139.0</ele><time>2026-04-12T10:25:38.998Z</time></trkpt><trkpt lat="43.89561087456993" lon="7.6472652060171535"><ele>139.0</ele><time>2026-04-12T10:25:39.998Z</time></trkpt><trkpt lat="43.89548516899974" lon="7.647178273969144"><ele>139.0</ele><time>2026-04-12T10:25:40.998Z</time></trkpt><trkpt lat="43.89537140522005" lon="7.647079895576028"><ele>139.0</ele><time>2026-04-12T10:25:41.998Z</time></trkpt><trkpt lat="43.89525550009738" lon="7.646994254939194"><ele>138.0</ele><time>2026-04-12T10:25:42.998Z</time></trkpt><trkpt lat="43.89513970705747" lon="7.646920313279917"><ele>137.0</ele><time>2026-04-12T10:25:43.998Z</time></trkpt><trkpt lat="43.89502091261359" lon="7.646859879590579"><ele>136.0</ele><time>2026-04-12T10:25:44.998Z</time></trkpt><trkpt lat="43.89490338648737" lon="7.646813294531913"><ele>135.0</ele><time>2026-04-12T10:25:45.998Z</time></trkpt><trkpt lat="43.894775420791184" lon="7.646781664951392"><ele>135.0</ele><time>2026-04-12T10:25:46.998Z</time></trkpt><trkpt lat="43.89464028291615" lon="7.646749882429903"><ele>135.0</ele><time>2026-04-12T10:25:47.998Z</time></trkpt><trkpt lat="43.89449405454382" lon="7.646746199035866"><ele>135.0</ele><time>2026-04-12T10:25:48.998Z</time></trkpt><trkpt lat="43.89434170303236" lon="7.646760912258095"><ele>135.0</ele><time>2026-04-12T10:25:49.998Z</time></trkpt><trkpt lat="43.894180350824556" lon="7.646786672628219"><ele>134.5</ele><time>2026-04-12T10:25:50.998Z</time></trkpt><trkpt lat="43.894022055369355" lon="7.646816302810693"><ele>134.0</ele><time>2026-04-12T10:25:51.998Z</time></trkpt><trkpt lat="43.89387567202963" lon="7.646854162982179"><ele>133.5</ele><time>2026-04-12T10:25:52.998Z</time></trkpt><trkpt lat="43.893735516742126" lon="7.646873402402274"><ele>133.0</ele><time>2026-04-12T10:25:53.998Z</time></trkpt><trkpt lat="43.893600516027604" lon="7.646874245949989"><ele>133.0</ele><time>2026-04-12T10:25:54.998Z</time></trkpt><trkpt lat="43.89346740817552" lon="7.646857907782196"><ele>133.0</ele><time>2026-04-12T10:25:55.998Z</time></trkpt><trkpt lat="43.89334146209082" lon="7.646838379230389"><ele>133.0</ele><time>2026-04-12T10:25:56.998Z</time></trkpt><trkpt lat="43.89322966229001" lon="7.646841099333424"><ele>133.0</ele><time>2026-04-12T10:25:57.998Z</time></trkpt><trkpt lat="43.89313488006055" lon="7.646818260739342"><ele>133.20000000000002</ele><time>2026-04-12T10:25:58.998Z</time></trkpt><trkpt lat="43.89305430970752" lon="7.646799989493688"><ele>133.4</ele><time>2026-04-12T10:25:59.998Z</time></trkpt><trkpt lat="43.89298843873016" lon="7.646747315401618"><ele>133.60000000000002</ele><time>2026-04-12T10:26:00.998Z</time></trkpt><trkpt lat="43.892916839707986" lon="7.6466889068193185"><ele>133.8</ele><time>2026-04-12T10:26:01.998Z</time></trkpt><trkpt lat="43.89282982644474" lon="7.646607859450688"><ele>134.0</ele><time>2026-04-12T10:26:02.998Z</time></trkpt><trkpt lat="43.892756197431154" lon="7.64649154628783"><ele>134.0</ele><time>2026-04-12T10:26:03.998Z</time></trkpt><trkpt lat="43.89267543200526" lon="7.6463681423755245"><ele>134.0</ele><time>2026-04-12T10:26:04.998Z</time></trkpt><trkpt lat="43.892589350915564" lon="7.646236887262574"><ele>134.0</ele><time>2026-04-12T10:26:05.998Z</time></trkpt><trkpt lat="43.892505472565" lon="7.646110997586091"><ele>134.0</ele><time>2026-04-12T10:26:06.998Z</time></trkpt><trkpt lat="43.892415987023014" lon="7.645986326474413"><ele>133.0</ele><time>2026-04-12T10:26:07.998Z</time></trkpt><trkpt lat="43.89231325067003" lon="7.645868016826345"><ele>132.0</ele><time>2026-04-12T10:26:08.998Z</time></trkpt><trkpt lat="43.89221260199599" lon="7.6457592401637395"><ele>131.0</ele><time>2026-04-12T10:26:09.998Z</time></trkpt><trkpt lat="43.89209990203435" lon="7.645645297442365"><ele>130.0</ele><time>2026-04-12T10:26:10.998Z</time></trkpt><trkpt lat="43.89198076788301" lon="7.645536067579821"><ele>130.0</ele><time>2026-04-12T10:26:11.998Z</time></trkpt><trkpt lat="43.89184860389332" lon="7.645437887121409"><ele>130.0</ele><time>2026-04-12T10:26:12.997Z</time></trkpt><trkpt lat="43.8917081242631" lon="7.645347755083922"><ele>130.0</ele><time>2026-04-12T10:26:13.997Z</time></trkpt><trkpt lat="43.89156723882891" lon="7.645267973170707"><ele>128.75</ele><time>2026-04-12T10:26:15Z</time></trkpt><trkpt lat="43.89142848268671" lon="7.645198893026589"><ele>127.5</ele><time>2026-04-12T10:26:16Z</time></trkpt><trkpt lat="43.89129287232796" lon="7.645136780652991"><ele>126.25</ele><time>2026-04-12T10:26:17Z</time></trkpt><trkpt lat="43.89116546445681" lon="7.645089575162473"><ele>125.0</ele><time>2026-04-12T10:26:18Z</time></trkpt><trkpt lat="43.891044242110894" lon="7.645053638161554"><ele>124.99999999999999</ele><time>2026-04-12T10:26:19Z</time></trkpt><trkpt lat="43.890937536922465" lon="7.645023237461868"><ele>125.0</ele><time>2026-04-12T10:26:20Z</time></trkpt><trkpt lat="43.89084069753273" lon="7.644995647564486"><ele>125.0</ele><time>2026-04-12T10:26:21Z</time></trkpt><trkpt lat="43.89075609953924" lon="7.644971545285948"><ele>125.0</ele><time>2026-04-12T10:26:22Z</time></trkpt><trkpt lat="43.890682900867056" lon="7.644950690714378"><ele>124.99999999999999</ele><time>2026-04-12T10:26:23Z</time></trkpt><trkpt lat="43.8906136701405" lon="7.644930966626299"><ele>125.0</ele><time>2026-04-12T10:26:24Z</time></trkpt><trkpt lat="43.89048831338621" lon="7.644895252026094"><ele>124.83333333333333</ele><time>2026-04-12T10:26:26Z</time></trkpt><trkpt lat="43.89041589705876" lon="7.6448746203482"><ele>124.66666666666666</ele><time>2026-04-12T10:26:27Z</time></trkpt><trkpt lat="43.89034098500054" lon="7.644854611524436"><ele>124.5</ele><time>2026-04-12T10:26:28Z</time></trkpt><trkpt lat="43.89026836808578" lon="7.644836144290223"><ele>124.33333333333334</ele><time>2026-04-12T10:26:29Z</time></trkpt><trkpt lat="43.89020020688723" lon="7.644815793715034"><ele>124.16666666666667</ele><time>2026-04-12T10:26:30Z</time></trkpt><trkpt lat="43.89013807570051" lon="7.644790014278335"><ele>124.0</ele><time>2026-04-12T10:26:31Z</time></trkpt><trkpt lat="43.89004036575856" lon="7.644705670281186"><ele>123.83333333333334</ele><time>2026-04-12T10:26:33Z</time></trkpt><trkpt lat="43.89000500244877" lon="7.644556501988577"><ele>123.66666666666667</ele><time>2026-04-12T10:26:35Z</time></trkpt><trkpt lat="43.89003000703193" lon="7.644463413043414"><ele>123.5</ele><time>2026-04-12T10:26:36Z</time></trkpt><trkpt lat="43.89006585997705" lon="7.644363493609681"><ele>123.33333333333334</ele><time>2026-04-12T10:26:37Z</time></trkpt><trkpt lat="43.890098709003745" lon="7.644250641926263"><ele>123.16666666666667</ele><time>2026-04-12T10:26:38Z</time></trkpt><trkpt lat="43.890123071206176" lon="7.644147263111909"><ele>123.0</ele><time>2026-04-12T10:26:39Z</time></trkpt><trkpt lat="43.89011639892245" lon="7.64405160983906"><ele>123.0</ele><time>2026-04-12T10:26:40Z</time></trkpt><trkpt lat="43.890099562240856" lon="7.64394937726788"><ele>123.00000000000001</ele><time>2026-04-12T10:26:41Z</time></trkpt><trkpt lat="43.89002667430018" lon="7.6438572811197645"><ele>123.00000000000001</ele><time>2026-04-12T10:26:42Z</time></trkpt><trkpt lat="43.88992489723238" lon="7.643833004282091"><ele>123.0</ele><time>2026-04-12T10:26:43Z</time></trkpt><trkpt lat="43.889820564454475" lon="7.643807639282277"><ele>123.0</ele><time>2026-04-12T10:26:44Z</time></trkpt><trkpt lat="43.88971013785735" lon="7.64379344347488"><ele>123.0</ele><time>2026-04-12T10:26:45Z</time></trkpt><trkpt lat="43.88959140874287" lon="7.643764891618852"><ele>123.0</ele><time>2026-04-12T10:26:46Z</time></trkpt><trkpt lat="43.889472060177894" lon="7.6437297965134565"><ele>123.0</ele><time>2026-04-12T10:26:47Z</time></trkpt><trkpt lat="43.8893450457963" lon="7.643655572722335"><ele>123.0</ele><time>2026-04-12T10:26:48Z</time></trkpt><trkpt lat="43.88922049481038" lon="7.643584705231365"><ele>123.25</ele><time>2026-04-12T10:26:49Z</time></trkpt><trkpt lat="43.889095941079646" lon="7.643514749586404"><ele>123.5</ele><time>2026-04-12T10:26:50Z</time></trkpt><trkpt lat="43.88898374456367" lon="7.6434174419073155"><ele>123.75</ele><time>2026-04-12T10:26:51Z</time></trkpt><trkpt lat="43.88887946305063" lon="7.643323279804143"><ele>124.0</ele><time>2026-04-12T10:26:51.999Z</time></trkpt><trkpt lat="43.88878103025194" lon="7.643235407666729"><ele>124.0</ele><time>2026-04-12T10:26:52.999Z</time></trkpt><trkpt lat="43.88870115389896" lon="7.643127296615553"><ele>124.0</ele><time>2026-04-12T10:26:53.999Z</time></trkpt><trkpt lat="43.88862912929596" lon="7.643025903639564"><ele>124.0</ele><time>2026-04-12T10:26:54.999Z</time></trkpt><trkpt lat="43.88857519467529" lon="7.642910606832036"><ele>124.0</ele><time>2026-04-12T10:26:55.999Z</time></trkpt><trkpt lat="43.8885171888496" lon="7.642778067149169"><ele>124.0</ele><time>2026-04-12T10:26:56.999Z</time></trkpt><trkpt lat="43.88847711898742" lon="7.642607524785623"><ele>123.25</ele><time>2026-04-12T10:26:57.999Z</time></trkpt><trkpt lat="43.88842752715133" lon="7.6424469307754075"><ele>122.5</ele><time>2026-04-12T10:26:58.999Z</time></trkpt><trkpt lat="43.88836486276908" lon="7.6423144435312365"><ele>121.75</ele><time>2026-04-12T10:26:59.999Z</time></trkpt><trkpt lat="43.88829662519941" lon="7.642182892143192"><ele>121.0</ele><time>2026-04-12T10:27:00.999Z</time></trkpt><trkpt lat="43.88817313787173" lon="7.642104394728841"><ele>121.0</ele><time>2026-04-12T10:27:01.999Z</time></trkpt><trkpt lat="43.888046218453105" lon="7.642005259408255"><ele>121.0</ele><time>2026-04-12T10:27:02.999Z</time></trkpt><trkpt lat="43.88790135887081" lon="7.64192731230076"><ele>121.0</ele><time>2026-04-12T10:27:03.999Z</time></trkpt><trkpt lat="43.887765947669244" lon="7.641874846040697"><ele>121.0</ele><time>2026-04-12T10:27:04.999Z</time></trkpt><trkpt lat="43.88764347321501" lon="7.641805781697104"><ele>120.5</ele><time>2026-04-12T10:27:05.999Z</time></trkpt><trkpt lat="43.8875265229612" lon="7.641746420178657"><ele>120.0</ele><time>2026-04-12T10:27:06.999Z</time></trkpt><trkpt lat="43.887415796943365" lon="7.6416830365364605"><ele>119.5</ele><time>2026-04-12T10:27:07.999Z</time></trkpt><trkpt lat="43.8873065896312" lon="7.641611535467623"><ele>119.0</ele><time>2026-04-12T10:27:08.999Z</time></trkpt><trkpt lat="43.88719579655266" lon="7.641526427506196"><ele>119.0</ele><time>2026-04-12T10:27:09.999Z</time></trkpt><trkpt lat="43.887081570120316" lon="7.6414276572423985"><ele>119.0</ele><time>2026-04-12T10:27:10.999Z</time></trkpt><trkpt lat="43.88697987907851" lon="7.641300605893243"><ele>119.0</ele><time>2026-04-12T10:27:11.999Z</time></trkpt><trkpt lat="43.88686066353314" lon="7.6411800144071"><ele>119.0</ele><time>2026-04-12T10:27:12.999Z</time></trkpt><trkpt lat="43.886738649102355" lon="7.6410579145570505"><ele>119.0</ele><time>2026-04-12T10:27:13.999Z</time></trkpt><trkpt lat="43.8866163073898" lon="7.640935549453784"><ele>119.0</ele><time>2026-04-12T10:27:14.999Z</time></trkpt><trkpt lat="43.88649552401199" lon="7.640814742981833"><ele>119.0</ele><time>2026-04-12T10:27:15.999Z</time></trkpt><trkpt lat="43.88637810470051" lon="7.640697301219498"><ele>119.0</ele><time>2026-04-12T10:27:16.999Z</time></trkpt><trkpt lat="43.886262484884476" lon="7.640584904710033"><ele>119.0</ele><time>2026-04-12T10:27:17.999Z</time></trkpt><trkpt lat="43.88614714363369" lon="7.640480784556859"><ele>119.0</ele><time>2026-04-12T10:27:18.999Z</time></trkpt><trkpt lat="43.886021680700296" lon="7.640418517686735"><ele>119.0</ele><time>2026-04-12T10:27:19.999Z</time></trkpt><trkpt lat="43.88590211153356" lon="7.6403520940229255"><ele>119.0</ele><time>2026-04-12T10:27:20.999Z</time></trkpt><trkpt lat="43.885795483735386" lon="7.640266262624698"><ele>120.5</ele><time>2026-04-12T10:27:21.999Z</time></trkpt><trkpt lat="43.88568746686653" lon="7.640193241568251"><ele>122.0</ele><time>2026-04-12T10:27:22.999Z</time></trkpt><trkpt lat="43.885578421471486" lon="7.640130179209756"><ele>123.5</ele><time>2026-04-12T10:27:23.999Z</time></trkpt><trkpt lat="43.88546797522903" lon="7.640082808287366"><ele>125.0</ele><time>2026-04-12T10:27:24.999Z</time></trkpt><trkpt lat="43.88535433991295" lon="7.640053489522846"><ele>125.0</ele><time>2026-04-12T10:27:25.999Z</time></trkpt><trkpt lat="43.885239049884284" lon="7.640051479187374"><ele>125.0</ele><time>2026-04-12T10:27:26.999Z</time></trkpt><trkpt lat="43.88512830155622" lon="7.640089294436776"><ele>125.0</ele><time>2026-04-12T10:27:27.999Z</time></trkpt><trkpt lat="43.885015671105165" lon="7.640107225990026"><ele>125.0</ele><time>2026-04-12T10:27:28.999Z</time></trkpt><trkpt lat="43.88490285634966" lon="7.640122960968217"><ele>123.4</ele><time>2026-04-12T10:27:29.999Z</time></trkpt><trkpt lat="43.884793519938896" lon="7.6401557174874215"><ele>121.8</ele><time>2026-04-12T10:27:30.999Z</time></trkpt><trkpt lat="43.88469580417169" lon="7.640209591669099"><ele>120.19999999999999</ele><time>2026-04-12T10:27:31.999Z</time></trkpt><trkpt lat="43.884604173994944" lon="7.640274613796281"><ele>118.6</ele><time>2026-04-12T10:27:32.999Z</time></trkpt><trkpt lat="43.88451999026171" lon="7.640357448482398"><ele>117.0</ele><time>2026-04-12T10:27:33.998Z</time></trkpt><trkpt lat="43.884434411067645" lon="7.640441373314071"><ele>115.75</ele><time>2026-04-12T10:27:34.998Z</time></trkpt><trkpt lat="43.88433780895749" lon="7.64050839633539"><ele>114.5</ele><time>2026-04-12T10:27:35.998Z</time></trkpt><trkpt lat="43.88422795212734" lon="7.640556455530678"><ele>113.25</ele><time>2026-04-12T10:27:36.998Z</time></trkpt><trkpt lat="43.88411048718385" lon="7.640598457434209"><ele>112.0</ele><time>2026-04-12T10:27:37.998Z</time></trkpt><trkpt lat="43.8840011045221" lon="7.640641835568242"><ele>111.39999999999999</ele><time>2026-04-12T10:27:38.998Z</time></trkpt><trkpt lat="43.88389837737985" lon="7.640678309495518"><ele>110.79999999999998</ele><time>2026-04-12T10:27:39.998Z</time></trkpt><trkpt lat="43.88379126159525" lon="7.640699117327816"><ele>110.2</ele><time>2026-04-12T10:27:40.998Z</time></trkpt><trkpt lat="43.88367955116012" lon="7.640697870195855"><ele>109.6</ele><time>2026-04-12T10:27:41.998Z</time></trkpt><trkpt lat="43.88356803133848" lon="7.640671671488562"><ele>109.0</ele><time>2026-04-12T10:27:42.998Z</time></trkpt><trkpt lat="43.883452692031554" lon="7.640622387533449"><ele>109.75</ele><time>2026-04-12T10:27:43.998Z</time></trkpt><trkpt lat="43.88333054716238" lon="7.6405508666126325"><ele>110.5</ele><time>2026-04-12T10:27:44.998Z</time></trkpt><trkpt lat="43.883219243907774" lon="7.640479959358197"><ele>111.25</ele><time>2026-04-12T10:27:45.998Z</time></trkpt><trkpt lat="43.88311303765297" lon="7.640415928123732"><ele>112.0</ele><time>2026-04-12T10:27:46.998Z</time></trkpt><trkpt lat="43.883013617036795" lon="7.640336865235646"><ele>112.0</ele><time>2026-04-12T10:27:47.998Z</time></trkpt><trkpt lat="43.88289562535032" lon="7.640318473067716"><ele>112.0</ele><time>2026-04-12T10:27:48.998Z</time></trkpt><trkpt lat="43.88278220402951" lon="7.64028773372322"><ele>112.0</ele><time>2026-04-12T10:27:49.998Z</time></trkpt><trkpt lat="43.8826700978746" lon="7.640269346756805"><ele>112.0</ele><time>2026-04-12T10:27:50.998Z</time></trkpt><trkpt lat="43.88256247215488" lon="7.640250385674641"><ele>111.8</ele><time>2026-04-12T10:27:51.998Z</time></trkpt><trkpt lat="43.8824539020979" lon="7.640225368894828"><ele>111.6</ele><time>2026-04-12T10:27:52.998Z</time></trkpt><trkpt lat="43.88234951103153" lon="7.640203930641454"><ele>111.39999999999999</ele><time>2026-04-12T10:27:53.998Z</time></trkpt><trkpt lat="43.88224999584867" lon="7.640182672238389"><ele>111.19999999999999</ele><time>2026-04-12T10:27:54.998Z</time></trkpt><trkpt lat="43.88215074040832" lon="7.640156261514684"><ele>111.0</ele><time>2026-04-12T10:27:55.998Z</time></trkpt><trkpt lat="43.882054285390055" lon="7.6401277554274225"><ele>111.0</ele><time>2026-04-12T10:27:56.998Z</time></trkpt><trkpt lat="43.8819688203603" lon="7.64010177634988"><ele>111.0</ele><time>2026-04-12T10:27:57.998Z</time></trkpt><trkpt lat="43.88189412778333" lon="7.640046004984302"><ele>111.0</ele><time>2026-04-12T10:27:58.998Z</time></trkpt><trkpt lat="43.88182240830077" lon="7.639999980781664"><ele>111.0</ele><time>2026-04-12T10:27:59.998Z</time></trkpt><trkpt lat="43.88175766294167" lon="7.639953382305734"><ele>111.0</ele><time>2026-04-12T10:28:00.998Z</time></trkpt><trkpt lat="43.881694524331756" lon="7.639908249626092"><ele>111.0</ele><time>2026-04-12T10:28:01.998Z</time></trkpt><trkpt lat="43.88162704456719" lon="7.639859682297074"><ele>109.83333333333333</ele><time>2026-04-12T10:28:02.998Z</time></trkpt><trkpt lat="43.881547603966844" lon="7.639820690225057"><ele>108.66666666666666</ele><time>2026-04-12T10:28:03.998Z</time></trkpt><trkpt lat="43.88147584340482" lon="7.639766861047706"><ele>107.5</ele><time>2026-04-12T10:28:04.998Z</time></trkpt><trkpt lat="43.88140758806193" lon="7.639716176252533"><ele>106.33333333333333</ele><time>2026-04-12T10:28:05.998Z</time></trkpt><trkpt lat="43.88134079956239" lon="7.639666410597122"><ele>105.16666666666666</ele><time>2026-04-12T10:28:06.998Z</time></trkpt><trkpt lat="43.88128211087478" lon="7.63962463329793"><ele>104.0</ele><time>2026-04-12T10:28:07.998Z</time></trkpt><trkpt lat="43.881208254924616" lon="7.6395432976091495"><ele>104.0</ele><time>2026-04-12T10:28:09.998Z</time></trkpt><trkpt lat="43.88112251236704" lon="7.6396534007691015"><ele>104.0</ele><time>2026-04-12T10:28:11.998Z</time></trkpt><trkpt lat="43.8810889174276" lon="7.639730366926165"><ele>104.0</ele><time>2026-04-12T10:28:12.998Z</time></trkpt><trkpt lat="43.88104336208881" lon="7.6398442670511875"><ele>104.0</ele><time>2026-04-12T10:28:14.998Z</time></trkpt><trkpt lat="43.88100235242419" lon="7.639951359058415"><ele>104.0</ele><time>2026-04-12T10:30:58.999Z</time></trkpt><trkpt lat="43.88094378079111" lon="7.640131872221544"><ele>104.0</ele><time>2026-04-12T10:31:00.999Z</time></trkpt><trkpt lat="43.88089724606501" lon="7.640229321994033"><ele>104.0</ele><time>2026-04-12T10:31:01.999Z</time></trkpt><trkpt lat="43.880838250914636" lon="7.640310168927942"><ele>104.0</ele><time>2026-04-12T10:31:02.999Z</time></trkpt><trkpt lat="43.88075676583474" lon="7.640376389928655"><ele>104.0</ele><time>2026-04-12T10:31:03.999Z</time></trkpt><trkpt lat="43.880657404704095" lon="7.6404189906158"><ele>104.0</ele><time>2026-04-12T10:31:04.999Z</time></trkpt><trkpt lat="43.88054530902282" lon="7.640448434357358"><ele>107.49999999999999</ele><time>2026-04-12T10:31:05.999Z</time></trkpt><trkpt lat="43.880424909681345" lon="7.640463747682758"><ele>111.0</ele><time>2026-04-12T10:31:06.999Z</time></trkpt><trkpt lat="43.880323944279276" lon="7.640468575595231"><ele>114.5</ele><time>2026-04-12T10:31:07.999Z</time></trkpt><trkpt lat="43.8802383279279" lon="7.640482351219738"><ele>118.0</ele><time>2026-04-12T10:31:08.999Z</time></trkpt><trkpt lat="43.880167031453894" lon="7.640499593954796"><ele>121.49999999999999</ele><time>2026-04-12T10:31:09.999Z</time></trkpt><trkpt lat="43.880100672576084" lon="7.640510400976844"><ele>125.0</ele><time>2026-04-12T10:31:10.999Z</time></trkpt><trkpt lat="43.880007653059145" lon="7.640526047564999"><ele>124.99999999999999</ele><time>2026-04-12T10:31:12.999Z</time></trkpt><trkpt lat="43.879939585583394" lon="7.6405328466315225"><ele>125.0</ele><time>2026-04-12T10:31:15.999Z</time></trkpt><trkpt lat="43.87984745205577" lon="7.640569335820842"><ele>125.0</ele><time>2026-04-12T10:32:21.997Z</time></trkpt><trkpt lat="43.879769950316046" lon="7.640701570959126"><ele>125.0</ele><time>2026-04-12T10:32:23.997Z</time></trkpt><trkpt lat="43.87974427251165" lon="7.640784503938932"><ele>124.99999999999999</ele><time>2026-04-12T10:32:24.997Z</time></trkpt><trkpt lat="43.879726380474416" lon="7.640876901555396"><ele>125.0</ele><time>2026-04-12T10:32:25.997Z</time></trkpt><trkpt lat="43.87968331237853" lon="7.640967281697946"><ele>124.99999999999999</ele><time>2026-04-12T10:32:26.997Z</time></trkpt><trkpt lat="43.87965518332595" lon="7.641061890828374"><ele>125.0</ele><time>2026-04-12T10:32:27.997Z</time></trkpt><trkpt lat="43.87962986283624" lon="7.641151050291394"><ele>125.0</ele><time>2026-04-12T10:32:28.997Z</time></trkpt><trkpt lat="43.87960929604829" lon="7.641244905374034"><ele>125.0</ele><time>2026-04-12T10:32:29.997Z</time></trkpt><trkpt lat="43.879613664824035" lon="7.641353383341561"><ele>124.99999999999999</ele><time>2026-04-12T10:32:30.997Z</time></trkpt><trkpt lat="43.879632556571536" lon="7.641481166336446"><ele>125.0</ele><time>2026-04-12T10:32:31.997Z</time></trkpt><trkpt lat="43.879650458253714" lon="7.641605906985921"><ele>128.6</ele><time>2026-04-12T10:32:33Z</time></trkpt><trkpt lat="43.87965934840233" lon="7.641735890970852"><ele>132.2</ele><time>2026-04-12T10:32:34Z</time></trkpt><trkpt lat="43.87965763981125" lon="7.641874979193486"><ele>135.8</ele><time>2026-04-12T10:32:35Z</time></trkpt><trkpt lat="43.879650520656135" lon="7.642033450328061"><ele>139.4</ele><time>2026-04-12T10:32:36Z</time></trkpt><trkpt lat="43.87964233408791" lon="7.6421942606914355"><ele>143.0</ele><time>2026-04-12T10:32:37Z</time></trkpt><trkpt lat="43.87965094810591" lon="7.642351407026254"><ele>144.75</ele><time>2026-04-12T10:32:38Z</time></trkpt><trkpt lat="43.87964216258717" lon="7.642519424848422"><ele>146.5</ele><time>2026-04-12T10:32:39Z</time></trkpt><trkpt lat="43.87961881795972" lon="7.64268707810328"><ele>148.25</ele><time>2026-04-12T10:32:40Z</time></trkpt><trkpt lat="43.87962465363575" lon="7.6428403048831886"><ele>150.0</ele><time>2026-04-12T10:32:41Z</time></trkpt><trkpt lat="43.87961928770289" lon="7.6429767900346715"><ele>151.0</ele><time>2026-04-12T10:32:42Z</time></trkpt><trkpt lat="43.87959514486136" lon="7.643100051485861"><ele>152.0</ele><time>2026-04-12T10:32:43Z</time></trkpt><trkpt lat="43.879553030576574" lon="7.643219413274068"><ele>153.0</ele><time>2026-04-12T10:32:44Z</time></trkpt><trkpt lat="43.87950329361621" lon="7.643343905351549"><ele>154.0</ele><time>2026-04-12T10:32:45Z</time></trkpt><trkpt lat="43.8794510087844" lon="7.643482533337441"><ele>155.0</ele><time>2026-04-12T10:32:46Z</time></trkpt><trkpt lat="43.87940222652038" lon="7.643620030029171"><ele>156.66666666666666</ele><time>2026-04-12T10:32:47Z</time></trkpt><trkpt lat="43.87936120197473" lon="7.643734985274649"><ele>158.33333333333331</ele><time>2026-04-12T10:32:48Z</time></trkpt><trkpt lat="43.879334255236735" lon="7.643838866981974"><ele>160.0</ele><time>2026-04-12T10:32:49Z</time></trkpt><trkpt lat="43.879335908586874" lon="7.643944831127091"><ele>161.66666666666666</ele><time>2026-04-12T10:32:50Z</time></trkpt><trkpt lat="43.87935631484834" lon="7.644071570951707"><ele>163.33333333333334</ele><time>2026-04-12T10:32:51Z</time></trkpt><trkpt lat="43.87938237802542" lon="7.644206216331478"><ele>165.0</ele><time>2026-04-12T10:32:52Z</time></trkpt><trkpt lat="43.87940102164232" lon="7.644329436346249"><ele>165.0</ele><time>2026-04-12T10:32:53Z</time></trkpt><trkpt lat="43.87941946138385" lon="7.6444505183343034"><ele>165.0</ele><time>2026-04-12T10:32:54Z</time></trkpt><trkpt lat="43.87943547437914" lon="7.6445623992550065"><ele>165.0</ele><time>2026-04-12T10:32:55Z</time></trkpt><trkpt lat="43.87943207438496" lon="7.644666186070716"><ele>165.0</ele><time>2026-04-12T10:32:56Z</time></trkpt><trkpt lat="43.879386475695995" lon="7.644747135129473"><ele>165.0</ele><time>2026-04-12T10:32:57Z</time></trkpt><trkpt lat="43.879357130982974" lon="7.644840490500592"><ele>165.0</ele><time>2026-04-12T10:32:58Z</time></trkpt><trkpt lat="43.879317998831624" lon="7.644937475766461"><ele>165.5</ele><time>2026-04-12T10:32:58.999Z</time></trkpt><trkpt lat="43.87931167133641" lon="7.645037563994383"><ele>166.0</ele><time>2026-04-12T10:32:59.999Z</time></trkpt><trkpt lat="43.87936033250846" lon="7.6452003957032675"><ele>166.5</ele><time>2026-04-12T10:33:01.999Z</time></trkpt><trkpt lat="43.87940031139402" lon="7.645300820088859"><ele>167.0</ele><time>2026-04-12T10:33:02.999Z</time></trkpt><trkpt lat="43.879437744746376" lon="7.645400679035236"><ele>167.5</ele><time>2026-04-12T10:33:03.999Z</time></trkpt><trkpt lat="43.87948106996014" lon="7.645499831364556"><ele>168.0</ele><time>2026-04-12T10:33:04.999Z</time></trkpt><trkpt lat="43.879518416077275" lon="7.645576201064283"><ele>165.8</ele><time>2026-04-12T10:33:05.999Z</time></trkpt><trkpt lat="43.879571202235425" lon="7.645670228289094"><ele>163.60000000000002</ele><time>2026-04-12T10:33:07.999Z</time></trkpt><trkpt lat="43.87963759231785" lon="7.645751395758091"><ele>161.39999999999998</ele><time>2026-04-12T10:34:24.998Z</time></trkpt><trkpt lat="43.87975621769139" lon="7.645834841634798"><ele>159.2</ele><time>2026-04-12T10:34:26.997Z</time></trkpt><trkpt lat="43.87982793960216" lon="7.645887111610251"><ele>157.0</ele><time>2026-04-12T10:34:27.997Z</time></trkpt><trkpt lat="43.879894495277746" lon="7.645949050881104"><ele>157.0</ele><time>2026-04-12T10:34:28.997Z</time></trkpt><trkpt lat="43.87995404042827" lon="7.6460522333141485"><ele>157.0</ele><time>2026-04-12T10:34:29.997Z</time></trkpt><trkpt lat="43.88001008295097" lon="7.646145539557325"><ele>157.0</ele><time>2026-04-12T10:34:30.997Z</time></trkpt><trkpt lat="43.880080045908805" lon="7.646218770585614"><ele>157.0</ele><time>2026-04-12T10:34:31.997Z</time></trkpt><trkpt lat="43.880143909497555" lon="7.646294466339332"><ele>157.0</ele><time>2026-04-12T10:34:32.997Z</time></trkpt><trkpt lat="43.880196354944864" lon="7.646360299401377"><ele>157.0</ele><time>2026-04-12T10:34:33.997Z</time></trkpt><trkpt lat="43.88022423475235" lon="7.646453540037328"><ele>161.83333333333334</ele><time>2026-04-12T10:34:34.997Z</time></trkpt><trkpt lat="43.88021797939076" lon="7.64656255305388"><ele>166.66666666666669</ele><time>2026-04-12T10:34:35.997Z</time></trkpt><trkpt lat="43.880238442379074" lon="7.646664076248643"><ele>171.5</ele><time>2026-04-12T10:34:36.997Z</time></trkpt><trkpt lat="43.880250909082314" lon="7.646755156516782"><ele>176.33333333333334</ele><time>2026-04-12T10:34:37.997Z</time></trkpt><trkpt lat="43.88031740837513" lon="7.646897226256749"><ele>181.16666666666666</ele><time>2026-04-12T10:34:39.999Z</time></trkpt><trkpt lat="43.88038044298216" lon="7.6469396984191205"><ele>186.0</ele><time>2026-04-12T10:34:40.999Z</time></trkpt><trkpt lat="43.88045678184882" lon="7.6469592009914855"><ele>182.16666666666666</ele><time>2026-04-12T10:34:41.999Z</time></trkpt><trkpt lat="43.88053969668356" lon="7.646984006872508"><ele>178.33333333333334</ele><time>2026-04-12T10:34:42.999Z</time></trkpt><trkpt lat="43.88060983194761" lon="7.647027215572349"><ele>174.5</ele><time>2026-04-12T10:34:43.999Z</time></trkpt><trkpt lat="43.88066389602475" lon="7.647099859071171"><ele>170.66666666666669</ele><time>2026-04-12T10:34:44.999Z</time></trkpt><trkpt lat="43.88066864142137" lon="7.647211352518695"><ele>166.83333333333334</ele><time>2026-04-12T10:34:45.999Z</time></trkpt><trkpt lat="43.8807096890464" lon="7.647318504488993"><ele>163.0</ele><time>2026-04-12T10:34:46.999Z</time></trkpt><trkpt lat="43.880778633936686" lon="7.647418214156558"><ele>163.0</ele><time>2026-04-12T10:34:47.999Z</time></trkpt><trkpt lat="43.880806958521475" lon="7.647547276277441"><ele>163.0</ele><time>2026-04-12T10:34:49Z</time></trkpt><trkpt lat="43.88083111186989" lon="7.647671870636148"><ele>163.0</ele><time>2026-04-12T10:34:50Z</time></trkpt><trkpt lat="43.88087052841554" lon="7.647801764217168"><ele>163.0</ele><time>2026-04-12T10:34:51Z</time></trkpt><trkpt lat="43.88092760502153" lon="7.647915990938426"><ele>163.0</ele><time>2026-04-12T10:34:52Z</time></trkpt><trkpt lat="43.88098519996209" lon="7.648002311575251"><ele>173.2</ele><time>2026-04-12T10:34:53Z</time></trkpt><trkpt lat="43.88101919447768" lon="7.648153682410357"><ele>183.4</ele><time>2026-04-12T10:34:54.999Z</time></trkpt><trkpt lat="43.88101282166304" lon="7.648255042351563"><ele>193.59999999999997</ele><time>2026-04-12T10:34:55.999Z</time></trkpt><trkpt lat="43.88098251922551" lon="7.6483773334570415"><ele>203.79999999999998</ele><time>2026-04-12T10:34:56.999Z</time></trkpt><trkpt lat="43.88096006545285" lon="7.648536345124768"><ele>214.0</ele><time>2026-04-12T10:34:57.999Z</time></trkpt><trkpt lat="43.88096715256999" lon="7.648696205772686"><ele>214.0</ele><time>2026-04-12T10:34:58.999Z</time></trkpt><trkpt lat="43.88096981253338" lon="7.6488655587553485"><ele>214.0</ele><time>2026-04-12T10:34:59.999Z</time></trkpt><trkpt lat="43.88096328660236" lon="7.649029055332384"><ele>214.0</ele><time>2026-04-12T10:35:00.999Z</time></trkpt><trkpt lat="43.88094476312309" lon="7.6491869992929695"><ele>214.0</ele><time>2026-04-12T10:35:01.999Z</time></trkpt><trkpt lat="43.88092269725113" lon="7.649349820138405"><ele>212.33333333333331</ele><time>2026-04-12T10:35:02.999Z</time></trkpt><trkpt lat="43.88090316083583" lon="7.649494406505292"><ele>210.66666666666666</ele><time>2026-04-12T10:35:03.999Z</time></trkpt><trkpt lat="43.88090230331557" lon="7.649615681985276"><ele>209.0</ele><time>2026-04-12T10:35:04.999Z</time></trkpt><trkpt lat="43.8808915292767" lon="7.649705129811493"><ele>207.33333333333331</ele><time>2026-04-12T10:35:05.999Z</time></trkpt><trkpt lat="43.88089100482752" lon="7.649834863139028"><ele>205.66666666666666</ele><time>2026-04-12T10:35:07.999Z</time></trkpt><trkpt lat="43.88093632990398" lon="7.649903449378613"><ele>204.0</ele><time>2026-04-12T10:36:19.998Z</time></trkpt><trkpt lat="43.88103682429621" lon="7.6499710160996095"><ele>204.0</ele><time>2026-04-12T10:36:21.998Z</time></trkpt><trkpt lat="43.88110568897896" lon="7.649989204156649"><ele>204.0</ele><time>2026-04-12T10:36:22.998Z</time></trkpt><trkpt lat="43.88116879316711" lon="7.650013262594223"><ele>204.0</ele><time>2026-04-12T10:36:23.998Z</time></trkpt><trkpt lat="43.881253577145245" lon="7.650102640826903"><ele>204.0</ele><time>2026-04-12T10:36:25.998Z</time></trkpt><trkpt lat="43.881241150265794" lon="7.650214301790328"><ele>204.0</ele><time>2026-04-12T10:36:27.998Z</time></trkpt><trkpt lat="43.88117916761313" lon="7.650313681315533"><ele>204.0</ele><time>2026-04-12T10:36:29.997Z</time></trkpt><trkpt lat="43.881127168583745" lon="7.65038585234378"><ele>204.83333333333334</ele><time>2026-04-12T10:36:30.997Z</time></trkpt><trkpt lat="43.881073377627835" lon="7.650467540004432"><ele>205.66666666666669</ele><time>2026-04-12T10:36:31.997Z</time></trkpt><trkpt lat="43.88102873306964" lon="7.650572195304694"><ele>206.5</ele><time>2026-04-12T10:36:32.997Z</time></trkpt><trkpt lat="43.880981235492" lon="7.650667782453979"><ele>207.33333333333334</ele><time>2026-04-12T10:36:33.997Z</time></trkpt><trkpt lat="43.8809616701698" lon="7.65075881735586"><ele>208.16666666666669</ele><time>2026-04-12T10:36:34.997Z</time></trkpt><trkpt lat="43.88096724889369" lon="7.6508624649843116"><ele>209.0</ele><time>2026-04-12T10:36:35.997Z</time></trkpt><trkpt lat="43.880989985247226" lon="7.650964967239551"><ele>209.00000000000003</ele><time>2026-04-12T10:36:36.997Z</time></trkpt><trkpt lat="43.88102072600811" lon="7.651073063276569"><ele>209.0</ele><time>2026-04-12T10:36:37.997Z</time></trkpt><trkpt lat="43.88100486697525" lon="7.651168504756789"><ele>209.0</ele><time>2026-04-12T10:36:38.997Z</time></trkpt><trkpt lat="43.88095698363423" lon="7.651332684454125"><ele>209.0</ele><time>2026-04-12T10:36:40.997Z</time></trkpt><trkpt lat="43.88094545862128" lon="7.651431258506329"><ele>209.00000000000003</ele><time>2026-04-12T10:36:41.997Z</time></trkpt><trkpt lat="43.88093548050424" lon="7.65152218549725"><ele>209.0</ele><time>2026-04-12T10:36:42.997Z</time></trkpt><trkpt lat="43.880952203905586" lon="7.651620780048778"><ele>208.33333333333334</ele><time>2026-04-12T10:36:43.997Z</time></trkpt><trkpt lat="43.880991955640404" lon="7.651722165961773"><ele>207.66666666666669</ele><time>2026-04-12T10:36:44.999Z</time></trkpt><trkpt lat="43.88103846577974" lon="7.651833746785856"><ele>207.0</ele><time>2026-04-12T10:36:45.999Z</time></trkpt><trkpt lat="43.88107896255577" lon="7.651939793778562"><ele>206.33333333333331</ele><time>2026-04-12T10:36:46.999Z</time></trkpt><trkpt lat="43.88112903301525" lon="7.652042970167379"><ele>205.66666666666666</ele><time>2026-04-12T10:36:47.999Z</time></trkpt><trkpt lat="43.88119444278973" lon="7.6521339977782326"><ele>205.0</ele><time>2026-04-12T10:36:48.999Z</time></trkpt><trkpt lat="43.88127749662129" lon="7.652210865311316"><ele>201.6</ele><time>2026-04-12T10:36:49.999Z</time></trkpt><trkpt lat="43.88137298299867" lon="7.6522720565681634"><ele>198.2</ele><time>2026-04-12T10:36:50.999Z</time></trkpt><trkpt lat="43.88147138381262" lon="7.6523218282940375"><ele>194.8</ele><time>2026-04-12T10:36:51.999Z</time></trkpt><trkpt lat="43.88155079949607" lon="7.652385460517024"><ele>191.4</ele><time>2026-04-12T10:36:52.999Z</time></trkpt><trkpt lat="43.88161291182322" lon="7.652423564241921"><ele>188.0</ele><time>2026-04-12T10:36:53.999Z</time></trkpt><trkpt lat="43.88167420464857" lon="7.652520589477917"><ele>188.0</ele><time>2026-04-12T10:36:55.999Z</time></trkpt><trkpt lat="43.88166751443389" lon="7.652667797225798"><ele>188.0</ele><time>2026-04-12T10:36:57.999Z</time></trkpt><trkpt lat="43.88157620269358" lon="7.652778475867633"><ele>188.0</ele><time>2026-04-12T10:36:59.999Z</time></trkpt><trkpt lat="43.88151980958391" lon="7.652852723519641"><ele>188.0</ele><time>2026-04-12T10:37:00.999Z</time></trkpt><trkpt lat="43.88145836434905" lon="7.652915012817781"><ele>188.0</ele><time>2026-04-12T10:37:01.999Z</time></trkpt><trkpt lat="43.88140351702014" lon="7.6529784125373626"><ele>188.8</ele><time>2026-04-12T10:37:02.999Z</time></trkpt><trkpt lat="43.88134598699131" lon="7.65313877893542"><ele>189.60000000000002</ele><time>2026-04-12T10:37:04.999Z</time></trkpt><trkpt lat="43.88132220185945" lon="7.653252712464083"><ele>190.39999999999998</ele><time>2026-04-12T10:37:05.999Z</time></trkpt><trkpt lat="43.881315237321516" lon="7.653386463059674"><ele>191.2</ele><time>2026-04-12T10:37:06.999Z</time></trkpt><trkpt lat="43.88132429952171" lon="7.653524553602473"><ele>192.0</ele><time>2026-04-12T10:37:07.999Z</time></trkpt><trkpt lat="43.88131621102264" lon="7.653658053431145"><ele>195.33333333333334</ele><time>2026-04-12T10:37:08.999Z</time></trkpt><trkpt lat="43.88130548266862" lon="7.653773747262976"><ele>198.66666666666669</ele><time>2026-04-12T10:37:09.999Z</time></trkpt><trkpt lat="43.881286301827885" lon="7.653873205108888"><ele>202.0</ele><time>2026-04-12T10:37:10.999Z</time></trkpt><trkpt lat="43.88126543468006" lon="7.6539643272282785"><ele>205.33333333333334</ele><time>2026-04-12T10:37:11.999Z</time></trkpt><trkpt lat="43.881237284606364" lon="7.654053542779013"><ele>208.66666666666669</ele><time>2026-04-12T10:37:12.999Z</time></trkpt><trkpt lat="43.88117844918591" lon="7.654147878169147"><ele>212.0</ele><time>2026-04-12T10:37:13.999Z</time></trkpt><trkpt lat="43.88115053796321" lon="7.654274871898367"><ele>212.00000000000003</ele><time>2026-04-12T10:37:14.999Z</time></trkpt><trkpt lat="43.88108798649787" lon="7.654371240481091"><ele>212.0</ele><time>2026-04-12T10:37:15.999Z</time></trkpt><trkpt lat="43.88103125527741" lon="7.654466193197175"><ele>212.0</ele><time>2026-04-12T10:37:16.999Z</time></trkpt><trkpt lat="43.88097818193519" lon="7.654558349673155"><ele>212.0</ele><time>2026-04-12T10:37:17.999Z</time></trkpt><trkpt lat="43.88091249790491" lon="7.654628744520203"><ele>212.00000000000003</ele><time>2026-04-12T10:37:18.999Z</time></trkpt><trkpt lat="43.880861102682886" lon="7.654704261530128"><ele>212.0</ele><time>2026-04-12T10:37:19.999Z</time></trkpt><trkpt lat="43.880832543528925" lon="7.654784424791623"><ele>212.6</ele><time>2026-04-12T10:37:20.999Z</time></trkpt><trkpt lat="43.88084570839362" lon="7.654952197425363"><ele>213.2</ele><time>2026-04-12T10:37:22.999Z</time></trkpt><trkpt lat="43.880896480577476" lon="7.655037160550564"><ele>213.8</ele><time>2026-04-12T10:37:23.999Z</time></trkpt><trkpt lat="43.880956078778134" lon="7.655130269214004"><ele>214.4</ele><time>2026-04-12T10:37:24.999Z</time></trkpt><trkpt lat="43.88100270908499" lon="7.655230286817432"><ele>215.0</ele><time>2026-04-12T10:37:25.999Z</time></trkpt><trkpt lat="43.88104247261713" lon="7.655344350304478"><ele>215.0</ele><time>2026-04-12T10:37:26.999Z</time></trkpt><trkpt lat="43.88107948100138" lon="7.65547407204804"><ele>215.0</ele><time>2026-04-12T10:37:27.999Z</time></trkpt><trkpt lat="43.881104546475186" lon="7.655607568110034"><ele>215.0</ele><time>2026-04-12T10:37:28.999Z</time></trkpt><trkpt lat="43.8811199923051" lon="7.655736436793967"><ele>215.0</ele><time>2026-04-12T10:37:29.999Z</time></trkpt><trkpt lat="43.88114358304051" lon="7.655865206572714"><ele>215.0</ele><time>2026-04-12T10:37:30.999Z</time></trkpt><trkpt lat="43.88118377084179" lon="7.655984215768213"><ele>215.00000000000003</ele><time>2026-04-12T10:37:31.999Z</time></trkpt><trkpt lat="43.881234732994955" lon="7.656081729410668"><ele>215.0</ele><time>2026-04-12T10:37:32.999Z</time></trkpt><trkpt lat="43.88128246931648" lon="7.65617264303284"><ele>215.0</ele><time>2026-04-12T10:37:33.999Z</time></trkpt><trkpt lat="43.88131757680554" lon="7.65625333448672"><ele>215.0</ele><time>2026-04-12T10:37:34.999Z</time></trkpt><trkpt lat="43.88133537067223" lon="7.65634199529882"><ele>215.00000000000003</ele><time>2026-04-12T10:37:35.999Z</time></trkpt><trkpt lat="43.881308738851054" lon="7.656440197043076"><ele>215.0</ele><time>2026-04-12T10:37:36.999Z</time></trkpt><trkpt lat="43.881292931679326" lon="7.6565531627975965"><ele>216.2</ele><time>2026-04-12T10:37:37.999Z</time></trkpt><trkpt lat="43.881285172600236" lon="7.656686409603843"><ele>217.4</ele><time>2026-04-12T10:37:38.999Z</time></trkpt><trkpt lat="43.88126215933337" lon="7.656815084540145"><ele>218.60000000000002</ele><time>2026-04-12T10:37:39.999Z</time></trkpt><trkpt lat="43.881244433247396" lon="7.656941558709267"><ele>219.8</ele><time>2026-04-12T10:37:40.999Z</time></trkpt><trkpt lat="43.881201480966666" lon="7.657051320525209"><ele>221.0</ele><time>2026-04-12T10:37:41.999Z</time></trkpt><trkpt lat="43.88116762296969" lon="7.657158057898672"><ele>221.00000000000003</ele><time>2026-04-12T10:37:42.999Z</time></trkpt><trkpt lat="43.88113108741214" lon="7.657258786207068"><ele>221.0</ele><time>2026-04-12T10:37:43.999Z</time></trkpt><trkpt lat="43.881089217132896" lon="7.657362240470829"><ele>221.0</ele><time>2026-04-12T10:37:44.999Z</time></trkpt><trkpt lat="43.88106448652719" lon="7.657467597878924"><ele>221.0</ele><time>2026-04-12T10:37:45.999Z</time></trkpt><trkpt lat="43.881032737549035" lon="7.657550508952743"><ele>221.00000000000003</ele><time>2026-04-12T10:37:46.999Z</time></trkpt><trkpt lat="43.880996724285424" lon="7.657635170804324"><ele>221.0</ele><time>2026-04-12T10:37:47.999Z</time></trkpt><trkpt lat="43.881007332273626" lon="7.657744611443498"><ele>220.33333333333334</ele><time>2026-04-12T10:37:48.999Z</time></trkpt><trkpt lat="43.881012846784" lon="7.657854778395652"><ele>219.66666666666669</ele><time>2026-04-12T10:37:49.998Z</time></trkpt><trkpt lat="43.88101980211221" lon="7.6579719268160185"><ele>219.0</ele><time>2026-04-12T10:37:50.998Z</time></trkpt><trkpt lat="43.88101273870287" lon="7.658083297568277"><ele>218.33333333333331</ele><time>2026-04-12T10:37:51.998Z</time></trkpt><trkpt lat="43.880999903691766" lon="7.658176639999502"><ele>217.66666666666666</ele><time>2026-04-12T10:37:52.998Z</time></trkpt><trkpt lat="43.88094940454891" lon="7.6582838499901005"><ele>217.0</ele><time>2026-04-12T10:37:54.998Z</time></trkpt><trkpt lat="43.88084316843573" lon="7.658266722008663"><ele>216.99999999999997</ele><time>2026-04-12T10:37:56.998Z</time></trkpt><trkpt lat="43.8807564735685" lon="7.658196904752251"><ele>217.0</ele><time>2026-04-12T10:37:58.998Z</time></trkpt><trkpt lat="43.88072432330484" lon="7.658092824629562"><ele>217.0</ele><time>2026-04-12T10:38:00.998Z</time></trkpt><trkpt lat="43.880740092010726" lon="7.657922413743062"><ele>217.0</ele><time>2026-04-12T10:38:02.998Z</time></trkpt><trkpt lat="43.88073759430994" lon="7.657831194786895"><ele>216.99999999999997</ele><time>2026-04-12T10:38:03.998Z</time></trkpt><trkpt lat="43.880707001022856" lon="7.657732788341387"><ele>217.0</ele><time>2026-04-12T10:38:04.998Z</time></trkpt><trkpt lat="43.88068184364841" lon="7.657632638218073"><ele>214.66666666666666</ele><time>2026-04-12T10:38:05.998Z</time></trkpt><trkpt lat="43.880671794237436" lon="7.65751912972484"><ele>212.33333333333331</ele><time>2026-04-12T10:38:06.998Z</time></trkpt><trkpt lat="43.880642599824306" lon="7.657413034384862"><ele>210.0</ele><time>2026-04-12T10:38:07.998Z</time></trkpt><trkpt lat="43.880620417146915" lon="7.65730452351866"><ele>207.66666666666669</ele><time>2026-04-12T10:38:08.998Z</time></trkpt><trkpt lat="43.88060812105557" lon="7.657201284967917"><ele>205.33333333333334</ele><time>2026-04-12T10:38:09.998Z</time></trkpt><trkpt lat="43.880585905099586" lon="7.657098955832379"><ele>203.0</ele><time>2026-04-12T10:38:10.998Z</time></trkpt><trkpt lat="43.88057304118463" lon="7.657005095801245"><ele>203.0</ele><time>2026-04-12T10:38:11.998Z</time></trkpt><trkpt lat="43.88056607226477" lon="7.656911791868892"><ele>203.0</ele><time>2026-04-12T10:38:12.998Z</time></trkpt><trkpt lat="43.880518786299675" lon="7.656790499514741"><ele>203.0</ele><time>2026-04-12T10:38:14.998Z</time></trkpt><trkpt lat="43.88055583775656" lon="7.656862942101573"><ele>203.0</ele><time>2026-04-12T10:39:07Z</time></trkpt><trkpt lat="43.880593978969976" lon="7.656941019487396"><ele>203.0</ele><time>2026-04-12T10:39:13.999Z</time></trkpt><trkpt lat="43.880610196689155" lon="7.657036090957854"><ele>203.0</ele><time>2026-04-12T10:39:20.999Z</time></trkpt><trkpt lat="43.88064066335186" lon="7.6571141187627365"><ele>203.0</ele><time>2026-04-12T10:39:25.999Z</time></trkpt><trkpt lat="43.88067014277287" lon="7.657017569674895"><ele>203.0</ele><time>2026-04-12T10:39:41.999Z</time></trkpt><trkpt lat="43.88064002282058" lon="7.656936512991537"><ele>203.0</ele><time>2026-04-12T10:39:48.999Z</time></trkpt><trkpt lat="43.880666497112486" lon="7.657027764042043"><ele>203.0</ele><time>2026-04-12T10:41:41.999Z</time></trkpt><trkpt lat="43.88059429337397" lon="7.6569866870713605"><ele>203.0</ele><time>2026-04-12T10:42:02.998Z</time></trkpt><trkpt lat="43.880565161459685" lon="7.656903797637737"><ele>203.0</ele><time>2026-04-12T10:42:23.998Z</time></trkpt><trkpt lat="43.88052276298993" lon="7.656836355288321"><ele>203.0</ele><time>2026-04-12T10:42:30.998Z</time></trkpt><trkpt lat="43.880471757223226" lon="7.656777751349639"><ele>203.0</ele><time>2026-04-12T10:42:38.998Z</time></trkpt><trkpt lat="43.8804188937321" lon="7.656676170406672"><ele>200.75</ele><time>2026-04-12T10:43:55.998Z</time></trkpt><trkpt lat="43.880370712350384" lon="7.656536185282894"><ele>198.5</ele><time>2026-04-12T10:43:57.998Z</time></trkpt><trkpt lat="43.880307952739905" lon="7.65641896104511"><ele>196.25</ele><time>2026-04-12T10:43:59.998Z</time></trkpt><trkpt lat="43.88021351733483" lon="7.656335730111215"><ele>194.0</ele><time>2026-04-12T10:44:01.998Z</time></trkpt><trkpt lat="43.880114057022695" lon="7.6564338800659195"><ele>194.00000000000003</ele><time>2026-04-12T10:44:03.998Z</time></trkpt><trkpt lat="43.880108970702096" lon="7.656525172642691"><ele>194.0</ele><time>2026-04-12T10:44:04.998Z</time></trkpt><trkpt lat="43.88010216327181" lon="7.656620450189205"><ele>194.0</ele><time>2026-04-12T10:44:05.998Z</time></trkpt><trkpt lat="43.88009366064129" lon="7.656746064225127"><ele>194.0</ele><time>2026-04-12T10:44:06.998Z</time></trkpt><trkpt lat="43.88008679995722" lon="7.656886466452656"><ele>194.00000000000003</ele><time>2026-04-12T10:44:07.998Z</time></trkpt><trkpt lat="43.88008805738242" lon="7.657018471006598"><ele>194.0</ele><time>2026-04-12T10:44:08.998Z</time></trkpt><trkpt lat="43.8800981521864" lon="7.657168917573546"><ele>197.39999999999998</ele><time>2026-04-12T10:44:09.998Z</time></trkpt><trkpt lat="43.88006951416571" lon="7.6572940609328235"><ele>200.8</ele><time>2026-04-12T10:44:10.998Z</time></trkpt><trkpt lat="43.88003696533906" lon="7.657400341119099"><ele>204.2</ele><time>2026-04-12T10:44:11.998Z</time></trkpt><trkpt lat="43.879987645151395" lon="7.6574876206664495"><ele>207.60000000000002</ele><time>2026-04-12T10:44:12.998Z</time></trkpt><trkpt lat="43.87993579473606" lon="7.657597366761202"><ele>211.0</ele><time>2026-04-12T10:44:13.998Z</time></trkpt><trkpt lat="43.8798780036933" lon="7.657711027274223"><ele>215.4</ele><time>2026-04-12T10:44:14.998Z</time></trkpt><trkpt lat="43.87982322582384" lon="7.65781807433212"><ele>219.8</ele><time>2026-04-12T10:44:15.998Z</time></trkpt><trkpt lat="43.87976817195419" lon="7.657925660962144"><ele>224.20000000000002</ele><time>2026-04-12T10:44:16.998Z</time></trkpt><trkpt lat="43.87971026723582" lon="7.658038818489835"><ele>228.60000000000002</ele><time>2026-04-12T10:44:17.998Z</time></trkpt><trkpt lat="43.87965181065572" lon="7.658154793952114"><ele>233.0</ele><time>2026-04-12T10:44:18.998Z</time></trkpt><trkpt lat="43.879593895534605" lon="7.658272239112409"><ele>233.00000000000003</ele><time>2026-04-12T10:44:19.998Z</time></trkpt><trkpt lat="43.87953954910321" lon="7.658385551282688"><ele>233.0</ele><time>2026-04-12T10:44:20.998Z</time></trkpt><trkpt lat="43.87949206313343" lon="7.658485866755061"><ele>233.0</ele><time>2026-04-12T10:44:21.998Z</time></trkpt><trkpt lat="43.879445730328115" lon="7.658583746313072"><ele>233.0</ele><time>2026-04-12T10:44:22.998Z</time></trkpt><trkpt lat="43.87939860860734" lon="7.6586832924165265"><ele>233.00000000000003</ele><time>2026-04-12T10:44:23.998Z</time></trkpt><trkpt lat="43.87935243024848" lon="7.658793511328767"><ele>233.0</ele><time>2026-04-12T10:44:24.998Z</time></trkpt><trkpt lat="43.879339049258846" lon="7.658917712827047"><ele>236.50000000000003</ele><time>2026-04-12T10:44:25.998Z</time></trkpt><trkpt lat="43.879300164277765" lon="7.659039231417618"><ele>240.0</ele><time>2026-04-12T10:44:26.998Z</time></trkpt><trkpt lat="43.879301635825094" lon="7.659173417514235"><ele>243.5</ele><time>2026-04-12T10:44:27.998Z</time></trkpt><trkpt lat="43.87929441099354" lon="7.659297818391565"><ele>247.0</ele><time>2026-04-12T10:44:28.998Z</time></trkpt><trkpt lat="43.87929487619986" lon="7.659410813365261"><ele>250.50000000000003</ele><time>2026-04-12T10:44:29.998Z</time></trkpt><trkpt lat="43.879313246553274" lon="7.659515211533208"><ele>254.0</ele><time>2026-04-12T10:44:30.998Z</time></trkpt><trkpt lat="43.87935566802923" lon="7.65961589283368"><ele>254.0</ele><time>2026-04-12T10:44:31.998Z</time></trkpt><trkpt lat="43.879413158319416" lon="7.659718161314053"><ele>253.99999999999997</ele><time>2026-04-12T10:44:32.998Z</time></trkpt><trkpt lat="43.87945829700494" lon="7.659843626988836"><ele>253.99999999999997</ele><time>2026-04-12T10:44:33.998Z</time></trkpt><trkpt lat="43.879517227979456" lon="7.659957899128638"><ele>254.0</ele><time>2026-04-12T10:44:34.998Z</time></trkpt><trkpt lat="43.879587105187966" lon="7.660057782050211"><ele>254.0</ele><time>2026-04-12T10:44:35.998Z</time></trkpt><trkpt lat="43.8796378005947" lon="7.660179428256917"><ele>250.0</ele><time>2026-04-12T10:44:36.998Z</time></trkpt><trkpt lat="43.87970026016146" lon="7.660290837882074"><ele>245.99999999999997</ele><time>2026-04-12T10:44:37.998Z</time></trkpt><trkpt lat="43.87975933003644" lon="7.6604016852873995"><ele>241.99999999999997</ele><time>2026-04-12T10:44:38.998Z</time></trkpt><trkpt lat="43.879826496040415" lon="7.660493129676221"><ele>238.0</ele><time>2026-04-12T10:44:39.998Z</time></trkpt><trkpt lat="43.87988825643313" lon="7.660576099634216"><ele>234.0</ele><time>2026-04-12T10:44:40.998Z</time></trkpt><trkpt lat="43.87994352410292" lon="7.6606592872929955"><ele>234.0</ele><time>2026-04-12T10:44:41.998Z</time></trkpt><trkpt lat="43.87995547694309" lon="7.660772216506371"><ele>234.0</ele><time>2026-04-12T10:44:42.998Z</time></trkpt><trkpt lat="43.879968719913876" lon="7.660881757120103"><ele>234.0</ele><time>2026-04-12T10:44:43.998Z</time></trkpt><trkpt lat="43.8799833713474" lon="7.661007439353335"><ele>234.0</ele><time>2026-04-12T10:44:44.998Z</time></trkpt><trkpt lat="43.88000042734024" lon="7.661142584142811"><ele>234.0</ele><time>2026-04-12T10:44:45.998Z</time></trkpt><trkpt lat="43.880016657096114" lon="7.661271182165642"><ele>234.0</ele><time>2026-04-12T10:44:46.998Z</time></trkpt><trkpt lat="43.8800333736712" lon="7.661397054009345"><ele>233.5</ele><time>2026-04-12T10:44:47.997Z</time></trkpt><trkpt lat="43.880048095758205" lon="7.661505667469793"><ele>233.0</ele><time>2026-04-12T10:44:48.997Z</time></trkpt><trkpt lat="43.88006264303323" lon="7.6616129912252635"><ele>232.5</ele><time>2026-04-12T10:44:49.997Z</time></trkpt><trkpt lat="43.88007706600883" lon="7.661719397877741"><ele>232.0</ele><time>2026-04-12T10:44:50.997Z</time></trkpt><trkpt lat="43.880098480248286" lon="7.6618288029612165"><ele>231.5</ele><time>2026-04-12T10:44:51.997Z</time></trkpt><trkpt lat="43.88010683942284" lon="7.6619384683801695"><ele>231.0</ele><time>2026-04-12T10:44:52.997Z</time></trkpt><trkpt lat="43.880098239907575" lon="7.662046326723732"><ele>232.66666666666666</ele><time>2026-04-12T10:44:53.997Z</time></trkpt><trkpt lat="43.88003684785961" lon="7.6621339386363045"><ele>234.33333333333331</ele><time>2026-04-12T10:44:54.997Z</time></trkpt><trkpt lat="43.879995339998096" lon="7.662230604489486"><ele>236.0</ele><time>2026-04-12T10:44:55.997Z</time></trkpt><trkpt lat="43.87994876223792" lon="7.6623333415841195"><ele>237.66666666666666</ele><time>2026-04-12T10:44:56.997Z</time></trkpt><trkpt lat="43.87990155148092" lon="7.6624365441462094"><ele>239.33333333333331</ele><time>2026-04-12T10:44:57.997Z</time></trkpt><trkpt lat="43.879873786768485" lon="7.662533522318489"><ele>241.0</ele><time>2026-04-12T10:44:58.997Z</time></trkpt><trkpt lat="43.87982900063389" lon="7.662612991297118"><ele>240.99999999999997</ele><time>2026-04-12T10:44:59.997Z</time></trkpt><trkpt lat="43.87977498994507" lon="7.662700704297489"><ele>241.0</ele><time>2026-04-12T10:45:00.997Z</time></trkpt><trkpt lat="43.87975948616704" lon="7.6628182699947835"><ele>241.0</ele><time>2026-04-12T10:45:01.997Z</time></trkpt><trkpt lat="43.87971590906883" lon="7.662913807774839"><ele>241.0</ele><time>2026-04-12T10:45:02.997Z</time></trkpt><trkpt lat="43.87968864682446" lon="7.663010770175832"><ele>240.99999999999997</ele><time>2026-04-12T10:45:03.997Z</time></trkpt><trkpt lat="43.879671430054906" lon="7.6630986443595175"><ele>241.0</ele><time>2026-04-12T10:45:04.997Z</time></trkpt><trkpt lat="43.87964256146493" lon="7.663229939466876"><ele>243.66666666666666</ele><time>2026-04-12T10:45:06.997Z</time></trkpt><trkpt lat="43.87961405045232" lon="7.663378374730929"><ele>246.33333333333331</ele><time>2026-04-12T10:45:12Z</time></trkpt><trkpt lat="43.879620348072876" lon="7.6634750540465495"><ele>249.0</ele><time>2026-04-12T10:45:12.999Z</time></trkpt><trkpt lat="43.879644136533514" lon="7.663572252283015"><ele>251.66666666666669</ele><time>2026-04-12T10:45:14Z</time></trkpt><trkpt lat="43.87964922581675" lon="7.663664154779139"><ele>254.33333333333334</ele><time>2026-04-12T10:45:15Z</time></trkpt><trkpt lat="43.87963490679975" lon="7.663775013406781"><ele>257.0</ele><time>2026-04-12T10:45:16Z</time></trkpt><trkpt lat="43.87962896136039" lon="7.663883337356978"><ele>258.2857142857143</ele><time>2026-04-12T10:45:17Z</time></trkpt><trkpt lat="43.87961099646119" lon="7.663990377183082"><ele>259.57142857142856</ele><time>2026-04-12T10:45:18Z</time></trkpt><trkpt lat="43.879577288100016" lon="7.664081933826969"><ele>260.8571428571429</ele><time>2026-04-12T10:45:19Z</time></trkpt><trkpt lat="43.879540269721325" lon="7.664171788178164"><ele>262.1428571428571</ele><time>2026-04-12T10:45:20Z</time></trkpt><trkpt lat="43.879499393694104" lon="7.664254145580596"><ele>263.42857142857144</ele><time>2026-04-12T10:45:21Z</time></trkpt><trkpt lat="43.87945766816226" lon="7.664335960508899"><ele>264.7142857142857</ele><time>2026-04-12T10:45:22Z</time></trkpt><trkpt lat="43.87943552465739" lon="7.664419980368926"><ele>266.0</ele><time>2026-04-12T10:45:23Z</time></trkpt><trkpt lat="43.879371883970684" lon="7.66452060927613"><ele>269.0</ele><time>2026-04-12T10:45:25Z</time></trkpt><trkpt lat="43.87933515829298" lon="7.664597946264557"><ele>272.0</ele><time>2026-04-12T10:47:43.999Z</time></trkpt><trkpt lat="43.87929462315209" lon="7.664673904828125"><ele>275.0</ele><time>2026-04-12T10:48:25.999Z</time></trkpt><trkpt lat="43.87922639364811" lon="7.664758576349053"><ele>278.0</ele><time>2026-04-12T10:48:27.999Z</time></trkpt><trkpt lat="43.879152727566456" lon="7.664889658112058"><ele>281.0</ele><time>2026-04-12T10:48:29.998Z</time></trkpt><trkpt lat="43.879072833783454" lon="7.6650133984260105"><ele>279.0</ele><time>2026-04-12T10:48:31.998Z</time></trkpt><trkpt lat="43.87896585084658" lon="7.665105547842428"><ele>277.0</ele><time>2026-04-12T10:48:33.998Z</time></trkpt><trkpt lat="43.878904851273276" lon="7.665152523672196"><ele>275.0</ele><time>2026-04-12T10:48:34.998Z</time></trkpt><trkpt lat="43.878837642322125" lon="7.665207972567632"><ele>273.0</ele><time>2026-04-12T10:48:35.998Z</time></trkpt><trkpt lat="43.87876033619277" lon="7.665231736689298"><ele>271.0</ele><time>2026-04-12T10:48:36.998Z</time></trkpt><trkpt lat="43.8786978105097" lon="7.665284169200945"><ele>269.0</ele><time>2026-04-12T10:48:37.998Z</time></trkpt><trkpt lat="43.8786380754622" lon="7.665334261494838"><ele>269.0</ele><time>2026-04-12T10:48:38.998Z</time></trkpt><trkpt lat="43.87857428864453" lon="7.665387751522678"><ele>269.0</ele><time>2026-04-12T10:48:39.998Z</time></trkpt><trkpt lat="43.87851234892244" lon="7.665443106515338"><ele>269.0</ele><time>2026-04-12T10:48:40.998Z</time></trkpt><trkpt lat="43.878464702178874" lon="7.665522579758277"><ele>269.0</ele><time>2026-04-12T10:48:41.998Z</time></trkpt><trkpt lat="43.878411789304316" lon="7.66559518700568"><ele>269.0</ele><time>2026-04-12T10:48:42.998Z</time></trkpt><trkpt lat="43.87836838700308" lon="7.665675792774461"><ele>269.0</ele><time>2026-04-12T10:48:43.998Z</time></trkpt><trkpt lat="43.87833072259226" lon="7.665758978152264"><ele>269.0</ele><time>2026-04-12T10:48:44.998Z</time></trkpt><trkpt lat="43.878300457085466" lon="7.665841824278511"><ele>263.14285714285717</ele><time>2026-04-12T10:48:45.998Z</time></trkpt><trkpt lat="43.878286582581374" lon="7.665927743036385"><ele>257.28571428571433</ele><time>2026-04-12T10:48:46.998Z</time></trkpt><trkpt lat="43.87828524802525" lon="7.666027856581079"><ele>251.42857142857144</ele><time>2026-04-12T10:48:47.998Z</time></trkpt><trkpt lat="43.87829460853661" lon="7.666134352538648"><ele>245.57142857142856</ele><time>2026-04-12T10:48:48.998Z</time></trkpt><trkpt lat="43.87830519296624" lon="7.666237197888599"><ele>239.7142857142857</ele><time>2026-04-12T10:48:49.998Z</time></trkpt><trkpt lat="43.878315179331494" lon="7.666336290916148"><ele>233.85714285714283</ele><time>2026-04-12T10:48:50.998Z</time></trkpt><trkpt lat="43.87832279470687" lon="7.666427326758169"><ele>228.0</ele><time>2026-04-12T10:48:51.998Z</time></trkpt><trkpt lat="43.87832782349062" lon="7.666524325304869"><ele>228.0</ele><time>2026-04-12T10:48:52.998Z</time></trkpt><trkpt lat="43.87834061658506" lon="7.666624440251263"><ele>227.99999999999997</ele><time>2026-04-12T10:48:53.998Z</time></trkpt><trkpt lat="43.87836820481842" lon="7.666728632696257"><ele>228.0</ele><time>2026-04-12T10:48:54.998Z</time></trkpt><trkpt lat="43.878409279401765" lon="7.66682871229708"><ele>228.0</ele><time>2026-04-12T10:48:55.998Z</time></trkpt><trkpt lat="43.87844765580722" lon="7.666919165454632"><ele>227.99999999999997</ele><time>2026-04-12T10:48:56.998Z</time></trkpt><trkpt lat="43.87848628622538" lon="7.666997553269314"><ele>228.0</ele><time>2026-04-12T10:48:57.998Z</time></trkpt><trkpt lat="43.87852539062743" lon="7.667071358166667"><ele>228.0</ele><time>2026-04-12T10:48:58.998Z</time></trkpt><trkpt lat="43.878574504835555" lon="7.667141701269326"><ele>233.16666666666666</ele><time>2026-04-12T10:48:59.998Z</time></trkpt><trkpt lat="43.878637859344906" lon="7.667209521292214"><ele>238.33333333333331</ele><time>2026-04-12T10:49:00.998Z</time></trkpt><trkpt lat="43.87870639508206" lon="7.667265577540748"><ele>243.5</ele><time>2026-04-12T10:49:01.998Z</time></trkpt><trkpt lat="43.87876688159581" lon="7.667320137555631"><ele>248.66666666666666</ele><time>2026-04-12T10:49:02.998Z</time></trkpt><trkpt lat="43.8788040606291" lon="7.667400755746502"><ele>253.83333333333331</ele><time>2026-04-12T10:49:03.998Z</time></trkpt><trkpt lat="43.87885204044631" lon="7.667563740048797"><ele>259.0</ele><time>2026-04-12T10:49:05.998Z</time></trkpt><trkpt lat="43.87884841178072" lon="7.667753724832008"><ele>257.0</ele><time>2026-04-12T10:49:07.998Z</time></trkpt><trkpt lat="43.87885116468648" lon="7.667875541047474"><ele>255.0</ele><time>2026-04-12T10:49:08.998Z</time></trkpt><trkpt lat="43.87885391881411" lon="7.667997411195611"><ele>253.0</ele><time>2026-04-12T10:49:09.998Z</time></trkpt><trkpt lat="43.87887290926371" lon="7.668112513595933"><ele>251.0</ele><time>2026-04-12T10:49:10.998Z</time></trkpt><trkpt lat="43.87887568466711" lon="7.668229357040077"><ele>248.99999999999997</ele><time>2026-04-12T10:49:11.998Z</time></trkpt><trkpt lat="43.878871714911746" lon="7.668342111597134"><ele>247.0</ele><time>2026-04-12T10:49:12.998Z</time></trkpt><trkpt lat="43.87887535257574" lon="7.668453822718875"><ele>246.99999999999997</ele><time>2026-04-12T10:49:13.998Z</time></trkpt><trkpt lat="43.878886917642326" lon="7.668566769731489"><ele>247.0</ele><time>2026-04-12T10:49:14.998Z</time></trkpt><trkpt lat="43.87890593326848" lon="7.668684648524738"><ele>247.0</ele><time>2026-04-12T10:49:15.998Z</time></trkpt><trkpt lat="43.878931029100116" lon="7.668800514482284"><ele>247.0</ele><time>2026-04-12T10:49:16.998Z</time></trkpt><trkpt lat="43.87896407582186" lon="7.6689111923615965"><ele>246.99999999999997</ele><time>2026-04-12T10:49:17.998Z</time></trkpt><trkpt lat="43.87900101391519" lon="7.669011503032798"><ele>247.0</ele><time>2026-04-12T10:49:18.998Z</time></trkpt><trkpt lat="43.879035294273514" lon="7.669103293040501"><ele>247.66666666666666</ele><time>2026-04-12T10:49:20Z</time></trkpt><trkpt lat="43.87907712330776" lon="7.669177864520816"><ele>248.33333333333331</ele><time>2026-04-12T10:49:21Z</time></trkpt><trkpt lat="43.87913135849852" lon="7.669232548824836"><ele>249.0</ele><time>2026-04-12T10:49:22Z</time></trkpt><trkpt lat="43.87919513269516" lon="7.669264593531941"><ele>249.66666666666669</ele><time>2026-04-12T10:49:23Z</time></trkpt><trkpt lat="43.879297038650606" lon="7.6693113676403994"><ele>250.33333333333334</ele><time>2026-04-12T10:49:25Z</time></trkpt><trkpt lat="43.87935383100153" lon="7.669428821448328"><ele>251.0</ele><time>2026-04-12T10:49:27Z</time></trkpt><trkpt lat="43.8793497638809" lon="7.6695888236906935"><ele>251.00000000000003</ele><time>2026-04-12T10:49:29Z</time></trkpt><trkpt lat="43.87934338709068" lon="7.669679794586187"><ele>251.0</ele><time>2026-04-12T10:49:30Z</time></trkpt><trkpt lat="43.87935076144163" lon="7.669779696057472"><ele>251.0</ele><time>2026-04-12T10:49:31Z</time></trkpt><trkpt lat="43.87937191754971" lon="7.669881480755266"><ele>251.0</ele><time>2026-04-12T10:49:32Z</time></trkpt><trkpt lat="43.879395892218746" lon="7.669989831068418"><ele>251.00000000000003</ele><time>2026-04-12T10:49:33Z</time></trkpt><trkpt lat="43.879417424212804" lon="7.6700921354083045"><ele>251.0</ele><time>2026-04-12T10:49:34Z</time></trkpt><trkpt lat="43.87943604642536" lon="7.670198173732256"><ele>245.60000000000002</ele><time>2026-04-12T10:49:35Z</time></trkpt><trkpt lat="43.87945986831772" lon="7.670305223579606"><ele>240.20000000000002</ele><time>2026-04-12T10:49:36Z</time></trkpt><trkpt lat="43.87947816364474" lon="7.670395281745283"><ele>234.79999999999998</ele><time>2026-04-12T10:49:37Z</time></trkpt><trkpt lat="43.87951020798594" lon="7.670549050399111"><ele>229.39999999999998</ele><time>2026-04-12T10:49:39Z</time></trkpt><trkpt lat="43.87958058559242" lon="7.670686693076367"><ele>224.0</ele><time>2026-04-12T10:49:41Z</time></trkpt><trkpt lat="43.87963422254535" lon="7.670747598065546"><ele>224.0</ele><time>2026-04-12T10:49:42Z</time></trkpt><trkpt lat="43.879684943616255" lon="7.670808299071469"><ele>224.0</ele><time>2026-04-12T10:49:43Z</time></trkpt><trkpt lat="43.879739016539574" lon="7.6708597315383695"><ele>224.0</ele><time>2026-04-12T10:49:44Z</time></trkpt><trkpt lat="43.87980081011855" lon="7.670892373306205"><ele>224.0</ele><time>2026-04-12T10:49:45Z</time></trkpt><trkpt lat="43.87986998844728" lon="7.6709084158209615"><ele>224.0</ele><time>2026-04-12T10:49:46Z</time></trkpt><trkpt lat="43.87993250889628" lon="7.670928138899863"><ele>224.0</ele><time>2026-04-12T10:49:47Z</time></trkpt><trkpt lat="43.880014019414325" lon="7.671029749676408"><ele>224.0</ele><time>2026-04-12T10:49:48.999Z</time></trkpt><trkpt lat="43.880013240797375" lon="7.671195950494036"><ele>221.33333333333334</ele><time>2026-04-12T10:49:50.999Z</time></trkpt><trkpt lat="43.8799900826151" lon="7.671361122132258"><ele>218.66666666666669</ele><time>2026-04-12T10:49:52.999Z</time></trkpt><trkpt lat="43.880014079864594" lon="7.671524894379208"><ele>216.0</ele><time>2026-04-12T10:49:54.999Z</time></trkpt><trkpt lat="43.88005661546265" lon="7.671601934188161"><ele>213.33333333333331</ele><time>2026-04-12T10:49:55.999Z</time></trkpt><trkpt lat="43.88010567072109" lon="7.671666174567906"><ele>210.66666666666666</ele><time>2026-04-12T10:49:56.999Z</time></trkpt><trkpt lat="43.8801381552544" lon="7.671746432043046"><ele>208.0</ele><time>2026-04-12T10:49:57.999Z</time></trkpt><trkpt lat="43.880179838658655" lon="7.671811914902411"><ele>207.14285714285714</ele><time>2026-04-12T10:49:58.999Z</time></trkpt><trkpt lat="43.88017987021549" lon="7.67190224641651"><ele>206.2857142857143</ele><time>2026-04-12T10:49:59.999Z</time></trkpt><trkpt lat="43.880133288701074" lon="7.6719768241995805"><ele>205.42857142857144</ele><time>2026-04-12T10:50:00.999Z</time></trkpt><trkpt lat="43.88011602601816" lon="7.672074281275496"><ele>204.57142857142856</ele><time>2026-04-12T10:50:01.999Z</time></trkpt><trkpt lat="43.88008395613632" lon="7.672167976256955"><ele>203.71428571428572</ele><time>2026-04-12T10:50:02.999Z</time></trkpt><trkpt lat="43.880055164541226" lon="7.672265337467603"><ele>202.85714285714286</ele><time>2026-04-12T10:50:03.999Z</time></trkpt><trkpt lat="43.88002832038099" lon="7.672359536961141"><ele>202.0</ele><time>2026-04-12T10:50:04.999Z</time></trkpt><trkpt lat="43.88000267720162" lon="7.672442364583055"><ele>201.99999999999997</ele><time>2026-04-12T10:50:05.999Z</time></trkpt><trkpt lat="43.8799745368253" lon="7.672609721193326"><ele>202.0</ele><time>2026-04-12T10:50:07.999Z</time></trkpt><trkpt lat="43.87995798728747" lon="7.672711416849103"><ele>202.0</ele><time>2026-04-12T10:50:08.999Z</time></trkpt><trkpt lat="43.87997367005297" lon="7.67282028732962"><ele>202.0</ele><time>2026-04-12T10:50:09.999Z</time></trkpt><trkpt lat="43.87997295132125" lon="7.672929784244432"><ele>201.99999999999997</ele><time>2026-04-12T10:50:10.999Z</time></trkpt><trkpt lat="43.87997386936031" lon="7.6730445743697935"><ele>202.0</ele><time>2026-04-12T10:50:11.999Z</time></trkpt><trkpt lat="43.87997940192828" lon="7.673160425156417"><ele>201.49999999999997</ele><time>2026-04-12T10:50:12.999Z</time></trkpt><trkpt lat="43.87999479056256" lon="7.673278653354033"><ele>201.0</ele><time>2026-04-12T10:50:13.999Z</time></trkpt><trkpt lat="43.88000621888013" lon="7.673402041785416"><ele>200.5</ele><time>2026-04-12T10:50:14.999Z</time></trkpt><trkpt lat="43.880043495239306" lon="7.673518438117029"><ele>200.0</ele><time>2026-04-12T10:50:15.999Z</time></trkpt><trkpt lat="43.88008523707076" lon="7.673630062049997"><ele>199.49999999999997</ele><time>2026-04-12T10:50:16.999Z</time></trkpt><trkpt lat="43.88014092432009" lon="7.67372793026403"><ele>199.0</ele><time>2026-04-12T10:50:17.999Z</time></trkpt><trkpt lat="43.880167277378476" lon="7.6738458481545955"><ele>200.49999999999997</ele><time>2026-04-12T10:50:18.999Z</time></trkpt><trkpt lat="43.88022349854179" lon="7.673942776024717"><ele>202.0</ele><time>2026-04-12T10:50:19.999Z</time></trkpt><trkpt lat="43.88025986697578" lon="7.674048343653464"><ele>203.5</ele><time>2026-04-12T10:50:20.999Z</time></trkpt><trkpt lat="43.88027923354442" lon="7.674145401369131"><ele>205.0</ele><time>2026-04-12T10:50:21.999Z</time></trkpt><trkpt lat="43.88028110023311" lon="7.674242708007085"><ele>206.49999999999997</ele><time>2026-04-12T10:50:22.999Z</time></trkpt><trkpt lat="43.88026152766619" lon="7.67434338969061"><ele>208.0</ele><time>2026-04-12T10:50:23.999Z</time></trkpt><trkpt lat="43.880270011705804" lon="7.674453246750207"><ele>208.0</ele><time>2026-04-12T10:50:24.999Z</time></trkpt><trkpt lat="43.88026323583719" lon="7.674561786886122"><ele>208.0</ele><time>2026-04-12T10:50:25.999Z</time></trkpt><trkpt lat="43.88025186933079" lon="7.674683940351305"><ele>208.0</ele><time>2026-04-12T10:50:26.999Z</time></trkpt><trkpt lat="43.88023792755361" lon="7.67481186502483"><ele>208.0</ele><time>2026-04-12T10:50:27.999Z</time></trkpt><trkpt lat="43.88022768281355" lon="7.674951103544949"><ele>208.0</ele><time>2026-04-12T10:50:28.999Z</time></trkpt><trkpt lat="43.88021628710766" lon="7.675098964992908"><ele>208.0</ele><time>2026-04-12T10:50:29.999Z</time></trkpt><trkpt lat="43.88020528949113" lon="7.675260131761189"><ele>208.0</ele><time>2026-04-12T10:50:30.999Z</time></trkpt><trkpt lat="43.88019082773943" lon="7.675421550182254"><ele>208.0</ele><time>2026-04-12T10:50:31.999Z</time></trkpt><trkpt lat="43.88017622946757" lon="7.67558977889078"><ele>208.0</ele><time>2026-04-12T10:50:32.999Z</time></trkpt><trkpt lat="43.880161021756905" lon="7.6757639129737605"><ele>206.5</ele><time>2026-04-12T10:50:33.999Z</time></trkpt><trkpt lat="43.88014713654778" lon="7.675942367922089"><ele>205.0</ele><time>2026-04-12T10:50:34.999Z</time></trkpt><trkpt lat="43.88013317581814" lon="7.676122022516162"><ele>203.5</ele><time>2026-04-12T10:50:35.999Z</time></trkpt><trkpt lat="43.880115401526204" lon="7.676300557406874"><ele>202.0</ele><time>2026-04-12T10:50:36.999Z</time></trkpt><trkpt lat="43.88009848198716" lon="7.676481582741381"><ele>202.0</ele><time>2026-04-12T10:50:37.999Z</time></trkpt><trkpt lat="43.880057014080926" lon="7.676647371873303"><ele>202.0</ele><time>2026-04-12T10:50:38.999Z</time></trkpt><trkpt lat="43.88004191579834" lon="7.676811616987055"><ele>202.0</ele><time>2026-04-12T10:50:39.999Z</time></trkpt><trkpt lat="43.880011236038435" lon="7.676963889134006"><ele>202.0</ele><time>2026-04-12T10:50:40.998Z</time></trkpt><trkpt lat="43.879984273231436" lon="7.6771099936115315"><ele>203.39999999999998</ele><time>2026-04-12T10:50:41.998Z</time></trkpt><trkpt lat="43.87995877945493" lon="7.677239739304976"><ele>204.79999999999998</ele><time>2026-04-12T10:50:42.998Z</time></trkpt><trkpt lat="43.879938589140316" lon="7.677356890682628"><ele>206.2</ele><time>2026-04-12T10:50:43.998Z</time></trkpt><trkpt lat="43.87992663880486" lon="7.67746999551722"><ele>207.6</ele><time>2026-04-12T10:50:44.998Z</time></trkpt><trkpt lat="43.87993210243549" lon="7.677598579541885"><ele>209.0</ele><time>2026-04-12T10:50:45.998Z</time></trkpt><trkpt lat="43.87995595331251" lon="7.677744831732306"><ele>211.0</ele><time>2026-04-12T10:50:46.998Z</time></trkpt><trkpt lat="43.87997424636264" lon="7.677900797830336"><ele>213.0</ele><time>2026-04-12T10:50:47.998Z</time></trkpt><trkpt lat="43.879988677633776" lon="7.67806151085779"><ele>215.0</ele><time>2026-04-12T10:50:48.998Z</time></trkpt><trkpt lat="43.8800016172766" lon="7.678220872890004"><ele>217.0</ele><time>2026-04-12T10:50:49.998Z</time></trkpt><trkpt lat="43.88001373594671" lon="7.678381612882848"><ele>217.0</ele><time>2026-04-12T10:50:50.998Z</time></trkpt><trkpt lat="43.87999995753123" lon="7.678542598826663"><ele>217.0</ele><time>2026-04-12T10:50:51.998Z</time></trkpt><trkpt lat="43.88001257913346" lon="7.678707300317743"><ele>217.0</ele><time>2026-04-12T10:50:52.998Z</time></trkpt><trkpt lat="43.88001399608285" lon="7.678871849221415"><ele>217.0</ele><time>2026-04-12T10:50:53.998Z</time></trkpt><trkpt lat="43.88001507771901" lon="7.679034479500099"><ele>217.2</ele><time>2026-04-12T10:50:54.998Z</time></trkpt><trkpt lat="43.88001455433892" lon="7.679185928169017"><ele>217.39999999999998</ele><time>2026-04-12T10:50:55.998Z</time></trkpt><trkpt lat="43.88001589732166" lon="7.679330114617149"><ele>217.60000000000002</ele><time>2026-04-12T10:50:56.998Z</time></trkpt><trkpt lat="43.88002423029157" lon="7.6794579052735"><ele>217.8</ele><time>2026-04-12T10:50:57.998Z</time></trkpt><trkpt lat="43.880035786550025" lon="7.6795773628862865"><ele>218.0</ele><time>2026-04-12T10:50:58.998Z</time></trkpt><trkpt lat="43.88004548092518" lon="7.6796866245141695"><ele>217.60000000000002</ele><time>2026-04-12T10:50:59.998Z</time></trkpt><trkpt lat="43.88004160001948" lon="7.679797400466289"><ele>217.20000000000002</ele><time>2026-04-12T10:51:00.998Z</time></trkpt><trkpt lat="43.88002048261211" lon="7.679918359842978"><ele>216.8</ele><time>2026-04-12T10:51:01.998Z</time></trkpt><trkpt lat="43.87995634396144" lon="7.680026193167732"><ele>216.4</ele><time>2026-04-12T10:51:02.998Z</time></trkpt><trkpt lat="43.87989063919999" lon="7.6801684007582125"><ele>216.0</ele><time>2026-04-12T10:51:03.998Z</time></trkpt><trkpt lat="43.87983064682714" lon="7.680337766451387"><ele>221.75</ele><time>2026-04-12T10:51:04.998Z</time></trkpt><trkpt lat="43.879757559417314" lon="7.680492238965901"><ele>227.5</ele><time>2026-04-12T10:51:05.998Z</time></trkpt><trkpt lat="43.87968857742871" lon="7.680634429773631"><ele>233.25</ele><time>2026-04-12T10:51:06.998Z</time></trkpt><trkpt lat="43.87960420453317" lon="7.680753383348176"><ele>239.0</ele><time>2026-04-12T10:51:07.998Z</time></trkpt><trkpt lat="43.879524797785656" lon="7.680879999793978"><ele>239.0</ele><time>2026-04-12T10:51:08.998Z</time></trkpt><trkpt lat="43.87944394032039" lon="7.681006514732198"><ele>238.99999999999997</ele><time>2026-04-12T10:51:09.998Z</time></trkpt><trkpt lat="43.87937294434972" lon="7.681136452624702"><ele>238.99999999999997</ele><time>2026-04-12T10:51:10.998Z</time></trkpt><trkpt lat="43.87930482962577" lon="7.681250213955178"><ele>239.0</ele><time>2026-04-12T10:51:11.998Z</time></trkpt><trkpt lat="43.87922897782052" lon="7.681342552007748"><ele>239.0</ele><time>2026-04-12T10:51:12.998Z</time></trkpt><trkpt lat="43.879177818331335" lon="7.681455879975673"><ele>236.83333333333334</ele><time>2026-04-12T10:51:13.998Z</time></trkpt><trkpt lat="43.87911566220417" lon="7.681546211587688"><ele>234.66666666666669</ele><time>2026-04-12T10:51:14.998Z</time></trkpt><trkpt lat="43.879060745082676" lon="7.681630009310475"><ele>232.5</ele><time>2026-04-12T10:51:15.998Z</time></trkpt><trkpt lat="43.879016951882676" lon="7.68170205315083"><ele>230.33333333333331</ele><time>2026-04-12T10:51:16.998Z</time></trkpt><trkpt lat="43.87898791695628" lon="7.681787586154018"><ele>228.16666666666666</ele><time>2026-04-12T10:51:17.998Z</time></trkpt><trkpt lat="43.87897445694901" lon="7.681888411081082"><ele>226.0</ele><time>2026-04-12T10:51:18.998Z</time></trkpt><trkpt lat="43.87896867732587" lon="7.682002235312509"><ele>226.0</ele><time>2026-04-12T10:51:19.998Z</time></trkpt><trkpt lat="43.87897062166792" lon="7.6821234978960256"><ele>226.00000000000003</ele><time>2026-04-12T10:51:20.998Z</time></trkpt><trkpt lat="43.8789729257835" lon="7.682246824934371"><ele>226.00000000000003</ele><time>2026-04-12T10:51:21.998Z</time></trkpt><trkpt lat="43.87898553553083" lon="7.682368315735761"><ele>226.0</ele><time>2026-04-12T10:51:22.998Z</time></trkpt><trkpt lat="43.87901778178858" lon="7.682491797910548"><ele>226.0</ele><time>2026-04-12T10:51:23.998Z</time></trkpt><trkpt lat="43.87906674140833" lon="7.682615243377483"><ele>226.0</ele><time>2026-04-12T10:51:24.998Z</time></trkpt><trkpt lat="43.879118165102575" lon="7.682742568648205"><ele>226.00000000000003</ele><time>2026-04-12T10:51:26Z</time></trkpt><trkpt lat="43.879159816077795" lon="7.682864667937746"><ele>226.00000000000003</ele><time>2026-04-12T10:51:27Z</time></trkpt><trkpt lat="43.879196127153584" lon="7.6829850699642614"><ele>226.0</ele><time>2026-04-12T10:51:28Z</time></trkpt><trkpt lat="43.87922491980323" lon="7.683102480469703"><ele>226.0</ele><time>2026-04-12T10:51:29Z</time></trkpt><trkpt lat="43.87924936181374" lon="7.683225463501482"><ele>224.60000000000002</ele><time>2026-04-12T10:51:30Z</time></trkpt><trkpt lat="43.879248437459594" lon="7.683364272481715"><ele>223.20000000000002</ele><time>2026-04-12T10:51:31Z</time></trkpt><trkpt lat="43.87927580468896" lon="7.683507301086963"><ele>221.79999999999998</ele><time>2026-04-12T10:51:32Z</time></trkpt><trkpt lat="43.879285352464024" lon="7.683655206354396"><ele>220.39999999999998</ele><time>2026-04-12T10:51:33Z</time></trkpt><trkpt lat="43.87929218677694" lon="7.683806907667024"><ele>219.0</ele><time>2026-04-12T10:51:34Z</time></trkpt><trkpt lat="43.87927507688952" lon="7.6839543388222795"><ele>220.2</ele><time>2026-04-12T10:51:35Z</time></trkpt><trkpt lat="43.879274550516456" lon="7.684085642699117"><ele>221.39999999999998</ele><time>2026-04-12T10:51:36Z</time></trkpt><trkpt lat="43.879289265607014" lon="7.684183771610474"><ele>222.6</ele><time>2026-04-12T10:51:37Z</time></trkpt><trkpt lat="43.879271506259414" lon="7.68433046934554"><ele>223.8</ele><time>2026-04-12T10:51:39Z</time></trkpt><trkpt lat="43.87923617100133" lon="7.684432846939762"><ele>225.0</ele><time>2026-04-12T10:51:41Z</time></trkpt><trkpt lat="43.879146761569835" lon="7.684497189668812"><ele>225.0</ele><time>2026-04-12T10:51:43Z</time></trkpt><trkpt lat="43.87902650488454" lon="7.684565614806709"><ele>225.0</ele><time>2026-04-12T10:51:45Z</time></trkpt><trkpt lat="43.87896359464275" lon="7.68460478771922"><ele>225.0</ele><time>2026-04-12T10:51:46Z</time></trkpt><trkpt lat="43.878853163034044" lon="7.684673551694151"><ele>225.0</ele><time>2026-04-12T10:51:48Z</time></trkpt><trkpt lat="43.878755854004766" lon="7.6847371864535505"><ele>225.0</ele><time>2026-04-12T10:51:50Z</time></trkpt><trkpt lat="43.878692363965804" lon="7.684815760830559"><ele>225.0</ele><time>2026-04-12T10:51:52Z</time></trkpt><trkpt lat="43.878612215050715" lon="7.684783897677488"><ele>225.0</ele><time>2026-04-12T10:51:54Z</time></trkpt><trkpt lat="43.87855272794491" lon="7.6846524073632745"><ele>225.0</ele><time>2026-04-12T10:51:56Z</time></trkpt><trkpt lat="43.87852306699291" lon="7.684564438218989"><ele>225.0</ele><time>2026-04-12T10:51:57Z</time></trkpt><trkpt lat="43.87849229877439" lon="7.684486553794947"><ele>225.0</ele><time>2026-04-12T10:51:58Z</time></trkpt><trkpt lat="43.87846465526778" lon="7.684404729363352"><ele>225.0</ele><time>2026-04-12T10:51:59Z</time></trkpt><trkpt lat="43.87845881342753" lon="7.68425248938827"><ele>224.0</ele><time>2026-04-12T10:52:01Z</time></trkpt><trkpt lat="43.87852912506792" lon="7.684098729488592"><ele>223.0</ele><time>2026-04-12T10:52:02.999Z</time></trkpt><trkpt lat="43.87854873334731" lon="7.683999562776325"><ele>222.0</ele><time>2026-04-12T10:52:03.999Z</time></trkpt><trkpt lat="43.87854441251637" lon="7.683891219268802"><ele>221.0</ele><time>2026-04-12T10:52:04.999Z</time></trkpt><trkpt lat="43.87855968355544" lon="7.683790556501106"><ele>220.0</ele><time>2026-04-12T10:52:05.999Z</time></trkpt><trkpt lat="43.87855394536768" lon="7.683691696022279"><ele>219.0</ele><time>2026-04-12T10:52:06.999Z</time></trkpt><trkpt lat="43.87852725671075" lon="7.683578223187508"><ele>219.0</ele><time>2026-04-12T10:52:07.999Z</time></trkpt><trkpt lat="43.87848642872611" lon="7.683467551134553"><ele>219.0</ele><time>2026-04-12T10:52:08.999Z</time></trkpt><trkpt lat="43.87843060724395" lon="7.683375934976864"><ele>219.0</ele><time>2026-04-12T10:52:09.999Z</time></trkpt><trkpt lat="43.87839841535843" lon="7.683257929274878"><ele>219.0</ele><time>2026-04-12T10:52:10.999Z</time></trkpt><trkpt lat="43.87835338192076" lon="7.683150185129589"><ele>219.0</ele><time>2026-04-12T10:52:11.999Z</time></trkpt><trkpt lat="43.878308781697555" lon="7.6830392945735495"><ele>219.0</ele><time>2026-04-12T10:52:12.999Z</time></trkpt><trkpt lat="43.87825773263026" lon="7.682933874821168"><ele>218.5</ele><time>2026-04-12T10:52:13.999Z</time></trkpt><trkpt lat="43.878206236724374" lon="7.682849336770464"><ele>218.0</ele><time>2026-04-12T10:52:14.999Z</time></trkpt><trkpt lat="43.878164058647215" lon="7.682780141602407"><ele>217.5</ele><time>2026-04-12T10:52:15.999Z</time></trkpt><trkpt lat="43.878072576330354" lon="7.682694143389341"><ele>217.0</ele><time>2026-04-12T10:52:17.999Z</time></trkpt><trkpt lat="43.878009038865535" lon="7.682673040247679"><ele>216.5</ele><time>2026-04-12T10:52:18.999Z</time></trkpt><trkpt lat="43.877945250602" lon="7.682679765451632"><ele>216.0</ele><time>2026-04-12T10:52:19.999Z</time></trkpt><trkpt lat="43.87788080950384" lon="7.682719170847112"><ele>218.33333333333334</ele><time>2026-04-12T10:52:20.999Z</time></trkpt><trkpt lat="43.87781273802783" lon="7.682780847426708"><ele>220.66666666666669</ele><time>2026-04-12T10:52:21.999Z</time></trkpt><trkpt lat="43.87774078269342" lon="7.682845228480517"><ele>223.0</ele><time>2026-04-12T10:52:22.999Z</time></trkpt><trkpt lat="43.87766510526267" lon="7.682899197621201"><ele>225.33333333333334</ele><time>2026-04-12T10:52:23.999Z</time></trkpt><trkpt lat="43.8775894031263" lon="7.682927156403912"><ele>227.66666666666669</ele><time>2026-04-12T10:52:24.999Z</time></trkpt><trkpt lat="43.87751144159219" lon="7.682933813061323"><ele>230.0</ele><time>2026-04-12T10:52:25.999Z</time></trkpt><trkpt lat="43.877438433918904" lon="7.682957003855113"><ele>231.6</ele><time>2026-04-12T10:52:26.999Z</time></trkpt><trkpt lat="43.877331276679755" lon="7.682988443984589"><ele>233.2</ele><time>2026-04-12T10:52:28.999Z</time></trkpt><trkpt lat="43.877242996033424" lon="7.682949899303"><ele>234.8</ele><time>2026-04-12T10:52:30.999Z</time></trkpt><trkpt lat="43.87719162104615" lon="7.682849919681939"><ele>236.4</ele><time>2026-04-12T10:52:32.999Z</time></trkpt><trkpt lat="43.87717276300993" lon="7.682714017850457"><ele>238.0</ele><time>2026-04-12T10:52:34.999Z</time></trkpt><trkpt lat="43.87723723901037" lon="7.6825664295991505"><ele>237.99999999999997</ele><time>2026-04-12T10:52:36.999Z</time></trkpt><trkpt lat="43.87728149416743" lon="7.682482281401602"><ele>238.0</ele><time>2026-04-12T10:52:37.999Z</time></trkpt><trkpt lat="43.877325561403936" lon="7.682377883173908"><ele>238.0</ele><time>2026-04-12T10:52:38.999Z</time></trkpt><trkpt lat="43.87739103077567" lon="7.682286850434206"><ele>238.0</ele><time>2026-04-12T10:52:39.999Z</time></trkpt><trkpt lat="43.87744987149011" lon="7.6821947813474685"><ele>237.99999999999997</ele><time>2026-04-12T10:52:40.999Z</time></trkpt><trkpt lat="43.877491007260986" lon="7.682113524007505"><ele>238.0</ele><time>2026-04-12T10:52:41.999Z</time></trkpt><trkpt lat="43.87752540856739" lon="7.681939266143942"><ele>240.14285714285714</ele><time>2026-04-12T10:52:43.999Z</time></trkpt><trkpt lat="43.87753301879274" lon="7.681830586717836"><ele>242.28571428571428</ele><time>2026-04-12T10:52:44.999Z</time></trkpt><trkpt lat="43.87755253663213" lon="7.681727489483113"><ele>244.42857142857144</ele><time>2026-04-12T10:52:45.999Z</time></trkpt><trkpt lat="43.8775431167903" lon="7.6816306011403155"><ele>246.57142857142858</ele><time>2026-04-12T10:52:46.999Z</time></trkpt><trkpt lat="43.877561503061386" lon="7.681546484342982"><ele>248.71428571428572</ele><time>2026-04-12T10:52:47.999Z</time></trkpt><trkpt lat="43.87755990771284" lon="7.681441476466759"><ele>250.8571428571429</ele><time>2026-04-12T10:52:48.999Z</time></trkpt><trkpt lat="43.87754690445848" lon="7.681336551494104"><ele>253.00000000000003</ele><time>2026-04-12T10:52:49.999Z</time></trkpt><trkpt lat="43.877528852915006" lon="7.681239531215373"><ele>252.99999999999997</ele><time>2026-04-12T10:52:50.999Z</time></trkpt><trkpt lat="43.877512347606704" lon="7.681150633379585"><ele>253.0</ele><time>2026-04-12T10:52:51.998Z</time></trkpt><trkpt lat="43.877493556596875" lon="7.680989187039869"><ele>253.0</ele><time>2026-04-12T10:52:53.998Z</time></trkpt><trkpt lat="43.8775521840403" lon="7.680908888139083"><ele>253.0</ele><time>2026-04-12T10:52:54.998Z</time></trkpt><trkpt lat="43.87757467816141" lon="7.6807924206219065"><ele>252.99999999999997</ele><time>2026-04-12T10:52:55.998Z</time></trkpt><trkpt lat="43.87762023876648" lon="7.680682497682377"><ele>253.0</ele><time>2026-04-12T10:52:56.998Z</time></trkpt><trkpt lat="43.877664660967675" lon="7.680577476433497"><ele>247.83333333333331</ele><time>2026-04-12T10:52:57.998Z</time></trkpt><trkpt lat="43.877728074829946" lon="7.6804944888468905"><ele>242.66666666666666</ele><time>2026-04-12T10:52:58.998Z</time></trkpt><trkpt lat="43.87776143746459" lon="7.680391534473988"><ele>237.5</ele><time>2026-04-12T10:52:59.998Z</time></trkpt><trkpt lat="43.877796453722546" lon="7.680295398700117"><ele>232.33333333333331</ele><time>2026-04-12T10:53:00.998Z</time></trkpt><trkpt lat="43.877825729562794" lon="7.680205233652563"><ele>227.16666666666666</ele><time>2026-04-12T10:53:01.998Z</time></trkpt><trkpt lat="43.87784680375088" lon="7.680121841426614"><ele>222.0</ele><time>2026-04-12T10:53:02.998Z</time></trkpt><trkpt lat="43.87787142649609" lon="7.679984828049032"><ele>222.0</ele><time>2026-04-12T10:53:04.998Z</time></trkpt><trkpt lat="43.877847495452954" lon="7.679831531774762"><ele>222.0</ele><time>2026-04-12T10:53:06.998Z</time></trkpt><trkpt lat="43.877807218795866" lon="7.679757319126703"><ele>222.0</ele><time>2026-04-12T10:53:07.998Z</time></trkpt><trkpt lat="43.87774971127384" lon="7.679688902527473"><ele>222.0</ele><time>2026-04-12T10:53:08.998Z</time></trkpt><trkpt lat="43.87768091666494" lon="7.679635743077212"><ele>222.0</ele><time>2026-04-12T10:53:09.998Z</time></trkpt><trkpt lat="43.87760407748737" lon="7.6795890589309925"><ele>222.0</ele><time>2026-04-12T10:53:10.998Z</time></trkpt><trkpt lat="43.877511597005174" lon="7.6795569292055"><ele>229.0</ele><time>2026-04-12T10:53:11.998Z</time></trkpt><trkpt lat="43.8774150992383" lon="7.679540925061881"><ele>236.0</ele><time>2026-04-12T10:53:12.998Z</time></trkpt><trkpt lat="43.877340374532565" lon="7.679533908220003"><ele>243.0</ele><time>2026-04-12T10:53:13.998Z</time></trkpt><trkpt lat="43.8772776495217" lon="7.679515601170443"><ele>250.0</ele><time>2026-04-12T10:53:14.998Z</time></trkpt><trkpt lat="43.877212269058965" lon="7.679437441704904"><ele>257.0</ele><time>2026-04-12T10:53:16.998Z</time></trkpt><trkpt lat="43.87720018948962" lon="7.67931356222915"><ele>264.0</ele><time>2026-04-12T10:53:18.998Z</time></trkpt><trkpt lat="43.877187870001286" lon="7.679189036388035"><ele>264.0</ele><time>2026-04-12T10:53:20.998Z</time></trkpt><trkpt lat="43.87727530005862" lon="7.67911972578508"><ele>264.0</ele><time>2026-04-12T10:53:22.998Z</time></trkpt><trkpt lat="43.87732419330213" lon="7.679051039905678"><ele>264.0</ele><time>2026-04-12T10:53:23.998Z</time></trkpt><trkpt lat="43.87737928103216" lon="7.678994266288774"><ele>264.0</ele><time>2026-04-12T10:53:24.998Z</time></trkpt><trkpt lat="43.87743432673982" lon="7.678935616395741"><ele>264.0</ele><time>2026-04-12T10:53:25.998Z</time></trkpt><trkpt lat="43.87748381333972" lon="7.678872888335697"><ele>264.0</ele><time>2026-04-12T10:53:26.998Z</time></trkpt><trkpt lat="43.87754383731512" lon="7.678841902353978"><ele>264.0</ele><time>2026-04-12T10:53:27.998Z</time></trkpt><trkpt lat="43.87759373108226" lon="7.6787880848003995"><ele>262.42857142857144</ele><time>2026-04-12T10:53:28.998Z</time></trkpt><trkpt lat="43.87766436286937" lon="7.678754762275632"><ele>260.8571428571429</ele><time>2026-04-12T10:53:29.998Z</time></trkpt><trkpt lat="43.877738675041925" lon="7.678710030858739"><ele>259.28571428571433</ele><time>2026-04-12T10:53:31Z</time></trkpt><trkpt lat="43.87781114674851" lon="7.6786648709421215"><ele>257.7142857142857</ele><time>2026-04-12T10:53:32Z</time></trkpt><trkpt lat="43.87787925536644" lon="7.678619649601427"><ele>256.14285714285717</ele><time>2026-04-12T10:53:33Z</time></trkpt><trkpt lat="43.877939604640126" lon="7.678573930215641"><ele>254.5714285714286</ele><time>2026-04-12T10:53:34Z</time></trkpt><trkpt lat="43.87799202354594" lon="7.678521941383205"><ele>253.00000000000003</ele><time>2026-04-12T10:53:35Z</time></trkpt><trkpt lat="43.8780378477568" lon="7.6784606401260485"><ele>253.00000000000003</ele><time>2026-04-12T10:53:36Z</time></trkpt><trkpt lat="43.87809208390932" lon="7.678411639294522"><ele>253.0</ele><time>2026-04-12T10:53:37Z</time></trkpt><trkpt lat="43.878127005850615" lon="7.678326333713104"><ele>253.00000000000003</ele><time>2026-04-12T10:53:38Z</time></trkpt><trkpt lat="43.878151813740935" lon="7.678232947833857"><ele>253.00000000000003</ele><time>2026-04-12T10:53:39Z</time></trkpt><trkpt lat="43.878173151147294" lon="7.678133734939956"><ele>253.0</ele><time>2026-04-12T10:53:40Z</time></trkpt><trkpt lat="43.87817822653076" lon="7.6780309928957475"><ele>253.00000000000003</ele><time>2026-04-12T10:53:41Z</time></trkpt><trkpt lat="43.878201132122825" lon="7.677938985391537"><ele>253.00000000000003</ele><time>2026-04-12T10:53:42Z</time></trkpt><trkpt lat="43.87821792511322" lon="7.677846926703499"><ele>255.16666666666666</ele><time>2026-04-12T10:53:43Z</time></trkpt><trkpt lat="43.8782442944584" lon="7.677760320930902"><ele>257.3333333333333</ele><time>2026-04-12T10:53:44Z</time></trkpt><trkpt lat="43.87823037423882" lon="7.677649749617843"><ele>259.5</ele><time>2026-04-12T10:53:45Z</time></trkpt><trkpt lat="43.87820586091688" lon="7.677537404301809"><ele>261.6666666666667</ele><time>2026-04-12T10:53:46Z</time></trkpt><trkpt lat="43.87818410612561" lon="7.677422101321026"><ele>263.83333333333337</ele><time>2026-04-12T10:53:47Z</time></trkpt><trkpt lat="43.87816742390396" lon="7.6773129997002245"><ele>266.0</ele><time>2026-04-12T10:53:48Z</time></trkpt><trkpt lat="43.878154407803635" lon="7.677184146090729"><ele>266.0</ele><time>2026-04-12T10:53:49Z</time></trkpt><trkpt lat="43.87812441543849" lon="7.677052800125854"><ele>266.0</ele><time>2026-04-12T10:53:50Z</time></trkpt><trkpt lat="43.878077296645316" lon="7.676947867440955"><ele>266.0</ele><time>2026-04-12T10:53:51Z</time></trkpt><trkpt lat="43.87804059636461" lon="7.676855979415246"><ele>266.0</ele><time>2026-04-12T10:53:52Z</time></trkpt><trkpt lat="43.87801444106509" lon="7.676764908410362"><ele>266.0</ele><time>2026-04-12T10:53:53Z</time></trkpt><trkpt lat="43.87799188835639" lon="7.67667183755731"><ele>266.0</ele><time>2026-04-12T10:53:54Z</time></trkpt><trkpt lat="43.877972439849216" lon="7.676587047151542"><ele>267.1666666666667</ele><time>2026-04-12T10:53:55Z</time></trkpt><trkpt lat="43.87795463110954" lon="7.676481796152839"><ele>268.33333333333337</ele><time>2026-04-12T10:53:57Z</time></trkpt><trkpt lat="43.87796496753497" lon="7.676357443764688"><ele>269.5</ele><time>2026-04-12T10:54:00Z</time></trkpt><trkpt lat="43.87802408634739" lon="7.67627763090232"><ele>270.6666666666667</ele><time>2026-04-12T10:54:02Z</time></trkpt><trkpt lat="43.87810846749002" lon="7.6761518302833185"><ele>271.8333333333333</ele><time>2026-04-12T10:54:04Z</time></trkpt><trkpt lat="43.8781496479429" lon="7.676067152142558"><ele>273.0</ele><time>2026-04-12T10:54:05Z</time></trkpt><trkpt lat="43.87816876580692" lon="7.675972754510326"><ele>273.42857142857144</ele><time>2026-04-12T10:54:06Z</time></trkpt><trkpt lat="43.878179845393994" lon="7.675869216864167"><ele>273.8571428571429</ele><time>2026-04-12T10:54:07Z</time></trkpt><trkpt lat="43.87818037787127" lon="7.6757671813105945"><ele>274.2857142857143</ele><time>2026-04-12T10:54:07.999Z</time></trkpt><trkpt lat="43.87818754109276" lon="7.675669950159542"><ele>274.7142857142857</ele><time>2026-04-12T10:54:08.999Z</time></trkpt><trkpt lat="43.87818892623148" lon="7.675576930236939"><ele>275.14285714285717</ele><time>2026-04-12T10:54:09.999Z</time></trkpt><trkpt lat="43.87818770537409" lon="7.675479750210006"><ele>275.57142857142856</ele><time>2026-04-12T10:54:10.999Z</time></trkpt><trkpt lat="43.87818278772845" lon="7.675388591165377"><ele>276.0</ele><time>2026-04-12T10:54:11.999Z</time></trkpt><trkpt lat="43.878158656986265" lon="7.675234521519111"><ele>276.0</ele><time>2026-04-12T10:54:13.999Z</time></trkpt><trkpt lat="43.878075750843095" lon="7.675108338738661"><ele>276.0</ele><time>2026-04-12T10:54:15.999Z</time></trkpt><trkpt lat="43.878001534679505" lon="7.675095953539217"><ele>276.0</ele><time>2026-04-12T10:54:16.999Z</time></trkpt><trkpt lat="43.877933541894066" lon="7.67509686742636"><ele>276.0</ele><time>2026-04-12T10:54:17.999Z</time></trkpt><trkpt lat="43.87782772810451" lon="7.675080452114777"><ele>276.0</ele><time>2026-04-12T10:54:19.999Z</time></trkpt><trkpt lat="43.87780062677722" lon="7.674975342860662"><ele>276.0</ele><time>2026-04-12T10:54:21.999Z</time></trkpt><trkpt lat="43.87775706974754" lon="7.67482105150274"><ele>276.0</ele><time>2026-04-12T10:54:23.999Z</time></trkpt><trkpt lat="43.87775712890157" lon="7.674713650091456"><ele>276.0</ele><time>2026-04-12T10:54:24.999Z</time></trkpt><trkpt lat="43.877743196035375" lon="7.674608248846015"><ele>276.0</ele><time>2026-04-12T10:54:25.999Z</time></trkpt><trkpt lat="43.87771890284398" lon="7.674503078873912"><ele>276.0</ele><time>2026-04-12T10:54:26.999Z</time></trkpt><trkpt lat="43.87768062869599" lon="7.674392047801003"><ele>276.0</ele><time>2026-04-12T10:54:27.999Z</time></trkpt><trkpt lat="43.87765242935795" lon="7.6742782544428545"><ele>273.2</ele><time>2026-04-12T10:54:28.999Z</time></trkpt><trkpt lat="43.87761321488794" lon="7.674157419113318"><ele>270.40000000000003</ele><time>2026-04-12T10:54:29.999Z</time></trkpt><trkpt lat="43.87756543219815" lon="7.674041812928419"><ele>267.6</ele><time>2026-04-12T10:54:30.999Z</time></trkpt><trkpt lat="43.877511747623494" lon="7.67393081158882"><ele>264.8</ele><time>2026-04-12T10:54:31.999Z</time></trkpt><trkpt lat="43.8774531542515" lon="7.67382721345054"><ele>262.0</ele><time>2026-04-12T10:54:32.999Z</time></trkpt><trkpt lat="43.87738627440238" lon="7.673755092336499"><ele>267.66666666666663</ele><time>2026-04-12T10:54:33.999Z</time></trkpt><trkpt lat="43.877337332698005" lon="7.673683766726291"><ele>273.3333333333333</ele><time>2026-04-12T10:54:34.999Z</time></trkpt><trkpt lat="43.877281649359354" lon="7.673624289539058"><ele>279.0</ele><time>2026-04-12T10:54:35.999Z</time></trkpt><trkpt lat="43.87722843853148" lon="7.673561986776623"><ele>284.6666666666667</ele><time>2026-04-12T10:54:36.999Z</time></trkpt><trkpt lat="43.87715432861468" lon="7.673529634316919"><ele>290.33333333333337</ele><time>2026-04-12T10:54:37.999Z</time></trkpt><trkpt lat="43.87706830071096" lon="7.673545382654247"><ele>296.0</ele><time>2026-04-12T10:54:38.999Z</time></trkpt><trkpt lat="43.87697693307775" lon="7.673536097122668"><ele>296.0</ele><time>2026-04-12T10:54:39.999Z</time></trkpt><trkpt lat="43.87687501837662" lon="7.6735216122360494"><ele>296.0</ele><time>2026-04-12T10:54:40.999Z</time></trkpt><trkpt lat="43.876766460920486" lon="7.673481850963195"><ele>296.0</ele><time>2026-04-12T10:54:41.999Z</time></trkpt><trkpt lat="43.876659156473316" lon="7.673474024798902"><ele>296.0</ele><time>2026-04-12T10:54:42.999Z</time></trkpt><trkpt lat="43.8765718873618" lon="7.673463623350316"><ele>296.0</ele><time>2026-04-12T10:54:43.999Z</time></trkpt><trkpt lat="43.87649994643495" lon="7.6734264652071085"><ele>300.0</ele><time>2026-04-12T10:54:44.999Z</time></trkpt><trkpt lat="43.87643731180371" lon="7.673400633581179"><ele>304.0</ele><time>2026-04-12T10:54:45.999Z</time></trkpt><trkpt lat="43.876374250593166" lon="7.673360276940034"><ele>308.0</ele><time>2026-04-12T10:54:46.999Z</time></trkpt><trkpt lat="43.87630333477485" lon="7.673290058599595"><ele>312.0</ele><time>2026-04-12T10:54:47.999Z</time></trkpt><trkpt lat="43.876216510887936" lon="7.673209220894149"><ele>316.0</ele><time>2026-04-12T10:54:48.999Z</time></trkpt><trkpt lat="43.8761268922055" lon="7.673123606752266"><ele>320.0</ele><time>2026-04-12T10:54:49.999Z</time></trkpt><trkpt lat="43.87605881749432" lon="7.67305005480313"><ele>320.0</ele><time>2026-04-12T10:54:50.999Z</time></trkpt><trkpt lat="43.876007464680264" lon="7.672986856621173"><ele>320.0</ele><time>2026-04-12T10:54:51.999Z</time></trkpt><trkpt lat="43.87596292177396" lon="7.672922126670058"><ele>320.0</ele><time>2026-04-12T10:54:52.999Z</time></trkpt><trkpt lat="43.875921113209934" lon="7.67285452785801"><ele>320.0</ele><time>2026-04-12T10:54:53.998Z</time></trkpt><trkpt lat="43.87584334406982" lon="7.672721969990687"><ele>320.0</ele><time>2026-04-12T10:54:55.998Z</time></trkpt><trkpt lat="43.875799944735164" lon="7.6726509548918305"><ele>320.0</ele><time>2026-04-12T10:54:56.998Z</time></trkpt><trkpt lat="43.875742752173686" lon="7.672564732721423"><ele>321.5</ele><time>2026-04-12T10:54:57.998Z</time></trkpt><trkpt lat="43.87568864610836" lon="7.672486714008248"><ele>323.0</ele><time>2026-04-12T10:54:58.998Z</time></trkpt><trkpt lat="43.875628524747505" lon="7.67239956932889"><ele>324.5</ele><time>2026-04-12T10:54:59.998Z</time></trkpt><trkpt lat="43.875569390440745" lon="7.672307885294805"><ele>326.0</ele><time>2026-04-12T10:55:00.998Z</time></trkpt><trkpt lat="43.87551601355804" lon="7.672220730921241"><ele>327.5</ele><time>2026-04-12T10:55:01.998Z</time></trkpt><trkpt lat="43.87547131663252" lon="7.672134221324511"><ele>329.0</ele><time>2026-04-12T10:55:02.998Z</time></trkpt><trkpt lat="43.87543410298845" lon="7.672049918587715"><ele>329.0</ele><time>2026-04-12T10:55:03.998Z</time></trkpt><trkpt lat="43.87539669182908" lon="7.671964034310428"><ele>329.0</ele><time>2026-04-12T10:55:04.998Z</time></trkpt><trkpt lat="43.87535883609528" lon="7.671875298978872"><ele>329.0</ele><time>2026-04-12T10:55:05.998Z</time></trkpt><trkpt lat="43.875321240205636" lon="7.671787172426124"><ele>329.0</ele><time>2026-04-12T10:55:06.998Z</time></trkpt><trkpt lat="43.87526487466302" lon="7.671682122950598"><ele>329.0</ele><time>2026-04-12T10:55:07.998Z</time></trkpt><trkpt lat="43.87520858229391" lon="7.67155636498018"><ele>329.0</ele><time>2026-04-12T10:55:08.998Z</time></trkpt><trkpt lat="43.875150156608846" lon="7.67142643156615"><ele>329.79999999999995</ele><time>2026-04-12T10:55:09.998Z</time></trkpt><trkpt lat="43.87510078435007" lon="7.6712908204336046"><ele>330.59999999999997</ele><time>2026-04-12T10:55:10.998Z</time></trkpt><trkpt lat="43.87504623944046" lon="7.671161606421674"><ele>331.4</ele><time>2026-04-12T10:55:11.998Z</time></trkpt><trkpt lat="43.87499569079818" lon="7.671047167983213"><ele>332.2</ele><time>2026-04-12T10:55:12.998Z</time></trkpt><trkpt lat="43.87495745051571" lon="7.6709547009998715"><ele>333.0</ele><time>2026-04-12T10:55:13.998Z</time></trkpt><trkpt lat="43.87488629859011" lon="7.670813006973759"><ele>333.0</ele><time>2026-04-12T10:55:15.998Z</time></trkpt><trkpt lat="43.874769191308836" lon="7.670762529319614"><ele>333.0</ele><time>2026-04-12T10:55:17.998Z</time></trkpt><trkpt lat="43.87469559896941" lon="7.6707927234119175"><ele>333.0</ele><time>2026-04-12T10:55:18.998Z</time></trkpt><trkpt lat="43.87462810487436" lon="7.670836985652022"><ele>333.0</ele><time>2026-04-12T10:55:19.998Z</time></trkpt><trkpt lat="43.874557045605236" lon="7.670913538035109"><ele>333.0</ele><time>2026-04-12T10:55:20.998Z</time></trkpt><trkpt lat="43.87446687382177" lon="7.670975862536474"><ele>333.0</ele><time>2026-04-12T10:55:21.998Z</time></trkpt><trkpt lat="43.874395730069566" lon="7.6710482925309"><ele>333.0</ele><time>2026-04-12T10:55:22.998Z</time></trkpt><trkpt lat="43.874324403872755" lon="7.671125821260377"><ele>333.0</ele><time>2026-04-12T10:55:23.998Z</time></trkpt><trkpt lat="43.87426336053538" lon="7.671221662975681"><ele>333.0</ele><time>2026-04-12T10:55:24.998Z</time></trkpt><trkpt lat="43.87419577310442" lon="7.671296246529353"><ele>333.0</ele><time>2026-04-12T10:55:25.998Z</time></trkpt><trkpt lat="43.87412749407037" lon="7.671388311127575"><ele>339.0</ele><time>2026-04-12T10:55:26.998Z</time></trkpt><trkpt lat="43.87405068391825" lon="7.671480159888431"><ele>345.0</ele><time>2026-04-12T10:55:27.998Z</time></trkpt><trkpt lat="43.87398666140959" lon="7.671576058938114"><ele>351.0</ele><time>2026-04-12T10:55:28.998Z</time></trkpt><trkpt lat="43.87393499581464" lon="7.671674355583623"><ele>357.0</ele><time>2026-04-12T10:55:29.998Z</time></trkpt><trkpt lat="43.87387558763245" lon="7.67176114706564"><ele>363.0</ele><time>2026-04-12T10:55:30.998Z</time></trkpt><trkpt lat="43.87381974831285" lon="7.6718610885190754"><ele>368.1666666666667</ele><time>2026-04-12T10:55:31.998Z</time></trkpt><trkpt lat="43.87376976668593" lon="7.6719661793508145"><ele>373.33333333333337</ele><time>2026-04-12T10:55:32.998Z</time></trkpt><trkpt lat="43.87372988880908" lon="7.672077701196457"><ele>378.5</ele><time>2026-04-12T10:55:33.998Z</time></trkpt><trkpt lat="43.87366721049507" lon="7.672165339572041"><ele>383.6666666666667</ele><time>2026-04-12T10:55:34.998Z</time></trkpt><trkpt lat="43.87361999335011" lon="7.67226121017815"><ele>388.83333333333337</ele><time>2026-04-12T10:55:36Z</time></trkpt><trkpt lat="43.87357080149325" lon="7.672356553068294"><ele>394.0</ele><time>2026-04-12T10:55:37Z</time></trkpt><trkpt lat="43.873522247625175" lon="7.672472294101859"><ele>394.0</ele><time>2026-04-12T10:55:38Z</time></trkpt><trkpt lat="43.873446787133304" lon="7.672569696533531"><ele>394.0</ele><time>2026-04-12T10:55:39Z</time></trkpt><trkpt lat="43.873373881231544" lon="7.6726601954072615"><ele>394.0</ele><time>2026-04-12T10:55:40Z</time></trkpt><trkpt lat="43.873302827243776" lon="7.672740820257016"><ele>394.0</ele><time>2026-04-12T10:55:41Z</time></trkpt><trkpt lat="43.87323405574579" lon="7.672814297898166"><ele>394.0</ele><time>2026-04-12T10:55:42Z</time></trkpt><trkpt lat="43.87316760966819" lon="7.672880009162929"><ele>395.83333333333337</ele><time>2026-04-12T10:55:43Z</time></trkpt><trkpt lat="43.87309210005082" lon="7.672910910717082"><ele>397.6666666666667</ele><time>2026-04-12T10:55:44Z</time></trkpt><trkpt lat="43.87301520638178" lon="7.672931631569599"><ele>399.5</ele><time>2026-04-12T10:55:45Z</time></trkpt><trkpt lat="43.872924059282404" lon="7.672953575933073"><ele>401.33333333333337</ele><time>2026-04-12T10:55:46Z</time></trkpt><trkpt lat="43.87282735368948" lon="7.672979500233937"><ele>403.1666666666667</ele><time>2026-04-12T10:55:47Z</time></trkpt><trkpt lat="43.872745617775735" lon="7.6730224620985"><ele>405.0</ele><time>2026-04-12T10:55:48Z</time></trkpt><trkpt lat="43.8726691606183" lon="7.6730413217591"><ele>401.4</ele><time>2026-04-12T10:55:49Z</time></trkpt><trkpt lat="43.87259946160065" lon="7.673059860415927"><ele>397.8</ele><time>2026-04-12T10:55:50Z</time></trkpt><trkpt lat="43.8725019950279" lon="7.673125446069822"><ele>394.20000000000005</ele><time>2026-04-12T10:55:52Z</time></trkpt><trkpt lat="43.87245693777407" lon="7.673207688829383"><ele>390.6</ele><time>2026-04-12T10:55:53Z</time></trkpt><trkpt lat="43.87241177294438" lon="7.673320290570399"><ele>387.0</ele><time>2026-04-12T10:55:54Z</time></trkpt><trkpt lat="43.872352972611615" lon="7.673438905649545"><ele>387.0</ele><time>2026-04-12T10:55:55Z</time></trkpt><trkpt lat="43.87229012750414" lon="7.67350824355106"><ele>387.0</ele><time>2026-04-12T10:55:56Z</time></trkpt><trkpt lat="43.87223409078615" lon="7.6735703248770415"><ele>387.0</ele><time>2026-04-12T10:55:57Z</time></trkpt><trkpt lat="43.872172869332225" lon="7.673641165548152"><ele>387.0</ele><time>2026-04-12T10:55:58Z</time></trkpt><trkpt lat="43.87207399697282" lon="7.673680308832626"><ele>387.0</ele><time>2026-04-12T10:55:59Z</time></trkpt><trkpt lat="43.8719648008742" lon="7.673730867954988"><ele>391.6</ele><time>2026-04-12T10:56:00Z</time></trkpt><trkpt lat="43.87185328306602" lon="7.673803086373431"><ele>396.20000000000005</ele><time>2026-04-12T10:56:01Z</time></trkpt><trkpt lat="43.871748682132136" lon="7.673868769897911"><ele>400.8</ele><time>2026-04-12T10:56:02Z</time></trkpt><trkpt lat="43.87166106937163" lon="7.6739326873903835"><ele>405.4</ele><time>2026-04-12T10:56:03Z</time></trkpt><trkpt lat="43.87157747812304" lon="7.67399312953065"><ele>410.0</ele><time>2026-04-12T10:56:04Z</time></trkpt><trkpt lat="43.871505140581505" lon="7.674052862761854"><ele>409.99999999999994</ele><time>2026-04-12T10:56:05Z</time></trkpt><trkpt lat="43.87142703305475" lon="7.674072178448428"><ele>410.0</ele><time>2026-04-12T10:56:06Z</time></trkpt><trkpt lat="43.87135814645279" lon="7.6741148513263795"><ele>410.0</ele><time>2026-04-12T10:56:07Z</time></trkpt><trkpt lat="43.871272509325614" lon="7.67410702600531"><ele>410.0</ele><time>2026-04-12T10:56:08Z</time></trkpt><trkpt lat="43.87118158741337" lon="7.674086851055803"><ele>409.99999999999994</ele><time>2026-04-12T10:56:09Z</time></trkpt><trkpt lat="43.871091321098206" lon="7.674078957252305"><ele>410.0</ele><time>2026-04-12T10:56:09.999Z</time></trkpt><trkpt lat="43.870999626080476" lon="7.674068368326529"><ele>409.66666666666663</ele><time>2026-04-12T10:56:10.999Z</time></trkpt><trkpt lat="43.87091800363614" lon="7.674070203580309"><ele>409.3333333333333</ele><time>2026-04-12T10:56:11.999Z</time></trkpt><trkpt lat="43.87082703058975" lon="7.674082931472744"><ele>409.0</ele><time>2026-04-12T10:56:12.999Z</time></trkpt><trkpt lat="43.870741255731474" lon="7.674098901282414"><ele>408.66666666666663</ele><time>2026-04-12T10:56:13.999Z</time></trkpt><trkpt lat="43.870664074140585" lon="7.674137377575121"><ele>408.3333333333333</ele><time>2026-04-12T10:56:14.999Z</time></trkpt><trkpt lat="43.870592768518186" lon="7.674205989854604"><ele>408.0</ele><time>2026-04-12T10:56:15.999Z</time></trkpt><trkpt lat="43.870526521354726" lon="7.674307568930516"><ele>408.0</ele><time>2026-04-12T10:56:16.999Z</time></trkpt><trkpt lat="43.870459191568955" lon="7.674423884101747"><ele>408.0</ele><time>2026-04-12T10:56:17.999Z</time></trkpt><trkpt lat="43.87039519832202" lon="7.674527440872827"><ele>408.0</ele><time>2026-04-12T10:56:18.999Z</time></trkpt><trkpt lat="43.87034310107315" lon="7.6746055537735485"><ele>408.0</ele><time>2026-04-12T10:56:19.999Z</time></trkpt><trkpt lat="43.87026424670539" lon="7.674661800963382"><ele>408.0</ele><time>2026-04-12T10:56:21.999Z</time></trkpt><trkpt lat="43.87018956540219" lon="7.674634234097482"><ele>408.0</ele><time>2026-04-12T10:56:23.999Z</time></trkpt><trkpt lat="43.87016133331291" lon="7.674510506489335"><ele>408.0</ele><time>2026-04-12T10:56:25.999Z</time></trkpt><trkpt lat="43.87014566221596" lon="7.674322690779471"><ele>408.0</ele><time>2026-04-12T10:56:27.999Z</time></trkpt><trkpt lat="43.87013364961099" lon="7.674167722831033"><ele>408.0</ele><time>2026-04-12T10:56:29.999Z</time></trkpt><trkpt lat="43.87012708998114" lon="7.674021896716774"><ele>408.0</ele><time>2026-04-12T10:56:31.999Z</time></trkpt><trkpt lat="43.87009469829769" lon="7.673877080615768"><ele>410.0</ele><time>2026-04-12T10:56:33.999Z</time></trkpt><trkpt lat="43.87008097833936" lon="7.673783992183312"><ele>412.0</ele><time>2026-04-12T10:56:34.999Z</time></trkpt><trkpt lat="43.87004068009928" lon="7.6737081005020515"><ele>414.0</ele><time>2026-04-12T10:56:35.999Z</time></trkpt><trkpt lat="43.869936616543995" lon="7.673611857970277"><ele>416.0</ele><time>2026-04-12T10:56:37.999Z</time></trkpt><trkpt lat="43.86989407862116" lon="7.673544534321106"><ele>418.0</ele><time>2026-04-12T10:56:38.999Z</time></trkpt><trkpt lat="43.86983449782188" lon="7.673492222046149"><ele>420.0</ele><time>2026-04-12T10:56:39.999Z</time></trkpt><trkpt lat="43.86976931453536" lon="7.673438224028926"><ele>420.0</ele><time>2026-04-12T10:56:40.999Z</time></trkpt><trkpt lat="43.86971141706144" lon="7.673384652544912"><ele>420.0</ele><time>2026-04-12T10:56:41.999Z</time></trkpt><trkpt lat="43.86961359958047" lon="7.673298312537586"><ele>420.0</ele><time>2026-04-12T10:56:43.999Z</time></trkpt><trkpt lat="43.86958310180311" lon="7.673208520694442"><ele>420.0</ele><time>2026-04-12T10:56:44.999Z</time></trkpt><trkpt lat="43.86957128384532" lon="7.673100850764402"><ele>420.0</ele><time>2026-04-12T10:56:45.999Z</time></trkpt><trkpt lat="43.86955335370865" lon="7.673005380708917"><ele>420.0</ele><time>2026-04-12T10:56:46.999Z</time></trkpt><trkpt lat="43.86956552636497" lon="7.672875126812917"><ele>420.0</ele><time>2026-04-12T10:56:48.999Z</time></trkpt><trkpt lat="43.86968174819453" lon="7.672803178695129"><ele>420.0</ele><time>2026-04-12T10:56:50.999Z</time></trkpt><trkpt lat="43.869764552455564" lon="7.672787899474269"><ele>420.0</ele><time>2026-04-12T10:56:51.999Z</time></trkpt><trkpt lat="43.86983755855278" lon="7.672775279085028"><ele>420.0</ele><time>2026-04-12T10:56:52.999Z</time></trkpt><trkpt lat="43.869925807438314" lon="7.672765555199635"><ele>420.0</ele><time>2026-04-12T10:56:53.998Z</time></trkpt><trkpt lat="43.87001073714254" lon="7.672752872822749"><ele>418.3333333333333</ele><time>2026-04-12T10:56:54.998Z</time></trkpt><trkpt lat="43.87008822557363" lon="7.672740479914638"><ele>416.66666666666663</ele><time>2026-04-12T10:56:55.998Z</time></trkpt><trkpt lat="43.87015081204755" lon="7.672727927679904"><ele>415.0</ele><time>2026-04-12T10:56:56.998Z</time></trkpt><trkpt lat="43.87025246850323" lon="7.672659669685279"><ele>413.3333333333333</ele><time>2026-04-12T10:56:58.998Z</time></trkpt><trkpt lat="43.87033793680053" lon="7.672539386297968"><ele>411.66666666666663</ele><time>2026-04-12T10:57:00.998Z</time></trkpt><trkpt lat="43.87035837314864" lon="7.6724477569153375"><ele>410.0</ele><time>2026-04-12T10:57:01.998Z</time></trkpt><trkpt lat="43.87036074906793" lon="7.672343861319487"><ele>409.99999999999994</ele><time>2026-04-12T10:57:02.998Z</time></trkpt><trkpt lat="43.87034615741857" lon="7.672236790324298"><ele>410.0</ele><time>2026-04-12T10:57:03.998Z</time></trkpt><trkpt lat="43.87031506427583" lon="7.672134166588667"><ele>410.0</ele><time>2026-04-12T10:57:04.998Z</time></trkpt><trkpt lat="43.87026671098264" lon="7.672022008060994"><ele>410.0</ele><time>2026-04-12T10:57:05.998Z</time></trkpt><trkpt lat="43.8702349481859" lon="7.67190638279917"><ele>409.99999999999994</ele><time>2026-04-12T10:57:06.998Z</time></trkpt><trkpt lat="43.870203583408454" lon="7.6717966506103705"><ele>410.0</ele><time>2026-04-12T10:57:07.998Z</time></trkpt><trkpt lat="43.870164101509644" lon="7.671692127999842"><ele>410.8333333333333</ele><time>2026-04-12T10:57:08.998Z</time></trkpt><trkpt lat="43.870137726948904" lon="7.671578762217533"><ele>411.66666666666663</ele><time>2026-04-12T10:57:09.998Z</time></trkpt><trkpt lat="43.870096278172035" lon="7.671482654828606"><ele>412.5</ele><time>2026-04-12T10:57:10.998Z</time></trkpt><trkpt lat="43.87003763474281" lon="7.671414124734332"><ele>413.33333333333337</ele><time>2026-04-12T10:57:11.998Z</time></trkpt><trkpt lat="43.86998730250322" lon="7.671345234931047"><ele>414.1666666666667</ele><time>2026-04-12T10:57:12.998Z</time></trkpt><trkpt lat="43.869920696253814" lon="7.671293007923404"><ele>415.0</ele><time>2026-04-12T10:57:13.998Z</time></trkpt><trkpt lat="43.86985018962063" lon="7.671219831975915"><ele>419.00000000000006</ele><time>2026-04-12T10:57:14.998Z</time></trkpt><trkpt lat="43.869767179297796" lon="7.671164161727599"><ele>423.0</ele><time>2026-04-12T10:57:15.998Z</time></trkpt><trkpt lat="43.869692051485806" lon="7.671119707096615"><ele>427.0</ele><time>2026-04-12T10:57:16.998Z</time></trkpt><trkpt lat="43.86962802626931" lon="7.671071144940854"><ele>431.0</ele><time>2026-04-12T10:57:17.998Z</time></trkpt><trkpt lat="43.86957290664963" lon="7.671003209619868"><ele>435.00000000000006</ele><time>2026-04-12T10:57:18.998Z</time></trkpt><trkpt lat="43.869524243005" lon="7.670931988544647"><ele>439.0</ele><time>2026-04-12T10:57:19.998Z</time></trkpt><trkpt lat="43.86950674588804" lon="7.67084729216783"><ele>439.0</ele><time>2026-04-12T10:57:20.998Z</time></trkpt><trkpt lat="43.86951241002661" lon="7.670758993283965"><ele>439.0</ele><time>2026-04-12T10:57:21.998Z</time></trkpt><trkpt lat="43.86954172314747" lon="7.670653926202081"><ele>439.0</ele><time>2026-04-12T10:57:22.998Z</time></trkpt><trkpt lat="43.86957859170885" lon="7.670549797950805"><ele>439.0</ele><time>2026-04-12T10:57:23.998Z</time></trkpt><trkpt lat="43.869613317359274" lon="7.670455817973675"><ele>439.0</ele><time>2026-04-12T10:57:24.998Z</time></trkpt><trkpt lat="43.869642371019445" lon="7.67036276818065"><ele>439.0</ele><time>2026-04-12T10:57:25.998Z</time></trkpt><trkpt lat="43.869661945828916" lon="7.670272552063628"><ele>439.0</ele><time>2026-04-12T10:57:26.998Z</time></trkpt><trkpt lat="43.86967336138489" lon="7.67011331926092"><ele>438.83333333333337</ele><time>2026-04-12T10:57:28.998Z</time></trkpt><trkpt lat="43.86961971946394" lon="7.670047580830857"><ele>438.6666666666667</ele><time>2026-04-12T10:57:29.998Z</time></trkpt><trkpt lat="43.869566881986714" lon="7.669967983575553"><ele>438.5</ele><time>2026-04-12T10:57:30.998Z</time></trkpt><trkpt lat="43.86949854813541" lon="7.669901621409029"><ele>438.33333333333337</ele><time>2026-04-12T10:57:31.998Z</time></trkpt><trkpt lat="43.869440845049745" lon="7.669840232585885"><ele>438.1666666666667</ele><time>2026-04-12T10:57:32.998Z</time></trkpt><trkpt lat="43.86939468995245" lon="7.669721157099671"><ele>438.0</ele><time>2026-04-12T10:57:34.998Z</time></trkpt><trkpt lat="43.869431020762356" lon="7.669599671079936"><ele>438.0</ele><time>2026-04-12T10:57:36.998Z</time></trkpt><trkpt lat="43.86946426749293" lon="7.669503192111455"><ele>437.99999999999994</ele><time>2026-04-12T10:57:37.998Z</time></trkpt><trkpt lat="43.86953003193529" lon="7.669416695516084"><ele>437.99999999999994</ele><time>2026-04-12T10:57:38.998Z</time></trkpt><trkpt lat="43.8695981305609" lon="7.669301424434846"><ele>438.0</ele><time>2026-04-12T10:57:39.997Z</time></trkpt><trkpt lat="43.86965814678397" lon="7.669178153858397"><ele>438.0</ele><time>2026-04-12T10:57:40.997Z</time></trkpt><trkpt lat="43.86972651311861" lon="7.66905497871963"><ele>439.1666666666667</ele><time>2026-04-12T10:57:42Z</time></trkpt><trkpt lat="43.869796346600964" lon="7.668942896503343"><ele>440.33333333333337</ele><time>2026-04-12T10:57:43Z</time></trkpt><trkpt lat="43.869857792144934" lon="7.668839994456538"><ele>441.5</ele><time>2026-04-12T10:57:44Z</time></trkpt><trkpt lat="43.86991191672558" lon="7.668751184442485"><ele>442.6666666666667</ele><time>2026-04-12T10:57:45Z</time></trkpt><trkpt lat="43.8699546078449" lon="7.66866441404342"><ele>443.83333333333337</ele><time>2026-04-12T10:57:46Z</time></trkpt><trkpt lat="43.86998749194184" lon="7.668559971359653"><ele>445.0</ele><time>2026-04-12T10:57:47Z</time></trkpt><trkpt lat="43.87001649629963" lon="7.668439161703536"><ele>449.1666666666667</ele><time>2026-04-12T10:57:48Z</time></trkpt><trkpt lat="43.87004607838686" lon="7.668328722631635"><ele>453.33333333333337</ele><time>2026-04-12T10:57:49.001Z</time></trkpt><trkpt lat="43.870070627995084" lon="7.668223972794966"><ele>457.5</ele><time>2026-04-12T10:57:50.001Z</time></trkpt><trkpt lat="43.870085725339905" lon="7.668117263543504"><ele>461.66666666666663</ele><time>2026-04-12T10:57:51.001Z</time></trkpt><trkpt lat="43.87009395569305" lon="7.668019298242499"><ele>465.8333333333333</ele><time>2026-04-12T10:57:52.001Z</time></trkpt><trkpt lat="43.870085939934945" lon="7.667842378636906"><ele>470.0</ele><time>2026-04-12T10:57:54.001Z</time></trkpt><trkpt lat="43.87006365975812" lon="7.667733775983185"><ele>471.3333333333333</ele><time>2026-04-12T10:57:55.001Z</time></trkpt><trkpt lat="43.87003230677621" lon="7.667627555557142"><ele>472.66666666666663</ele><time>2026-04-12T10:57:56.001Z</time></trkpt><trkpt lat="43.87000581502369" lon="7.667520363798949"><ele>474.0</ele><time>2026-04-12T10:57:57.001Z</time></trkpt><trkpt lat="43.869976328147885" lon="7.667440120732948"><ele>475.33333333333337</ele><time>2026-04-12T10:57:58.001Z</time></trkpt><trkpt lat="43.869954958616134" lon="7.667319901092428"><ele>476.6666666666667</ele><time>2026-04-12T10:58:00.001Z</time></trkpt><trkpt lat="43.87003853348927" lon="7.667225395578662"><ele>478.0</ele><time>2026-04-12T10:58:02.001Z</time></trkpt><trkpt lat="43.87011102737834" lon="7.667212293062506"><ele>475.83333333333337</ele><time>2026-04-12T10:58:03.001Z</time></trkpt><trkpt lat="43.87019779844204" lon="7.667204485194019"><ele>473.6666666666667</ele><time>2026-04-12T10:58:04.001Z</time></trkpt><trkpt lat="43.870284104557115" lon="7.667190533984788"><ele>471.5</ele><time>2026-04-12T10:58:05.001Z</time></trkpt><trkpt lat="43.87035338132262" lon="7.667171918703367"><ele>469.33333333333337</ele><time>2026-04-12T10:58:06.001Z</time></trkpt><trkpt lat="43.87045092174003" lon="7.667128721562374"><ele>467.1666666666667</ele><time>2026-04-12T10:58:08.001Z</time></trkpt><trkpt lat="43.87051134217247" lon="7.667014821562435"><ele>465.0</ele><time>2026-04-12T10:58:10.001Z</time></trkpt><trkpt lat="43.87050357189324" lon="7.666891819499501"><ele>465.0</ele><time>2026-04-12T10:58:11.001Z</time></trkpt><trkpt lat="43.87048846578718" lon="7.66677367339861"><ele>465.0</ele><time>2026-04-12T10:58:12Z</time></trkpt><trkpt lat="43.87047714554583" lon="7.666645863278651"><ele>465.0</ele><time>2026-04-12T10:58:13Z</time></trkpt><trkpt lat="43.87048027905922" lon="7.666517357901816"><ele>465.0</ele><time>2026-04-12T10:58:14Z</time></trkpt><trkpt lat="43.87050112628833" lon="7.666394416481603"><ele>465.0</ele><time>2026-04-12T10:58:15Z</time></trkpt><trkpt lat="43.87052637641801" lon="7.666269489679793"><ele>465.0</ele><time>2026-04-12T10:58:16Z</time></trkpt><trkpt lat="43.87055321686503" lon="7.666142347885925"><ele>465.0</ele><time>2026-04-12T10:58:17Z</time></trkpt><trkpt lat="43.87058145055781" lon="7.666008606286816"><ele>465.0</ele><time>2026-04-12T10:58:18Z</time></trkpt><trkpt lat="43.87060728455393" lon="7.665886231950074"><ele>465.0</ele><time>2026-04-12T10:58:19Z</time></trkpt><trkpt lat="43.87063237193984" lon="7.66576819177089"><ele>465.0</ele><time>2026-04-12T10:58:20Z</time></trkpt><trkpt lat="43.8706574152564" lon="7.665653748243701"><ele>466.0</ele><time>2026-04-12T10:58:21Z</time></trkpt><trkpt lat="43.87068497008023" lon="7.665541068507985"><ele>467.0</ele><time>2026-04-12T10:58:22Z</time></trkpt><trkpt lat="43.87071516424378" lon="7.6654410217642885"><ele>468.0</ele><time>2026-04-12T10:58:23Z</time></trkpt><trkpt lat="43.87075400532053" lon="7.665345103845626"><ele>469.0</ele><time>2026-04-12T10:58:24Z</time></trkpt><trkpt lat="43.87080338661961" lon="7.665260156561208"><ele>470.0</ele><time>2026-04-12T10:58:25Z</time></trkpt><trkpt lat="43.87085274498545" lon="7.665168559654607"><ele>471.0</ele><time>2026-04-12T10:58:26Z</time></trkpt><trkpt lat="43.87089870655814" lon="7.665069229314286"><ele>471.4</ele><time>2026-04-12T10:58:27Z</time></trkpt><trkpt lat="43.87093817067212" lon="7.66497273245501"><ele>471.8</ele><time>2026-04-12T10:58:28Z</time></trkpt><trkpt lat="43.87097510190826" lon="7.664881624611609"><ele>472.19999999999993</ele><time>2026-04-12T10:58:29Z</time></trkpt><trkpt lat="43.87101303749337" lon="7.664724280618981"><ele>472.59999999999997</ele><time>2026-04-12T10:58:31Z</time></trkpt><trkpt lat="43.87096577765592" lon="7.6645737777557335"><ele>473.0</ele><time>2026-04-12T10:58:33Z</time></trkpt><trkpt lat="43.87086301885413" lon="7.664487655548456"><ele>472.99999999999994</ele><time>2026-04-12T10:58:35Z</time></trkpt><trkpt lat="43.870797022182295" lon="7.664546756305669"><ele>473.0</ele><time>2026-04-12T10:58:36Z</time></trkpt><trkpt lat="43.87069597899372" lon="7.6646537067061935"><ele>473.0</ele><time>2026-04-12T10:58:38Z</time></trkpt><trkpt lat="43.87064359096722" lon="7.664703858135603"><ele>473.0</ele><time>2026-04-12T10:58:39Z</time></trkpt><trkpt lat="43.87058126234832" lon="7.664740722202972"><ele>472.99999999999994</ele><time>2026-04-12T10:58:40Z</time></trkpt><trkpt lat="43.8705100925723" lon="7.66478247182974"><ele>473.0</ele><time>2026-04-12T10:58:41Z</time></trkpt><trkpt lat="43.870433422112214" lon="7.6648246724905"><ele>472.99999999999994</ele><time>2026-04-12T10:58:42Z</time></trkpt><trkpt lat="43.8703611943493" lon="7.664855321365794"><ele>473.0</ele><time>2026-04-12T10:58:43Z</time></trkpt><trkpt lat="43.8702915937045" lon="7.6648629977526825"><ele>473.0</ele><time>2026-04-12T10:58:44Z</time></trkpt><trkpt lat="43.87022002750859" lon="7.664858964235438"><ele>473.0</ele><time>2026-04-12T10:58:45Z</time></trkpt><trkpt lat="43.870149288913765" lon="7.664828631667238"><ele>472.99999999999994</ele><time>2026-04-12T10:58:46Z</time></trkpt><trkpt lat="43.870076828194186" lon="7.664791936819167"><ele>473.0</ele><time>2026-04-12T10:58:47Z</time></trkpt><trkpt lat="43.87001042601002" lon="7.664725838400232"><ele>474.79999999999995</ele><time>2026-04-12T10:58:48Z</time></trkpt><trkpt lat="43.869931286800714" lon="7.664706457706028"><ele>476.59999999999997</ele><time>2026-04-12T10:58:49Z</time></trkpt><trkpt lat="43.869836053073215" lon="7.664740201781104"><ele>478.40000000000003</ele><time>2026-04-12T10:58:50Z</time></trkpt><trkpt lat="43.869745201352494" lon="7.664774053631579"><ele>480.20000000000005</ele><time>2026-04-12T10:58:51Z</time></trkpt><trkpt lat="43.86964748578433" lon="7.664810462985908"><ele>482.0</ele><time>2026-04-12T10:58:51.999Z</time></trkpt><trkpt lat="43.86954661386475" lon="7.664848048416646"><ele>482.0</ele><time>2026-04-12T10:58:52.999Z</time></trkpt><trkpt lat="43.86943927677517" lon="7.664881670964626"><ele>482.00000000000006</ele><time>2026-04-12T10:58:53.999Z</time></trkpt><trkpt lat="43.86933253521975" lon="7.664896038562157"><ele>482.00000000000006</ele><time>2026-04-12T10:58:54.999Z</time></trkpt><trkpt lat="43.86922663952417" lon="7.664891914557731"><ele>482.0</ele><time>2026-04-12T10:58:55.999Z</time></trkpt><trkpt lat="43.86912326391689" lon="7.6648918126376575"><ele>482.0</ele><time>2026-04-12T10:58:56.999Z</time></trkpt><trkpt lat="43.86903020501189" lon="7.664899941433076"><ele>483.20000000000005</ele><time>2026-04-12T10:58:57.999Z</time></trkpt><trkpt lat="43.86895385026178" lon="7.664928485086337"><ele>484.40000000000003</ele><time>2026-04-12T10:58:58.999Z</time></trkpt><trkpt lat="43.86884006196482" lon="7.664921640919723"><ele>485.59999999999997</ele><time>2026-04-12T10:59:00.999Z</time></trkpt><trkpt lat="43.868762480472476" lon="7.664806212066136"><ele>486.79999999999995</ele><time>2026-04-12T10:59:02.999Z</time></trkpt><trkpt lat="43.86871067289513" lon="7.6647187952672455"><ele>488.0</ele><time>2026-04-12T10:59:03.999Z</time></trkpt><trkpt lat="43.86865242894586" lon="7.664625692207593"><ele>488.0</ele><time>2026-04-12T10:59:04.999Z</time></trkpt><trkpt lat="43.86859675201762" lon="7.664540143985641"><ele>487.99999999999994</ele><time>2026-04-12T10:59:05.999Z</time></trkpt><trkpt lat="43.868542164090165" lon="7.664451636348745"><ele>487.99999999999994</ele><time>2026-04-12T10:59:06.999Z</time></trkpt><trkpt lat="43.868477129512264" lon="7.664345603399322"><ele>488.0</ele><time>2026-04-12T10:59:07.999Z</time></trkpt><trkpt lat="43.868409535999774" lon="7.664243596553988"><ele>488.0</ele><time>2026-04-12T10:59:08.999Z</time></trkpt><trkpt lat="43.86835049990036" lon="7.664138494956211"><ele>486.79999999999995</ele><time>2026-04-12T10:59:09.999Z</time></trkpt><trkpt lat="43.868290843353584" lon="7.664025761435129"><ele>485.59999999999997</ele><time>2026-04-12T10:59:10.999Z</time></trkpt><trkpt lat="43.868233134745246" lon="7.663916708773243"><ele>484.40000000000003</ele><time>2026-04-12T10:59:11.999Z</time></trkpt><trkpt lat="43.868180401121414" lon="7.6638169337320745"><ele>483.20000000000005</ele><time>2026-04-12T10:59:12.999Z</time></trkpt><trkpt lat="43.8681304685922" lon="7.6637215836301555"><ele>482.0</ele><time>2026-04-12T10:59:13.999Z</time></trkpt><trkpt lat="43.86807958815495" lon="7.66362398122605"><ele>478.6</ele><time>2026-04-12T10:59:14.999Z</time></trkpt><trkpt lat="43.8680402409782" lon="7.663537469458467"><ele>475.20000000000005</ele><time>2026-04-12T10:59:15.999Z</time></trkpt><trkpt lat="43.8680023480028" lon="7.663389316773316"><ele>471.8</ele><time>2026-04-12T10:59:17.999Z</time></trkpt><trkpt lat="43.86799744895179" lon="7.663249098393586"><ele>468.4</ele><time>2026-04-12T10:59:19.999Z</time></trkpt><trkpt lat="43.86799805901201" lon="7.663107836602275"><ele>465.0</ele><time>2026-04-12T10:59:21.999Z</time></trkpt><trkpt lat="43.867963688065394" lon="7.663014972615652"><ele>465.0</ele><time>2026-04-12T10:59:22.999Z</time></trkpt><trkpt lat="43.867917757165614" lon="7.662936739107984"><ele>465.0</ele><time>2026-04-12T10:59:23.999Z</time></trkpt><trkpt lat="43.86782175318551" lon="7.662839624087482"><ele>465.0</ele><time>2026-04-12T10:59:25.999Z</time></trkpt><trkpt lat="43.86775598570758" lon="7.662836854729189"><ele>465.0</ele><time>2026-04-12T10:59:26.999Z</time></trkpt><trkpt lat="43.86770298922645" lon="7.662899981482432"><ele>465.0</ele><time>2026-04-12T10:59:27.999Z</time></trkpt><trkpt lat="43.86764879354" lon="7.662957066704673"><ele>465.0</ele><time>2026-04-12T10:59:28.999Z</time></trkpt><trkpt lat="43.86758938261039" lon="7.663031736237564"><ele>469.2</ele><time>2026-04-12T10:59:29.999Z</time></trkpt><trkpt lat="43.86752017417348" lon="7.663111506113748"><ele>473.4</ele><time>2026-04-12T10:59:30.999Z</time></trkpt><trkpt lat="43.86745260398356" lon="7.663188740621911"><ele>477.6</ele><time>2026-04-12T10:59:31.999Z</time></trkpt><trkpt lat="43.86737458520059" lon="7.663281066831655"><ele>481.8</ele><time>2026-04-12T10:59:32.999Z</time></trkpt><trkpt lat="43.867273005191535" lon="7.663348863022552"><ele>486.0</ele><time>2026-04-12T10:59:33.999Z</time></trkpt><trkpt lat="43.86718352352008" lon="7.663432651207963"><ele>486.0</ele><time>2026-04-12T10:59:34.999Z</time></trkpt><trkpt lat="43.867115221737095" lon="7.663531170273569"><ele>486.0</ele><time>2026-04-12T10:59:35.998Z</time></trkpt><trkpt lat="43.86704147710022" lon="7.663576337135659"><ele>486.0</ele><time>2026-04-12T10:59:36.998Z</time></trkpt><trkpt lat="43.86698654228701" lon="7.663628812274819"><ele>486.0</ele><time>2026-04-12T10:59:37.998Z</time></trkpt><trkpt lat="43.866885523438036" lon="7.66366761107468"><ele>486.0</ele><time>2026-04-12T10:59:39.998Z</time></trkpt><trkpt lat="43.86681753489394" lon="7.663585903445247"><ele>486.0</ele><time>2026-04-12T10:59:41.998Z</time></trkpt><trkpt lat="43.866771207653024" lon="7.663522077295616"><ele>484.4</ele><time>2026-04-12T10:59:42.998Z</time></trkpt><trkpt lat="43.86672246438917" lon="7.6634490233413874"><ele>482.8</ele><time>2026-04-12T10:59:43.998Z</time></trkpt><trkpt lat="43.86667952997736" lon="7.663373089228685"><ele>481.19999999999993</ele><time>2026-04-12T10:59:44.998Z</time></trkpt><trkpt lat="43.86662940090767" lon="7.6632178356481"><ele>479.59999999999997</ele><time>2026-04-12T10:59:47.001Z</time></trkpt><trkpt lat="43.866588546683694" lon="7.66305967199665"><ele>478.0</ele><time>2026-04-12T10:59:49.001Z</time></trkpt><trkpt lat="43.86655363198775" lon="7.662973924011259"><ele>478.00000000000006</ele><time>2026-04-12T10:59:50.001Z</time></trkpt><trkpt lat="43.86651732227298" lon="7.662894133716587"><ele>478.0</ele><time>2026-04-12T10:59:51.001Z</time></trkpt><trkpt lat="43.86647620549299" lon="7.662813591717186"><ele>478.0</ele><time>2026-04-12T10:59:52.001Z</time></trkpt><trkpt lat="43.86643644598834" lon="7.6627365023554095"><ele>478.0</ele><time>2026-04-12T10:59:53.001Z</time></trkpt><trkpt lat="43.86636127901641" lon="7.662607209971813"><ele>478.00000000000006</ele><time>2026-04-12T10:59:55.001Z</time></trkpt><trkpt lat="43.86627655471536" lon="7.662524685567081"><ele>478.0</ele><time>2026-04-12T10:59:57.001Z</time></trkpt><trkpt lat="43.866174481964244" lon="7.662511402713334"><ele>478.0</ele><time>2026-04-12T11:00:01.001Z</time></trkpt><trkpt lat="43.86615843399208" lon="7.662727183275307"><ele>478.0</ele><time>2026-04-12T11:00:04.001Z</time></trkpt><trkpt lat="43.86622997593172" lon="7.662857898620681"><ele>478.0</ele><time>2026-04-12T11:00:06.001Z</time></trkpt><trkpt lat="43.86623908189382" lon="7.66300273507851"><ele>478.0</ele><time>2026-04-12T11:00:08.001Z</time></trkpt><trkpt lat="43.866229242618004" lon="7.663159192175637"><ele>478.00000000000006</ele><time>2026-04-12T11:00:10.001Z</time></trkpt><trkpt lat="43.866218366397014" lon="7.663254993348362"><ele>478.0</ele><time>2026-04-12T11:00:11Z</time></trkpt><trkpt lat="43.86620083873126" lon="7.663351136641987"><ele>478.00000000000006</ele><time>2026-04-12T11:00:12Z</time></trkpt><trkpt lat="43.86618475150943" lon="7.663438213037093"><ele>478.00000000000006</ele><time>2026-04-12T11:00:13Z</time></trkpt><trkpt lat="43.866167862758815" lon="7.663524506117553"><ele>478.0</ele><time>2026-04-12T11:00:14Z</time></trkpt><trkpt lat="43.86613814042473" lon="7.663607359762248"><ele>478.00000000000006</ele><time>2026-04-12T11:00:15Z</time></trkpt><trkpt lat="43.86609573820852" lon="7.663689125142389"><ele>478.00000000000006</ele><time>2026-04-12T11:00:16Z</time></trkpt><trkpt lat="43.86604623424195" lon="7.663764265416973"><ele>476.0</ele><time>2026-04-12T11:00:17Z</time></trkpt><trkpt lat="43.86599760805717" lon="7.66382876358453"><ele>473.99999999999994</ele><time>2026-04-12T11:00:18Z</time></trkpt><trkpt lat="43.86594086895214" lon="7.6639572564065315"><ele>471.99999999999994</ele><time>2026-04-12T11:00:20Z</time></trkpt><trkpt lat="43.86595635833779" lon="7.664137334790762"><ele>470.0</ele><time>2026-04-12T11:00:22Z</time></trkpt><trkpt lat="43.86597556617909" lon="7.664235330637396"><ele>468.0</ele><time>2026-04-12T11:00:23Z</time></trkpt><trkpt lat="43.86600399826644" lon="7.664398331997278"><ele>471.79999999999995</ele><time>2026-04-12T11:00:25Z</time></trkpt><trkpt lat="43.86606347906368" lon="7.664535739644448"><ele>475.59999999999997</ele><time>2026-04-12T11:00:27Z</time></trkpt><trkpt lat="43.86616368199463" lon="7.664629418269154"><ele>479.40000000000003</ele><time>2026-04-12T11:00:29Z</time></trkpt><trkpt lat="43.86623194346168" lon="7.664640880890989"><ele>483.20000000000005</ele><time>2026-04-12T11:00:30Z</time></trkpt><trkpt lat="43.86630729232344" lon="7.664642785546914"><ele>487.0</ele><time>2026-04-12T11:00:31Z</time></trkpt><trkpt lat="43.86638338282312" lon="7.664649317363989"><ele>487.0</ele><time>2026-04-12T11:00:32Z</time></trkpt><trkpt lat="43.86645819585953" lon="7.6646593092797"><ele>487.00000000000006</ele><time>2026-04-12T11:00:33Z</time></trkpt><trkpt lat="43.86653462786168" lon="7.664676668612607"><ele>487.00000000000006</ele><time>2026-04-12T11:00:34Z</time></trkpt><trkpt lat="43.866602445802506" lon="7.66469538433365"><ele>487.0</ele><time>2026-04-12T11:00:35Z</time></trkpt><trkpt lat="43.86671554792493" lon="7.664762777895941"><ele>487.0</ele><time>2026-04-12T11:00:37Z</time></trkpt><trkpt lat="43.866790257708956" lon="7.6649068218133944"><ele>486.57142857142856</ele><time>2026-04-12T11:00:39Z</time></trkpt><trkpt lat="43.86681029130804" lon="7.664998552758266"><ele>486.1428571428571</ele><time>2026-04-12T11:00:40Z</time></trkpt><trkpt lat="43.866815489441564" lon="7.665097971396821"><ele>485.71428571428567</ele><time>2026-04-12T11:00:41Z</time></trkpt><trkpt lat="43.866808347517505" lon="7.665200085806129"><ele>485.2857142857143</ele><time>2026-04-12T11:00:42Z</time></trkpt><trkpt lat="43.8667946147171" lon="7.665301723749706"><ele>484.8571428571428</ele><time>2026-04-12T11:00:43Z</time></trkpt><trkpt lat="43.86677050562761" lon="7.66540817482079"><ele>484.4285714285714</ele><time>2026-04-12T11:00:44Z</time></trkpt><trkpt lat="43.86674451267298" lon="7.66551193198149"><ele>484.0</ele><time>2026-04-12T11:00:45Z</time></trkpt><trkpt lat="43.86672169106296" lon="7.665600263362794"><ele>484.00000000000006</ele><time>2026-04-12T11:00:46Z</time></trkpt><trkpt lat="43.86665300525016" lon="7.665742725789298"><ele>484.0</ele><time>2026-04-12T11:00:48Z</time></trkpt><trkpt lat="43.86655355599196" lon="7.665836381460712"><ele>484.0</ele><time>2026-04-12T11:00:49.999Z</time></trkpt><trkpt lat="43.86651252066664" lon="7.665907051668355"><ele>484.0</ele><time>2026-04-12T11:00:50.999Z</time></trkpt><trkpt lat="43.86646359022218" lon="7.665971280040094"><ele>484.00000000000006</ele><time>2026-04-12T11:00:51.999Z</time></trkpt><trkpt lat="43.86642016837752" lon="7.666045667229384"><ele>484.0</ele><time>2026-04-12T11:00:52.999Z</time></trkpt><trkpt lat="43.86638050820251" lon="7.6661241685701835"><ele>485.85714285714283</ele><time>2026-04-12T11:00:53.999Z</time></trkpt><trkpt lat="43.86634714912521" lon="7.666206131092148"><ele>487.71428571428567</ele><time>2026-04-12T11:00:54.999Z</time></trkpt><trkpt lat="43.86631859780983" lon="7.666291574983203"><ele>489.57142857142856</ele><time>2026-04-12T11:00:55.999Z</time></trkpt><trkpt lat="43.86629410826175" lon="7.666387617273891"><ele>491.42857142857144</ele><time>2026-04-12T11:00:56.999Z</time></trkpt><trkpt lat="43.8662727059447" lon="7.666488556612069"><ele>493.2857142857143</ele><time>2026-04-12T11:00:57.999Z</time></trkpt><trkpt lat="43.8662542332126" lon="7.6665904506293"><ele>495.1428571428571</ele><time>2026-04-12T11:00:58.999Z</time></trkpt><trkpt lat="43.86623528673192" lon="7.666690403398629"><ele>497.0</ele><time>2026-04-12T11:00:59.999Z</time></trkpt><trkpt lat="43.86621906975149" lon="7.666775340658897"><ele>496.99999999999994</ele><time>2026-04-12T11:01:00.999Z</time></trkpt><trkpt lat="43.86613977674243" lon="7.666903764498324"><ele>497.0</ele><time>2026-04-12T11:01:02.999Z</time></trkpt><trkpt lat="43.86606628955859" lon="7.666913189959919"><ele>497.0</ele><time>2026-04-12T11:01:03.999Z</time></trkpt><trkpt lat="43.865992741643446" lon="7.666944778701795"><ele>497.0</ele><time>2026-04-12T11:01:04.999Z</time></trkpt><trkpt lat="43.865916104550685" lon="7.66697769427903"><ele>496.99999999999994</ele><time>2026-04-12T11:01:05.999Z</time></trkpt><trkpt lat="43.86583465425171" lon="7.667006790660442"><ele>497.0</ele><time>2026-04-12T11:01:06.999Z</time></trkpt><trkpt lat="43.86575208461817" lon="7.6670225315815195"><ele>495.8333333333333</ele><time>2026-04-12T11:01:07.999Z</time></trkpt><trkpt lat="43.865670122113556" lon="7.667019861747643"><ele>494.66666666666663</ele><time>2026-04-12T11:01:08.999Z</time></trkpt><trkpt lat="43.86558167165724" lon="7.667012035965617"><ele>493.5</ele><time>2026-04-12T11:01:09.999Z</time></trkpt><trkpt lat="43.865489956442026" lon="7.6670065280802655"><ele>492.33333333333337</ele><time>2026-04-12T11:01:10.999Z</time></trkpt><trkpt lat="43.86539717585567" lon="7.667001246447786"><ele>491.1666666666667</ele><time>2026-04-12T11:01:11.999Z</time></trkpt><trkpt lat="43.86530566130851" lon="7.666995284984649"><ele>490.0</ele><time>2026-04-12T11:01:12.999Z</time></trkpt><trkpt lat="43.86521331097476" lon="7.666988653176238"><ele>490.00000000000006</ele><time>2026-04-12T11:01:13.999Z</time></trkpt><trkpt lat="43.865122829220596" lon="7.666982724491986"><ele>490.0</ele><time>2026-04-12T11:01:14.999Z</time></trkpt><trkpt lat="43.86504001787866" lon="7.666977785234712"><ele>490.0</ele><time>2026-04-12T11:01:15.999Z</time></trkpt><trkpt lat="43.86497208942867" lon="7.666973733664684"><ele>490.0</ele><time>2026-04-12T11:01:16.999Z</time></trkpt><trkpt lat="43.86488528776233" lon="7.666968556398761"><ele>490.00000000000006</ele><time>2026-04-12T11:01:18.999Z</time></trkpt><trkpt lat="43.86479974709929" lon="7.666966687812184"><ele>490.0</ele><time>2026-04-12T11:01:30.999Z</time></trkpt><trkpt lat="43.86467543792046" lon="7.666975343385994"><ele>487.0</ele><time>2026-04-12T11:01:32.998Z</time></trkpt><trkpt lat="43.86461178401567" lon="7.666982295513651"><ele>484.0</ele><time>2026-04-12T11:01:33.998Z</time></trkpt><trkpt lat="43.864546138619524" lon="7.666989465154748"><ele>481.0</ele><time>2026-04-12T11:01:34.998Z</time></trkpt><trkpt lat="43.86446696706157" lon="7.666998112080429"><ele>478.0</ele><time>2026-04-12T11:01:35.998Z</time></trkpt><trkpt lat="43.864389870560835" lon="7.667003975989418"><ele>475.0</ele><time>2026-04-12T11:01:36.998Z</time></trkpt><trkpt lat="43.864312760903466" lon="7.667002991609814"><ele>472.0</ele><time>2026-04-12T11:01:37.998Z</time></trkpt><trkpt lat="43.864236542782585" lon="7.6669972534315525"><ele>469.0</ele><time>2026-04-12T11:01:38.998Z</time></trkpt><trkpt lat="43.864163093880386" lon="7.666988298703374"><ele>466.00000000000006</ele><time>2026-04-12T11:01:39.998Z</time></trkpt><trkpt lat="43.8640870899001" lon="7.666978531306641"><ele>463.0</ele><time>2026-04-12T11:01:40.998Z</time></trkpt><trkpt lat="43.86401342194932" lon="7.666970990479767"><ele>460.0</ele><time>2026-04-12T11:01:41.998Z</time></trkpt><trkpt lat="43.86391058772279" lon="7.666981272781623"><ele>457.0</ele><time>2026-04-12T11:01:43.998Z</time></trkpt><trkpt lat="43.86384642222481" lon="7.667070230639466"><ele>454.00000000000006</ele><time>2026-04-12T11:01:45.998Z</time></trkpt><trkpt lat="43.863807384372485" lon="7.667172066407101"><ele>451.0</ele><time>2026-04-12T11:01:48.998Z</time></trkpt><trkpt lat="43.86371071404326" lon="7.66720971563467"><ele>451.0</ele><time>2026-04-12T11:01:50.998Z</time></trkpt><trkpt lat="43.86359434859983" lon="7.667221803215397"><ele>451.0</ele><time>2026-04-12T11:01:53.001Z</time></trkpt><trkpt lat="43.863520784711696" lon="7.667210924317172"><ele>451.0</ele><time>2026-04-12T11:01:54.001Z</time></trkpt><trkpt lat="43.86344058089806" lon="7.667149661003914"><ele>451.0</ele><time>2026-04-12T11:01:55.001Z</time></trkpt><trkpt lat="43.8633559517353" lon="7.667127329601747"><ele>451.0</ele><time>2026-04-12T11:01:56.001Z</time></trkpt><trkpt lat="43.8632710347576" lon="7.667105860032792"><ele>449.83333333333337</ele><time>2026-04-12T11:01:57.001Z</time></trkpt><trkpt lat="43.86318761149813" lon="7.667082626274802"><ele>448.6666666666667</ele><time>2026-04-12T11:01:58.001Z</time></trkpt><trkpt lat="43.86310886909557" lon="7.667060327504744"><ele>447.5</ele><time>2026-04-12T11:01:59.001Z</time></trkpt><trkpt lat="43.86303705045107" lon="7.667029606745373"><ele>446.33333333333337</ele><time>2026-04-12T11:02:00.001Z</time></trkpt><trkpt lat="43.86296780697898" lon="7.666986092559546"><ele>445.1666666666667</ele><time>2026-04-12T11:02:01.001Z</time></trkpt><trkpt lat="43.86291105820033" lon="7.666917423220889"><ele>444.0</ele><time>2026-04-12T11:02:02.001Z</time></trkpt><trkpt lat="43.862848367295186" lon="7.666845627955357"><ele>444.0</ele><time>2026-04-12T11:02:03.001Z</time></trkpt><trkpt lat="43.86278249842631" lon="7.666764954855658"><ele>444.0</ele><time>2026-04-12T11:02:04.001Z</time></trkpt><trkpt lat="43.862710104997305" lon="7.666683122885316"><ele>444.0</ele><time>2026-04-12T11:02:05.001Z</time></trkpt><trkpt lat="43.86262479651584" lon="7.666625411479299"><ele>444.0</ele><time>2026-04-12T11:02:06.001Z</time></trkpt><trkpt lat="43.86253322154079" lon="7.666588876489178"><ele>444.0</ele><time>2026-04-12T11:02:07.001Z</time></trkpt><trkpt lat="43.86243436909603" lon="7.666612648264882"><ele>443.0</ele><time>2026-04-12T11:02:08.001Z</time></trkpt><trkpt lat="43.86234343806919" lon="7.666613783587608"><ele>442.0</ele><time>2026-04-12T11:02:09.001Z</time></trkpt><trkpt lat="43.862244100805235" lon="7.666618393229923"><ele>441.0</ele><time>2026-04-12T11:02:10.001Z</time></trkpt><trkpt lat="43.86214069586271" lon="7.66662057435457"><ele>440.0</ele><time>2026-04-12T11:02:11Z</time></trkpt><trkpt lat="43.86203445869291" lon="7.666588326402102"><ele>439.0</ele><time>2026-04-12T11:02:12Z</time></trkpt><trkpt lat="43.86192729719061" lon="7.666591699928793"><ele>439.00000000000006</ele><time>2026-04-12T11:02:13Z</time></trkpt><trkpt lat="43.86182322308659" lon="7.666594976259739"><ele>439.0</ele><time>2026-04-12T11:02:14Z</time></trkpt><trkpt lat="43.86172722688626" lon="7.666600777111152"><ele>439.0</ele><time>2026-04-12T11:02:15Z</time></trkpt><trkpt lat="43.86164220731447" lon="7.6665992233170845"><ele>439.0</ele><time>2026-04-12T11:02:16Z</time></trkpt><trkpt lat="43.861565282851075" lon="7.666578263539264"><ele>439.00000000000006</ele><time>2026-04-12T11:02:17Z</time></trkpt><trkpt lat="43.86149861190706" lon="7.666539236217784"><ele>439.0</ele><time>2026-04-12T11:02:18Z</time></trkpt><trkpt lat="43.86143649091323" lon="7.666489014287084"><ele>437.0</ele><time>2026-04-12T11:02:19Z</time></trkpt><trkpt lat="43.86139001589868" lon="7.666430089586554"><ele>435.0</ele><time>2026-04-12T11:02:20Z</time></trkpt><trkpt lat="43.86135482345514" lon="7.666296187618787"><ele>433.0</ele><time>2026-04-12T11:02:22Z</time></trkpt><trkpt lat="43.861414695493835" lon="7.666132350351299"><ele>431.0</ele><time>2026-04-12T11:02:24Z</time></trkpt><trkpt lat="43.861454363490516" lon="7.666038355904992"><ele>429.0</ele><time>2026-04-12T11:02:25Z</time></trkpt><trkpt lat="43.86149501139636" lon="7.665946821905514"><ele>428.6</ele><time>2026-04-12T11:02:26Z</time></trkpt><trkpt lat="43.86152992669019" lon="7.665868197044416"><ele>428.2</ele><time>2026-04-12T11:02:27Z</time></trkpt><trkpt lat="43.86158569826394" lon="7.665746835254436"><ele>427.80000000000007</ele><time>2026-04-12T11:02:29Z</time></trkpt><trkpt lat="43.861711381599285" lon="7.6657319707258145"><ele>427.40000000000003</ele><time>2026-04-12T11:02:31Z</time></trkpt><trkpt lat="43.861784013402186" lon="7.665752562082478"><ele>427.0</ele><time>2026-04-12T11:02:32Z</time></trkpt><trkpt lat="43.86185884078418" lon="7.665792353128781"><ele>427.00000000000006</ele><time>2026-04-12T11:02:33Z</time></trkpt><trkpt lat="43.86193853372583" lon="7.665822380761719"><ele>427.0</ele><time>2026-04-12T11:02:34Z</time></trkpt><trkpt lat="43.86202506726207" lon="7.665823298705224"><ele>427.0</ele><time>2026-04-12T11:02:35Z</time></trkpt><trkpt lat="43.8621048339074" lon="7.665808708806602"><ele>427.0</ele><time>2026-04-12T11:02:36Z</time></trkpt><trkpt lat="43.862171943269104" lon="7.665782481611361"><ele>427.00000000000006</ele><time>2026-04-12T11:02:37Z</time></trkpt><trkpt lat="43.86223388643956" lon="7.665750478177962"><ele>427.0</ele><time>2026-04-12T11:02:38Z</time></trkpt><trkpt lat="43.86233736707821" lon="7.665701532532058"><ele>427.00000000000006</ele><time>2026-04-12T11:02:40Z</time></trkpt><trkpt lat="43.86239875534349" lon="7.665598999148456"><ele>427.0</ele><time>2026-04-12T11:02:42Z</time></trkpt><trkpt lat="43.86238834216487" lon="7.6655045456291"><ele>427.0</ele><time>2026-04-12T11:02:43Z</time></trkpt><trkpt lat="43.8623124204905" lon="7.665450431829832"><ele>427.0</ele><time>2026-04-12T11:02:44Z</time></trkpt><trkpt lat="43.86223468031572" lon="7.665508618823292"><ele>427.00000000000006</ele><time>2026-04-12T11:02:45Z</time></trkpt><trkpt lat="43.86217537667649" lon="7.665560849650215"><ele>427.0</ele><time>2026-04-12T11:02:46Z</time></trkpt><trkpt lat="43.862101941317725" lon="7.6655751215603445"><ele>427.00000000000006</ele><time>2026-04-12T11:02:47Z</time></trkpt><trkpt lat="43.86202923534544" lon="7.665588282217059"><ele>427.0</ele><time>2026-04-12T11:02:48Z</time></trkpt><trkpt lat="43.861955985115415" lon="7.66557715658541"><ele>427.0</ele><time>2026-04-12T11:02:49Z</time></trkpt><trkpt lat="43.861890701596664" lon="7.6655399329184775"><ele>427.0</ele><time>2026-04-12T11:02:49.999Z</time></trkpt><trkpt lat="43.86183293394197" lon="7.665470622510695"><ele>427.00000000000006</ele><time>2026-04-12T11:02:50.999Z</time></trkpt><trkpt lat="43.86176161170573" lon="7.665404442301487"><ele>427.0</ele><time>2026-04-12T11:02:51.999Z</time></trkpt><trkpt lat="43.86168544973999" lon="7.6653649344418175"><ele>426.33333333333337</ele><time>2026-04-12T11:02:52.999Z</time></trkpt><trkpt lat="43.861605552992" lon="7.665362487652603"><ele>425.6666666666667</ele><time>2026-04-12T11:02:53.999Z</time></trkpt><trkpt lat="43.86153315691766" lon="7.665414530385211"><ele>425.0</ele><time>2026-04-12T11:02:54.999Z</time></trkpt><trkpt lat="43.86147438923758" lon="7.6654802268052755"><ele>424.33333333333337</ele><time>2026-04-12T11:02:55.999Z</time></trkpt><trkpt lat="43.86142561346484" lon="7.665563111677053"><ele>423.6666666666667</ele><time>2026-04-12T11:02:56.999Z</time></trkpt><trkpt lat="43.861360750476834" lon="7.66565337341339"><ele>423.0</ele><time>2026-04-12T11:02:57.999Z</time></trkpt><trkpt lat="43.861285944577" lon="7.665733961418275"><ele>423.0</ele><time>2026-04-12T11:02:58.999Z</time></trkpt><trkpt lat="43.86120208842829" lon="7.665807561397912"><ele>423.0</ele><time>2026-04-12T11:02:59.999Z</time></trkpt><trkpt lat="43.86111972577122" lon="7.665878221170794"><ele>423.0</ele><time>2026-04-12T11:03:00.999Z</time></trkpt><trkpt lat="43.86104359315745" lon="7.665947346590787"><ele>423.0</ele><time>2026-04-12T11:03:01.999Z</time></trkpt><trkpt lat="43.860976450028595" lon="7.66601999286005"><ele>423.0</ele><time>2026-04-12T11:03:02.999Z</time></trkpt><trkpt lat="43.860917470085916" lon="7.66610485863501"><ele>419.0</ele><time>2026-04-12T11:03:03.999Z</time></trkpt><trkpt lat="43.86087442763153" lon="7.6662063565371374"><ele>415.0</ele><time>2026-04-12T11:03:04.999Z</time></trkpt><trkpt lat="43.860840685125865" lon="7.666326080720606"><ele>411.0</ele><time>2026-04-12T11:03:05.999Z</time></trkpt><trkpt lat="43.86081651200989" lon="7.666455771150844"><ele>407.0</ele><time>2026-04-12T11:03:06.999Z</time></trkpt><trkpt lat="43.8607907273458" lon="7.666581979144027"><ele>403.0</ele><time>2026-04-12T11:03:07.999Z</time></trkpt><trkpt lat="43.86076133019575" lon="7.666705266435306"><ele>403.0</ele><time>2026-04-12T11:03:08.999Z</time></trkpt><trkpt lat="43.860724050865024" lon="7.6668221504996215"><ele>403.0</ele><time>2026-04-12T11:03:09.999Z</time></trkpt><trkpt lat="43.86067985796642" lon="7.666935629095832"><ele>403.0</ele><time>2026-04-12T11:03:10.999Z</time></trkpt><trkpt lat="43.86063197386006" lon="7.667042869100183"><ele>403.0</ele><time>2026-04-12T11:03:11.999Z</time></trkpt><trkpt lat="43.860581471151754" lon="7.667148178187976"><ele>403.0</ele><time>2026-04-12T11:03:12.999Z</time></trkpt><trkpt lat="43.86053778256141" lon="7.667257391388059"><ele>400.6666666666667</ele><time>2026-04-12T11:03:13.999Z</time></trkpt><trkpt lat="43.860501767386346" lon="7.66735420296019"><ele>398.33333333333337</ele><time>2026-04-12T11:03:14.999Z</time></trkpt><trkpt lat="43.860463171372665" lon="7.6674409248232775"><ele>396.0</ele><time>2026-04-12T11:03:15.999Z</time></trkpt><trkpt lat="43.86040612161335" lon="7.667509333976591"><ele>393.66666666666663</ele><time>2026-04-12T11:03:16.999Z</time></trkpt><trkpt lat="43.860334026132215" lon="7.66755893201908"><ele>391.3333333333333</ele><time>2026-04-12T11:03:17.999Z</time></trkpt><trkpt lat="43.860245787268006" lon="7.6675677445576325"><ele>389.0</ele><time>2026-04-12T11:03:18.999Z</time></trkpt><trkpt lat="43.86014975284793" lon="7.667607002388144"><ele>387.79999999999995</ele><time>2026-04-12T11:03:19.999Z</time></trkpt><trkpt lat="43.86005869346833" lon="7.667667838752924"><ele>386.59999999999997</ele><time>2026-04-12T11:03:20.999Z</time></trkpt><trkpt lat="43.85998054750243" lon="7.667726643889939"><ele>385.4</ele><time>2026-04-12T11:03:21.999Z</time></trkpt><trkpt lat="43.85992183874865" lon="7.667805595908246"><ele>384.2</ele><time>2026-04-12T11:03:22.999Z</time></trkpt><trkpt lat="43.859888542966054" lon="7.667902087732294"><ele>383.0</ele><time>2026-04-12T11:03:23.999Z</time></trkpt><trkpt lat="43.85980398023672" lon="7.667999227651987"><ele>383.0</ele><time>2026-04-12T11:03:25.999Z</time></trkpt><trkpt lat="43.85971836730134" lon="7.66797045866936"><ele>383.0</ele><time>2026-04-12T11:03:27.999Z</time></trkpt><trkpt lat="43.85974926054492" lon="7.667827654906094"><ele>383.0</ele><time>2026-04-12T11:03:29.999Z</time></trkpt><trkpt lat="43.85976991986064" lon="7.667737202727455"><ele>383.0</ele><time>2026-04-12T11:03:30.999Z</time></trkpt><trkpt lat="43.85979473648379" lon="7.667628724184899"><ele>383.0</ele><time>2026-04-12T11:03:31.998Z</time></trkpt><trkpt lat="43.859820981592904" lon="7.667508740653782"><ele>383.0</ele><time>2026-04-12T11:03:32.998Z</time></trkpt><trkpt lat="43.859842157320884" lon="7.667408777412119"><ele>383.0</ele><time>2026-04-12T11:03:33.998Z</time></trkpt><trkpt lat="43.859864326654346" lon="7.667318585556678"><ele>383.0</ele><time>2026-04-12T11:03:34.998Z</time></trkpt><trkpt lat="43.85989990628247" lon="7.667242059197759"><ele>383.0</ele><time>2026-04-12T11:03:35.998Z</time></trkpt><trkpt lat="43.859946426887944" lon="7.667152781567286"><ele>383.0</ele><time>2026-04-12T11:03:36.998Z</time></trkpt><trkpt lat="43.86001874533943" lon="7.667091904791811"><ele>383.0</ele><time>2026-04-12T11:03:37.998Z</time></trkpt><trkpt lat="43.860092709086345" lon="7.6670225327514645"><ele>383.0</ele><time>2026-04-12T11:03:38.998Z</time></trkpt><trkpt lat="43.860156181923855" lon="7.666942272419601"><ele>387.0</ele><time>2026-04-12T11:03:39.998Z</time></trkpt><trkpt lat="43.860229621260885" lon="7.666875102190921"><ele>391.0</ele><time>2026-04-12T11:03:40.998Z</time></trkpt><trkpt lat="43.86028938212187" lon="7.6667764301576025"><ele>395.0</ele><time>2026-04-12T11:03:41.998Z</time></trkpt><trkpt lat="43.860334792097625" lon="7.666661548466366"><ele>399.0</ele><time>2026-04-12T11:03:42.998Z</time></trkpt><trkpt lat="43.860359541654795" lon="7.666534554760601"><ele>403.0</ele><time>2026-04-12T11:03:43.998Z</time></trkpt><trkpt lat="43.860375601235944" lon="7.666411169434316"><ele>403.00000000000006</ele><time>2026-04-12T11:03:44.998Z</time></trkpt><trkpt lat="43.86039496677776" lon="7.6662947048815635"><ele>403.0</ele><time>2026-04-12T11:03:45.998Z</time></trkpt><trkpt lat="43.86041684796723" lon="7.6661820831285485"><ele>403.0</ele><time>2026-04-12T11:03:46.998Z</time></trkpt><trkpt lat="43.86044863213559" lon="7.666074012635739"><ele>403.0</ele><time>2026-04-12T11:03:47.998Z</time></trkpt><trkpt lat="43.86049483080469" lon="7.6659800336043284"><ele>403.00000000000006</ele><time>2026-04-12T11:03:48.998Z</time></trkpt><trkpt lat="43.86054770741633" lon="7.665884660903105"><ele>403.0</ele><time>2026-04-12T11:03:49.998Z</time></trkpt><trkpt lat="43.86060060524269" lon="7.665792288758412"><ele>400.59999999999997</ele><time>2026-04-12T11:03:50.998Z</time></trkpt><trkpt lat="43.86065990139474" lon="7.665688991690092"><ele>398.2</ele><time>2026-04-12T11:03:51.998Z</time></trkpt><trkpt lat="43.86072141490436" lon="7.665574422396395"><ele>395.8</ele><time>2026-04-12T11:03:52.998Z</time></trkpt><trkpt lat="43.86078434406329" lon="7.66545503345134"><ele>393.4</ele><time>2026-04-12T11:03:53.998Z</time></trkpt><trkpt lat="43.86084899779148" lon="7.665333657234063"><ele>391.0</ele><time>2026-04-12T11:03:54.998Z</time></trkpt><trkpt lat="43.86091256982361" lon="7.665218091425342"><ele>391.0</ele><time>2026-04-12T11:03:55.998Z</time></trkpt><trkpt lat="43.860967842451515" lon="7.665117163604115"><ele>391.0</ele><time>2026-04-12T11:03:56.998Z</time></trkpt><trkpt lat="43.86100423688089" lon="7.6650225256138675"><ele>391.0</ele><time>2026-04-12T11:03:58Z</time></trkpt><trkpt lat="43.86108146856752" lon="7.664908059486718"><ele>391.0</ele><time>2026-04-12T11:04:00Z</time></trkpt><trkpt lat="43.86107642316689" lon="7.66476089490125"><ele>391.0</ele><time>2026-04-12T11:04:02.001Z</time></trkpt><trkpt lat="43.86100835247608" lon="7.664714457865678"><ele>386.8</ele><time>2026-04-12T11:04:03Z</time></trkpt><trkpt lat="43.860896203793736" lon="7.664858577159726"><ele>382.6</ele><time>2026-04-12T11:04:05.001Z</time></trkpt><trkpt lat="43.86086832717486" lon="7.664954694843647"><ele>378.4</ele><time>2026-04-12T11:04:06Z</time></trkpt><trkpt lat="43.860825186185785" lon="7.665065724602084"><ele>374.2</ele><time>2026-04-12T11:04:07Z</time></trkpt><trkpt lat="43.860738065976975" lon="7.6651538954108185"><ele>370.0</ele><time>2026-04-12T11:04:08Z</time></trkpt><trkpt lat="43.86066557551771" lon="7.665269023809359"><ele>374.2</ele><time>2026-04-12T11:04:09Z</time></trkpt><trkpt lat="43.8605868023148" lon="7.665372119295555"><ele>378.4</ele><time>2026-04-12T11:04:10Z</time></trkpt><trkpt lat="43.860510764166165" lon="7.665469005312137"><ele>382.6</ele><time>2026-04-12T11:04:11Z</time></trkpt><trkpt lat="43.860433853454865" lon="7.665549854051858"><ele>386.8</ele><time>2026-04-12T11:04:12Z</time></trkpt><trkpt lat="43.860344495908805" lon="7.665586385904607"><ele>391.0</ele><time>2026-04-12T11:04:13Z</time></trkpt><trkpt lat="43.86026356319365" lon="7.665647939960735"><ele>391.00000000000006</ele><time>2026-04-12T11:04:14Z</time></trkpt><trkpt lat="43.86018265011021" lon="7.66568919766067"><ele>391.0</ele><time>2026-04-12T11:04:15Z</time></trkpt><trkpt lat="43.86011179343669" lon="7.665741696819253"><ele>391.0</ele><time>2026-04-12T11:04:16Z</time></trkpt><trkpt lat="43.860050547732676" lon="7.665815364573177"><ele>391.0</ele><time>2026-04-12T11:04:17Z</time></trkpt><trkpt lat="43.85999537036029" lon="7.665914152489531"><ele>391.00000000000006</ele><time>2026-04-12T11:04:18Z</time></trkpt><trkpt lat="43.85993886188494" lon="7.666026202358366"><ele>391.0</ele><time>2026-04-12T11:04:19Z</time></trkpt><trkpt lat="43.85986825426616" lon="7.666139412242497"><ele>386.5</ele><time>2026-04-12T11:04:20Z</time></trkpt><trkpt lat="43.85978774784488" lon="7.666239702633792"><ele>382.0</ele><time>2026-04-12T11:04:21Z</time></trkpt><trkpt lat="43.85969888936707" lon="7.6663416812532095"><ele>377.5</ele><time>2026-04-12T11:04:22Z</time></trkpt><trkpt lat="43.85960499435965" lon="7.666447252253473"><ele>373.0</ele><time>2026-04-12T11:04:23Z</time></trkpt><trkpt lat="43.85950553257117" lon="7.666556020587468"><ele>373.0</ele><time>2026-04-12T11:04:24Z</time></trkpt><trkpt lat="43.85941048871821" lon="7.6666495716140215"><ele>373.0</ele><time>2026-04-12T11:04:25Z</time></trkpt><trkpt lat="43.85933350761147" lon="7.666718312187287"><ele>373.0</ele><time>2026-04-12T11:04:26Z</time></trkpt><trkpt lat="43.859272596413696" lon="7.666772930366217"><ele>373.0</ele><time>2026-04-12T11:04:27Z</time></trkpt><trkpt lat="43.859220339431964" lon="7.666828276970022"><ele>373.0</ele><time>2026-04-12T11:04:28Z</time></trkpt><trkpt lat="43.85916351226936" lon="7.666897784549748"><ele>373.0</ele><time>2026-04-12T11:04:29Z</time></trkpt><trkpt lat="43.85908765959481" lon="7.666946062418422"><ele>371.2</ele><time>2026-04-12T11:04:30Z</time></trkpt><trkpt lat="43.85900731222821" lon="7.667001074500246"><ele>369.4</ele><time>2026-04-12T11:04:31Z</time></trkpt><trkpt lat="43.85891986900244" lon="7.667056750652285"><ele>367.59999999999997</ele><time>2026-04-12T11:04:32Z</time></trkpt><trkpt lat="43.858839698708096" lon="7.667127429075348"><ele>365.79999999999995</ele><time>2026-04-12T11:04:33Z</time></trkpt><trkpt lat="43.85875835805697" lon="7.667177374377392"><ele>364.0</ele><time>2026-04-12T11:04:34Z</time></trkpt><trkpt lat="43.858682117034796" lon="7.667225732404443"><ele>364.0</ele><time>2026-04-12T11:04:35Z</time></trkpt><trkpt lat="43.8586083125555" lon="7.6672745594077085"><ele>364.0</ele><time>2026-04-12T11:04:36Z</time></trkpt><trkpt lat="43.85853973457439" lon="7.667329078219459"><ele>364.0</ele><time>2026-04-12T11:04:37Z</time></trkpt><trkpt lat="43.858479164260885" lon="7.667403504063114"><ele>364.0</ele><time>2026-04-12T11:04:38Z</time></trkpt><trkpt lat="43.858425145367534" lon="7.667500768930601"><ele>364.0</ele><time>2026-04-12T11:04:39Z</time></trkpt><trkpt lat="43.85836743147242" lon="7.667604635647523"><ele>364.0</ele><time>2026-04-12T11:04:40Z</time></trkpt><trkpt lat="43.85830842544513" lon="7.667710991266817"><ele>358.6</ele><time>2026-04-12T11:04:41Z</time></trkpt><trkpt lat="43.858251542409995" lon="7.667815282800442"><ele>353.2</ele><time>2026-04-12T11:04:42Z</time></trkpt><trkpt lat="43.858190003904305" lon="7.667915208378337"><ele>347.8</ele><time>2026-04-12T11:04:43Z</time></trkpt><trkpt lat="43.85812057428748" lon="7.668004089720463"><ele>342.40000000000003</ele><time>2026-04-12T11:04:44Z</time></trkpt><trkpt lat="43.858048280563885" lon="7.6680866881562375"><ele>337.0</ele><time>2026-04-12T11:04:45Z</time></trkpt><trkpt lat="43.85797678016021" lon="7.668166252272619"><ele>337.0</ele><time>2026-04-12T11:04:46Z</time></trkpt><trkpt lat="43.85790213434993" lon="7.668247233905648"><ele>337.0</ele><time>2026-04-12T11:04:47Z</time></trkpt><trkpt lat="43.857822775499" lon="7.668317573934493"><ele>337.0</ele><time>2026-04-12T11:04:48Z</time></trkpt><trkpt lat="43.85773685125634" lon="7.668373390173529"><ele>337.0</ele><time>2026-04-12T11:04:49Z</time></trkpt><trkpt lat="43.85764344706788" lon="7.668396326688661"><ele>337.0</ele><time>2026-04-12T11:04:50Z</time></trkpt><trkpt lat="43.8575506653929" lon="7.668430806353683"><ele>334.40000000000003</ele><time>2026-04-12T11:04:50.999Z</time></trkpt><trkpt lat="43.857457995054" lon="7.6684633198928704"><ele>331.8</ele><time>2026-04-12T11:04:51.999Z</time></trkpt><trkpt lat="43.85736347318881" lon="7.66849623046198"><ele>329.2</ele><time>2026-04-12T11:04:52.999Z</time></trkpt><trkpt lat="43.85726888002372" lon="7.668529693782231"><ele>326.6</ele><time>2026-04-12T11:04:53.999Z</time></trkpt><trkpt lat="43.85717576947001" lon="7.668565914649231"><ele>324.0</ele><time>2026-04-12T11:04:54.999Z</time></trkpt><trkpt lat="43.85708199666355" lon="7.668602393101317"><ele>324.0</ele><time>2026-04-12T11:04:55.999Z</time></trkpt><trkpt lat="43.85699649480264" lon="7.668634387317759"><ele>324.0</ele><time>2026-04-12T11:04:56.999Z</time></trkpt><trkpt lat="43.856918519041805" lon="7.668662895340745"><ele>324.0</ele><time>2026-04-12T11:04:57.999Z</time></trkpt><trkpt lat="43.85685687570067" lon="7.6686854322452085"><ele>324.0</ele><time>2026-04-12T11:04:58.999Z</time></trkpt><trkpt lat="43.85675456201929" lon="7.668707783988078"><ele>324.0</ele><time>2026-04-12T11:05:00.999Z</time></trkpt><trkpt lat="43.85671407284552" lon="7.668636935125913"><ele>324.0</ele><time>2026-04-12T11:05:02.999Z</time></trkpt><trkpt lat="43.856833381904494" lon="7.668410274579422"><ele>324.0</ele><time>2026-04-12T11:05:05.999Z</time></trkpt><trkpt lat="43.8569016137533" lon="7.668329244392652"><ele>324.0</ele><time>2026-04-12T11:05:06.999Z</time></trkpt><trkpt lat="43.85696965249418" lon="7.668246199369835"><ele>324.0</ele><time>2026-04-12T11:05:07.999Z</time></trkpt><trkpt lat="43.85704407618107" lon="7.668133136927446"><ele>324.0</ele><time>2026-04-12T11:05:08.999Z</time></trkpt><trkpt lat="43.85711971966005" lon="7.668021245951755"><ele>324.0</ele><time>2026-04-12T11:05:09.999Z</time></trkpt><trkpt lat="43.85719209756537" lon="7.667911526060092"><ele>324.0</ele><time>2026-04-12T11:05:10.999Z</time></trkpt><trkpt lat="43.85726213865974" lon="7.667804998890261"><ele>324.0</ele><time>2026-04-12T11:05:11.999Z</time></trkpt><trkpt lat="43.857322992902425" lon="7.667709734566337"><ele>324.0</ele><time>2026-04-12T11:05:12.999Z</time></trkpt><trkpt lat="43.85738093376838" lon="7.667622343541669"><ele>324.0</ele><time>2026-04-12T11:05:13.999Z</time></trkpt><trkpt lat="43.85743106155109" lon="7.667523317624023"><ele>324.0</ele><time>2026-04-12T11:05:14.999Z</time></trkpt><trkpt lat="43.85748357074392" lon="7.667428391115597"><ele>323.8333333333333</ele><time>2026-04-12T11:05:15.999Z</time></trkpt><trkpt lat="43.85751337608752" lon="7.6673165142129776"><ele>323.6666666666667</ele><time>2026-04-12T11:05:16.999Z</time></trkpt><trkpt lat="43.8575225792145" lon="7.6672006695930355"><ele>323.5</ele><time>2026-04-12T11:05:17.999Z</time></trkpt><trkpt lat="43.857534950169665" lon="7.667101170774262"><ele>323.33333333333337</ele><time>2026-04-12T11:05:18.999Z</time></trkpt><trkpt lat="43.85754386996689" lon="7.66700165026023"><ele>323.1666666666667</ele><time>2026-04-12T11:05:19.999Z</time></trkpt><trkpt lat="43.857590453082764" lon="7.666915404658673"><ele>323.0</ele><time>2026-04-12T11:05:20.999Z</time></trkpt><trkpt lat="43.8576546114394" lon="7.666831016549599"><ele>323.0</ele><time>2026-04-12T11:05:21.999Z</time></trkpt><trkpt lat="43.85772899790447" lon="7.666746269205192"><ele>323.0</ele><time>2026-04-12T11:05:22.999Z</time></trkpt><trkpt lat="43.857805532339" lon="7.6666594697696855"><ele>323.0</ele><time>2026-04-12T11:05:23.999Z</time></trkpt><trkpt lat="43.85788109195764" lon="7.666563770724095"><ele>323.0</ele><time>2026-04-12T11:05:24.999Z</time></trkpt><trkpt lat="43.857959657453" lon="7.666461274546932"><ele>323.0</ele><time>2026-04-12T11:05:25.999Z</time></trkpt><trkpt lat="43.85803685843002" lon="7.6663627806723875"><ele>323.0</ele><time>2026-04-12T11:05:26.999Z</time></trkpt><trkpt lat="43.858110396266184" lon="7.6662643799547"><ele>323.0</ele><time>2026-04-12T11:05:27.999Z</time></trkpt><trkpt lat="43.85817832712989" lon="7.6661641538167755"><ele>323.0</ele><time>2026-04-12T11:05:28.999Z</time></trkpt><trkpt lat="43.858238944157954" lon="7.666065941103806"><ele>323.0</ele><time>2026-04-12T11:05:29.999Z</time></trkpt><trkpt lat="43.858284087675734" lon="7.6659551959599055"><ele>323.0</ele><time>2026-04-12T11:05:30.999Z</time></trkpt><trkpt lat="43.858334230605" lon="7.665847498373475"><ele>319.79999999999995</ele><time>2026-04-12T11:05:31.998Z</time></trkpt><trkpt lat="43.858358303231675" lon="7.665714354190769"><ele>316.59999999999997</ele><time>2026-04-12T11:05:32.998Z</time></trkpt><trkpt lat="43.85836394630349" lon="7.665579840042405"><ele>313.4</ele><time>2026-04-12T11:05:33.998Z</time></trkpt><trkpt lat="43.858355186974045" lon="7.665446381979209"><ele>310.2</ele><time>2026-04-12T11:05:34.998Z</time></trkpt><trkpt lat="43.85835198161024" lon="7.66531678457952"><ele>307.0</ele><time>2026-04-12T11:05:35.998Z</time></trkpt><trkpt lat="43.85834937253768" lon="7.665186450841183"><ele>305.66666666666663</ele><time>2026-04-12T11:05:36.998Z</time></trkpt><trkpt lat="43.858346751364444" lon="7.6650555125669895"><ele>304.3333333333333</ele><time>2026-04-12T11:05:37.998Z</time></trkpt><trkpt lat="43.85834534946011" lon="7.664937222415224"><ele>303.0</ele><time>2026-04-12T11:05:38.998Z</time></trkpt><trkpt lat="43.85834534946173" lon="7.664833903484228"><ele>301.6666666666667</ele><time>2026-04-12T11:05:39.998Z</time></trkpt><trkpt lat="43.8583538681584" lon="7.6647417952349715"><ele>300.33333333333337</ele><time>2026-04-12T11:05:40.998Z</time></trkpt><trkpt lat="43.858375577993584" lon="7.6646476512398065"><ele>299.0</ele><time>2026-04-12T11:05:41.998Z</time></trkpt><trkpt lat="43.858412729558566" lon="7.664549717952736"><ele>300.8</ele><time>2026-04-12T11:05:42.998Z</time></trkpt><trkpt lat="43.85844974235947" lon="7.66442359513471"><ele>302.59999999999997</ele><time>2026-04-12T11:05:43.998Z</time></trkpt><trkpt lat="43.85850850496069" lon="7.6642999568046735"><ele>304.4</ele><time>2026-04-12T11:05:44.998Z</time></trkpt><trkpt lat="43.858569929082805" lon="7.66419357501893"><ele>306.2</ele><time>2026-04-12T11:05:45.998Z</time></trkpt><trkpt lat="43.858599001611964" lon="7.664082257282227"><ele>308.0</ele><time>2026-04-12T11:05:46.998Z</time></trkpt><trkpt lat="43.85863643166499" lon="7.66400842557159"><ele>308.0</ele><time>2026-04-12T11:05:47.998Z</time></trkpt><trkpt lat="43.85868831448942" lon="7.663903548844781"><ele>308.0</ele><time>2026-04-12T11:05:49.998Z</time></trkpt><trkpt lat="43.858628432682906" lon="7.663764972210131"><ele>308.0</ele><time>2026-04-12T11:05:51.998Z</time></trkpt><trkpt lat="43.85853558996877" lon="7.663773413458017"><ele>308.0</ele><time>2026-04-12T11:05:52.998Z</time></trkpt><trkpt lat="43.85848063847323" lon="7.6638850280047865"><ele>308.0</ele><time>2026-04-12T11:05:53.998Z</time></trkpt><trkpt lat="43.858409010827856" lon="7.663959924070289"><ele>304.83333333333337</ele><time>2026-04-12T11:05:54.998Z</time></trkpt><trkpt lat="43.85833778718854" lon="7.664048310424536"><ele>301.6666666666667</ele><time>2026-04-12T11:05:55.998Z</time></trkpt><trkpt lat="43.858273091796825" lon="7.664150087063972"><ele>298.5</ele><time>2026-04-12T11:05:56.998Z</time></trkpt><trkpt lat="43.85820425831761" lon="7.664223199891089"><ele>295.3333333333333</ele><time>2026-04-12T11:05:57.998Z</time></trkpt><trkpt lat="43.85813807844289" lon="7.664299619862959"><ele>292.16666666666663</ele><time>2026-04-12T11:05:58.998Z</time></trkpt><trkpt lat="43.8580741897589" lon="7.664367119894806"><ele>289.0</ele><time>2026-04-12T11:05:59.998Z</time></trkpt><trkpt lat="43.8580219178371" lon="7.664445790016596"><ele>290.66666666666663</ele><time>2026-04-12T11:06:00.998Z</time></trkpt><trkpt lat="43.85798417659722" lon="7.664539566619805"><ele>292.3333333333333</ele><time>2026-04-12T11:06:01.998Z</time></trkpt><trkpt lat="43.857966126685604" lon="7.664649160528099"><ele>294.0</ele><time>2026-04-12T11:06:02.998Z</time></trkpt><trkpt lat="43.857946239990426" lon="7.664756129349658"><ele>295.6666666666667</ele><time>2026-04-12T11:06:04Z</time></trkpt><trkpt lat="43.857916973174426" lon="7.6648567486123955"><ele>297.33333333333337</ele><time>2026-04-12T11:06:05Z</time></trkpt><trkpt lat="43.857877423476836" lon="7.66495353760185"><ele>299.0</ele><time>2026-04-12T11:06:06Z</time></trkpt><trkpt lat="43.8578258440981" lon="7.665049379233713"><ele>299.0</ele><time>2026-04-12T11:06:07Z</time></trkpt><trkpt lat="43.85776695035495" lon="7.665142163115242"><ele>299.0</ele><time>2026-04-12T11:06:08Z</time></trkpt><trkpt lat="43.8577118212536" lon="7.665233269835991"><ele>299.0</ele><time>2026-04-12T11:06:09Z</time></trkpt><trkpt lat="43.857652902699535" lon="7.665320760925332"><ele>299.0</ele><time>2026-04-12T11:06:10Z</time></trkpt><trkpt lat="43.857581990723425" lon="7.665387960797467"><ele>299.0</ele><time>2026-04-12T11:06:11Z</time></trkpt><trkpt lat="43.85749342156625" lon="7.665382861471815"><ele>299.0</ele><time>2026-04-12T11:06:12Z</time></trkpt><trkpt lat="43.857406487731" lon="7.665396802518777"><ele>296.4</ele><time>2026-04-12T11:06:13Z</time></trkpt><trkpt lat="43.857315182512565" lon="7.665413137094023"><ele>293.79999999999995</ele><time>2026-04-12T11:06:14Z</time></trkpt><trkpt lat="43.85722941231137" lon="7.665476460705139"><ele>291.20000000000005</ele><time>2026-04-12T11:06:15Z</time></trkpt><trkpt lat="43.85713771875752" lon="7.665503906261698"><ele>288.6</ele><time>2026-04-12T11:06:16Z</time></trkpt><trkpt lat="43.85705414702876" lon="7.665553713996349"><ele>286.0</ele><time>2026-04-12T11:06:17Z</time></trkpt><trkpt lat="43.85697137675298" lon="7.66560646157534"><ele>286.0</ele><time>2026-04-12T11:06:18Z</time></trkpt><trkpt lat="43.85690149474684" lon="7.665684324281717"><ele>286.0</ele><time>2026-04-12T11:06:19Z</time></trkpt><trkpt lat="43.85683064683646" lon="7.6657455089077695"><ele>286.0</ele><time>2026-04-12T11:06:20Z</time></trkpt><trkpt lat="43.856770109279324" lon="7.665827482557686"><ele>286.0</ele><time>2026-04-12T11:06:21Z</time></trkpt><trkpt lat="43.85670280248115" lon="7.665900545744535"><ele>286.0</ele><time>2026-04-12T11:06:22Z</time></trkpt><trkpt lat="43.856662447070995" lon="7.666007301286539"><ele>286.0</ele><time>2026-04-12T11:06:23Z</time></trkpt><trkpt lat="43.85660755593456" lon="7.666094677431047"><ele>284.3333333333333</ele><time>2026-04-12T11:06:24Z</time></trkpt><trkpt lat="43.85655653011182" lon="7.666183251964247"><ele>282.66666666666663</ele><time>2026-04-12T11:06:25Z</time></trkpt><trkpt lat="43.85651185069413" lon="7.666274931746065"><ele>281.0</ele><time>2026-04-12T11:06:26Z</time></trkpt><trkpt lat="43.856474376673106" lon="7.666373405197715"><ele>279.3333333333333</ele><time>2026-04-12T11:06:27Z</time></trkpt><trkpt lat="43.856441304496514" lon="7.666477305828501"><ele>277.6666666666667</ele><time>2026-04-12T11:06:28Z</time></trkpt><trkpt lat="43.856414109662886" lon="7.666585674200516"><ele>276.0</ele><time>2026-04-12T11:06:29Z</time></trkpt><trkpt lat="43.85639108543069" lon="7.666694076753683"><ele>276.0</ele><time>2026-04-12T11:06:30Z</time></trkpt><trkpt lat="43.856361348335724" lon="7.666801344794201"><ele>276.0</ele><time>2026-04-12T11:06:31Z</time></trkpt><trkpt lat="43.85632211916231" lon="7.6669028990956924"><ele>276.0</ele><time>2026-04-12T11:06:32Z</time></trkpt><trkpt lat="43.856269004888155" lon="7.666995078637149"><ele>276.0</ele><time>2026-04-12T11:06:33Z</time></trkpt><trkpt lat="43.856207091098305" lon="7.667076262703944"><ele>276.0</ele><time>2026-04-12T11:06:34Z</time></trkpt><trkpt lat="43.856150486635876" lon="7.66716236998271"><ele>276.0</ele><time>2026-04-12T11:06:35Z</time></trkpt><trkpt lat="43.85609313025675" lon="7.667252711679539"><ele>278.1666666666667</ele><time>2026-04-12T11:06:36Z</time></trkpt><trkpt lat="43.85602226059547" lon="7.667318588370877"><ele>280.3333333333333</ele><time>2026-04-12T11:06:37Z</time></trkpt><trkpt lat="43.85594980621336" lon="7.667373256229211"><ele>282.5</ele><time>2026-04-12T11:06:38Z</time></trkpt><trkpt lat="43.85587485512493" lon="7.667419305738952"><ele>284.66666666666663</ele><time>2026-04-12T11:06:39Z</time></trkpt><trkpt lat="43.855796482798254" lon="7.667456789946418"><ele>286.8333333333333</ele><time>2026-04-12T11:06:40Z</time></trkpt><trkpt lat="43.8557181659914" lon="7.6674846060184665"><ele>289.0</ele><time>2026-04-12T11:06:41Z</time></trkpt><trkpt lat="43.85563981796243" lon="7.667498339459525"><ele>284.16666666666663</ele><time>2026-04-12T11:06:42Z</time></trkpt><trkpt lat="43.85556158302338" lon="7.667498805202621"><ele>279.3333333333333</ele><time>2026-04-12T11:06:43Z</time></trkpt><trkpt lat="43.85548198359267" lon="7.667501747215417"><ele>274.5</ele><time>2026-04-12T11:06:44Z</time></trkpt><trkpt lat="43.855401345202374" lon="7.667501844896877"><ele>269.6666666666667</ele><time>2026-04-12T11:06:45Z</time></trkpt><trkpt lat="43.85531704719012" lon="7.667507817703667"><ele>264.83333333333337</ele><time>2026-04-12T11:06:46Z</time></trkpt><trkpt lat="43.85523584971455" lon="7.667516299186241"><ele>260.0</ele><time>2026-04-12T11:06:47Z</time></trkpt><trkpt lat="43.85515111043134" lon="7.667536161923809"><ele>260.8</ele><time>2026-04-12T11:06:48Z</time></trkpt><trkpt lat="43.855061521335685" lon="7.667583728353723"><ele>261.6</ele><time>2026-04-12T11:06:49Z</time></trkpt><trkpt lat="43.85497707912574" lon="7.667645015224195"><ele>262.4</ele><time>2026-04-12T11:06:50Z</time></trkpt><trkpt lat="43.85489909801686" lon="7.6677167888184234"><ele>263.2</ele><time>2026-04-12T11:06:51Z</time></trkpt><trkpt lat="43.854817538592975" lon="7.667762772421375"><ele>264.0</ele><time>2026-04-12T11:06:52Z</time></trkpt><trkpt lat="43.85472926328218" lon="7.667779212413331"><ele>264.0</ele><time>2026-04-12T11:06:53Z</time></trkpt><trkpt lat="43.85463776032526" lon="7.667794808287095"><ele>264.0</ele><time>2026-04-12T11:06:53.999Z</time></trkpt><trkpt lat="43.85454487776853" lon="7.6678094493505675"><ele>264.0</ele><time>2026-04-12T11:06:54.999Z</time></trkpt><trkpt lat="43.85445331717398" lon="7.6678251926551395"><ele>264.0</ele><time>2026-04-12T11:06:55.999Z</time></trkpt><trkpt lat="43.85436203492912" lon="7.667851220836252"><ele>264.0</ele><time>2026-04-12T11:06:56.999Z</time></trkpt><trkpt lat="43.85427428585742" lon="7.667887911369529"><ele>259.1666666666667</ele><time>2026-04-12T11:06:57.999Z</time></trkpt><trkpt lat="43.85418845762757" lon="7.667930504591312"><ele>254.33333333333331</ele><time>2026-04-12T11:06:58.999Z</time></trkpt><trkpt lat="43.85411322289702" lon="7.6679913499648205"><ele>249.5</ele><time>2026-04-12T11:06:59.999Z</time></trkpt><trkpt lat="43.854052607448075" lon="7.668028509596233"><ele>244.66666666666666</ele><time>2026-04-12T11:07:00.999Z</time></trkpt><trkpt lat="43.8539992274104" lon="7.668081706474195"><ele>239.83333333333331</ele><time>2026-04-12T11:07:01.999Z</time></trkpt><trkpt lat="43.853933885454474" lon="7.668226384747842"><ele>235.0</ele><time>2026-04-12T11:07:03.999Z</time></trkpt><trkpt lat="43.853952271929536" lon="7.668402040716254"><ele>235.0</ele><time>2026-04-12T11:07:05.999Z</time></trkpt><trkpt lat="43.85400172848269" lon="7.668488649809184"><ele>235.0</ele><time>2026-04-12T11:07:06.999Z</time></trkpt><trkpt lat="43.85407469875855" lon="7.668587808249111"><ele>235.0</ele><time>2026-04-12T11:07:07.999Z</time></trkpt><trkpt lat="43.854157625352926" lon="7.668708584124021"><ele>235.0</ele><time>2026-04-12T11:07:08.999Z</time></trkpt><trkpt lat="43.85424436437802" lon="7.66884721057651"><ele>235.0</ele><time>2026-04-12T11:07:09.999Z</time></trkpt><trkpt lat="43.85433493190624" lon="7.669000853450824"><ele>235.75</ele><time>2026-04-12T11:07:10.999Z</time></trkpt><trkpt lat="43.854417835148936" lon="7.669153371250651"><ele>236.5</ele><time>2026-04-12T11:07:11.999Z</time></trkpt><trkpt lat="43.85450159824632" lon="7.669299391807492"><ele>237.25</ele><time>2026-04-12T11:07:12.999Z</time></trkpt><trkpt lat="43.85458152438653" lon="7.669427979773001"><ele>238.0</ele><time>2026-04-12T11:07:13.999Z</time></trkpt><trkpt lat="43.854655036939306" lon="7.669540084279258"><ele>238.0</ele><time>2026-04-12T11:07:14.999Z</time></trkpt><trkpt lat="43.85471613448206" lon="7.669640365765291"><ele>238.0</ele><time>2026-04-12T11:07:15.999Z</time></trkpt><trkpt lat="43.8547670759504" lon="7.669719185486645"><ele>238.0</ele><time>2026-04-12T11:07:16.999Z</time></trkpt><trkpt lat="43.854856531977184" lon="7.669823979699499"><ele>238.0</ele><time>2026-04-12T11:07:18.999Z</time></trkpt><trkpt lat="43.85488657729263" lon="7.669937647600568"><ele>238.0</ele><time>2026-04-12T11:07:20.999Z</time></trkpt><trkpt lat="43.85475360846249" lon="7.6699503941998195"><ele>238.0</ele><time>2026-04-12T11:07:23.999Z</time></trkpt><trkpt lat="43.8546583392019" lon="7.6698191381314915"><ele>238.0</ele><time>2026-04-12T11:07:25.999Z</time></trkpt><trkpt lat="43.854590756251596" lon="7.669732728276261"><ele>238.0</ele><time>2026-04-12T11:07:26.999Z</time></trkpt><trkpt lat="43.854508454702966" lon="7.66968424306021"><ele>238.0</ele><time>2026-04-12T11:07:27.999Z</time></trkpt><trkpt lat="43.85442536988358" lon="7.669660054212754"><ele>238.0</ele><time>2026-04-12T11:07:28.999Z</time></trkpt><trkpt lat="43.85434317981312" lon="7.669642239111896"><ele>236.57142857142856</ele><time>2026-04-12T11:07:29.999Z</time></trkpt><trkpt lat="43.85426444514533" lon="7.669649602909988"><ele>235.14285714285714</ele><time>2026-04-12T11:07:30.999Z</time></trkpt><trkpt lat="43.85418908981078" lon="7.669634517012379"><ele>233.71428571428572</ele><time>2026-04-12T11:07:31.999Z</time></trkpt><trkpt lat="43.85412298563852" lon="7.6695983736136935"><ele>232.28571428571428</ele><time>2026-04-12T11:07:32.999Z</time></trkpt><trkpt lat="43.854067503109626" lon="7.669556034328361"><ele>230.85714285714283</ele><time>2026-04-12T11:07:33.999Z</time></trkpt><trkpt lat="43.8540235585602" lon="7.669491156613713"><ele>229.42857142857142</ele><time>2026-04-12T11:07:34.998Z</time></trkpt><trkpt lat="43.85399527865616" lon="7.669394818596922"><ele>228.0</ele><time>2026-04-12T11:07:35.998Z</time></trkpt><trkpt lat="43.853940997242866" lon="7.669276698502893"><ele>228.0</ele><time>2026-04-12T11:07:36.998Z</time></trkpt><trkpt lat="43.85388207459369" lon="7.66917342085194"><ele>228.0</ele><time>2026-04-12T11:07:37.998Z</time></trkpt><trkpt lat="43.85381420755499" lon="7.669057166609354"><ele>228.0</ele><time>2026-04-12T11:07:38.998Z</time></trkpt><trkpt lat="43.853747769929896" lon="7.6689446739394125"><ele>228.0</ele><time>2026-04-12T11:07:39.998Z</time></trkpt><trkpt lat="43.85367749443627" lon="7.668841443783188"><ele>228.0</ele><time>2026-04-12T11:07:40.998Z</time></trkpt><trkpt lat="43.85360154012965" lon="7.668754805232275"><ele>228.0</ele><time>2026-04-12T11:07:41.998Z</time></trkpt><trkpt lat="43.85351538416509" lon="7.668687709696111"><ele>228.0</ele><time>2026-04-12T11:07:42.998Z</time></trkpt><trkpt lat="43.85344757297136" lon="7.66862605241971"><ele>228.0</ele><time>2026-04-12T11:07:43.998Z</time></trkpt><trkpt lat="43.85338667003565" lon="7.6685614658419885"><ele>228.0</ele><time>2026-04-12T11:07:44.998Z</time></trkpt><trkpt lat="43.853337528228536" lon="7.668482641194363"><ele>228.0</ele><time>2026-04-12T11:07:45.998Z</time></trkpt><trkpt lat="43.85330868104276" lon="7.668391003685311"><ele>228.0</ele><time>2026-04-12T11:07:46.998Z</time></trkpt><trkpt lat="43.85328977340368" lon="7.668288358993131"><ele>225.60000000000002</ele><time>2026-04-12T11:07:47.998Z</time></trkpt><trkpt lat="43.853295662884065" lon="7.668181570936317"><ele>223.20000000000002</ele><time>2026-04-12T11:07:48.998Z</time></trkpt><trkpt lat="43.8532940767035" lon="7.668060181524891"><ele>220.8</ele><time>2026-04-12T11:07:49.998Z</time></trkpt><trkpt lat="43.853358998003245" lon="7.667957608697338"><ele>218.4</ele><time>2026-04-12T11:07:50.998Z</time></trkpt><trkpt lat="43.85340514291615" lon="7.667841322470312"><ele>216.0</ele><time>2026-04-12T11:07:51.998Z</time></trkpt><trkpt lat="43.85347544609004" lon="7.667750344398342"><ele>216.0</ele><time>2026-04-12T11:07:52.998Z</time></trkpt><trkpt lat="43.85354849446491" lon="7.667669160191046"><ele>216.0</ele><time>2026-04-12T11:07:53.998Z</time></trkpt><trkpt lat="43.8536079951498" lon="7.667617091857187"><ele>216.0</ele><time>2026-04-12T11:07:54.998Z</time></trkpt><trkpt lat="43.85366827222546" lon="7.667565337339686"><ele>216.0</ele><time>2026-04-12T11:07:55.998Z</time></trkpt><trkpt lat="43.8537450915606" lon="7.667464024316994"><ele>216.0</ele><time>2026-04-12T11:07:57.998Z</time></trkpt><trkpt lat="43.853738087430564" lon="7.667325766607752"><ele>216.0</ele><time>2026-04-12T11:07:59.998Z</time></trkpt><trkpt lat="43.85368342006479" lon="7.6672673563639195"><ele>216.0</ele><time>2026-04-12T11:08:01.998Z</time></trkpt><trkpt lat="43.8535384398326" lon="7.667422449525121"><ele>216.00000000000003</ele><time>2026-04-12T11:08:02.998Z</time></trkpt><trkpt lat="43.85347928215717" lon="7.667502948537559"><ele>216.00000000000003</ele><time>2026-04-12T11:08:03.998Z</time></trkpt><trkpt lat="43.85341611324954" lon="7.667576673613593"><ele>216.0</ele><time>2026-04-12T11:08:04.998Z</time></trkpt><trkpt lat="43.853348765364096" lon="7.667649076571583"><ele>216.0</ele><time>2026-04-12T11:08:05.998Z</time></trkpt><trkpt lat="43.85327757917873" lon="7.667723472026195"><ele>214.16666666666666</ele><time>2026-04-12T11:08:06.998Z</time></trkpt><trkpt lat="43.853210624168085" lon="7.6678023125183845"><ele>212.33333333333331</ele><time>2026-04-12T11:08:07.998Z</time></trkpt><trkpt lat="43.853143322046435" lon="7.667885153920895"><ele>210.5</ele><time>2026-04-12T11:08:09Z</time></trkpt><trkpt lat="43.85308173049792" lon="7.6679728101683535"><ele>208.66666666666666</ele><time>2026-04-12T11:08:10Z</time></trkpt><trkpt lat="43.85302352373659" lon="7.668065583072436"><ele>206.83333333333331</ele><time>2026-04-12T11:08:11Z</time></trkpt><trkpt lat="43.8529728597027" lon="7.6681620172727"><ele>205.0</ele><time>2026-04-12T11:08:12Z</time></trkpt><trkpt lat="43.852929237446475" lon="7.668257507551748"><ele>204.99999999999997</ele><time>2026-04-12T11:08:13Z</time></trkpt><trkpt lat="43.85290576427134" lon="7.668363949738288"><ele>205.0</ele><time>2026-04-12T11:08:14Z</time></trkpt><trkpt lat="43.852894522096896" lon="7.668472012264836"><ele>205.0</ele><time>2026-04-12T11:08:15Z</time></trkpt><trkpt lat="43.85288277750028" lon="7.668578924822277"><ele>205.0</ele><time>2026-04-12T11:08:16Z</time></trkpt><trkpt lat="43.85286236666829" lon="7.668676779997616"><ele>204.99999999999997</ele><time>2026-04-12T11:08:17Z</time></trkpt><trkpt lat="43.852776624657956" lon="7.668789957266099"><ele>205.0</ele><time>2026-04-12T11:08:19Z</time></trkpt><trkpt lat="43.852712785690514" lon="7.668752334187379"><ele>203.0</ele><time>2026-04-12T11:08:20Z</time></trkpt><trkpt lat="43.85261198777838" lon="7.6686326449605495"><ele>201.0</ele><time>2026-04-12T11:08:22Z</time></trkpt><trkpt lat="43.85254950832747" lon="7.668549017850649"><ele>199.0</ele><time>2026-04-12T11:08:23Z</time></trkpt><trkpt lat="43.852480939030414" lon="7.668457236990366"><ele>197.0</ele><time>2026-04-12T11:08:24Z</time></trkpt><trkpt lat="43.852404978657255" lon="7.668362460530081"><ele>195.0</ele><time>2026-04-12T11:08:25Z</time></trkpt><trkpt lat="43.8523340213029" lon="7.668271924562208"><ele>193.8</ele><time>2026-04-12T11:08:26Z</time></trkpt><trkpt lat="43.852265454065005" lon="7.668186466000142"><ele>192.6</ele><time>2026-04-12T11:08:27Z</time></trkpt><trkpt lat="43.85219677877643" lon="7.668106329026773"><ele>191.39999999999998</ele><time>2026-04-12T11:08:28Z</time></trkpt><trkpt lat="43.852120784037176" lon="7.668040520632083"><ele>190.2</ele><time>2026-04-12T11:08:29Z</time></trkpt><trkpt lat="43.852025005702906" lon="7.668045359768487"><ele>189.0</ele><time>2026-04-12T11:08:30Z</time></trkpt><trkpt lat="43.85193445183174" lon="7.668034916508755"><ele>189.0</ele><time>2026-04-12T11:08:31Z</time></trkpt><trkpt lat="43.85183472053482" lon="7.668040119952576"><ele>189.0</ele><time>2026-04-12T11:08:32Z</time></trkpt><trkpt lat="43.85172738392912" lon="7.668043113833305"><ele>189.0</ele><time>2026-04-12T11:08:33Z</time></trkpt><trkpt lat="43.85161867349715" lon="7.668027571201868"><ele>189.0</ele><time>2026-04-12T11:08:34Z</time></trkpt><trkpt lat="43.851521854405206" lon="7.66796239023164"><ele>189.0</ele><time>2026-04-12T11:08:35Z</time></trkpt><trkpt lat="43.851429468253414" lon="7.667946403837323"><ele>188.6</ele><time>2026-04-12T11:08:36Z</time></trkpt><trkpt lat="43.85133638930523" lon="7.667919676090982"><ele>188.2</ele><time>2026-04-12T11:08:37Z</time></trkpt><trkpt lat="43.85124247220849" lon="7.667915658918571"><ele>187.79999999999998</ele><time>2026-04-12T11:08:38Z</time></trkpt><trkpt lat="43.851150950853125" lon="7.66786541658721"><ele>187.39999999999998</ele><time>2026-04-12T11:08:39Z</time></trkpt><trkpt lat="43.85105642627256" lon="7.667790599411027"><ele>187.0</ele><time>2026-04-12T11:08:40Z</time></trkpt><trkpt lat="43.85095081875723" lon="7.667706696010321"><ele>187.0</ele><time>2026-04-12T11:08:41Z</time></trkpt><trkpt lat="43.85085006651508" lon="7.667594946973031"><ele>187.0</ele><time>2026-04-12T11:08:42Z</time></trkpt><trkpt lat="43.85073543471553" lon="7.667493908242898"><ele>187.0</ele><time>2026-04-12T11:08:43Z</time></trkpt><trkpt lat="43.850626923295444" lon="7.667388223206824"><ele>187.0</ele><time>2026-04-12T11:08:44Z</time></trkpt><trkpt lat="43.85051772772144" lon="7.667273356125237"><ele>187.0</ele><time>2026-04-12T11:08:45Z</time></trkpt><trkpt lat="43.85040833878484" lon="7.667171961908104"><ele>187.0</ele><time>2026-04-12T11:08:46Z</time></trkpt><trkpt lat="43.85029348809455" lon="7.667078463355462"><ele>187.0</ele><time>2026-04-12T11:08:47Z</time></trkpt><trkpt lat="43.85016986239254" lon="7.66699480897978"><ele>187.0</ele><time>2026-04-12T11:08:48Z</time></trkpt><trkpt lat="43.85004032478316" lon="7.666908505568936"><ele>185.5</ele><time>2026-04-12T11:08:49Z</time></trkpt><trkpt lat="43.84991344672357" lon="7.666825627706894"><ele>184.0</ele><time>2026-04-12T11:08:50Z</time></trkpt><trkpt lat="43.849789152332534" lon="7.66674219725388"><ele>182.5</ele><time>2026-04-12T11:08:51Z</time></trkpt><trkpt lat="43.84966828191412" lon="7.666658838898714"><ele>181.0</ele><time>2026-04-12T11:08:52Z</time></trkpt><trkpt lat="43.84954076852442" lon="7.6665953359021675"><ele>181.0</ele><time>2026-04-12T11:08:53Z</time></trkpt><trkpt lat="43.84942232869763" lon="7.666495039094631"><ele>181.0</ele><time>2026-04-12T11:08:54Z</time></trkpt><trkpt lat="43.849284982057746" lon="7.6664303388412645"><ele>181.0</ele><time>2026-04-12T11:08:54.999Z</time></trkpt><trkpt lat="43.8491451160229" lon="7.666378503792881"><ele>181.0</ele><time>2026-04-12T11:08:55.999Z</time></trkpt><trkpt lat="43.84900581985003" lon="7.6663144686028355"><ele>180.0</ele><time>2026-04-12T11:08:56.999Z</time></trkpt><trkpt lat="43.84887022977184" lon="7.666236666008282"><ele>179.0</ele><time>2026-04-12T11:08:57.999Z</time></trkpt><trkpt lat="43.8487354584193" lon="7.666149725430385"><ele>178.0</ele><time>2026-04-12T11:08:58.999Z</time></trkpt><trkpt lat="43.84859774222755" lon="7.666059491790333"><ele>177.0</ele><time>2026-04-12T11:08:59.999Z</time></trkpt><trkpt lat="43.84845597948268" lon="7.6659698595409935"><ele>179.0</ele><time>2026-04-12T11:09:00.999Z</time></trkpt><trkpt lat="43.84832113975392" lon="7.665885808702939"><ele>181.0</ele><time>2026-04-12T11:09:01.999Z</time></trkpt><trkpt lat="43.84820524616924" lon="7.6658097592596555"><ele>183.0</ele><time>2026-04-12T11:09:02.999Z</time></trkpt><trkpt lat="43.84810379420934" lon="7.665740372403138"><ele>185.0</ele><time>2026-04-12T11:09:03.999Z</time></trkpt><trkpt lat="43.84800226496514" lon="7.665706550186466"><ele>185.0</ele><time>2026-04-12T11:09:04.999Z</time></trkpt><trkpt lat="43.84791109004539" lon="7.665666410067671"><ele>185.0</ele><time>2026-04-12T11:09:05.999Z</time></trkpt><trkpt lat="43.84781271490919" lon="7.665664981932894"><ele>185.0</ele><time>2026-04-12T11:09:06.999Z</time></trkpt><trkpt lat="43.84770866071893" lon="7.6656988675296605"><ele>185.0</ele><time>2026-04-12T11:09:07.999Z</time></trkpt><trkpt lat="43.84760218253946" lon="7.665718507820234"><ele>185.0</ele><time>2026-04-12T11:09:08.999Z</time></trkpt><trkpt lat="43.84750825622426" lon="7.665742964405891"><ele>182.8</ele><time>2026-04-12T11:09:09.999Z</time></trkpt><trkpt lat="43.847425431301" lon="7.665726942441452"><ele>180.6</ele><time>2026-04-12T11:09:10.999Z</time></trkpt><trkpt lat="43.84733242760761" lon="7.665679418565097"><ele>178.39999999999998</ele><time>2026-04-12T11:09:11.999Z</time></trkpt><trkpt lat="43.84722626423278" lon="7.665615748142848"><ele>176.2</ele><time>2026-04-12T11:09:12.999Z</time></trkpt><trkpt lat="43.847116166999314" lon="7.665548597896687"><ele>174.0</ele><time>2026-04-12T11:09:13.999Z</time></trkpt><trkpt lat="43.84700642251693" lon="7.665479123191955"><ele>174.0</ele><time>2026-04-12T11:09:14.999Z</time></trkpt><trkpt lat="43.84690664300929" lon="7.665405728217227"><ele>174.0</ele><time>2026-04-12T11:09:15.999Z</time></trkpt><trkpt lat="43.84682318563958" lon="7.665316814796173"><ele>174.0</ele><time>2026-04-12T11:09:16.999Z</time></trkpt><trkpt lat="43.846739646702154" lon="7.6651947135450245"><ele>174.0</ele><time>2026-04-12T11:09:17.999Z</time></trkpt><trkpt lat="43.846645082387234" lon="7.665056976825479"><ele>174.75</ele><time>2026-04-12T11:09:18.999Z</time></trkpt><trkpt lat="43.8465498921978" lon="7.664918327119819"><ele>175.5</ele><time>2026-04-12T11:09:19.999Z</time></trkpt><trkpt lat="43.846462340563676" lon="7.664791244168696"><ele>176.25</ele><time>2026-04-12T11:09:20.999Z</time></trkpt><trkpt lat="43.84637734081586" lon="7.6646808089243565"><ele>177.0</ele><time>2026-04-12T11:09:21.999Z</time></trkpt><trkpt lat="43.846282374079415" lon="7.66458670974822"><ele>177.0</ele><time>2026-04-12T11:09:22.999Z</time></trkpt><trkpt lat="43.84617799788005" lon="7.664512086685416"><ele>177.0</ele><time>2026-04-12T11:09:23.999Z</time></trkpt><trkpt lat="43.84606909524135" lon="7.664437065214687"><ele>177.0</ele><time>2026-04-12T11:09:24.999Z</time></trkpt><trkpt lat="43.84595665005775" lon="7.66435931773372"><ele>177.0</ele><time>2026-04-12T11:09:25.999Z</time></trkpt><trkpt lat="43.845843868911665" lon="7.6642893934255465"><ele>177.39999999999998</ele><time>2026-04-12T11:09:26.999Z</time></trkpt><trkpt lat="43.84573384066527" lon="7.664244282701064"><ele>177.79999999999998</ele><time>2026-04-12T11:09:27.999Z</time></trkpt><trkpt lat="43.84562102323809" lon="7.664225560463089"><ele>178.2</ele><time>2026-04-12T11:09:28.999Z</time></trkpt><trkpt lat="43.84552075940471" lon="7.66424994513438"><ele>178.6</ele><time>2026-04-12T11:09:29.999Z</time></trkpt><trkpt lat="43.84545032339095" lon="7.6642447006863526"><ele>179.0</ele><time>2026-04-12T11:09:30.999Z</time></trkpt><trkpt lat="43.845379808050325" lon="7.664224486182597"><ele>179.0</ele><time>2026-04-12T11:09:31.999Z</time></trkpt><trkpt lat="43.845316406267095" lon="7.66415950135812"><ele>179.0</ele><time>2026-04-12T11:09:32.999Z</time></trkpt><trkpt lat="43.845236172008846" lon="7.664105295115033"><ele>179.0</ele><time>2026-04-12T11:09:33.999Z</time></trkpt><trkpt lat="43.84513614216359" lon="7.66408665010652"><ele>179.0</ele><time>2026-04-12T11:09:34.999Z</time></trkpt><trkpt lat="43.8450349732942" lon="7.664148086283821"><ele>179.0</ele><time>2026-04-12T11:09:35.998Z</time></trkpt><trkpt lat="43.84494764302388" lon="7.6642072133454064"><ele>177.5</ele><time>2026-04-12T11:09:36.998Z</time></trkpt><trkpt lat="43.84486237997234" lon="7.664217791018358"><ele>176.0</ele><time>2026-04-12T11:09:37.998Z</time></trkpt><trkpt lat="43.844785713350994" lon="7.664223900350048"><ele>174.5</ele><time>2026-04-12T11:09:38.998Z</time></trkpt><trkpt lat="43.844719632438476" lon="7.664164842931275"><ele>173.0</ele><time>2026-04-12T11:09:39.998Z</time></trkpt><trkpt lat="43.84463481313468" lon="7.664116742648721"><ele>171.5</ele><time>2026-04-12T11:09:40.998Z</time></trkpt><trkpt lat="43.84453375729778" lon="7.664046358323263"><ele>170.0</ele><time>2026-04-12T11:09:41.998Z</time></trkpt><trkpt lat="43.84441364236579" lon="7.663976345995287"><ele>167.75</ele><time>2026-04-12T11:09:42.998Z</time></trkpt><trkpt lat="43.8442910983321" lon="7.66392238429138"><ele>165.5</ele><time>2026-04-12T11:09:43.998Z</time></trkpt><trkpt lat="43.84416096167927" lon="7.66387445620287"><ele>163.25</ele><time>2026-04-12T11:09:44.998Z</time></trkpt><trkpt lat="43.8440386033275" lon="7.663834252633225"><ele>161.0</ele><time>2026-04-12T11:09:45.998Z</time></trkpt><trkpt lat="43.843919337837264" lon="7.6638022941370405"><ele>161.0</ele><time>2026-04-12T11:09:46.998Z</time></trkpt><trkpt lat="43.84380127597592" lon="7.66378585581535"><ele>161.0</ele><time>2026-04-12T11:09:47.998Z</time></trkpt><trkpt lat="43.843682376337725" lon="7.663778926200404"><ele>161.0</ele><time>2026-04-12T11:09:48.998Z</time></trkpt><trkpt lat="43.84355663474705" lon="7.663797838953133"><ele>161.0</ele><time>2026-04-12T11:09:49.998Z</time></trkpt><trkpt lat="43.843435248120336" lon="7.663821911457595"><ele>159.0</ele><time>2026-04-12T11:09:50.998Z</time></trkpt><trkpt lat="43.84331710217116" lon="7.66384449650511"><ele>157.0</ele><time>2026-04-12T11:09:51.998Z</time></trkpt><trkpt lat="43.84320514811579" lon="7.663861479616231"><ele>155.0</ele><time>2026-04-12T11:09:52.998Z</time></trkpt><trkpt lat="43.84309551555269" lon="7.663873168204617"><ele>153.0</ele><time>2026-04-12T11:09:53.998Z</time></trkpt><trkpt lat="43.84298770763807" lon="7.6638780603427525"><ele>153.0</ele><time>2026-04-12T11:09:54.998Z</time></trkpt><trkpt lat="43.842878749557265" lon="7.663872530826963"><ele>153.0</ele><time>2026-04-12T11:09:55.998Z</time></trkpt><trkpt lat="43.842786522846794" lon="7.663836428789656"><ele>153.0</ele><time>2026-04-12T11:09:56.998Z</time></trkpt><trkpt lat="43.842687656629174" lon="7.663793880402536"><ele>153.0</ele><time>2026-04-12T11:09:57.998Z</time></trkpt><trkpt lat="43.84258513532245" lon="7.663745924234477"><ele>153.0</ele><time>2026-04-12T11:09:58.998Z</time></trkpt><trkpt lat="43.842466579054644" lon="7.663688011244115"><ele>151.5</ele><time>2026-04-12T11:09:59.998Z</time></trkpt><trkpt lat="43.84234106671075" lon="7.663629721547563"><ele>150.0</ele><time>2026-04-12T11:10:00.998Z</time></trkpt><trkpt lat="43.842208839233166" lon="7.663571603791948"><ele>148.5</ele><time>2026-04-12T11:10:01.998Z</time></trkpt><trkpt lat="43.84208455516672" lon="7.663517197165572"><ele>147.0</ele><time>2026-04-12T11:10:02.998Z</time></trkpt><trkpt lat="43.841968139054856" lon="7.663464045905853"><ele>146.75</ele><time>2026-04-12T11:10:03.998Z</time></trkpt><trkpt lat="43.84185873126939" lon="7.663403343298759"><ele>146.5</ele><time>2026-04-12T11:10:04.998Z</time></trkpt><trkpt lat="43.84174959928256" lon="7.663332718054251"><ele>146.25</ele><time>2026-04-12T11:10:05.998Z</time></trkpt><trkpt lat="43.84164070904601" lon="7.663257700188299"><ele>146.0</ele><time>2026-04-12T11:10:06.998Z</time></trkpt><trkpt lat="43.841547619923915" lon="7.663191492015558"><ele>146.0</ele><time>2026-04-12T11:10:07.998Z</time></trkpt><trkpt lat="43.841474163344294" lon="7.663138075593612"><ele>146.0</ele><time>2026-04-12T11:10:08.998Z</time></trkpt><trkpt lat="43.84140622992953" lon="7.663088042388819"><ele>146.0</ele><time>2026-04-12T11:10:09.998Z</time></trkpt><trkpt lat="43.84133751111446" lon="7.663042221880847"><ele>146.0</ele><time>2026-04-12T11:10:10.998Z</time></trkpt><trkpt lat="43.84126836343963" lon="7.663003475508933"><ele>146.0</ele><time>2026-04-12T11:10:11.998Z</time></trkpt><trkpt lat="43.841196101525874" lon="7.662998407974349"><ele>146.0</ele><time>2026-04-12T11:10:12.998Z</time></trkpt><trkpt lat="43.84113550399599" lon="7.6630605054910665"><ele>146.0</ele><time>2026-04-12T11:10:14Z</time></trkpt><trkpt lat="43.84107535633891" lon="7.663131527401269"><ele>146.0</ele><time>2026-04-12T11:10:15Z</time></trkpt><trkpt lat="43.84099078341952" lon="7.663178481667617"><ele>146.0</ele><time>2026-04-12T11:10:16Z</time></trkpt><trkpt lat="43.840907510967746" lon="7.663214315334207"><ele>146.0</ele><time>2026-04-12T11:10:17Z</time></trkpt><trkpt lat="43.840828373992544" lon="7.663215439973852"><ele>146.0</ele><time>2026-04-12T11:10:18Z</time></trkpt><trkpt lat="43.840749231147115" lon="7.663206004336447"><ele>146.0</ele><time>2026-04-12T11:10:19Z</time></trkpt><trkpt lat="43.84067771381185" lon="7.663169458757101"><ele>144.6</ele><time>2026-04-12T11:10:20Z</time></trkpt><trkpt lat="43.840611876479386" lon="7.663110911755738"><ele>143.2</ele><time>2026-04-12T11:10:21Z</time></trkpt><trkpt lat="43.84054561282995" lon="7.663023784659064"><ele>141.8</ele><time>2026-04-12T11:10:22Z</time></trkpt><trkpt lat="43.8404826667676" lon="7.662909864950247"><ele>140.4</ele><time>2026-04-12T11:10:23Z</time></trkpt><trkpt lat="43.84041833988541" lon="7.662787921126098"><ele>139.0</ele><time>2026-04-12T11:10:24Z</time></trkpt><trkpt lat="43.84035756930648" lon="7.662671106620993"><ele>138.6</ele><time>2026-04-12T11:10:25Z</time></trkpt><trkpt lat="43.840300364340784" lon="7.662558240100666"><ele>138.2</ele><time>2026-04-12T11:10:26Z</time></trkpt><trkpt lat="43.84023111108125" lon="7.6624387731393755"><ele>137.79999999999998</ele><time>2026-04-12T11:10:27Z</time></trkpt><trkpt lat="43.840148305682554" lon="7.662333588532247"><ele>137.4</ele><time>2026-04-12T11:10:28Z</time></trkpt><trkpt lat="43.840048726184186" lon="7.662239602971272"><ele>137.0</ele><time>2026-04-12T11:10:29Z</time></trkpt><trkpt lat="43.839950304138426" lon="7.662141340429905"><ele>137.0</ele><time>2026-04-12T11:10:30Z</time></trkpt><trkpt lat="43.83985485957908" lon="7.662043288695459"><ele>137.0</ele><time>2026-04-12T11:10:31Z</time></trkpt><trkpt lat="43.839765109838595" lon="7.661947391834346"><ele>137.0</ele><time>2026-04-12T11:10:32Z</time></trkpt><trkpt lat="43.839661110602655" lon="7.661859322778364"><ele>137.0</ele><time>2026-04-12T11:10:33Z</time></trkpt><trkpt lat="43.839542360743884" lon="7.661805944334589"><ele>136.75</ele><time>2026-04-12T11:10:34Z</time></trkpt><trkpt lat="43.83941365327483" lon="7.661786757137727"><ele>136.5</ele><time>2026-04-12T11:10:35Z</time></trkpt><trkpt lat="43.839283069164544" lon="7.661765527840775"><ele>136.25</ele><time>2026-04-12T11:10:36Z</time></trkpt><trkpt lat="43.83915423776734" lon="7.661739222370646"><ele>136.0</ele><time>2026-04-12T11:10:37Z</time></trkpt><trkpt lat="43.83903466663772" lon="7.661705015566725"><ele>136.0</ele><time>2026-04-12T11:10:38Z</time></trkpt><trkpt lat="43.83892542774467" lon="7.661643415762617"><ele>136.0</ele><time>2026-04-12T11:10:39Z</time></trkpt><trkpt lat="43.83881921839291" lon="7.661567996257295"><ele>136.0</ele><time>2026-04-12T11:10:40Z</time></trkpt><trkpt lat="43.838713065941974" lon="7.661485838182541"><ele>136.0</ele><time>2026-04-12T11:10:41Z</time></trkpt><trkpt lat="43.83858589052968" lon="7.661420943211176"><ele>132.5</ele><time>2026-04-12T11:10:42Z</time></trkpt><trkpt lat="43.83845264253677" lon="7.66138827375885"><ele>129.0</ele><time>2026-04-12T11:10:43Z</time></trkpt><trkpt lat="43.838307801347085" lon="7.661389851173285"><ele>125.5</ele><time>2026-04-12T11:10:44Z</time></trkpt><trkpt lat="43.83815292041596" lon="7.661405818942631"><ele>122.0</ele><time>2026-04-12T11:10:45Z</time></trkpt><trkpt lat="43.837996753530454" lon="7.661434318481584"><ele>122.0</ele><time>2026-04-12T11:10:46Z</time></trkpt><trkpt lat="43.83784559611432" lon="7.661465150930075"><ele>122.0</ele><time>2026-04-12T11:10:47Z</time></trkpt><trkpt lat="43.837705953941324" lon="7.661488481217229"><ele>122.0</ele><time>2026-04-12T11:10:48Z</time></trkpt><trkpt lat="43.83756754889352" lon="7.661501762946035"><ele>122.0</ele><time>2026-04-12T11:10:49Z</time></trkpt><trkpt lat="43.83742258613313" lon="7.661506396598159"><ele>122.25</ele><time>2026-04-12T11:10:50Z</time></trkpt><trkpt lat="43.837278909608884" lon="7.661502920248187"><ele>122.5</ele><time>2026-04-12T11:10:51Z</time></trkpt><trkpt lat="43.83713894658133" lon="7.661496204307367"><ele>122.75</ele><time>2026-04-12T11:10:52Z</time></trkpt><trkpt lat="43.83699573896141" lon="7.661489332681374"><ele>123.0</ele><time>2026-04-12T11:10:53Z</time></trkpt><trkpt lat="43.836853360302065" lon="7.661480150729816"><ele>122.25</ele><time>2026-04-12T11:10:54Z</time></trkpt><trkpt lat="43.83670839385381" lon="7.661463141812827"><ele>121.5</ele><time>2026-04-12T11:10:55Z</time></trkpt><trkpt lat="43.83656107204919" lon="7.661443332558931"><ele>120.75</ele><time>2026-04-12T11:10:56Z</time></trkpt><trkpt lat="43.83641227110012" lon="7.661432491362985"><ele>120.0</ele><time>2026-04-12T11:10:57Z</time></trkpt><trkpt lat="43.83625544792485" lon="7.661454742815806"><ele>120.0</ele><time>2026-04-12T11:10:58Z</time></trkpt><trkpt lat="43.8360892272006" lon="7.661487357110819"><ele>120.0</ele><time>2026-04-12T11:10:58.999Z</time></trkpt><trkpt lat="43.835926227138415" lon="7.661519339477727"><ele>120.0</ele><time>2026-04-12T11:10:59.999Z</time></trkpt><trkpt lat="43.83577570167987" lon="7.661548874233888"><ele>120.0</ele><time>2026-04-12T11:11:00.999Z</time></trkpt><trkpt lat="43.83563071926443" lon="7.661574942246028"><ele>120.0</ele><time>2026-04-12T11:11:01.999Z</time></trkpt><trkpt lat="43.835488459317425" lon="7.661601168876926"><ele>120.0</ele><time>2026-04-12T11:11:02.999Z</time></trkpt><trkpt lat="43.835352567574596" lon="7.661624949613188"><ele>120.0</ele><time>2026-04-12T11:11:03.999Z</time></trkpt><trkpt lat="43.83522124244327" lon="7.661637488650216"><ele>117.75</ele><time>2026-04-12T11:11:04.999Z</time></trkpt><trkpt lat="43.835091603903095" lon="7.661645963235011"><ele>115.5</ele><time>2026-04-12T11:11:05.999Z</time></trkpt><trkpt lat="43.83496568159886" lon="7.661656050538661"><ele>113.25</ele><time>2026-04-12T11:11:06.999Z</time></trkpt><trkpt lat="43.834845203317386" lon="7.661666549677907"><ele>111.0</ele><time>2026-04-12T11:11:07.999Z</time></trkpt><trkpt lat="43.83472823692749" lon="7.661674145939293"><ele>111.0</ele><time>2026-04-12T11:11:08.999Z</time></trkpt><trkpt lat="43.83462162657434" lon="7.6616607883279855"><ele>111.0</ele><time>2026-04-12T11:11:09.999Z</time></trkpt><trkpt lat="43.834512274128514" lon="7.661622420468821"><ele>111.0</ele><time>2026-04-12T11:11:10.999Z</time></trkpt><trkpt lat="43.834398072958244" lon="7.661575147345109"><ele>111.0</ele><time>2026-04-12T11:11:11.999Z</time></trkpt><trkpt lat="43.83428147929601" lon="7.661527797044596"><ele>110.19999999999999</ele><time>2026-04-12T11:11:12.999Z</time></trkpt><trkpt lat="43.83416628591305" lon="7.661481016092006"><ele>109.39999999999999</ele><time>2026-04-12T11:11:13.999Z</time></trkpt><trkpt lat="43.834058603601456" lon="7.66143162574669"><ele>108.6</ele><time>2026-04-12T11:11:14.999Z</time></trkpt><trkpt lat="43.83395701236296" lon="7.661383487329714"><ele>107.8</ele><time>2026-04-12T11:11:15.999Z</time></trkpt><trkpt lat="43.833862750817815" lon="7.661334488995897"><ele>107.0</ele><time>2026-04-12T11:11:16.999Z</time></trkpt><trkpt lat="43.83377279400631" lon="7.661278863044652"><ele>107.0</ele><time>2026-04-12T11:11:17.999Z</time></trkpt><trkpt lat="43.83368524088825" lon="7.661204484078264"><ele>107.0</ele><time>2026-04-12T11:11:18.999Z</time></trkpt><trkpt lat="43.8336117356154" lon="7.661094543060886"><ele>107.0</ele><time>2026-04-12T11:11:19.999Z</time></trkpt><trkpt lat="43.833523547003736" lon="7.660963835577404"><ele>107.0</ele><time>2026-04-12T11:11:20.999Z</time></trkpt><trkpt lat="43.83343175885221" lon="7.660827793325928"><ele>107.25</ele><time>2026-04-12T11:11:21.999Z</time></trkpt><trkpt lat="43.83333382530971" lon="7.660682642845493"><ele>107.5</ele><time>2026-04-12T11:11:22.999Z</time></trkpt><trkpt lat="43.83323178245494" lon="7.6605324516426645"><ele>107.75</ele><time>2026-04-12T11:11:23.999Z</time></trkpt><trkpt lat="43.83313187699848" lon="7.6603866361904664"><ele>108.0</ele><time>2026-04-12T11:11:24.999Z</time></trkpt><trkpt lat="43.83303430897843" lon="7.660244232471341"><ele>110.75</ele><time>2026-04-12T11:11:25.999Z</time></trkpt><trkpt lat="43.83294217036097" lon="7.660109576256473"><ele>113.5</ele><time>2026-04-12T11:11:26.999Z</time></trkpt><trkpt lat="43.832860719093865" lon="7.659988364440116"><ele>116.25</ele><time>2026-04-12T11:11:27.999Z</time></trkpt><trkpt lat="43.83278216552448" lon="7.659877660615495"><ele>119.0</ele><time>2026-04-12T11:11:28.999Z</time></trkpt><trkpt lat="43.832697591418324" lon="7.659779362629002"><ele>116.0</ele><time>2026-04-12T11:11:29.999Z</time></trkpt><trkpt lat="43.832600156715884" lon="7.6597024994090805"><ele>113.0</ele><time>2026-04-12T11:11:30.999Z</time></trkpt><trkpt lat="43.832488534096356" lon="7.6596624817610675"><ele>110.0</ele><time>2026-04-12T11:11:31.999Z</time></trkpt><trkpt lat="43.83237011035299" lon="7.659652188116453"><ele>107.0</ele><time>2026-04-12T11:11:32.999Z</time></trkpt><trkpt lat="43.832271598268235" lon="7.659635398033374"><ele>104.0</ele><time>2026-04-12T11:11:33.999Z</time></trkpt><trkpt lat="43.83219924249233" lon="7.659610433122285"><ele>103.99999999999999</ele><time>2026-04-12T11:11:34.999Z</time></trkpt><trkpt lat="43.83213396219365" lon="7.659564283889897"><ele>104.0</ele><time>2026-04-12T11:11:35.999Z</time></trkpt><trkpt lat="43.83208250718088" lon="7.659482786781563"><ele>104.0</ele><time>2026-04-12T11:11:36.999Z</time></trkpt><trkpt lat="43.83203792640845" lon="7.659384198027023"><ele>104.0</ele><time>2026-04-12T11:11:37.999Z</time></trkpt><trkpt lat="43.831993991210645" lon="7.659267878690817"><ele>103.99999999999999</ele><time>2026-04-12T11:11:38.999Z</time></trkpt><trkpt lat="43.831953401935856" lon="7.659141888910299"><ele>104.0</ele><time>2026-04-12T11:11:39.999Z</time></trkpt><trkpt lat="43.83191168506122" lon="7.65899946264962"><ele>104.80000000000001</ele><time>2026-04-12T11:11:40.998Z</time></trkpt><trkpt lat="43.8318733648849" lon="7.658863896652336"><ele>105.60000000000001</ele><time>2026-04-12T11:11:41.998Z</time></trkpt><trkpt lat="43.83183782811583" lon="7.6587319780184195"><ele>106.4</ele><time>2026-04-12T11:11:42.998Z</time></trkpt><trkpt lat="43.83180322394942" lon="7.658607585630386"><ele>107.2</ele><time>2026-04-12T11:11:43.998Z</time></trkpt><trkpt lat="43.83176303218325" lon="7.658488574124682"><ele>108.0</ele><time>2026-04-12T11:11:44.998Z</time></trkpt><trkpt lat="43.831680104840096" lon="7.658376297260836"><ele>108.0</ele><time>2026-04-12T11:11:45.998Z</time></trkpt><trkpt lat="43.83158443110953" lon="7.65830923548684"><ele>108.00000000000001</ele><time>2026-04-12T11:11:46.998Z</time></trkpt><trkpt lat="43.83148357995263" lon="7.658256217356214"><ele>108.00000000000001</ele><time>2026-04-12T11:11:47.998Z</time></trkpt><trkpt lat="43.831385151269366" lon="7.658222889680057"><ele>108.0</ele><time>2026-04-12T11:11:48.998Z</time></trkpt><trkpt lat="43.83126922454382" lon="7.658231505086207"><ele>108.0</ele><time>2026-04-12T11:11:49.998Z</time></trkpt><trkpt lat="43.831160255152874" lon="7.658246635674436"><ele>108.0</ele><time>2026-04-12T11:11:50.998Z</time></trkpt><trkpt lat="43.831059149268086" lon="7.6582599156313"><ele>108.00000000000001</ele><time>2026-04-12T11:11:51.998Z</time></trkpt><trkpt lat="43.830957859174426" lon="7.658263198360867"><ele>108.00000000000001</ele><time>2026-04-12T11:11:52.998Z</time></trkpt><trkpt lat="43.83085209166755" lon="7.658263198359894"><ele>108.0</ele><time>2026-04-12T11:11:53.998Z</time></trkpt><trkpt lat="43.83074959932025" lon="7.658240132512057"><ele>108.0</ele><time>2026-04-12T11:11:54.998Z</time></trkpt><trkpt lat="43.83064178693308" lon="7.658207975995049"><ele>106.2</ele><time>2026-04-12T11:11:55.998Z</time></trkpt><trkpt lat="43.83052968385845" lon="7.658170018697844"><ele>104.4</ele><time>2026-04-12T11:11:56.998Z</time></trkpt><trkpt lat="43.830426965890254" lon="7.658128937694315"><ele>102.60000000000001</ele><time>2026-04-12T11:11:57.998Z</time></trkpt><trkpt lat="43.83033870588388" lon="7.6580903118584684"><ele>100.80000000000001</ele><time>2026-04-12T11:11:58.998Z</time></trkpt><trkpt lat="43.830256345983315" lon="7.658052821409676"><ele>99.0</ele><time>2026-04-12T11:11:59.998Z</time></trkpt><trkpt lat="43.8301854429416" lon="7.658014124463353"><ele>99.66666666666667</ele><time>2026-04-12T11:12:00.998Z</time></trkpt><trkpt lat="43.830124926258435" lon="7.657960541052582"><ele>100.33333333333334</ele><time>2026-04-12T11:12:01.998Z</time></trkpt><trkpt lat="43.83008825645575" lon="7.657879299529118"><ele>101.0</ele><time>2026-04-12T11:12:02.998Z</time></trkpt><trkpt lat="43.83005766508781" lon="7.657779185573274"><ele>101.66666666666667</ele><time>2026-04-12T11:12:03.998Z</time></trkpt><trkpt lat="43.83005952967802" lon="7.657682097612333"><ele>102.33333333333334</ele><time>2026-04-12T11:12:04.998Z</time></trkpt><trkpt lat="43.83007463080234" lon="7.657567231573708"><ele>103.0</ele><time>2026-04-12T11:12:05.998Z</time></trkpt><trkpt lat="43.83009649457691" lon="7.657446476867221"><ele>104.00000000000001</ele><time>2026-04-12T11:12:06.998Z</time></trkpt><trkpt lat="43.830108424593995" lon="7.657323266419356"><ele>105.0</ele><time>2026-04-12T11:12:07.998Z</time></trkpt><trkpt lat="43.83012721666315" lon="7.657217376182318"><ele>106.0</ele><time>2026-04-12T11:12:08.998Z</time></trkpt><trkpt lat="43.83015897326531" lon="7.657105696958561"><ele>107.0</ele><time>2026-04-12T11:12:09.998Z</time></trkpt><trkpt lat="43.83018639718469" lon="7.656982704792394"><ele>108.00000000000001</ele><time>2026-04-12T11:12:10.998Z</time></trkpt><trkpt lat="43.83020245506927" lon="7.656871486929101"><ele>109.0</ele><time>2026-04-12T11:12:11.998Z</time></trkpt><trkpt lat="43.830232558742345" lon="7.65676732924294"><ele>111.2</ele><time>2026-04-12T11:12:12.998Z</time></trkpt><trkpt lat="43.830211587529234" lon="7.656643149416829"><ele>113.4</ele><time>2026-04-12T11:12:13.998Z</time></trkpt><trkpt lat="43.83016716717174" lon="7.6565250124718744"><ele>115.6</ele><time>2026-04-12T11:12:14.998Z</time></trkpt><trkpt lat="43.830106730552394" lon="7.656439252325643"><ele>117.8</ele><time>2026-04-12T11:12:15.998Z</time></trkpt><trkpt lat="43.83003979602008" lon="7.656374492305585"><ele>120.0</ele><time>2026-04-12T11:12:16.998Z</time></trkpt><trkpt lat="43.829945197845596" lon="7.656298499205188"><ele>118.0</ele><time>2026-04-12T11:12:18.998Z</time></trkpt><trkpt lat="43.82984444656211" lon="7.656269630052209"><ele>116.0</ele><time>2026-04-12T11:12:21Z</time></trkpt><trkpt lat="43.82970860587717" lon="7.656286023702045"><ele>114.0</ele><time>2026-04-12T11:12:23Z</time></trkpt><trkpt lat="43.829601807346776" lon="7.656230817890071"><ele>112.0</ele><time>2026-04-12T11:12:25Z</time></trkpt><trkpt lat="43.82955061735409" lon="7.656097418887506"><ele>112.0</ele><time>2026-04-12T11:12:27Z</time></trkpt><trkpt lat="43.82958654159916" lon="7.655969868235241"><ele>111.99999999999999</ele><time>2026-04-12T11:12:28Z</time></trkpt><trkpt lat="43.82957722938419" lon="7.655851945267295"><ele>111.99999999999999</ele><time>2026-04-12T11:12:29Z</time></trkpt><trkpt lat="43.82957144976031" lon="7.655684028158301"><ele>112.0</ele><time>2026-04-12T11:12:30Z</time></trkpt><trkpt lat="43.82957016760676" lon="7.655504788830633"><ele>112.0</ele><time>2026-04-12T11:12:31Z</time></trkpt><trkpt lat="43.82956855422259" lon="7.6553043085982955"><ele>115.39999999999999</ele><time>2026-04-12T11:12:32Z</time></trkpt><trkpt lat="43.82955423803539" lon="7.655117656006399"><ele>118.79999999999998</ele><time>2026-04-12T11:12:33Z</time></trkpt><trkpt lat="43.82952991150604" lon="7.6549599860143545"><ele>122.2</ele><time>2026-04-12T11:12:34Z</time></trkpt><trkpt lat="43.829502652625855" lon="7.654820422678942"><ele>125.6</ele><time>2026-04-12T11:12:35Z</time></trkpt><trkpt lat="43.829473910366886" lon="7.65469931041848"><ele>129.0</ele><time>2026-04-12T11:12:36Z</time></trkpt><trkpt lat="43.82944532212468" lon="7.654588851166679"><ele>129.0</ele><time>2026-04-12T11:12:37Z</time></trkpt><trkpt lat="43.829394084357965" lon="7.654478246959515"><ele>129.0</ele><time>2026-04-12T11:12:38Z</time></trkpt><trkpt lat="43.82933132396918" lon="7.654387290004901"><ele>129.0</ele><time>2026-04-12T11:12:39Z</time></trkpt><trkpt lat="43.82928264327884" lon="7.654323982545234"><ele>129.0</ele><time>2026-04-12T11:12:40Z</time></trkpt><trkpt lat="43.8292291954335" lon="7.654224161229539"><ele>129.0</ele><time>2026-04-12T11:12:42Z</time></trkpt><trkpt lat="43.829237255399505" lon="7.654089979159098"><ele>129.0</ele><time>2026-04-12T11:12:44Z</time></trkpt><trkpt lat="43.829261679124635" lon="7.653977175973201"><ele>125.6</ele><time>2026-04-12T11:12:45Z</time></trkpt><trkpt lat="43.82926787845562" lon="7.6538243799640995"><ele>122.2</ele><time>2026-04-12T11:12:46Z</time></trkpt><trkpt lat="43.8292877493485" lon="7.653694740296563"><ele>118.79999999999998</ele><time>2026-04-12T11:12:47Z</time></trkpt><trkpt lat="43.829301878698246" lon="7.653572085411934"><ele>115.39999999999999</ele><time>2026-04-12T11:12:48Z</time></trkpt><trkpt lat="43.82929399592128" lon="7.653461781832483"><ele>112.0</ele><time>2026-04-12T11:12:49Z</time></trkpt><trkpt lat="43.82929986153568" lon="7.653335183056747"><ele>112.00000000000001</ele><time>2026-04-12T11:12:50Z</time></trkpt><trkpt lat="43.82925684828485" lon="7.653239631137721"><ele>112.0</ele><time>2026-04-12T11:12:51Z</time></trkpt><trkpt lat="43.82922263411059" lon="7.65316388929114"><ele>112.0</ele><time>2026-04-12T11:12:52Z</time></trkpt><trkpt lat="43.82920828205571" lon="7.653041316921685"><ele>112.0</ele><time>2026-04-12T11:12:55Z</time></trkpt><trkpt lat="43.82930681003704" lon="7.652984554824858"><ele>112.00000000000001</ele><time>2026-04-12T11:12:57Z</time></trkpt><trkpt lat="43.829375844834026" lon="7.652986753815245"><ele>112.0</ele><time>2026-04-12T11:12:58Z</time></trkpt><trkpt lat="43.829467226134966" lon="7.652900151366048"><ele>114.83333333333334</ele><time>2026-04-12T11:13:00Z</time></trkpt><trkpt lat="43.829504356693974" lon="7.652816979766439"><ele>117.66666666666667</ele><time>2026-04-12T11:13:01Z</time></trkpt><trkpt lat="43.82951864541764" lon="7.652720997928343"><ele>120.5</ele><time>2026-04-12T11:13:01.999Z</time></trkpt><trkpt lat="43.82953890536906" lon="7.652613503603142"><ele>123.33333333333334</ele><time>2026-04-12T11:13:03.999Z</time></trkpt><trkpt lat="43.82963462962117" lon="7.6525349758794485"><ele>126.16666666666667</ele><time>2026-04-12T11:13:05.999Z</time></trkpt><trkpt lat="43.82971826232737" lon="7.65251836507431"><ele>129.0</ele><time>2026-04-12T11:13:06.999Z</time></trkpt><trkpt lat="43.82981622990579" lon="7.652462769959644"><ele>129.2</ele><time>2026-04-12T11:13:08.999Z</time></trkpt><trkpt lat="43.82994236042296" lon="7.65250662196333"><ele>129.4</ele><time>2026-04-12T11:13:10.999Z</time></trkpt><trkpt lat="43.830030580857745" lon="7.652576963810106"><ele>129.6</ele><time>2026-04-12T11:13:11.999Z</time></trkpt><trkpt lat="43.83010930576132" lon="7.652634918016549"><ele>129.8</ele><time>2026-04-12T11:13:12.999Z</time></trkpt><trkpt lat="43.8301755662533" lon="7.6526898298826485"><ele>130.0</ele><time>2026-04-12T11:13:13.999Z</time></trkpt><trkpt lat="43.830217705473025" lon="7.652760014467946"><ele>129.83333333333334</ele><time>2026-04-12T11:13:14.999Z</time></trkpt><trkpt lat="43.83023197725897" lon="7.652848089552109"><ele>129.66666666666669</ele><time>2026-04-12T11:13:15.999Z</time></trkpt><trkpt lat="43.8302219584158" lon="7.652935441925025"><ele>129.5</ele><time>2026-04-12T11:13:16.999Z</time></trkpt><trkpt lat="43.830174811831355" lon="7.652998741051751"><ele>129.33333333333334</ele><time>2026-04-12T11:13:17.999Z</time></trkpt><trkpt lat="43.83005604546979" lon="7.653091036093405"><ele>129.16666666666666</ele><time>2026-04-12T11:13:19.999Z</time></trkpt><trkpt lat="43.82997411160951" lon="7.653162635585299"><ele>129.0</ele><time>2026-04-12T11:13:20.999Z</time></trkpt><trkpt lat="43.82989764249383" lon="7.653232830597668"><ele>129.0</ele><time>2026-04-12T11:13:21.999Z</time></trkpt><trkpt lat="43.82983958813712" lon="7.65333288694434"><ele>129.0</ele><time>2026-04-12T11:13:22.999Z</time></trkpt><trkpt lat="43.829789676415686" lon="7.653425973674357"><ele>129.0</ele><time>2026-04-12T11:13:23.999Z</time></trkpt><trkpt lat="43.829755867124625" lon="7.653516819611065"><ele>129.0</ele><time>2026-04-12T11:13:24.999Z</time></trkpt><trkpt lat="43.82974711420354" lon="7.653646345023995"><ele>132.0</ele><time>2026-04-12T11:13:26.999Z</time></trkpt><trkpt lat="43.82977773055571" lon="7.653724939913355"><ele>132.0</ele><time>2026-04-12T11:13:28.999Z</time></trkpt></trkseg></trk></gpx>